Wetterdaten: Donnerstag, 28.06.2018
Datum Zeit Temp. A. Pool Temp. Feuchte A. Luftdruck Regen Wind Richtung Richtung Sonnenschein ET UV Solar Taupunkt Windchill Windben Empfang
28.06.2018 00:00 13,7 C 21,7 C 95 % 1019,1 hPa 0,2 l/m 3,4 km/h (1 Bft) SW 234 0 min 0,000 mm 0,0 UV-I 0 W/m 12,9 C 13,7 C 4,8 km/h (1 Bft) 100,00 %
28.06.2018 00:02 13,7 C 21,7 C 95 % 1019,1 hPa 0,0 l/m 4,8 km/h (1 Bft) SW 233 0 min 0,000 mm 0,0 UV-I 0 W/m 12,9 C 13,7 C 4,8 km/h (1 Bft) 5,26 %
28.06.2018 00:03 13,6 C 21,7 C 95 % 1019,0 hPa 0,0 l/m 4,7 km/h (1 Bft) W-SW 254 0 min 0,000 mm 0,0 UV-I 0 W/m 12,8 C 13,6 C 8,0 km/h (2 Bft) 90,48 %
28.06.2018 00:04 13,6 C 21,7 C 95 % 1019,0 hPa 0,0 l/m 6,3 km/h (2 Bft) W-SW 256 0 min 0,000 mm 0,0 UV-I 0 W/m 12,8 C 13,6 C 12,9 km/h (3 Bft) 100,00 %
28.06.2018 00:05 13,6 C 21,7 C 95 % 1019,0 hPa 0,0 l/m 8,6 km/h (2 Bft) W 268 0 min 0,000 mm 0,0 UV-I 0 W/m 12,8 C 12,3 C 12,9 km/h (3 Bft) 95,83 %
28.06.2018 00:06 13,6 C 21,7 C 95 % 1019,0 hPa 0,0 l/m 8,3 km/h (2 Bft) W-SW 241 0 min 0,000 mm 0,0 UV-I 0 W/m 12,8 C 12,5 C 12,9 km/h (3 Bft) 100,00 %
28.06.2018 00:07 13,6 C 21,7 C 95 % 1019,0 hPa 0,0 l/m 8,3 km/h (2 Bft) W-NW 285 0 min 0,000 mm 0,0 UV-I 0 W/m 12,8 C 12,5 C 11,3 km/h (2 Bft) 100,00 %
28.06.2018 00:08 13,6 C 21,7 C 95 % 1019,0 hPa 0,0 l/m 9,1 km/h (2 Bft) W-SW 254 0 min 0,000 mm 0,0 UV-I 0 W/m 12,8 C 12,0 C 11,3 km/h (2 Bft) 100,00 %
28.06.2018 00:09 13,6 C 21,7 C 95 % 1019,0 hPa 0,0 l/m 6,0 km/h (2 Bft) W 268 0 min 0,000 mm 0,0 UV-I 0 W/m 12,8 C 13,6 C 11,3 km/h (2 Bft) 100,00 %
28.06.2018 00:10 13,6 C 21,7 C 95 % 1019,0 hPa 0,0 l/m 6,6 km/h (2 Bft) W 265 0 min 0,000 mm 0,0 UV-I 0 W/m 12,8 C 13,5 C 9,7 km/h (2 Bft) 100,00 %
28.06.2018 00:11 13,6 C 21,7 C 95 % 1018,9 hPa 0,0 l/m 7,6 km/h (2 Bft) W 261 0 min 0,000 mm 0,0 UV-I 0 W/m 12,8 C 12,9 C 11,3 km/h (2 Bft) 100,00 %
28.06.2018 00:12 13,6 C 21,7 C 95 % 1018,9 hPa 0,0 l/m 6,9 km/h (2 Bft) W 268 0 min 0,000 mm 0,0 UV-I 0 W/m 12,8 C 13,3 C 11,3 km/h (2 Bft) 100,00 %
28.06.2018 00:13 13,6 C 21,7 C 95 % 1018,9 hPa 0,0 l/m 7,6 km/h (2 Bft) W 265 0 min 0,000 mm 0,0 UV-I 0 W/m 12,8 C 12,9 C 11,3 km/h (2 Bft) 100,00 %
28.06.2018 00:14 13,6 C 21,7 C 95 % 1018,9 hPa 0,0 l/m 4,8 km/h (1 Bft) W-SW 251 0 min 0,000 mm 0,0 UV-I 0 W/m 12,8 C 13,6 C 6,4 km/h (2 Bft) 100,00 %
28.06.2018 00:15 13,6 C 21,7 C 95 % 1019,0 hPa 0,0 l/m 3,3 km/h (1 Bft) W 259 0 min 0,000 mm 0,0 UV-I 0 W/m 12,8 C 13,6 C 6,4 km/h (2 Bft) 95,65 %
28.06.2018 00:16 13,6 C 21,7 C 95 % 1019,0 hPa 0,0 l/m 4,5 km/h (1 Bft) W 261 0 min 0,000 mm 0,0 UV-I 0 W/m 12,8 C 13,6 C 6,4 km/h (2 Bft) 100,00 %
28.06.2018 00:17 13,6 C 21,7 C 95 % 1018,9 hPa 0,0 l/m 6,1 km/h (2 Bft) W-NW 290 0 min 0,000 mm 0,0 UV-I 0 W/m 12,8 C 13,6 C 11,3 km/h (2 Bft) 95,65 %
28.06.2018 00:18 13,6 C 21,7 C 95 % 1018,9 hPa 0,0 l/m 8,0 km/h (2 Bft) W 266 0 min 0,000 mm 0,0 UV-I 0 W/m 12,8 C 12,6 C 11,3 km/h (2 Bft) 95,83 %
28.06.2018 00:19 13,6 C 21,7 C 95 % 1018,9 hPa 0,0 l/m 7,9 km/h (2 Bft) W 270 0 min 0,000 mm 0,0 UV-I 0 W/m 12,8 C 12,7 C 11,3 km/h (2 Bft) 100,00 %
28.06.2018 00:20 13,6 C 21,7 C 95 % 1018,9 hPa 0,0 l/m 6,0 km/h (2 Bft) W-NW 293 0 min 0,000 mm 0,0 UV-I 0 W/m 12,8 C 13,6 C 6,4 km/h (2 Bft) 95,83 %
28.06.2018 00:21 13,6 C 21,7 C 95 % 1018,9 hPa 0,0 l/m 9,2 km/h (2 Bft) W 265 0 min 0,000 mm 0,0 UV-I 0 W/m 12,8 C 12,0 C 12,9 km/h (3 Bft) 100,00 %
28.06.2018 00:22 13,6 C 21,7 C 95 % 1018,9 hPa 0,0 l/m 9,0 km/h (2 Bft) W 280 0 min 0,000 mm 0,0 UV-I 0 W/m 12,8 C 12,1 C 14,5 km/h (3 Bft) 100,00 %
28.06.2018 00:23 13,6 C 21,7 C 95 % 1018,9 hPa 0,0 l/m 5,6 km/h (1 Bft) W 271 0 min 0,000 mm 0,0 UV-I 0 W/m 12,8 C 13,6 C 9,7 km/h (2 Bft) 95,65 %
28.06.2018 00:24 13,6 C 21,7 C 95 % 1018,9 hPa 0,0 l/m 6,3 km/h (2 Bft) W 259 0 min 0,000 mm 0,0 UV-I 0 W/m 12,8 C 13,6 C 11,3 km/h (2 Bft) 100,00 %
28.06.2018 00:25 13,6 C 21,7 C 95 % 1018,9 hPa 0,0 l/m 7,0 km/h (2 Bft) W 271 0 min 0,000 mm 0,0 UV-I 0 W/m 12,8 C 13,2 C 12,9 km/h (3 Bft) 100,00 %
28.06.2018 00:26 13,5 C 21,7 C 95 % 1018,9 hPa 0,0 l/m 7,4 km/h (2 Bft) W-SW 253 0 min 0,000 mm 0,0 UV-I 0 W/m 12,7 C 12,9 C 11,3 km/h (2 Bft) 100,00 %
28.06.2018 00:27 13,6 C 21,7 C 95 % 1018,9 hPa 0,0 l/m 9,5 km/h (2 Bft) W-SW 255 0 min 0,000 mm 0,0 UV-I 0 W/m 12,8 C 11,8 C 12,9 km/h (3 Bft) 96,15 %
28.06.2018 00:28 13,6 C 21,7 C 95 % 1018,9 hPa 0,0 l/m 7,5 km/h (2 Bft) W-SW 254 0 min 0,000 mm 0,0 UV-I 0 W/m 12,8 C 12,9 C 11,3 km/h (2 Bft) 100,00 %
28.06.2018 00:29 13,6 C 21,7 C 95 % 1018,9 hPa 0,0 l/m 5,6 km/h (1 Bft) W 259 0 min 0,000 mm 0,0 UV-I 0 W/m 12,8 C 13,6 C 6,4 km/h (2 Bft) 100,00 %
28.06.2018 00:30 13,6 C 21,7 C 95 % 1018,9 hPa 0,0 l/m 5,5 km/h (1 Bft) W 265 0 min 0,000 mm 0,0 UV-I 0 W/m 12,8 C 13,6 C 6,4 km/h (2 Bft) 100,00 %
28.06.2018 00:31 13,6 C 21,7 C 95 % 1018,9 hPa 0,0 l/m 7,0 km/h (2 Bft) W-SW 256 0 min 0,000 mm 0,0 UV-I 0 W/m 12,8 C 13,2 C 9,7 km/h (2 Bft) 100,00 %
28.06.2018 00:32 13,5 C 21,7 C 95 % 1018,9 hPa 0,0 l/m 6,4 km/h (2 Bft) W-SW 251 0 min 0,000 mm 0,0 UV-I 0 W/m 12,7 C 13,5 C 11,3 km/h (2 Bft) 100,00 %
28.06.2018 00:33 13,6 C 21,7 C 95 % 1018,9 hPa 0,0 l/m 8,6 km/h (2 Bft) W 271 0 min 0,000 mm 0,0 UV-I 0 W/m 12,8 C 12,3 C 11,3 km/h (2 Bft) 100,00 %
28.06.2018 00:34 13,5 C 21,7 C 95 % 1018,9 hPa 0,0 l/m 9,7 km/h (2 Bft) W 268 0 min 0,000 mm 0,0 UV-I 0 W/m 12,7 C 11,6 C 12,9 km/h (3 Bft) 100,00 %
28.06.2018 00:35 13,5 C 21,7 C 95 % 1018,9 hPa 0,0 l/m 7,4 km/h (2 Bft) W-SW 252 0 min 0,000 mm 0,0 UV-I 0 W/m 12,7 C 12,9 C 11,3 km/h (2 Bft) 95,65 %
28.06.2018 00:36 13,5 C 21,7 C 95 % 1018,8 hPa 0,0 l/m 6,3 km/h (2 Bft) W 273 0 min 0,000 mm 0,0 UV-I 0 W/m 12,7 C 13,5 C 9,7 km/h (2 Bft) 100,00 %
28.06.2018 00:37 13,6 C 21,7 C 95 % 1018,9 hPa 0,0 l/m 5,4 km/h (1 Bft) W-SW 250 0 min 0,000 mm 0,0 UV-I 0 W/m 12,8 C 13,6 C 6,4 km/h (2 Bft) 100,00 %
28.06.2018 00:38 13,5 C 21,7 C 95 % 1018,8 hPa 0,0 l/m 6,2 km/h (2 Bft) W-SW 252 0 min 0,000 mm 0,0 UV-I 0 W/m 12,7 C 13,5 C 12,9 km/h (3 Bft) 95,65 %
28.06.2018 00:39 13,5 C 21,7 C 95 % 1018,8 hPa 0,0 l/m 9,4 km/h (2 Bft) W 277 0 min 0,000 mm 0,0 UV-I 0 W/m 12,7 C 11,8 C 12,9 km/h (3 Bft) 95,83 %
28.06.2018 00:40 13,5 C 21,7 C 95 % 1018,8 hPa 0,0 l/m 11,5 km/h (2 Bft) W 265 0 min 0,000 mm 0,0 UV-I 0 W/m 12,7 C 10,8 C 17,7 km/h (3 Bft) 100,00 %
28.06.2018 00:41 13,5 C 21,7 C 95 % 1018,8 hPa 0,0 l/m 9,6 km/h (2 Bft) W-SW 250 0 min 0,000 mm 0,0 UV-I 0 W/m 12,7 C 11,7 C 14,5 km/h (3 Bft) 100,00 %
28.06.2018 00:42 13,4 C 21,7 C 95 % 1018,8 hPa 0,0 l/m 6,5 km/h (2 Bft) W-SW 241 0 min 0,000 mm 0,0 UV-I 0 W/m 12,6 C 13,4 C 8,0 km/h (2 Bft) 100,00 %
28.06.2018 00:43 13,4 C 21,7 C 95 % 1018,8 hPa 0,0 l/m 10,3 km/h (2 Bft) W-SW 239 0 min 0,000 mm 0,0 UV-I 0 W/m 12,6 C 11,2 C 14,5 km/h (3 Bft) 100,00 %
28.06.2018 00:44 13,4 C 21,7 C 95 % 1018,8 hPa 0,0 l/m 4,2 km/h (1 Bft) W-NW 286 0 min 0,000 mm 0,0 UV-I 0 W/m 12,6 C 13,4 C 8,0 km/h (2 Bft) 100,00 %
28.06.2018 00:45 13,4 C 21,7 C 95 % 1018,8 hPa 0,0 l/m 7,8 km/h (2 Bft) SW 225 0 min 0,000 mm 0,0 UV-I 0 W/m 12,6 C 12,5 C 12,9 km/h (3 Bft) 100,00 %
28.06.2018 00:46 13,4 C 21,7 C 95 % 1018,8 hPa 0,0 l/m 7,7 km/h (2 Bft) W-SW 254 0 min 0,000 mm 0,0 UV-I 0 W/m 12,6 C 12,6 C 11,3 km/h (2 Bft) 100,00 %
28.06.2018 00:47 13,4 C 21,7 C 95 % 1018,7 hPa 0,0 l/m 5,1 km/h (1 Bft) W-SW 256 0 min 0,000 mm 0,0 UV-I 0 W/m 12,6 C 13,4 C 6,4 km/h (2 Bft) 100,00 %
28.06.2018 00:48 13,5 C 21,7 C 95 % 1018,7 hPa 0,0 l/m 7,4 km/h (2 Bft) W 270 0 min 0,000 mm 0,0 UV-I 0 W/m 12,7 C 12,9 C 9,7 km/h (2 Bft) 100,00 %
28.06.2018 00:49 13,4 C 21,7 C 95 % 1018,8 hPa 0,0 l/m 6,0 km/h (2 Bft) W-SW 249 0 min 0,000 mm 0,0 UV-I 0 W/m 12,6 C 13,4 C 8,0 km/h (2 Bft) 95,83 %
28.06.2018 00:50 13,5 C 21,7 C 95 % 1018,7 hPa 0,0 l/m 5,4 km/h (1 Bft) W 271 0 min 0,000 mm 0,0 UV-I 0 W/m 12,7 C 13,5 C 6,4 km/h (2 Bft) 100,00 %
28.06.2018 00:51 13,5 C 21,7 C 95 % 1018,7 hPa 0,0 l/m 4,5 km/h (1 Bft) W 268 0 min 0,000 mm 0,0 UV-I 0 W/m 12,7 C 13,5 C 6,4 km/h (2 Bft) 100,00 %
28.06.2018 00:52 13,5 C 21,7 C 95 % 1018,7 hPa 0,0 l/m 6,1 km/h (2 Bft) W-SW 248 0 min 0,000 mm 0,0 UV-I 0 W/m 12,7 C 13,5 C 8,0 km/h (2 Bft) 100,00 %
28.06.2018 00:53 13,4 C 21,7 C 95 % 1018,7 hPa 0,0 l/m 3,5 km/h (1 Bft) W-SW 249 0 min 0,000 mm 0,0 UV-I 0 W/m 12,6 C 13,4 C 8,0 km/h (2 Bft) 100,00 %
28.06.2018 00:54 13,4 C 21,7 C 95 % 1018,7 hPa 0,0 l/m 7,0 km/h (2 Bft) W 271 0 min 0,000 mm 0,0 UV-I 0 W/m 12,6 C 13,0 C 9,7 km/h (2 Bft) 95,83 %
28.06.2018 00:55 13,5 C 21,7 C 95 % 1018,7 hPa 0,0 l/m 6,4 km/h (2 Bft) W 259 0 min 0,000 mm 0,0 UV-I 0 W/m 12,7 C 13,5 C 11,3 km/h (2 Bft) 100,00 %
28.06.2018 00:56 13,4 C 21,7 C 95 % 1018,7 hPa 0,0 l/m 5,6 km/h (1 Bft) W-SW 254 0 min 0,000 mm 0,0 UV-I 0 W/m 12,6 C 13,4 C 8,0 km/h (2 Bft) 96,30 %
28.06.2018 00:57 13,4 C 21,7 C 95 % 1018,7 hPa 0,0 l/m 6,8 km/h (2 Bft) W 263 0 min 0,000 mm 0,0 UV-I 0 W/m 12,6 C 13,2 C 11,3 km/h (2 Bft) 100,00 %
28.06.2018 00:58 13,4 C 21,1 C 96 % 1018,6 hPa 0,0 l/m 6,8 km/h (2 Bft) W-SW 246 0 min 0,000 mm 0,0 UV-I 0 W/m 12,8 C 13,2 C 11,3 km/h (2 Bft) 96,43 %
28.06.2018 00:59 13,4 C 21,7 C 96 % 1018,6 hPa 0,0 l/m 7,9 km/h (2 Bft) W 259 0 min 0,000 mm 0,0 UV-I 0 W/m 12,8 C 12,5 C 11,3 km/h (2 Bft) 95,65 %
28.06.2018 01:00 13,4 C 21,1 C 96 % 1018,6 hPa 0,2 l/m 5,7 km/h (1 Bft) W-SW 252 0 min 0,000 mm 0,0 UV-I 0 W/m 12,8 C 13,4 C 8,0 km/h (2 Bft) 95,83 %
28.06.2018 01:01 13,4 C 21,1 C 96 % 1018,6 hPa 0,0 l/m 5,1 km/h (1 Bft) W 270 0 min 0,000 mm 0,0 UV-I 0 W/m 12,8 C 13,4 C 11,3 km/h (2 Bft) 100,00 %
28.06.2018 01:03 13,4 C 21,1 C 96 % 1018,6 hPa 0,0 l/m 3,1 km/h (1 Bft) W-SW 247 0 min 0,000 mm 0,0 UV-I 0 W/m 12,8 C 13,4 C 4,8 km/h (1 Bft) 98,00 %
28.06.2018 01:04 13,4 C 21,1 C 96 % 1018,6 hPa 0,0 l/m 3,9 km/h (1 Bft) W-SW 241 0 min 0,000 mm 0,0 UV-I 0 W/m 12,8 C 13,4 C 6,4 km/h (2 Bft) 95,83 %
28.06.2018 01:05 13,4 C 21,7 C 96 % 1018,6 hPa 0,0 l/m 3,6 km/h (1 Bft) W 265 0 min 0,000 mm 0,0 UV-I 0 W/m 12,8 C 13,4 C 4,8 km/h (1 Bft) 95,65 %
28.06.2018 01:06 13,4 C 21,7 C 96 % 1018,6 hPa 0,0 l/m 3,9 km/h (1 Bft) W 261 0 min 0,000 mm 0,0 UV-I 0 W/m 12,8 C 13,4 C 6,4 km/h (2 Bft) 100,00 %
28.06.2018 01:07 13,4 C 21,7 C 96 % 1018,6 hPa 0,0 l/m 7,4 km/h (2 Bft) W-SW 256 0 min 0,000 mm 0,0 UV-I 0 W/m 12,8 C 12,8 C 11,3 km/h (2 Bft) 95,83 %
28.06.2018 01:08 13,4 C 21,7 C 96 % 1018,6 hPa 0,0 l/m 4,8 km/h (1 Bft) W-SW 252 0 min 0,000 mm 0,0 UV-I 0 W/m 12,8 C 13,4 C 6,4 km/h (2 Bft) 95,65 %
28.06.2018 01:09 13,3 C 21,7 C 96 % 1018,5 hPa 0,0 l/m 3,7 km/h (1 Bft) W-SW 252 0 min 0,000 mm 0,0 UV-I 0 W/m 12,7 C 13,3 C 4,8 km/h (1 Bft) 95,83 %
28.06.2018 01:10 13,3 C 21,7 C 96 % 1018,5 hPa 0,0 l/m 4,3 km/h (1 Bft) W-SW 237 0 min 0,000 mm 0,0 UV-I 0 W/m 12,7 C 13,3 C 6,4 km/h (2 Bft) 100,00 %
28.06.2018 01:11 13,3 C 21,7 C 96 % 1018,5 hPa 0,0 l/m 3,4 km/h (1 Bft) W-SW 239 0 min 0,000 mm 0,0 UV-I 0 W/m 12,7 C 13,3 C 4,8 km/h (1 Bft) 95,83 %
28.06.2018 01:12 13,3 C 21,7 C 96 % 1018,6 hPa 0,0 l/m 3,6 km/h (1 Bft) W 275 0 min 0,000 mm 0,0 UV-I 0 W/m 12,7 C 13,3 C 6,4 km/h (2 Bft) 95,65 %
28.06.2018 01:13 13,4 C 21,7 C 96 % 1018,6 hPa 0,0 l/m 4,9 km/h (1 Bft) SW 236 0 min 0,000 mm 0,0 UV-I 0 W/m 12,8 C 13,4 C 6,4 km/h (2 Bft) 95,83 %
28.06.2018 01:14 13,4 C 21,7 C 96 % 1018,5 hPa 0,0 l/m 4,0 km/h (1 Bft) SW 236 0 min 0,000 mm 0,0 UV-I 0 W/m 12,8 C 13,4 C 4,8 km/h (1 Bft) 100,00 %
28.06.2018 01:15 13,3 C 21,7 C 96 % 1018,5 hPa 0,2 l/m 4,4 km/h (1 Bft) W 264 0 min 0,000 mm 0,0 UV-I 0 W/m 12,7 C 13,3 C 4,8 km/h (1 Bft) 95,83 %
28.06.2018 01:16 13,4 C 21,7 C 96 % 1018,5 hPa 0,0 l/m 4,0 km/h (1 Bft) W-SW 240 0 min 0,000 mm 0,0 UV-I 0 W/m 12,8 C 13,4 C 4,8 km/h (1 Bft) 96,43 %
28.06.2018 01:17 13,4 C 21,7 C 96 % 1018,6 hPa 0,0 l/m 3,6 km/h (1 Bft) W-SW 245 0 min 0,000 mm 0,0 UV-I 0 W/m 12,8 C 13,4 C 4,8 km/h (1 Bft) 100,00 %
28.06.2018 01:18 13,4 C 21,7 C 96 % 1018,5 hPa 0,0 l/m 3,2 km/h (1 Bft) W-SW 245 0 min 0,000 mm 0,0 UV-I 0 W/m 12,8 C 13,4 C 4,8 km/h (1 Bft) 95,65 %
28.06.2018 01:19 13,4 C 21,1 C 96 % 1018,5 hPa 0,0 l/m 4,0 km/h (1 Bft) W-SW 250 0 min 0,000 mm 0,0 UV-I 0 W/m 12,8 C 13,4 C 6,4 km/h (2 Bft) 100,00 %
28.06.2018 01:20 13,4 C 21,1 C 96 % 1018,5 hPa 0,0 l/m 4,3 km/h (1 Bft) W-SW 248 0 min 0,000 mm 0,0 UV-I 0 W/m 12,8 C 13,4 C 6,4 km/h (2 Bft) 95,65 %
28.06.2018 01:21 13,4 C 21,1 C 96 % 1018,5 hPa 0,0 l/m 5,2 km/h (1 Bft) W 265 0 min 0,000 mm 0,0 UV-I 0 W/m 12,8 C 13,4 C 6,4 km/h (2 Bft) 100,00 %
28.06.2018 01:22 13,3 C 21,1 C 96 % 1018,5 hPa 0,0 l/m 4,7 km/h (1 Bft) W-SW 245 0 min 0,000 mm 0,0 UV-I 0 W/m 12,7 C 13,3 C 6,4 km/h (2 Bft) 91,67 %
28.06.2018 01:23 13,3 C 21,1 C 96 % 1018,5 hPa 0,0 l/m 5,2 km/h (1 Bft) W-SW 240 0 min 0,000 mm 0,0 UV-I 0 W/m 12,7 C 13,3 C 6,4 km/h (2 Bft) 96,15 %
28.06.2018 01:24 13,3 C 21,1 C 96 % 1018,4 hPa 0,0 l/m 5,0 km/h (1 Bft) W-SW 237 0 min 0,000 mm 0,0 UV-I 0 W/m 12,7 C 13,3 C 6,4 km/h (2 Bft) 95,83 %
28.06.2018 01:25 13,3 C 21,1 C 96 % 1018,4 hPa 0,0 l/m 3,0 km/h (1 Bft) SW 236 0 min 0,000 mm 0,0 UV-I 0 W/m 12,7 C 13,3 C 4,8 km/h (1 Bft) 95,65 %
28.06.2018 01:26 13,3 C 21,1 C 96 % 1018,4 hPa 0,0 l/m 3,5 km/h (1 Bft) SW 228 0 min 0,000 mm 0,0 UV-I 0 W/m 12,7 C 13,3 C 4,8 km/h (1 Bft) 96,15 %
28.06.2018 01:27 13,3 C 21,1 C 96 % 1018,4 hPa 0,0 l/m 4,9 km/h (1 Bft) W-SW 254 0 min 0,000 mm 0,0 UV-I 0 W/m 12,7 C 13,3 C 6,4 km/h (2 Bft) 91,30 %
28.06.2018 01:28 13,4 C 21,1 C 96 % 1018,4 hPa 0,0 l/m 3,1 km/h (1 Bft) W-SW 254 0 min 0,000 mm 0,0 UV-I 0 W/m 12,8 C 13,4 C 4,8 km/h (1 Bft) 100,00 %
28.06.2018 01:29 13,3 C 21,1 C 96 % 1018,4 hPa 0,0 l/m 4,2 km/h (1 Bft) SW 231 0 min 0,000 mm 0,0 UV-I 0 W/m 12,7 C 13,3 C 6,4 km/h (2 Bft) 91,30 %
28.06.2018 01:30 13,3 C 21,1 C 96 % 1018,4 hPa 0,0 l/m 5,4 km/h (1 Bft) SW 229 0 min 0,000 mm 0,0 UV-I 0 W/m 12,7 C 13,3 C 6,4 km/h (2 Bft) 95,83 %
28.06.2018 01:31 13,3 C 21,1 C 96 % 1018,4 hPa 0,0 l/m 4,7 km/h (1 Bft) S-SW 211 0 min 0,000 mm 0,0 UV-I 0 W/m 12,7 C 13,3 C 6,4 km/h (2 Bft) 95,65 %
28.06.2018 01:32 13,3 C 21,1 C 96 % 1018,4 hPa 0,0 l/m 3,8 km/h (1 Bft) S-SW 211 0 min 0,000 mm 0,0 UV-I 0 W/m 12,7 C 13,3 C 6,4 km/h (2 Bft) 95,83 %
28.06.2018 01:33 13,3 C 21,1 C 96 % 1018,4 hPa 0,0 l/m 3,0 km/h (1 Bft) S-SW 211 0 min 0,000 mm 0,0 UV-I 0 W/m 12,7 C 13,3 C 4,8 km/h (1 Bft) 95,65 %
28.06.2018 01:34 13,3 C 21,1 C 96 % 1018,5 hPa 0,0 l/m 2,7 km/h (1 Bft) S-SW 211 0 min 0,000 mm 0,0 UV-I 0 W/m 12,7 C 13,3 C 4,8 km/h (1 Bft) 95,83 %
28.06.2018 01:35 13,3 C 21,1 C 96 % 1018,4 hPa 0,0 l/m 1,4 km/h (1 Bft) S-SW 211 0 min 0,000 mm 0,0 UV-I 0 W/m 12,7 C 13,3 C 3,2 km/h (1 Bft) 95,65 %
28.06.2018 01:36 13,3 C 21,1 C 96 % 1018,4 hPa 0,0 l/m 2,3 km/h (1 Bft) SW 219 0 min 0,000 mm 0,0 UV-I 0 W/m 12,7 C 13,3 C 3,2 km/h (1 Bft) 95,83 %
28.06.2018 01:37 13,3 C 21,1 C 96 % 1018,4 hPa 0,0 l/m 3,4 km/h (1 Bft) SW 219 0 min 0,000 mm 0,0 UV-I 0 W/m 12,7 C 13,3 C 4,8 km/h (1 Bft) 91,30 %
28.06.2018 01:38 13,4 C 21,1 C 96 % 1018,4 hPa 0,0 l/m 3,0 km/h (1 Bft) SW 221 0 min 0,000 mm 0,0 UV-I 0 W/m 12,8 C 13,4 C 4,8 km/h (1 Bft) 91,67 %
28.06.2018 01:39 13,3 C 21,1 C 96 % 1018,3 hPa 0,0 l/m 2,1 km/h (1 Bft) SW 223 0 min 0,000 mm 0,0 UV-I 0 W/m 12,7 C 13,3 C 3,2 km/h (1 Bft) 91,30 %
28.06.2018 01:40 13,3 C 21,1 C 96 % 1018,3 hPa 0,0 l/m 4,0 km/h (1 Bft) SW 226 0 min 0,000 mm 0,0 UV-I 0 W/m 12,7 C 13,3 C 4,8 km/h (1 Bft) 95,83 %
28.06.2018 01:41 13,3 C 21,1 C 96 % 1018,3 hPa 0,0 l/m 5,0 km/h (1 Bft) SW 231 0 min 0,000 mm 0,0 UV-I 0 W/m 12,7 C 13,3 C 6,4 km/h (2 Bft) 95,65 %
28.06.2018 01:42 13,3 C 21,1 C 96 % 1018,3 hPa 0,0 l/m 5,0 km/h (1 Bft) SW 231 0 min 0,000 mm 0,0 UV-I 0 W/m 12,7 C 13,3 C 6,4 km/h (2 Bft) 95,83 %
28.06.2018 01:43 13,3 C 21,1 C 96 % 1018,3 hPa 0,0 l/m 5,0 km/h (1 Bft) SW 221 0 min 0,000 mm 0,0 UV-I 0 W/m 12,7 C 13,3 C 8,0 km/h (2 Bft) 95,65 %
28.06.2018 01:44 13,3 C 21,1 C 96 % 1018,3 hPa 0,0 l/m 4,8 km/h (1 Bft) W-SW 244 0 min 0,000 mm 0,0 UV-I 0 W/m 12,7 C 13,3 C 6,4 km/h (2 Bft) 95,83 %
28.06.2018 01:45 13,3 C 21,1 C 96 % 1018,3 hPa 0,0 l/m 4,0 km/h (1 Bft) SW 228 0 min 0,000 mm 0,0 UV-I 0 W/m 12,7 C 13,3 C 6,4 km/h (2 Bft) 95,65 %
28.06.2018 01:46 13,3 C 21,1 C 96 % 1018,3 hPa 0,0 l/m 4,4 km/h (1 Bft) SW 234 0 min 0,000 mm 0,0 UV-I 0 W/m 12,7 C 13,3 C 6,4 km/h (2 Bft) 95,83 %
28.06.2018 01:47 13,3 C 21,1 C 96 % 1018,3 hPa 0,0 l/m 2,7 km/h (1 Bft) SW 236 0 min 0,000 mm 0,0 UV-I 0 W/m 12,7 C 13,3 C 3,2 km/h (1 Bft) 91,67 %
28.06.2018 01:48 13,2 C 21,1 C 96 % 1018,3 hPa 0,0 l/m 4,4 km/h (1 Bft) SW 223 0 min 0,000 mm 0,0 UV-I 0 W/m 12,6 C 13,2 C 6,4 km/h (2 Bft) 95,65 %
28.06.2018 01:49 13,3 C 21,1 C 96 % 1018,3 hPa 0,0 l/m 5,5 km/h (1 Bft) W-SW 238 0 min 0,000 mm 0,0 UV-I 0 W/m 12,7 C 13,3 C 8,0 km/h (2 Bft) 95,83 %
28.06.2018 01:50 13,3 C 21,1 C 96 % 1018,3 hPa 0,0 l/m 6,0 km/h (2 Bft) SW 223 0 min 0,000 mm 0,0 UV-I 0 W/m 12,7 C 13,3 C 6,4 km/h (2 Bft) 86,96 %
28.06.2018 01:51 13,3 C 21,1 C 96 % 1018,3 hPa 0,0 l/m 4,6 km/h (1 Bft) SW 228 0 min 0,000 mm 0,0 UV-I 0 W/m 12,7 C 13,3 C 8,0 km/h (2 Bft) 95,83 %
28.06.2018 01:52 13,3 C 21,1 C 96 % 1018,3 hPa 0,2 l/m 3,7 km/h (1 Bft) SW 228 0 min 0,000 mm 0,0 UV-I 0 W/m 12,7 C 13,3 C 4,8 km/h (1 Bft) 95,65 %
28.06.2018 01:53 13,3 C 21,1 C 96 % 1018,3 hPa 0,0 l/m 2,5 km/h (1 Bft) SW 228 0 min 0,000 mm 0,0 UV-I 0 W/m 12,7 C 13,3 C 4,8 km/h (1 Bft) 95,83 %
28.06.2018 01:54 13,3 C 21,1 C 96 % 1018,3 hPa 0,0 l/m 3,4 km/h (1 Bft) SW 227 0 min 0,000 mm 0,0 UV-I 0 W/m 12,7 C 13,3 C 6,4 km/h (2 Bft) 91,30 %
28.06.2018 01:55 13,3 C 21,1 C 96 % 1018,3 hPa 0,0 l/m 3,8 km/h (1 Bft) SW 234 0 min 0,000 mm 0,0 UV-I 0 W/m 12,7 C 13,3 C 6,4 km/h (2 Bft) 95,83 %
28.06.2018 01:56 13,3 C 21,1 C 96 % 1018,2 hPa 0,0 l/m 3,6 km/h (1 Bft) SW 234 0 min 0,000 mm 0,0 UV-I 0 W/m 12,7 C 13,3 C 4,8 km/h (1 Bft) 95,65 %
28.06.2018 01:57 13,3 C 21,1 C 96 % 1018,2 hPa 0,0 l/m 3,2 km/h (1 Bft) SW 234 0 min 0,000 mm 0,0 UV-I 0 W/m 12,7 C 13,3 C 4,8 km/h (1 Bft) 92,59 %
28.06.2018 01:58 13,3 C 21,1 C 96 % 1018,2 hPa 0,0 l/m 1,8 km/h (1 Bft) SW 234 0 min 0,000 mm 0,0 UV-I 0 W/m 12,7 C 13,3 C 3,2 km/h (1 Bft) 100,00 %
28.06.2018 01:59 13,3 C 21,1 C 96 % 1018,2 hPa 0,0 l/m 4,0 km/h (1 Bft) W 259 0 min 0,000 mm 0,0 UV-I 0 W/m 12,7 C 13,3 C 6,4 km/h (2 Bft) 95,83 %
28.06.2018 02:00 13,3 C 21,1 C 96 % 1018,2 hPa 0,0 l/m 6,0 km/h (2 Bft) SW 236 0 min 0,000 mm 0,0 UV-I 0 W/m 12,7 C 13,3 C 6,4 km/h (2 Bft) 100,00 %
28.06.2018 02:01 13,2 C 21,1 C 96 % 1018,2 hPa 0,0 l/m 5,1 km/h (1 Bft) SW 231 0 min 0,000 mm 0,0 UV-I 0 W/m 12,6 C 13,2 C 8,0 km/h (2 Bft) 100,00 %
28.06.2018 02:02 13,2 C 21,1 C 96 % 1018,2 hPa 0,0 l/m 6,1 km/h (2 Bft) W-SW 242 0 min 0,000 mm 0,0 UV-I 0 W/m 12,6 C 13,2 C 8,0 km/h (2 Bft) 100,00 %
28.06.2018 02:03 13,2 C 21,1 C 96 % 1018,1 hPa 0,0 l/m 6,2 km/h (2 Bft) SW 233 0 min 0,000 mm 0,0 UV-I 0 W/m 12,6 C 13,2 C 8,0 km/h (2 Bft) 91,30 %
28.06.2018 02:04 13,2 C 21,1 C 96 % 1018,1 hPa 0,0 l/m 5,0 km/h (1 Bft) W-SW 243 0 min 0,000 mm 0,0 UV-I 0 W/m 12,6 C 13,2 C 6,4 km/h (2 Bft) 100,00 %
28.06.2018 02:05 13,2 C 21,1 C 96 % 1018,1 hPa 0,0 l/m 3,5 km/h (1 Bft) W-SW 240 0 min 0,000 mm 0,0 UV-I 0 W/m 12,6 C 13,2 C 6,4 km/h (2 Bft) 100,00 %
28.06.2018 02:06 13,2 C 21,1 C 96 % 1018,0 hPa 0,0 l/m 3,2 km/h (1 Bft) W-SW 240 0 min 0,000 mm 0,0 UV-I 0 W/m 12,6 C 13,2 C 4,8 km/h (1 Bft) 100,00 %
28.06.2018 02:07 13,2 C 21,1 C 96 % 1018,1 hPa 0,0 l/m 4,0 km/h (1 Bft) W-SW 240 0 min 0,000 mm 0,0 UV-I 0 W/m 12,6 C 13,2 C 4,8 km/h (1 Bft) 100,00 %
28.06.2018 02:08 13,3 C 21,1 C 96 % 1018,1 hPa 0,0 l/m 2,9 km/h (1 Bft) W-SW 241 0 min 0,000 mm 0,0 UV-I 0 W/m 12,7 C 13,3 C 3,2 km/h (1 Bft) 100,00 %
28.06.2018 02:09 13,3 C 21,1 C 96 % 1018,1 hPa 0,0 l/m 2,9 km/h (1 Bft) W-SW 240 0 min 0,000 mm 0,0 UV-I 0 W/m 12,7 C 13,3 C 4,8 km/h (1 Bft) 100,00 %
28.06.2018 02:10 13,2 C 21,1 C 96 % 1018,1 hPa 0,0 l/m 3,6 km/h (1 Bft) W-SW 241 0 min 0,000 mm 0,0 UV-I 0 W/m 12,6 C 13,2 C 4,8 km/h (1 Bft) 100,00 %
28.06.2018 02:11 13,3 C 21,1 C 96 % 1018,1 hPa 0,0 l/m 3,0 km/h (1 Bft) W-SW 241 0 min 0,000 mm 0,0 UV-I 0 W/m 12,7 C 13,3 C 4,8 km/h (1 Bft) 100,00 %
28.06.2018 02:12 13,3 C 21,1 C 96 % 1018,1 hPa 0,0 l/m 3,0 km/h (1 Bft) W-SW 241 0 min 0,000 mm 0,0 UV-I 0 W/m 12,7 C 13,3 C 4,8 km/h (1 Bft) 100,00 %
28.06.2018 02:13 13,3 C 21,1 C 96 % 1018,0 hPa 0,0 l/m 3,7 km/h (1 Bft) W-SW 252 0 min 0,000 mm 0,0 UV-I 0 W/m 12,7 C 13,3 C 4,8 km/h (1 Bft) 100,00 %
28.06.2018 02:14 13,2 C 21,1 C 96 % 1018,0 hPa 0,0 l/m 4,6 km/h (1 Bft) W-SW 252 0 min 0,000 mm 0,0 UV-I 0 W/m 12,6 C 13,2 C 6,4 km/h (2 Bft) 100,00 %
28.06.2018 02:15 13,2 C 21,1 C 96 % 1018,0 hPa 0,0 l/m 4,0 km/h (1 Bft) W-SW 257 0 min 0,000 mm 0,0 UV-I 0 W/m 12,6 C 13,2 C 4,8 km/h (1 Bft) 95,65 %
28.06.2018 02:16 13,2 C 21,1 C 96 % 1018,0 hPa 0,0 l/m 2,5 km/h (1 Bft) W-SW 256 0 min 0,000 mm 0,0 UV-I 0 W/m 12,6 C 13,2 C 3,2 km/h (1 Bft) 100,00 %
28.06.2018 02:17 13,2 C 21,1 C 96 % 1018,0 hPa 0,0 l/m 2,6 km/h (1 Bft) W-SW 256 0 min 0,000 mm 0,0 UV-I 0 W/m 12,6 C 13,2 C 4,8 km/h (1 Bft) 100,00 %
28.06.2018 02:18 13,2 C 21,1 C 96 % 1018,0 hPa 0,0 l/m 2,6 km/h (1 Bft) W-SW 255 0 min 0,000 mm 0,0 UV-I 0 W/m 12,6 C 13,2 C 6,4 km/h (2 Bft) 100,00 %
28.06.2018 02:19 13,3 C 21,1 C 96 % 1018,0 hPa 0,2 l/m 0,1 km/h (0 Bft) W-SW 255 0 min 0,000 mm 0,0 UV-I 0 W/m 12,7 C 13,3 C 1,6 km/h (1 Bft) 95,65 %
28.06.2018 02:20 13,3 C 21,1 C 96 % 1018,0 hPa 0,0 l/m 0,8 km/h (0 Bft) W-SW 255 0 min 0,000 mm 0,0 UV-I 0 W/m 12,7 C 13,3 C 3,2 km/h (1 Bft) 100,00 %
28.06.2018 02:21 13,3 C 21,1 C 96 % 1018,0 hPa 0,0 l/m 3,2 km/h (1 Bft) W-SW 255 0 min 0,000 mm 0,0 UV-I 0 W/m 12,7 C 13,3 C 4,8 km/h (1 Bft) 100,00 %
28.06.2018 02:22 13,3 C 21,1 C 96 % 1018,0 hPa 0,0 l/m 3,4 km/h (1 Bft) W-SW 255 0 min 0,000 mm 0,0 UV-I 0 W/m 12,7 C 13,3 C 4,8 km/h (1 Bft) 100,00 %
28.06.2018 02:23 13,3 C 21,1 C 96 % 1018,0 hPa 0,0 l/m 4,1 km/h (1 Bft) W-SW 254 0 min 0,000 mm 0,0 UV-I 0 W/m 12,7 C 13,3 C 6,4 km/h (2 Bft) 95,65 %
28.06.2018 02:24 13,3 C 21,1 C 96 % 1018,0 hPa 0,0 l/m 3,2 km/h (1 Bft) W-SW 257 0 min 0,000 mm 0,0 UV-I 0 W/m 12,7 C 13,3 C 4,8 km/h (1 Bft) 100,00 %
28.06.2018 02:25 13,3 C 21,1 C 96 % 1018,0 hPa 0,0 l/m 3,7 km/h (1 Bft) W 260 0 min 0,000 mm 0,0 UV-I 0 W/m 12,7 C 13,3 C 4,8 km/h (1 Bft) 100,00 %
28.06.2018 02:26 13,3 C 21,1 C 96 % 1018,0 hPa 0,0 l/m 3,2 km/h (1 Bft) W 260 0 min 0,000 mm 0,0 UV-I 0 W/m 12,7 C 13,3 C 4,8 km/h (1 Bft) 100,00 %
28.06.2018 02:27 13,3 C 21,1 C 96 % 1018,0 hPa 0,0 l/m 3,3 km/h (1 Bft) W 260 0 min 0,000 mm 0,0 UV-I 0 W/m 12,7 C 13,3 C 4,8 km/h (1 Bft) 100,00 %
28.06.2018 02:28 13,3 C 21,1 C 96 % 1018,0 hPa 0,0 l/m 4,0 km/h (1 Bft) W-SW 242 0 min 0,000 mm 0,0 UV-I 0 W/m 12,7 C 13,3 C 6,4 km/h (2 Bft) 95,83 %
28.06.2018 02:29 13,3 C 21,1 C 96 % 1018,0 hPa 0,0 l/m 3,8 km/h (1 Bft) W-SW 252 0 min 0,000 mm 0,0 UV-I 0 W/m 12,7 C 13,3 C 4,8 km/h (1 Bft) 95,83 %
28.06.2018 02:30 13,2 C 21,1 C 96 % 1018,0 hPa 0,0 l/m 3,5 km/h (1 Bft) W 261 0 min 0,000 mm 0,0 UV-I 0 W/m 12,6 C 13,2 C 4,8 km/h (1 Bft) 90,91 %
28.06.2018 02:31 13,2 C 21,1 C 96 % 1017,9 hPa 0,2 l/m 4,7 km/h (1 Bft) W-SW 251 0 min 0,000 mm 0,0 UV-I 0 W/m 12,6 C 13,2 C 6,4 km/h (2 Bft) 100,00 %
28.06.2018 02:32 13,2 C 21,1 C 96 % 1017,9 hPa 0,0 l/m 3,7 km/h (1 Bft) W-SW 251 0 min 0,000 mm 0,0 UV-I 0 W/m 12,6 C 13,2 C 6,4 km/h (2 Bft) 100,00 %
28.06.2018 02:33 13,2 C 21,1 C 96 % 1017,9 hPa 0,0 l/m 3,6 km/h (1 Bft) W-SW 252 0 min 0,000 mm 0,0 UV-I 0 W/m 12,6 C 13,2 C 4,8 km/h (1 Bft) 100,00 %
28.06.2018 02:34 13,3 C 21,1 C 96 % 1017,9 hPa 0,0 l/m 3,0 km/h (1 Bft) W-SW 251 0 min 0,000 mm 0,0 UV-I 0 W/m 12,7 C 13,3 C 4,8 km/h (1 Bft) 100,00 %
28.06.2018 02:35 13,3 C 21,1 C 96 % 1017,9 hPa 0,0 l/m 2,2 km/h (1 Bft) W-SW 252 0 min 0,000 mm 0,0 UV-I 0 W/m 12,7 C 13,3 C 3,2 km/h (1 Bft) 100,00 %
28.06.2018 02:36 13,3 C 21,1 C 96 % 1017,9 hPa 0,0 l/m 1,7 km/h (1 Bft) W-SW 252 0 min 0,000 mm 0,0 UV-I 0 W/m 12,7 C 13,3 C 3,2 km/h (1 Bft) 100,00 %
28.06.2018 02:37 13,3 C 21,1 C 96 % 1017,9 hPa 0,0 l/m 2,4 km/h (1 Bft) W-SW 252 0 min 0,000 mm 0,0 UV-I 0 W/m 12,7 C 13,3 C 3,2 km/h (1 Bft) 100,00 %
28.06.2018 02:38 13,3 C 21,1 C 96 % 1017,9 hPa 0,0 l/m 3,9 km/h (1 Bft) W-NW 292 0 min 0,000 mm 0,0 UV-I 0 W/m 12,7 C 13,3 C 6,4 km/h (2 Bft) 100,00 %
28.06.2018 02:39 13,3 C 21,1 C 96 % 1017,9 hPa 0,2 l/m 1,8 km/h (1 Bft) W-NW 291 0 min 0,000 mm 0,0 UV-I 0 W/m 12,7 C 13,3 C 3,2 km/h (1 Bft) 100,00 %
28.06.2018 02:40 13,3 C 21,1 C 96 % 1017,9 hPa 0,0 l/m 1,7 km/h (1 Bft) W-NW 291 0 min 0,000 mm 0,0 UV-I 0 W/m 12,7 C 13,3 C 3,2 km/h (1 Bft) 100,00 %
28.06.2018 02:41 13,3 C 21,1 C 96 % 1017,9 hPa 0,0 l/m 2,8 km/h (1 Bft) SW 233 0 min 0,000 mm 0,0 UV-I 0 W/m 12,7 C 13,3 C 4,8 km/h (1 Bft) 100,00 %
28.06.2018 02:42 13,3 C 21,1 C 96 % 1017,8 hPa 0,0 l/m 1,2 km/h (1 Bft) SW 233 0 min 0,000 mm 0,0 UV-I 0 W/m 12,7 C 13,3 C 3,2 km/h (1 Bft) 100,00 %
28.06.2018 02:43 13,3 C 21,1 C 96 % 1017,8 hPa 0,0 l/m 2,6 km/h (1 Bft) W-SW 242 0 min 0,000 mm 0,0 UV-I 0 W/m 12,7 C 13,3 C 4,8 km/h (1 Bft) 100,00 %
28.06.2018 02:44 13,3 C 21,1 C 96 % 1017,7 hPa 0,0 l/m 3,8 km/h (1 Bft) W-SW 251 0 min 0,000 mm 0,0 UV-I 0 W/m 12,7 C 13,3 C 6,4 km/h (2 Bft) 100,00 %
28.06.2018 02:45 13,3 C 21,1 C 96 % 1017,7 hPa 0,0 l/m 4,1 km/h (1 Bft) W-SW 253 0 min 0,000 mm 0,0 UV-I 0 W/m 12,7 C 13,3 C 8,0 km/h (2 Bft) 100,00 %
28.06.2018 02:46 13,3 C 21,1 C 96 % 1017,7 hPa 0,0 l/m 3,8 km/h (1 Bft) SW 229 0 min 0,000 mm 0,0 UV-I 0 W/m 12,7 C 13,3 C 4,8 km/h (1 Bft) 100,00 %
28.06.2018 02:47 13,2 C 21,1 C 96 % 1017,7 hPa 0,2 l/m 3,4 km/h (1 Bft) SW 234 0 min 0,000 mm 0,0 UV-I 0 W/m 12,6 C 13,2 C 4,8 km/h (1 Bft) 100,00 %
28.06.2018 02:48 13,2 C 21,1 C 96 % 1017,7 hPa 0,0 l/m 3,8 km/h (1 Bft) W-NW 284 0 min 0,000 mm 0,0 UV-I 0 W/m 12,6 C 13,2 C 6,4 km/h (2 Bft) 100,00 %
28.06.2018 02:49 13,3 C 21,1 C 96 % 1017,6 hPa 0,0 l/m 3,9 km/h (1 Bft) W-SW 254 0 min 0,000 mm 0,0 UV-I 0 W/m 12,7 C 13,3 C 6,4 km/h (2 Bft) 100,00 %
28.06.2018 02:50 13,3 C 21,1 C 96 % 1017,6 hPa 0,0 l/m 2,7 km/h (1 Bft) W-SW 244 0 min 0,000 mm 0,0 UV-I 0 W/m 12,7 C 13,3 C 4,8 km/h (1 Bft) 100,00 %
28.06.2018 02:51 13,2 C 21,1 C 96 % 1017,5 hPa 0,0 l/m 4,9 km/h (1 Bft) SW 230 0 min 0,000 mm 0,0 UV-I 0 W/m 12,6 C 13,2 C 8,0 km/h (2 Bft) 100,00 %
28.06.2018 02:52 13,3 C 21,1 C 96 % 1017,5 hPa 0,0 l/m 3,1 km/h (1 Bft) W-SW 246 0 min 0,000 mm 0,0 UV-I 0 W/m 12,7 C 13,3 C 4,8 km/h (1 Bft) 100,00 %
28.06.2018 02:53 13,3 C 21,1 C 96 % 1017,5 hPa 0,0 l/m 1,3 km/h (1 Bft) W-SW 246 0 min 0,000 mm 0,0 UV-I 0 W/m 12,7 C 13,3 C 3,2 km/h (1 Bft) 95,65 %
28.06.2018 02:54 13,3 C 21,1 C 96 % 1017,5 hPa 0,0 l/m 3,3 km/h (1 Bft) W-SW 253 0 min 0,000 mm 0,0 UV-I 0 W/m 12,7 C 13,3 C 4,8 km/h (1 Bft) 100,00 %
28.06.2018 02:55 13,3 C 21,1 C 96 % 1017,5 hPa 0,0 l/m 0,9 km/h (0 Bft) W-SW 253 0 min 0,000 mm 0,0 UV-I 0 W/m 12,7 C 13,3 C 3,2 km/h (1 Bft) 95,65 %
28.06.2018 02:56 13,3 C 21,1 C 96 % 1017,5 hPa 0,0 l/m 1,0 km/h (0 Bft) W-SW 252 0 min 0,000 mm 0,0 UV-I 0 W/m 12,7 C 13,3 C 3,2 km/h (1 Bft) 100,00 %
28.06.2018 02:57 13,3 C 21,1 C 96 % 1017,5 hPa 0,0 l/m 2,5 km/h (1 Bft) W-SW 252 0 min 0,000 mm 0,0 UV-I 0 W/m 12,7 C 13,3 C 3,2 km/h (1 Bft) 100,00 %
28.06.2018 02:58 13,3 C 21,1 C 96 % 1017,4 hPa 0,0 l/m 2,5 km/h (1 Bft) W-SW 252 0 min 0,000 mm 0,0 UV-I 0 W/m 12,7 C 13,3 C 4,8 km/h (1 Bft) 100,00 %
28.06.2018 02:59 13,2 C 21,1 C 96 % 1017,4 hPa 0,2 l/m 0,7 km/h (0 Bft) W-SW 252 0 min 0,000 mm 0,0 UV-I 0 W/m 12,6 C 13,2 C 1,6 km/h (1 Bft) 100,00 %
28.06.2018 03:00 13,2 C 21,1 C 97 % 1017,4 hPa 0,0 l/m 2,3 km/h (1 Bft) SW 225 0 min 0,000 mm 0,0 UV-I 0 W/m 12,7 C 13,2 C 4,8 km/h (1 Bft) 100,00 %
28.06.2018 03:01 13,3 C 21,1 C 96 % 1017,4 hPa 0,0 l/m 3,8 km/h (1 Bft) SW 217 0 min 0,000 mm 0,0 UV-I 0 W/m 12,7 C 13,3 C 4,8 km/h (1 Bft) 100,00 %
28.06.2018 03:02 13,3 C 21,1 C 96 % 1017,4 hPa 0,0 l/m 2,5 km/h (1 Bft) W-SW 253 0 min 0,000 mm 0,0 UV-I 0 W/m 12,7 C 13,3 C 4,8 km/h (1 Bft) 100,00 %
28.06.2018 03:03 13,3 C 21,1 C 96 % 1017,4 hPa 0,0 l/m 1,6 km/h (1 Bft) W-SW 253 0 min 0,000 mm 0,0 UV-I 0 W/m 12,7 C 13,3 C 3,2 km/h (1 Bft) 95,83 %
28.06.2018 03:04 13,3 C 21,1 C 96 % 1017,4 hPa 0,0 l/m 0,3 km/h (0 Bft) W-SW 253 0 min 0,000 mm 0,0 UV-I 0 W/m 12,7 C 13,3 C 1,6 km/h (1 Bft) 100,00 %
28.06.2018 03:05 13,3 C 21,1 C 97 % 1017,4 hPa 0,0 l/m 0,4 km/h (0 Bft) W-SW 253 0 min 0,000 mm 0,0 UV-I 0 W/m 12,8 C 13,3 C 1,6 km/h (1 Bft) 100,00 %
28.06.2018 03:06 13,3 C 21,1 C 96 % 1017,4 hPa 0,0 l/m 2,6 km/h (1 Bft) W-SW 253 0 min 0,000 mm 0,0 UV-I 0 W/m 12,7 C 13,3 C 4,8 km/h (1 Bft) 100,00 %
28.06.2018 03:07 13,3 C 21,1 C 97 % 1017,3 hPa 0,0 l/m 1,1 km/h (1 Bft) W-SW 253 0 min 0,000 mm 0,0 UV-I 0 W/m 12,8 C 13,3 C 3,2 km/h (1 Bft) 100,00 %
28.06.2018 03:08 13,3 C 21,1 C 97 % 1017,3 hPa 0,0 l/m 0,9 km/h (0 Bft) W-SW 253 0 min 0,000 mm 0,0 UV-I 0 W/m 12,8 C 13,3 C 3,2 km/h (1 Bft) 95,65 %
28.06.2018 03:09 13,3 C 21,1 C 97 % 1017,3 hPa 0,0 l/m 2,0 km/h (1 Bft) W-SW 253 0 min 0,000 mm 0,0 UV-I 0 W/m 12,8 C 13,3 C 3,2 km/h (1 Bft) 100,00 %
28.06.2018 03:10 13,3 C 21,1 C 96 % 1017,3 hPa 0,0 l/m 1,3 km/h (1 Bft) W-SW 253 0 min 0,000 mm 0,0 UV-I 0 W/m 12,7 C 13,3 C 1,6 km/h (1 Bft) 100,00 %
28.06.2018 03:11 13,3 C 21,1 C 97 % 1017,3 hPa 0,0 l/m 2,8 km/h (1 Bft) W-SW 253 0 min 0,000 mm 0,0 UV-I 0 W/m 12,8 C 13,3 C 4,8 km/h (1 Bft) 100,00 %
28.06.2018 03:12 13,3 C 21,1 C 97 % 1017,3 hPa 0,0 l/m 3,8 km/h (1 Bft) W-SW 252 0 min 0,000 mm 0,0 UV-I 0 W/m 12,8 C 13,3 C 4,8 km/h (1 Bft) 100,00 %
28.06.2018 03:13 13,3 C 21,1 C 97 % 1017,3 hPa 0,0 l/m 6,1 km/h (2 Bft) W 261 0 min 0,000 mm 0,0 UV-I 0 W/m 12,8 C 13,3 C 9,7 km/h (2 Bft) 100,00 %
28.06.2018 03:14 13,3 C 21,1 C 97 % 1017,3 hPa 0,0 l/m 5,3 km/h (1 Bft) W 259 0 min 0,000 mm 0,0 UV-I 0 W/m 12,8 C 13,3 C 6,4 km/h (2 Bft) 100,00 %
28.06.2018 03:15 13,3 C 21,1 C 97 % 1017,2 hPa 0,0 l/m 5,0 km/h (1 Bft) W-SW 254 0 min 0,000 mm 0,0 UV-I 0 W/m 12,8 C 13,3 C 6,4 km/h (2 Bft) 100,00 %
28.06.2018 03:16 13,3 C 21,1 C 97 % 1017,2 hPa 0,0 l/m 3,1 km/h (1 Bft) W-SW 258 0 min 0,000 mm 0,0 UV-I 0 W/m 12,8 C 13,3 C 4,8 km/h (1 Bft) 100,00 %
28.06.2018 03:17 13,3 C 21,1 C 97 % 1017,3 hPa 0,0 l/m 4,6 km/h (1 Bft) W-SW 253 0 min 0,000 mm 0,0 UV-I 0 W/m 12,8 C 13,3 C 8,0 km/h (2 Bft) 100,00 %
28.06.2018 03:18 13,3 C 21,1 C 97 % 1017,3 hPa 0,0 l/m 4,2 km/h (1 Bft) W 263 0 min 0,000 mm 0,0 UV-I 0 W/m 12,8 C 13,3 C 6,4 km/h (2 Bft) 95,65 %
28.06.2018 03:19 13,3 C 21,1 C 97 % 1017,3 hPa 0,0 l/m 3,2 km/h (1 Bft) W-SW 239 0 min 0,000 mm 0,0 UV-I 0 W/m 12,8 C 13,3 C 6,4 km/h (2 Bft) 100,00 %
28.06.2018 03:20 13,3 C 21,1 C 97 % 1017,3 hPa 0,0 l/m 3,2 km/h (1 Bft) W 259 0 min 0,000 mm 0,0 UV-I 0 W/m 12,8 C 13,3 C 6,4 km/h (2 Bft) 95,65 %
28.06.2018 03:21 13,3 C 21,1 C 97 % 1017,3 hPa 0,0 l/m 1,2 km/h (1 Bft) W 259 0 min 0,000 mm 0,0 UV-I 0 W/m 12,8 C 13,3 C 3,2 km/h (1 Bft) 95,83 %
28.06.2018 03:22 13,3 C 21,1 C 97 % 1017,2 hPa 0,0 l/m 3,4 km/h (1 Bft) W 263 0 min 0,000 mm 0,0 UV-I 0 W/m 12,8 C 13,3 C 4,8 km/h (1 Bft) 100,00 %
28.06.2018 03:23 13,3 C 21,1 C 97 % 1017,2 hPa 0,0 l/m 3,0 km/h (1 Bft) W 271 0 min 0,000 mm 0,0 UV-I 0 W/m 12,8 C 13,3 C 4,8 km/h (1 Bft) 100,00 %
28.06.2018 03:24 13,3 C 21,1 C 97 % 1017,2 hPa 0,0 l/m 3,2 km/h (1 Bft) W 265 0 min 0,000 mm 0,0 UV-I 0 W/m 12,8 C 13,3 C 4,8 km/h (1 Bft) 96,30 %
28.06.2018 03:25 13,3 C 21,1 C 97 % 1017,2 hPa 0,0 l/m 3,5 km/h (1 Bft) W 268 0 min 0,000 mm 0,0 UV-I 0 W/m 12,8 C 13,3 C 4,8 km/h (1 Bft) 91,30 %
28.06.2018 03:26 13,3 C 21,1 C 97 % 1017,2 hPa 0,0 l/m 2,8 km/h (1 Bft) W 269 0 min 0,000 mm 0,0 UV-I 0 W/m 12,8 C 13,3 C 4,8 km/h (1 Bft) 100,00 %
28.06.2018 03:27 13,3 C 21,1 C 97 % 1017,2 hPa 0,0 l/m 3,1 km/h (1 Bft) W-NW 286 0 min 0,000 mm 0,0 UV-I 0 W/m 12,8 C 13,3 C 4,8 km/h (1 Bft) 96,15 %
28.06.2018 03:28 13,3 C 21,1 C 97 % 1017,2 hPa 0,0 l/m 2,7 km/h (1 Bft) W-NW 286 0 min 0,000 mm 0,0 UV-I 0 W/m 12,8 C 13,3 C 3,2 km/h (1 Bft) 100,00 %
28.06.2018 03:29 13,3 C 21,1 C 97 % 1017,1 hPa 0,0 l/m 2,3 km/h (1 Bft) W-NW 286 0 min 0,000 mm 0,0 UV-I 0 W/m 12,8 C 13,3 C 4,8 km/h (1 Bft) 95,65 %
28.06.2018 03:30 13,3 C 21,1 C 97 % 1017,1 hPa 0,2 l/m 3,7 km/h (1 Bft) W-SW 257 0 min 0,000 mm 0,0 UV-I 0 W/m 12,8 C 13,3 C 4,8 km/h (1 Bft) 100,00 %
28.06.2018 03:31 13,3 C 21,1 C 97 % 1017,1 hPa 0,0 l/m 4,5 km/h (1 Bft) W-SW 251 0 min 0,000 mm 0,0 UV-I 0 W/m 12,8 C 13,3 C 6,4 km/h (2 Bft) 91,30 %
28.06.2018 03:32 13,2 C 21,1 C 97 % 1017,1 hPa 0,0 l/m 4,1 km/h (1 Bft) W 261 0 min 0,000 mm 0,0 UV-I 0 W/m 12,7 C 13,2 C 6,4 km/h (2 Bft) 96,30 %
28.06.2018 03:33 13,3 C 21,1 C 97 % 1017,1 hPa 0,0 l/m 5,8 km/h (2 Bft) W 271 0 min 0,000 mm 0,0 UV-I 0 W/m 12,8 C 13,3 C 9,7 km/h (2 Bft) 95,65 %
28.06.2018 03:34 13,3 C 21,1 C 97 % 1017,0 hPa 0,0 l/m 4,6 km/h (1 Bft) W 269 0 min 0,000 mm 0,0 UV-I 0 W/m 12,8 C 13,3 C 6,4 km/h (2 Bft) 95,83 %
28.06.2018 03:35 13,3 C 21,1 C 97 % 1017,1 hPa 0,0 l/m 4,3 km/h (1 Bft) W 263 0 min 0,000 mm 0,0 UV-I 0 W/m 12,8 C 13,3 C 6,4 km/h (2 Bft) 100,00 %
28.06.2018 03:36 13,3 C 21,1 C 97 % 1017,0 hPa 0,0 l/m 5,6 km/h (1 Bft) W-NW 282 0 min 0,000 mm 0,0 UV-I 0 W/m 12,8 C 13,3 C 9,7 km/h (2 Bft) 95,83 %
28.06.2018 03:37 13,3 C 21,1 C 97 % 1017,1 hPa 0,0 l/m 4,0 km/h (1 Bft) W-SW 257 0 min 0,000 mm 0,0 UV-I 0 W/m 12,8 C 13,3 C 6,4 km/h (2 Bft) 95,65 %
28.06.2018 03:38 13,3 C 21,1 C 97 % 1017,1 hPa 0,0 l/m 4,6 km/h (1 Bft) W 263 0 min 0,000 mm 0,0 UV-I 0 W/m 12,8 C 13,3 C 6,4 km/h (2 Bft) 91,67 %
28.06.2018 03:39 13,3 C 21,1 C 97 % 1017,0 hPa 0,0 l/m 5,2 km/h (1 Bft) W-SW 257 0 min 0,000 mm 0,0 UV-I 0 W/m 12,8 C 13,3 C 9,7 km/h (2 Bft) 100,00 %
28.06.2018 03:40 13,3 C 21,1 C 97 % 1017,0 hPa 0,0 l/m 5,2 km/h (1 Bft) W-SW 255 0 min 0,000 mm 0,0 UV-I 0 W/m 12,8 C 13,3 C 8,0 km/h (2 Bft) 86,96 %
28.06.2018 03:41 13,3 C 21,1 C 97 % 1017,0 hPa 0,0 l/m 5,3 km/h (1 Bft) W 266 0 min 0,000 mm 0,0 UV-I 0 W/m 12,8 C 13,3 C 9,7 km/h (2 Bft) 96,30 %
28.06.2018 03:42 13,3 C 21,1 C 97 % 1017,0 hPa 0,0 l/m 4,0 km/h (1 Bft) W-SW 255 0 min 0,000 mm 0,0 UV-I 0 W/m 12,8 C 13,3 C 6,4 km/h (2 Bft) 100,00 %
28.06.2018 03:43 13,3 C 21,1 C 97 % 1016,9 hPa 0,0 l/m 7,6 km/h (2 Bft) W 270 0 min 0,000 mm 0,0 UV-I 0 W/m 12,8 C 12,6 C 11,3 km/h (2 Bft) 95,83 %
28.06.2018 03:44 13,3 C 21,1 C 97 % 1016,9 hPa 0,0 l/m 3,8 km/h (1 Bft) W 263 0 min 0,000 mm 0,0 UV-I 0 W/m 12,8 C 13,3 C 6,4 km/h (2 Bft) 100,00 %
28.06.2018 03:45 13,3 C 21,1 C 97 % 1016,9 hPa 0,0 l/m 7,3 km/h (2 Bft) W-SW 258 0 min 0,000 mm 0,0 UV-I 0 W/m 12,8 C 12,7 C 9,7 km/h (2 Bft) 95,83 %
28.06.2018 03:46 13,3 C 21,1 C 97 % 1016,9 hPa 0,0 l/m 5,2 km/h (1 Bft) W 261 0 min 0,000 mm 0,0 UV-I 0 W/m 12,8 C 13,3 C 8,0 km/h (2 Bft) 95,65 %
28.06.2018 03:47 13,3 C 21,1 C 97 % 1016,9 hPa 0,2 l/m 6,7 km/h (2 Bft) W 260 0 min 0,000 mm 0,0 UV-I 0 W/m 12,8 C 13,1 C 11,3 km/h (2 Bft) 95,83 %
28.06.2018 03:48 13,3 C 21,1 C 97 % 1016,8 hPa 0,0 l/m 7,2 km/h (2 Bft) SW 223 0 min 0,000 mm 0,0 UV-I 0 W/m 12,8 C 12,8 C 9,7 km/h (2 Bft) 100,00 %
28.06.2018 03:49 13,3 C 21,1 C 97 % 1016,8 hPa 0,0 l/m 5,2 km/h (1 Bft) W-SW 246 0 min 0,000 mm 0,0 UV-I 0 W/m 12,8 C 13,3 C 9,7 km/h (2 Bft) 95,83 %
28.06.2018 03:50 13,3 C 21,1 C 97 % 1016,8 hPa 0,0 l/m 7,2 km/h (2 Bft) W 269 0 min 0,000 mm 0,0 UV-I 0 W/m 12,8 C 12,8 C 14,5 km/h (3 Bft) 95,65 %
28.06.2018 03:51 13,3 C 21,1 C 97 % 1016,8 hPa 0,0 l/m 7,0 km/h (2 Bft) W 271 0 min 0,000 mm 0,0 UV-I 0 W/m 12,8 C 12,9 C 9,7 km/h (2 Bft) 100,00 %
28.06.2018 03:52 13,3 C 21,1 C 97 % 1016,8 hPa 0,0 l/m 7,1 km/h (2 Bft) W-SW 257 0 min 0,000 mm 0,0 UV-I 0 W/m 12,8 C 12,9 C 11,3 km/h (2 Bft) 95,65 %
28.06.2018 03:53 13,3 C 21,1 C 97 % 1016,8 hPa 0,2 l/m 7,0 km/h (2 Bft) W 263 0 min 0,000 mm 0,0 UV-I 0 W/m 12,8 C 12,9 C 11,3 km/h (2 Bft) 100,00 %
28.06.2018 03:54 13,3 C 21,1 C 97 % 1016,8 hPa 0,0 l/m 7,1 km/h (2 Bft) W-NW 288 0 min 0,000 mm 0,0 UV-I 0 W/m 12,8 C 12,9 C 11,3 km/h (2 Bft) 95,65 %
28.06.2018 03:55 13,3 C 21,1 C 97 % 1016,8 hPa 0,0 l/m 5,5 km/h (1 Bft) W 266 0 min 0,000 mm 0,0 UV-I 0 W/m 12,8 C 13,3 C 9,7 km/h (2 Bft) 100,00 %
28.06.2018 03:56 13,3 C 21,1 C 97 % 1016,8 hPa 0,0 l/m 7,8 km/h (2 Bft) W 270 0 min 0,000 mm 0,0 UV-I 0 W/m 12,8 C 12,4 C 12,9 km/h (3 Bft) 100,00 %
28.06.2018 03:57 13,3 C 21,1 C 97 % 1016,8 hPa 0,2 l/m 9,7 km/h (2 Bft) W-SW 254 0 min 0,000 mm 0,0 UV-I 0 W/m 12,8 C 11,4 C 12,9 km/h (3 Bft) 100,00 %
28.06.2018 03:58 13,3 C 21,1 C 97 % 1016,8 hPa 0,0 l/m 6,7 km/h (2 Bft) W 269 0 min 0,000 mm 0,0 UV-I 0 W/m 12,8 C 13,1 C 9,7 km/h (2 Bft) 100,00 %
28.06.2018 03:59 13,3 C 21,1 C 97 % 1016,8 hPa 0,0 l/m 5,0 km/h (1 Bft) W 264 0 min 0,000 mm 0,0 UV-I 0 W/m 12,8 C 13,3 C 6,4 km/h (2 Bft) 100,00 %
28.06.2018 04:00 13,3 C 21,1 C 97 % 1016,8 hPa 0,0 l/m 4,8 km/h (1 Bft) W-SW 254 0 min 0,000 mm 0,0 UV-I 0 W/m 12,8 C 13,3 C 6,4 km/h (2 Bft) 100,00 %
28.06.2018 04:01 13,3 C 21,1 C 97 % 1016,8 hPa 0,2 l/m 3,8 km/h (1 Bft) W-SW 246 0 min 0,000 mm 0,0 UV-I 0 W/m 12,8 C 13,3 C 6,4 km/h (2 Bft) 100,00 %
28.06.2018 04:02 13,3 C 21,1 C 97 % 1016,8 hPa 0,0 l/m 2,0 km/h (1 Bft) W-SW 245 0 min 0,000 mm 0,0 UV-I 0 W/m 12,8 C 13,3 C 3,2 km/h (1 Bft) 100,00 %
28.06.2018 04:03 13,3 C 21,1 C 97 % 1016,9 hPa 0,2 l/m 2,4 km/h (1 Bft) W-SW 256 0 min 0,000 mm 0,0 UV-I 0 W/m 12,8 C 13,3 C 3,2 km/h (1 Bft) 100,00 %
28.06.2018 04:04 13,3 C 21,1 C 97 % 1016,9 hPa 0,0 l/m 3,4 km/h (1 Bft) W-SW 254 0 min 0,000 mm 0,0 UV-I 0 W/m 12,8 C 13,3 C 4,8 km/h (1 Bft) 100,00 %
28.06.2018 04:05 13,3 C 21,1 C 97 % 1016,9 hPa 0,2 l/m 4,8 km/h (1 Bft) W-SW 246 0 min 0,000 mm 0,0 UV-I 0 W/m 12,8 C 13,3 C 6,4 km/h (2 Bft) 95,65 %
28.06.2018 04:06 13,3 C 21,1 C 97 % 1016,8 hPa 0,2 l/m 4,4 km/h (1 Bft) W-SW 247 0 min 0,000 mm 0,0 UV-I 0 W/m 12,8 C 13,3 C 6,4 km/h (2 Bft) 100,00 %
28.06.2018 04:07 13,4 C 21,1 C 97 % 1016,8 hPa 0,2 l/m 3,4 km/h (1 Bft) W 260 0 min 0,000 mm 0,0 UV-I 0 W/m 12,9 C 13,4 C 6,4 km/h (2 Bft) 100,00 %
28.06.2018 04:09 13,4 C 21,1 C 97 % 1016,8 hPa 0,2 l/m 4,2 km/h (1 Bft) SW 231 0 min 0,000 mm 0,0 UV-I 0 W/m 12,9 C 13,4 C 11,3 km/h (2 Bft) 100,00 %
28.06.2018 04:10 13,4 C 21,1 C 97 % 1016,8 hPa 0,2 l/m 6,3 km/h (2 Bft) W-SW 237 0 min 0,000 mm 0,0 UV-I 0 W/m 12,9 C 13,4 C 9,7 km/h (2 Bft) 100,00 %
28.06.2018 04:11 13,3 C 21,1 C 97 % 1016,8 hPa 0,2 l/m 5,3 km/h (1 Bft) W 267 0 min 0,000 mm 0,0 UV-I 0 W/m 12,8 C 13,3 C 9,7 km/h (2 Bft) 100,00 %
28.06.2018 04:12 13,3 C 21,1 C 97 % 1016,7 hPa 0,2 l/m 6,4 km/h (2 Bft) W 268 0 min 0,000 mm 0,0 UV-I 0 W/m 12,8 C 13,3 C 9,7 km/h (2 Bft) 100,00 %
28.06.2018 04:13 13,3 C 21,1 C 97 % 1016,7 hPa 0,0 l/m 5,9 km/h (2 Bft) W 261 0 min 0,000 mm 0,0 UV-I 0 W/m 12,8 C 13,3 C 9,7 km/h (2 Bft) 100,00 %
28.06.2018 04:14 13,3 C 21,1 C 97 % 1016,6 hPa 0,2 l/m 7,0 km/h (2 Bft) W 259 0 min 0,000 mm 0,0 UV-I 0 W/m 12,8 C 12,9 C 11,3 km/h (2 Bft) 97,37 %
28.06.2018 04:15 13,3 C 21,1 C 97 % 1016,7 hPa 0,0 l/m 9,1 km/h (2 Bft) W 259 0 min 0,000 mm 0,0 UV-I 0 W/m 12,8 C 11,7 C 11,3 km/h (2 Bft) 100,00 %
28.06.2018 04:16 13,3 C 21,1 C 97 % 1016,6 hPa 0,0 l/m 7,3 km/h (2 Bft) W-SW 248 0 min 0,000 mm 0,0 UV-I 0 W/m 12,8 C 12,7 C 11,3 km/h (2 Bft) 100,00 %
28.06.2018 04:17 13,3 C 21,1 C 97 % 1016,6 hPa 0,2 l/m 8,4 km/h (2 Bft) W-SW 258 0 min 0,000 mm 0,0 UV-I 0 W/m 12,8 C 12,1 C 12,9 km/h (3 Bft) 100,00 %
28.06.2018 04:18 13,3 C 21,1 C 97 % 1016,6 hPa 0,0 l/m 10,3 km/h (2 Bft) W-SW 257 0 min 0,000 mm 0,0 UV-I 0 W/m 12,8 C 11,1 C 12,9 km/h (3 Bft) 100,00 %
28.06.2018 04:19 13,3 C 21,1 C 97 % 1016,6 hPa 0,0 l/m 6,5 km/h (2 Bft) W-SW 252 0 min 0,000 mm 0,0 UV-I 0 W/m 12,8 C 13,3 C 9,7 km/h (2 Bft) 95,83 %
28.06.2018 04:20 13,3 C 21,1 C 97 % 1016,5 hPa 0,2 l/m 5,4 km/h (1 Bft) W 259 0 min 0,000 mm 0,0 UV-I 0 W/m 12,8 C 13,3 C 9,7 km/h (2 Bft) 100,00 %
28.06.2018 04:21 13,3 C 21,1 C 97 % 1016,5 hPa 0,0 l/m 5,7 km/h (1 Bft) W 268 0 min 0,000 mm 0,0 UV-I 0 W/m 12,8 C 13,3 C 9,7 km/h (2 Bft) 100,00 %
28.06.2018 04:22 13,3 C 21,1 C 97 % 1016,5 hPa 0,2 l/m 6,6 km/h (2 Bft) W-SW 254 0 min 0,000 mm 0,0 UV-I 0 W/m 12,8 C 13,2 C 9,7 km/h (2 Bft) 100,00 %
28.06.2018 04:23 13,3 C 21,1 C 97 % 1016,5 hPa 0,2 l/m 5,8 km/h (2 Bft) W-SW 246 0 min 0,000 mm 0,0 UV-I 0 W/m 12,8 C 13,3 C 11,3 km/h (2 Bft) 100,00 %
28.06.2018 04:24 13,3 C 21,1 C 97 % 1016,4 hPa 0,0 l/m 5,8 km/h (2 Bft) W-SW 248 0 min 0,000 mm 0,0 UV-I 0 W/m 12,8 C 13,3 C 9,7 km/h (2 Bft) 100,00 %
28.06.2018 04:25 13,3 C 21,1 C 97 % 1016,5 hPa 0,2 l/m 9,7 km/h (2 Bft) W-SW 252 0 min 0,000 mm 0,0 UV-I 0 W/m 12,8 C 11,4 C 12,9 km/h (3 Bft) 93,33 %
28.06.2018 04:26 13,3 C 21,1 C 97 % 1016,4 hPa 0,2 l/m 6,8 km/h (2 Bft) W 276 0 min 0,000 mm 0,0 UV-I 0 W/m 12,8 C 13,1 C 11,3 km/h (2 Bft) 100,00 %
28.06.2018 04:27 13,3 C 21,1 C 97 % 1016,4 hPa 0,0 l/m 7,1 km/h (2 Bft) W 268 0 min 0,000 mm 0,0 UV-I 0 W/m 12,8 C 12,9 C 11,3 km/h (2 Bft) 100,00 %
28.06.2018 04:28 13,3 C 21,1 C 97 % 1016,4 hPa 0,2 l/m 6,0 km/h (2 Bft) W 281 0 min 0,000 mm 0,0 UV-I 0 W/m 12,8 C 13,3 C 11,3 km/h (2 Bft) 100,00 %
28.06.2018 04:29 13,3 C 21,1 C 97 % 1016,4 hPa 0,0 l/m 5,6 km/h (1 Bft) W-NW 292 0 min 0,000 mm 0,0 UV-I 0 W/m 12,8 C 13,3 C 11,3 km/h (2 Bft) 100,00 %
28.06.2018 04:30 13,3 C 21,1 C 97 % 1016,4 hPa 0,2 l/m 4,1 km/h (1 Bft) W 262 0 min 0,000 mm 0,0 UV-I 0 W/m 12,8 C 13,3 C 4,8 km/h (1 Bft) 100,00 %
28.06.2018 04:31 13,3 C 21,1 C 97 % 1016,4 hPa 0,0 l/m 2,7 km/h (1 Bft) W-NW 282 0 min 0,000 mm 0,0 UV-I 0 W/m 12,8 C 13,3 C 4,8 km/h (1 Bft) 100,00 %
28.06.2018 04:32 13,3 C 21,1 C 97 % 1016,4 hPa 0,0 l/m 4,8 km/h (1 Bft) W 269 0 min 0,000 mm 0,0 UV-I 0 W/m 12,8 C 13,3 C 6,4 km/h (2 Bft) 100,00 %
28.06.2018 04:33 13,3 C 21,1 C 97 % 1016,4 hPa 0,2 l/m 9,6 km/h (2 Bft) W-SW 243 0 min 0,000 mm 0,0 UV-I 0 W/m 12,8 C 11,4 C 16,1 km/h (3 Bft) 100,00 %
28.06.2018 04:34 13,3 C 21,1 C 97 % 1016,4 hPa 0,0 l/m 8,4 km/h (2 Bft) SW 222 0 min 0,000 mm 0,0 UV-I 0 W/m 12,8 C 12,1 C 11,3 km/h (2 Bft) 100,00 %
28.06.2018 04:35 13,3 C 21,1 C 97 % 1016,4 hPa 0,0 l/m 5,4 km/h (1 Bft) W 266 0 min 0,000 mm 0,0 UV-I 0 W/m 12,8 C 13,3 C 11,3 km/h (2 Bft) 100,00 %
28.06.2018 04:36 13,2 C 21,1 C 97 % 1016,4 hPa 0,0 l/m 5,0 km/h (1 Bft) W 261 0 min 0,000 mm 0,0 UV-I 0 W/m 12,7 C 13,2 C 6,4 km/h (2 Bft) 100,00 %
28.06.2018 04:37 13,2 C 21,1 C 97 % 1016,3 hPa 0,0 l/m 5,9 km/h (2 Bft) W-NW 302 0 min 0,000 mm 0,0 UV-I 0 W/m 12,7 C 13,2 C 14,5 km/h (3 Bft) 95,65 %
28.06.2018 04:38 13,2 C 21,1 C 97 % 1016,3 hPa 0,0 l/m 6,8 km/h (2 Bft) W 263 0 min 0,000 mm 0,0 UV-I 0 W/m 12,7 C 13,0 C 12,9 km/h (3 Bft) 100,00 %
28.06.2018 04:39 13,2 C 21,1 C 97 % 1016,3 hPa 0,0 l/m 4,6 km/h (1 Bft) W 267 0 min 0,000 mm 0,0 UV-I 0 W/m 12,7 C 13,2 C 6,4 km/h (2 Bft) 100,00 %
28.06.2018 04:40 13,2 C 21,1 C 97 % 1016,3 hPa 0,0 l/m 4,9 km/h (1 Bft) W 273 0 min 0,000 mm 0,0 UV-I 0 W/m 12,7 C 13,2 C 9,7 km/h (2 Bft) 100,00 %
28.06.2018 04:41 13,2 C 21,1 C 97 % 1016,3 hPa 0,2 l/m 7,4 km/h (2 Bft) SW 226 0 min 0,000 mm 0,0 UV-I 0 W/m 12,7 C 12,6 C 12,9 km/h (3 Bft) 91,30 %
28.06.2018 04:42 13,2 C 21,1 C 97 % 1016,3 hPa 0,0 l/m 6,2 km/h (2 Bft) W 276 0 min 0,000 mm 0,0 UV-I 0 W/m 12,7 C 13,2 C 8,0 km/h (2 Bft) 95,83 %
28.06.2018 04:43 13,2 C 21,1 C 97 % 1016,3 hPa 0,0 l/m 5,1 km/h (1 Bft) W 275 0 min 0,000 mm 0,0 UV-I 0 W/m 12,7 C 13,2 C 9,7 km/h (2 Bft) 100,00 %
28.06.2018 04:44 13,2 C 21,1 C 97 % 1016,3 hPa 0,0 l/m 5,2 km/h (1 Bft) W 265 0 min 0,000 mm 0,0 UV-I 0 W/m 12,7 C 13,2 C 6,4 km/h (2 Bft) 100,00 %
28.06.2018 04:45 13,2 C 21,1 C 97 % 1016,3 hPa 0,0 l/m 7,5 km/h (2 Bft) W 263 0 min 0,000 mm 0,0 UV-I 0 W/m 12,7 C 12,5 C 12,9 km/h (3 Bft) 100,00 %
28.06.2018 04:46 13,2 C 21,1 C 97 % 1016,3 hPa 0,0 l/m 5,7 km/h (1 Bft) NW 310 0 min 0,000 mm 0,0 UV-I 0 W/m 12,7 C 13,2 C 9,7 km/h (2 Bft) 100,00 %
28.06.2018 04:47 13,2 C 21,1 C 97 % 1016,3 hPa 0,0 l/m 4,8 km/h (1 Bft) W 270 0 min 0,000 mm 0,0 UV-I 0 W/m 12,7 C 13,2 C 9,7 km/h (2 Bft) 100,00 %
28.06.2018 04:48 13,2 C 21,1 C 97 % 1016,2 hPa 0,0 l/m 6,4 km/h (2 Bft) W-NW 292 0 min 0,000 mm 0,0 UV-I 0 W/m 12,7 C 13,2 C 12,9 km/h (3 Bft) 95,83 %
28.06.2018 04:49 13,2 C 21,1 C 97 % 1016,2 hPa 0,2 l/m 5,8 km/h (2 Bft) W 265 0 min 0,000 mm 0,0 UV-I 0 W/m 12,7 C 13,2 C 9,7 km/h (2 Bft) 100,00 %
28.06.2018 04:50 13,2 C 21,1 C 97 % 1016,2 hPa 0,0 l/m 5,3 km/h (1 Bft) W 261 0 min 0,000 mm 0,0 UV-I 0 W/m 12,7 C 13,2 C 9,7 km/h (2 Bft) 95,83 %
28.06.2018 04:51 13,2 C 21,1 C 97 % 1016,2 hPa 0,0 l/m 5,5 km/h (1 Bft) W-SW 252 0 min 0,000 mm 0,0 UV-I 0 W/m 12,7 C 13,2 C 11,3 km/h (2 Bft) 100,00 %
28.06.2018 04:52 13,2 C 21,1 C 97 % 1016,2 hPa 0,0 l/m 6,1 km/h (2 Bft) W 270 0 min 0,000 mm 0,0 UV-I 0 W/m 12,7 C 13,2 C 9,7 km/h (2 Bft) 95,83 %
28.06.2018 04:53 13,2 C 21,1 C 97 % 1016,2 hPa 0,2 l/m 8,1 km/h (2 Bft) W 263 0 min 0,000 mm 0,0 UV-I 0 W/m 12,7 C 12,2 C 12,9 km/h (3 Bft) 100,00 %
28.06.2018 04:54 13,2 C 21,1 C 97 % 1016,1 hPa 0,0 l/m 9,6 km/h (2 Bft) NW 305 0 min 0,000 mm 0,0 UV-I 0 W/m 12,7 C 11,3 C 14,5 km/h (3 Bft) 95,83 %
28.06.2018 04:55 13,2 C 21,1 C 97 % 1016,1 hPa 0,0 l/m 8,0 km/h (2 Bft) W-NW 285 0 min 0,000 mm 0,0 UV-I 0 W/m 12,7 C 12,2 C 12,9 km/h (3 Bft) 100,00 %
28.06.2018 04:56 13,1 C 21,1 C 97 % 1016,1 hPa 0,0 l/m 6,0 km/h (2 Bft) W-SW 257 0 min 0,000 mm 0,0 UV-I 0 W/m 12,6 C 13,1 C 9,7 km/h (2 Bft) 83,33 %
28.06.2018 04:57 13,1 C 21,1 C 97 % 1016,1 hPa 0,0 l/m 6,9 km/h (2 Bft) W-SW 246 0 min 0,000 mm 0,0 UV-I 0 W/m 12,6 C 12,8 C 11,3 km/h (2 Bft) 100,00 %
28.06.2018 04:58 13,1 C 21,1 C 97 % 1016,1 hPa 0,2 l/m 12,1 km/h (2 Bft) NW 308 0 min 0,000 mm 0,0 UV-I 0 W/m 12,6 C 10,0 C 17,7 km/h (3 Bft) 91,30 %
28.06.2018 04:59 13,1 C 21,1 C 97 % 1016,1 hPa 0,0 l/m 6,6 km/h (2 Bft) W 262 0 min 0,000 mm 0,0 UV-I 0 W/m 12,6 C 13,0 C 9,7 km/h (2 Bft) 100,00 %
28.06.2018 05:00 13,1 C 21,1 C 97 % 1016,1 hPa 0,0 l/m 6,5 km/h (2 Bft) W 263 0 min 0,000 mm 0,0 UV-I 0 W/m 12,6 C 13,1 C 9,7 km/h (2 Bft) 86,96 %
28.06.2018 05:01 13,1 C 21,1 C 97 % 1016,1 hPa 0,0 l/m 6,8 km/h (2 Bft) W-SW 254 0 min 0,000 mm 0,0 UV-I 0 W/m 12,6 C 12,9 C 11,3 km/h (2 Bft) 95,83 %
28.06.2018 05:02 13,1 C 21,1 C 97 % 1016,0 hPa 0,0 l/m 8,0 km/h (2 Bft) W 279 0 min 0,000 mm 0,0 UV-I 0 W/m 12,6 C 12,1 C 11,3 km/h (2 Bft) 100,00 %
28.06.2018 05:03 13,1 C 21,1 C 97 % 1016,1 hPa 0,0 l/m 5,9 km/h (2 Bft) W-NW 286 0 min 0,000 mm 0,0 UV-I 0 W/m 12,6 C 13,1 C 11,3 km/h (2 Bft) 95,83 %
28.06.2018 05:04 13,1 C 21,1 C 97 % 1016,0 hPa 0,0 l/m 6,0 km/h (2 Bft) W-SW 254 0 min 0,000 mm 0,0 UV-I 0 W/m 12,6 C 13,1 C 9,7 km/h (2 Bft) 100,00 %
28.06.2018 05:05 13,1 C 21,1 C 97 % 1016,0 hPa 0,2 l/m 7,9 km/h (2 Bft) SW 234 0 min 0,000 mm 0,0 UV-I 0 W/m 12,6 C 12,2 C 12,9 km/h (3 Bft) 95,83 %
28.06.2018 05:06 13,1 C 21,1 C 97 % 1016,0 hPa 0,0 l/m 8,0 km/h (2 Bft) W 261 0 min 0,000 mm 0,0 UV-I 0 W/m 12,6 C 12,1 C 11,3 km/h (2 Bft) 100,00 %
28.06.2018 05:07 13,1 C 21,1 C 97 % 1016,0 hPa 0,0 l/m 10,9 km/h (2 Bft) W-NW 285 0 min 0,000 mm 0,0 UV-I 0 W/m 12,6 C 10,6 C 14,5 km/h (3 Bft) 95,83 %
28.06.2018 05:08 13,1 C 21,1 C 97 % 1016,0 hPa 0,0 l/m 8,6 km/h (2 Bft) W-SW 251 0 min 0,000 mm 0,0 UV-I 0 W/m 12,6 C 11,8 C 14,5 km/h (3 Bft) 100,00 %
28.06.2018 05:09 13,1 C 21,1 C 97 % 1016,0 hPa 0,0 l/m 7,9 km/h (2 Bft) W 264 0 min 0,000 mm 0,0 UV-I 0 W/m 12,6 C 12,2 C 12,9 km/h (3 Bft) 91,67 %
28.06.2018 05:10 13,1 C 21,1 C 97 % 1015,9 hPa 0,0 l/m 6,8 km/h (2 Bft) W 268 0 min 0,000 mm 0,0 UV-I 0 W/m 12,6 C 12,9 C 9,7 km/h (2 Bft) 100,00 %
28.06.2018 05:11 13,1 C 21,1 C 97 % 1016,0 hPa 0,0 l/m 7,3 km/h (2 Bft) W-NW 286 0 min 0,000 mm 0,0 UV-I 0 W/m 12,6 C 12,5 C 12,9 km/h (3 Bft) 95,65 %
28.06.2018 05:12 13,1 C 21,1 C 97 % 1016,0 hPa 0,0 l/m 8,5 km/h (2 Bft) W 266 0 min 0,000 mm 0,0 UV-I 0 W/m 12,6 C 11,8 C 12,9 km/h (3 Bft) 95,83 %
28.06.2018 05:13 13,1 C 21,1 C 97 % 1015,9 hPa 0,0 l/m 8,5 km/h (2 Bft) W 259 0 min 0,000 mm 0,0 UV-I 0 W/m 12,6 C 11,8 C 12,9 km/h (3 Bft) 100,00 %
28.06.2018 05:14 13,1 C 21,1 C 97 % 1016,0 hPa 0,0 l/m 7,5 km/h (2 Bft) W 265 0 min 0,000 mm 0,0 UV-I 0 W/m 12,6 C 12,4 C 9,7 km/h (2 Bft) 95,83 %
28.06.2018 05:15 13,1 C 21,1 C 97 % 1016,0 hPa 0,2 l/m 7,7 km/h (2 Bft) W-NW 302 0 min 0,000 mm 0,0 UV-I 0 W/m 12,6 C 12,3 C 11,3 km/h (2 Bft) 100,00 %
28.06.2018 05:16 13,1 C 21,1 C 97 % 1016,0 hPa 0,0 l/m 8,0 km/h (2 Bft) NW 306 0 min 0,000 mm 0,0 UV-I 0 W/m 12,6 C 12,1 C 14,5 km/h (3 Bft) 96,30 %
28.06.2018 05:17 13,1 C 21,1 C 97 % 1015,9 hPa 0,0 l/m 7,4 km/h (2 Bft) W 260 0 min 0,000 mm 0,0 UV-I 0 W/m 12,6 C 12,5 C 11,3 km/h (2 Bft) 100,00 %
28.06.2018 05:18 13,1 C 21,1 C 97 % 1015,9 hPa 0,2 l/m 7,6 km/h (2 Bft) W 270 0 min 0,000 mm 0,0 UV-I 0 W/m 12,6 C 12,3 C 11,3 km/h (2 Bft) 95,83 %
28.06.2018 05:19 13,1 C 21,1 C 97 % 1015,9 hPa 0,0 l/m 7,3 km/h (2 Bft) W 259 0 min 0,000 mm 0,0 UV-I 0 W/m 12,6 C 12,5 C 12,9 km/h (3 Bft) 100,00 %
28.06.2018 05:20 13,1 C 21,1 C 97 % 1015,9 hPa 0,0 l/m 10,6 km/h (2 Bft) W-SW 248 0 min 0,000 mm 0,0 UV-I 0 W/m 12,6 C 10,7 C 14,5 km/h (3 Bft) 95,83 %
28.06.2018 05:21 13,1 C 21,1 C 97 % 1015,9 hPa 0,2 l/m 8,1 km/h (2 Bft) W-SW 253 0 min 0,000 mm 0,0 UV-I 0 W/m 12,6 C 12,0 C 12,9 km/h (3 Bft) 95,65 %
28.06.2018 05:22 13,1 C 21,1 C 97 % 1015,9 hPa 0,0 l/m 6,7 km/h (2 Bft) W-SW 252 0 min 0,000 mm 0,0 UV-I 0 W/m 12,6 C 12,9 C 9,7 km/h (2 Bft) 95,83 %
28.06.2018 05:23 13,1 C 21,1 C 97 % 1015,9 hPa 0,0 l/m 5,2 km/h (1 Bft) W 277 0 min 0,000 mm 0,0 UV-I 0 W/m 12,6 C 13,1 C 9,7 km/h (2 Bft) 91,30 %
28.06.2018 05:24 13,1 C 21,1 C 97 % 1015,9 hPa 0,0 l/m 12,3 km/h (3 Bft) W 261 0 min 0,000 mm 0,0 UV-I 0 W/m 12,6 C 10,0 C 17,7 km/h (3 Bft) 95,83 %
28.06.2018 05:25 13,1 C 21,1 C 97 % 1015,9 hPa 0,2 l/m 11,0 km/h (2 Bft) W 264 0 min 0,000 mm 0,0 UV-I 0 W/m 12,6 C 10,5 C 14,5 km/h (3 Bft) 92,31 %
28.06.2018 05:26 13,1 C 21,1 C 97 % 1015,9 hPa 0,0 l/m 7,7 km/h (2 Bft) W 271 0 min 0,000 mm 0,0 UV-I 0 W/m 12,6 C 12,3 C 11,3 km/h (2 Bft) 100,00 %
28.06.2018 05:27 13,1 C 21,1 C 97 % 1015,9 hPa 0,0 l/m 6,2 km/h (2 Bft) W 260 0 min 0,000 mm 0,0 UV-I 3 W/m 12,6 C 13,1 C 11,3 km/h (2 Bft) 92,31 %
28.06.2018 05:28 13,1 C 21,1 C 97 % 1015,9 hPa 0,2 l/m 9,6 km/h (2 Bft) W-SW 257 0 min 0,000 mm 0,0 UV-I 5 W/m 12,6 C 11,2 C 14,5 km/h (3 Bft) 100,00 %
28.06.2018 05:29 13,1 C 21,1 C 97 % 1015,9 hPa 0,0 l/m 9,4 km/h (2 Bft) W 281 0 min 0,000 mm 0,0 UV-I 5 W/m 12,6 C 11,3 C 16,1 km/h (3 Bft) 87,50 %
28.06.2018 05:30 13,1 C 21,1 C 97 % 1015,9 hPa 0,0 l/m 11,4 km/h (2 Bft) W-SW 257 0 min 0,000 mm 0,0 UV-I 5 W/m 12,6 C 10,4 C 17,7 km/h (3 Bft) 100,00 %
28.06.2018 05:31 13,1 C 21,1 C 97 % 1015,9 hPa 0,2 l/m 9,3 km/h (2 Bft) W 274 0 min 0,000 mm 0,0 UV-I 5 W/m 12,6 C 11,4 C 12,9 km/h (3 Bft) 88,89 %
28.06.2018 05:32 13,1 C 21,1 C 97 % 1015,8 hPa 0,0 l/m 10,1 km/h (2 Bft) W-SW 257 0 min 0,000 mm 0,0 UV-I 5 W/m 12,6 C 11,0 C 14,5 km/h (3 Bft) 100,00 %
28.06.2018 05:33 13,1 C 21,1 C 97 % 1015,8 hPa 0,0 l/m 11,4 km/h (2 Bft) W 261 0 min 0,000 mm 0,0 UV-I 5 W/m 12,6 C 10,4 C 14,5 km/h (3 Bft) 95,83 %
28.06.2018 05:34 13,1 C 21,1 C 97 % 1015,8 hPa 0,2 l/m 14,5 km/h (3 Bft) W-NW 292 0 min 0,000 mm 0,0 UV-I 5 W/m 12,6 C 9,1 C 20,9 km/h (4 Bft) 91,30 %
28.06.2018 05:35 13,1 C 21,1 C 97 % 1015,8 hPa 0,0 l/m 9,2 km/h (2 Bft) W 280 0 min 0,000 mm 0,0 UV-I 5 W/m 12,6 C 11,4 C 12,9 km/h (3 Bft) 100,00 %
28.06.2018 05:36 13,1 C 21,1 C 97 % 1015,8 hPa 0,0 l/m 7,3 km/h (2 Bft) W-SW 251 0 min 0,000 mm 0,0 UV-I 5 W/m 12,6 C 12,5 C 11,3 km/h (2 Bft) 86,96 %
28.06.2018 05:37 13,1 C 21,1 C 97 % 1015,8 hPa 0,0 l/m 10,5 km/h (2 Bft) W 259 0 min 0,000 mm 0,0 UV-I 7 W/m 12,6 C 10,8 C 14,5 km/h (3 Bft) 100,00 %
28.06.2018 05:38 13,1 C 21,1 C 97 % 1015,8 hPa 0,0 l/m 10,3 km/h (2 Bft) W 263 0 min 0,000 mm 0,0 UV-I 7 W/m 12,6 C 10,9 C 14,5 km/h (3 Bft) 82,61 %
28.06.2018 05:39 13,1 C 21,1 C 97 % 1015,8 hPa 0,0 l/m 10,1 km/h (2 Bft) W 259 0 min 0,000 mm 0,0 UV-I 7 W/m 12,6 C 11,0 C 17,7 km/h (3 Bft) 100,00 %
28.06.2018 05:40 13,1 C 21,1 C 97 % 1015,8 hPa 0,0 l/m 11,5 km/h (2 Bft) W-SW 254 0 min 0,000 mm 0,0 UV-I 7 W/m 12,6 C 10,3 C 14,5 km/h (3 Bft) 86,96 %
28.06.2018 05:41 13,1 C 21,1 C 97 % 1015,8 hPa 0,2 l/m 7,1 km/h (2 Bft) W 265 0 min 0,000 mm 0,0 UV-I 7 W/m 12,6 C 12,7 C 9,7 km/h (2 Bft) 95,83 %
28.06.2018 05:42 13,1 C 21,1 C 97 % 1015,8 hPa 0,0 l/m 10,7 km/h (2 Bft) NW 317 0 min 0,000 mm 0,0 UV-I 7 W/m 12,6 C 10,7 C 17,7 km/h (3 Bft) 96,15 %
28.06.2018 05:43 13,1 C 21,1 C 97 % 1015,8 hPa 0,0 l/m 9,5 km/h (2 Bft) W 273 0 min 0,000 mm 0,0 UV-I 8 W/m 12,6 C 11,3 C 12,9 km/h (3 Bft) 91,67 %
28.06.2018 05:44 13,1 C 21,1 C 97 % 1015,8 hPa 0,0 l/m 8,0 km/h (2 Bft) W 261 0 min 0,000 mm 0,0 UV-I 7 W/m 12,6 C 12,1 C 11,3 km/h (2 Bft) 100,00 %
28.06.2018 05:45 13,1 C 21,1 C 97 % 1015,8 hPa 0,0 l/m 8,2 km/h (2 Bft) W-NW 303 0 min 0,000 mm 0,0 UV-I 7 W/m 12,6 C 12,0 C 11,3 km/h (2 Bft) 91,67 %
28.06.2018 05:46 13,1 C 21,1 C 97 % 1015,8 hPa 0,0 l/m 8,1 km/h (2 Bft) W-SW 247 0 min 0,000 mm 0,0 UV-I 7 W/m 12,6 C 12,0 C 16,1 km/h (3 Bft) 100,00 %
28.06.2018 05:47 13,1 C 21,1 C 97 % 1015,8 hPa 0,0 l/m 9,4 km/h (2 Bft) W 275 0 min 0,000 mm 0,0 UV-I 7 W/m 12,6 C 11,3 C 14,5 km/h (3 Bft) 91,67 %
28.06.2018 05:48 13,1 C 21,1 C 97 % 1015,8 hPa 0,0 l/m 9,8 km/h (2 Bft) W-SW 255 0 min 0,000 mm 0,0 UV-I 9 W/m 12,6 C 11,1 C 16,1 km/h (3 Bft) 100,00 %
28.06.2018 05:49 13,1 C 21,1 C 97 % 1015,8 hPa 0,0 l/m 9,3 km/h (2 Bft) W-SW 246 0 min 0,000 mm 0,0 UV-I 9 W/m 12,6 C 11,4 C 17,7 km/h (3 Bft) 92,31 %
28.06.2018 05:50 13,1 C 21,1 C 97 % 1015,8 hPa 0,0 l/m 10,1 km/h (2 Bft) W-SW 254 0 min 0,000 mm 0,0 UV-I 10 W/m 12,6 C 11,0 C 19,3 km/h (3 Bft) 100,00 %
28.06.2018 05:51 13,0 C 21,1 C 97 % 1015,8 hPa 0,2 l/m 8,7 km/h (2 Bft) W 265 0 min 0,000 mm 0,0 UV-I 11 W/m 12,5 C 11,6 C 16,1 km/h (3 Bft) 92,31 %
28.06.2018 05:52 13,0 C 21,1 C 97 % 1015,8 hPa 0,0 l/m 11,7 km/h (2 Bft) W 263 0 min 0,000 mm 0,0 UV-I 11 W/m 12,5 C 10,1 C 17,7 km/h (3 Bft) 95,83 %
28.06.2018 05:53 13,0 C 21,1 C 97 % 1015,8 hPa 0,0 l/m 10,7 km/h (2 Bft) W 274 0 min 0,000 mm 0,0 UV-I 11 W/m 12,5 C 10,6 C 16,1 km/h (3 Bft) 95,65 %
28.06.2018 05:54 13,0 C 21,1 C 97 % 1015,8 hPa 0,0 l/m 7,6 km/h (2 Bft) W 271 0 min 0,000 mm 0,0 UV-I 11 W/m 12,5 C 12,2 C 11,3 km/h (2 Bft) 100,00 %
28.06.2018 05:55 13,1 C 21,1 C 97 % 1015,8 hPa 0,0 l/m 8,4 km/h (2 Bft) NW 313 0 min 0,000 mm 0,0 UV-I 11 W/m 12,6 C 11,9 C 14,5 km/h (3 Bft) 100,00 %
28.06.2018 05:56 13,1 C 21,1 C 97 % 1015,8 hPa 0,0 l/m 9,8 km/h (2 Bft) W-SW 242 0 min 0,000 mm 0,0 UV-I 11 W/m 12,6 C 11,1 C 16,1 km/h (3 Bft) 100,00 %
28.06.2018 05:57 13,0 C 21,1 C 97 % 1015,8 hPa 0,0 l/m 9,2 km/h (2 Bft) W 268 0 min 0,000 mm 0,0 UV-I 11 W/m 12,5 C 11,3 C 16,1 km/h (3 Bft) 100,00 %
28.06.2018 05:59 13,1 C 21,1 C 97 % 1015,8 hPa 0,2 l/m 7,5 km/h (2 Bft) W-NW 285 0 min 0,000 mm 0,0 UV-I 11 W/m 12,6 C 12,4 C 11,3 km/h (2 Bft) 95,74 %
28.06.2018 06:00 13,1 C 21,1 C 97 % 1015,8 hPa 0,0 l/m 8,1 km/h (2 Bft) W-NW 302 0 min 0,000 mm 0,0 UV-I 12 W/m 12,6 C 12,0 C 14,5 km/h (3 Bft) 95,83 %
28.06.2018 06:02 13,1 C 21,1 C 97 % 1015,7 hPa 0,0 l/m 9,8 km/h (2 Bft) W 273 0 min 0,000 mm 0,0 UV-I 12 W/m 12,6 C 11,1 C 16,1 km/h (3 Bft) 100,00 %
28.06.2018 06:03 13,1 C 21,1 C 97 % 1015,7 hPa 0,0 l/m 8,8 km/h (2 Bft) W 273 0 min 0,000 mm 0,0 UV-I 12 W/m 12,6 C 11,7 C 12,9 km/h (3 Bft) 100,00 %
28.06.2018 06:04 13,1 C 21,1 C 97 % 1015,7 hPa 0,0 l/m 10,1 km/h (2 Bft) W 264 0 min 0,000 mm 0,0 UV-I 12 W/m 12,6 C 11,0 C 12,9 km/h (3 Bft) 100,00 %
28.06.2018 06:05 13,1 C 21,1 C 97 % 1015,7 hPa 0,0 l/m 11,3 km/h (2 Bft) W 276 0 min 0,000 mm 0,0 UV-I 12 W/m 12,6 C 10,4 C 17,7 km/h (3 Bft) 100,00 %
28.06.2018 06:06 13,1 C 21,1 C 97 % 1015,7 hPa 0,2 l/m 10,9 km/h (2 Bft) W 273 0 min 0,000 mm 0,0 UV-I 12 W/m 12,6 C 10,6 C 16,1 km/h (3 Bft) 100,00 %
28.06.2018 06:07 13,1 C 21,1 C 97 % 1015,7 hPa 0,0 l/m 9,5 km/h (2 Bft) W 269 0 min 0,000 mm 0,0 UV-I 14 W/m 12,6 C 11,3 C 14,5 km/h (3 Bft) 100,00 %
28.06.2018 06:08 13,1 C 21,1 C 97 % 1015,7 hPa 0,0 l/m 9,4 km/h (2 Bft) W-SW 252 0 min 0,000 mm 0,0 UV-I 13 W/m 12,6 C 11,3 C 16,1 km/h (3 Bft) 100,00 %
28.06.2018 06:09 13,1 C 21,1 C 97 % 1015,7 hPa 0,0 l/m 9,5 km/h (2 Bft) W 269 0 min 0,000 mm 0,0 UV-I 12 W/m 12,6 C 11,3 C 17,7 km/h (3 Bft) 100,00 %
28.06.2018 06:10 13,0 C 21,1 C 97 % 1015,7 hPa 0,0 l/m 7,6 km/h (2 Bft) W-SW 240 0 min 0,000 mm 0,0 UV-I 11 W/m 12,5 C 12,2 C 14,5 km/h (3 Bft) 100,00 %
28.06.2018 06:11 13,1 C 20,6 C 97 % 1015,7 hPa 0,0 l/m 7,4 km/h (2 Bft) W-NW 298 0 min 0,000 mm 0,0 UV-I 11 W/m 12,6 C 12,5 C 12,9 km/h (3 Bft) 100,00 %
28.06.2018 06:12 13,0 C 20,6 C 97 % 1015,6 hPa 0,2 l/m 9,3 km/h (2 Bft) W-NW 290 0 min 0,000 mm 0,0 UV-I 9 W/m 12,5 C 11,3 C 16,1 km/h (3 Bft) 100,00 %
28.06.2018 06:13 13,1 C 20,6 C 97 % 1015,7 hPa 0,0 l/m 9,4 km/h (2 Bft) W-SW 249 0 min 0,000 mm 0,0 UV-I 9 W/m 12,6 C 11,3 C 14,5 km/h (3 Bft) 100,00 %
28.06.2018 06:14 13,0 C 20,6 C 97 % 1015,7 hPa 0,0 l/m 12,1 km/h (2 Bft) W-SW 251 0 min 0,000 mm 0,0 UV-I 9 W/m 12,5 C 9,9 C 16,1 km/h (3 Bft) 100,00 %
28.06.2018 06:15 13,1 C 21,1 C 97 % 1015,7 hPa 0,0 l/m 10,8 km/h (2 Bft) W 261 0 min 0,000 mm 0,0 UV-I 10 W/m 12,6 C 10,6 C 14,5 km/h (3 Bft) 100,00 %
28.06.2018 06:16 13,1 C 21,1 C 97 % 1015,6 hPa 0,0 l/m 8,0 km/h (2 Bft) W-SW 238 0 min 0,000 mm 0,0 UV-I 12 W/m 12,6 C 12,1 C 11,3 km/h (2 Bft) 100,00 %
28.06.2018 06:17 13,1 C 20,6 C 97 % 1015,6 hPa 0,0 l/m 11,0 km/h (2 Bft) W 267 0 min 0,000 mm 0,0 UV-I 14 W/m 12,6 C 10,5 C 14,5 km/h (3 Bft) 100,00 %
28.06.2018 06:18 13,1 C 20,6 C 97 % 1015,6 hPa 0,2 l/m 6,6 km/h (2 Bft) W 281 0 min 0,000 mm 0,0 UV-I 15 W/m 12,6 C 13,0 C 9,7 km/h (2 Bft) 100,00 %
28.06.2018 06:19 13,1 C 21,1 C 97 % 1015,7 hPa 0,0 l/m 12,0 km/h (2 Bft) W-SW 252 0 min 0,000 mm 0,0 UV-I 16 W/m 12,6 C 10,1 C 17,7 km/h (3 Bft) 100,00 %
28.06.2018 06:20 13,1 C 21,1 C 97 % 1015,6 hPa 0,0 l/m 7,6 km/h (2 Bft) W 262 0 min 0,000 mm 0,0 UV-I 15 W/m 12,6 C 12,3 C 12,9 km/h (3 Bft) 100,00 %
28.06.2018 06:21 13,1 C 21,1 C 97 % 1015,7 hPa 0,0 l/m 7,7 km/h (2 Bft) W 267 0 min 0,000 mm 0,0 UV-I 14 W/m 12,6 C 12,3 C 14,5 km/h (3 Bft) 100,00 %
28.06.2018 06:22 13,1 C 21,1 C 97 % 1015,7 hPa 0,2 l/m 9,4 km/h (2 Bft) W-NW 288 0 min 0,000 mm 0,0 UV-I 14 W/m 12,6 C 11,3 C 14,5 km/h (3 Bft) 100,00 %
28.06.2018 06:23 13,1 C 21,1 C 97 % 1015,6 hPa 0,0 l/m 7,8 km/h (2 Bft) W-NW 302 0 min 0,000 mm 0,0 UV-I 16 W/m 12,6 C 12,2 C 14,5 km/h (3 Bft) 100,00 %
28.06.2018 06:24 13,1 C 21,1 C 97 % 1015,6 hPa 0,0 l/m 6,8 km/h (2 Bft) W 259 0 min 0,000 mm 0,0 UV-I 16 W/m 12,6 C 12,9 C 11,3 km/h (2 Bft) 100,00 %
28.06.2018 06:25 13,1 C 21,1 C 97 % 1015,6 hPa 0,0 l/m 3,6 km/h (1 Bft) NW 319 0 min 0,000 mm 0,0 UV-I 16 W/m 12,6 C 13,1 C 4,8 km/h (1 Bft) 100,00 %
28.06.2018 06:26 13,1 C 21,1 C 97 % 1015,6 hPa 0,0 l/m 6,5 km/h (2 Bft) W 260 0 min 0,000 mm 0,0 UV-I 17 W/m 12,6 C 13,1 C 14,5 km/h (3 Bft) 100,00 %
28.06.2018 06:27 13,1 C 21,1 C 97 % 1015,6 hPa 0,0 l/m 7,1 km/h (2 Bft) W 274 0 min 0,000 mm 0,0 UV-I 19 W/m 12,6 C 12,7 C 11,3 km/h (2 Bft) 95,83 %
28.06.2018 06:28 13,1 C 21,1 C 97 % 1015,6 hPa 0,0 l/m 6,6 km/h (2 Bft) W 279 0 min 0,000 mm 0,0 UV-I 21 W/m 12,6 C 13,0 C 11,3 km/h (2 Bft) 100,00 %
28.06.2018 06:29 13,1 C 20,6 C 97 % 1015,6 hPa 0,0 l/m 7,8 km/h (2 Bft) W 273 0 min 0,000 mm 0,0 UV-I 23 W/m 12,6 C 12,2 C 12,9 km/h (3 Bft) 96,30 %
28.06.2018 06:30 13,1 C 20,6 C 97 % 1015,5 hPa 0,0 l/m 9,9 km/h (2 Bft) W 261 0 min 0,000 mm 0,0 UV-I 21 W/m 12,6 C 11,1 C 14,5 km/h (3 Bft) 100,00 %
28.06.2018 06:31 13,1 C 20,6 C 97 % 1015,5 hPa 0,2 l/m 7,5 km/h (2 Bft) W-NW 291 0 min 0,000 mm 0,0 UV-I 20 W/m 12,6 C 12,4 C 11,3 km/h (2 Bft) 92,31 %
28.06.2018 06:32 13,1 C 20,6 C 97 % 1015,5 hPa 0,0 l/m 5,7 km/h (1 Bft) W 264 0 min 0,000 mm 0,0 UV-I 18 W/m 12,6 C 13,1 C 9,7 km/h (2 Bft) 100,00 %
28.06.2018 06:33 13,1 C 20,6 C 97 % 1015,5 hPa 0,0 l/m 9,2 km/h (2 Bft) W-SW 257 0 min 0,000 mm 0,0 UV-I 19 W/m 12,6 C 11,4 C 14,5 km/h (3 Bft) 100,00 %
28.06.2018 06:34 13,1 C 20,6 C 97 % 1015,5 hPa 0,0 l/m 9,3 km/h (2 Bft) W-NW 300 0 min 0,000 mm 0,0 UV-I 19 W/m 12,6 C 11,4 C 12,9 km/h (3 Bft) 100,00 %
28.06.2018 06:35 13,1 C 20,6 C 97 % 1015,5 hPa 0,0 l/m 8,8 km/h (2 Bft) W 269 0 min 0,000 mm 0,0 UV-I 19 W/m 12,6 C 11,7 C 12,9 km/h (3 Bft) 95,65 %
28.06.2018 06:36 13,1 C 20,6 C 97 % 1015,5 hPa 0,0 l/m 10,1 km/h (2 Bft) W 267 0 min 0,000 mm 0,0 UV-I 22 W/m 12,6 C 11,0 C 16,1 km/h (3 Bft) 100,00 %
28.06.2018 06:37 13,1 C 20,6 C 97 % 1015,4 hPa 0,0 l/m 8,7 km/h (2 Bft) W 261 0 min 0,000 mm 0,0 UV-I 24 W/m 12,6 C 11,7 C 12,9 km/h (3 Bft) 100,00 %
28.06.2018 06:38 13,1 C 20,6 C 97 % 1015,5 hPa 0,0 l/m 8,0 km/h (2 Bft) W 267 0 min 0,000 mm 0,0 UV-I 25 W/m 12,6 C 12,1 C 11,3 km/h (2 Bft) 100,00 %
28.06.2018 06:39 13,1 C 20,6 C 97 % 1015,4 hPa 0,0 l/m 7,5 km/h (2 Bft) W 272 0 min 0,000 mm 0,0 UV-I 25 W/m 12,6 C 12,4 C 12,9 km/h (3 Bft) 100,00 %
28.06.2018 06:40 13,1 C 20,6 C 97 % 1015,5 hPa 0,0 l/m 8,3 km/h (2 Bft) W-NW 296 0 min 0,000 mm 0,0 UV-I 23 W/m 12,6 C 11,9 C 12,9 km/h (3 Bft) 100,00 %
28.06.2018 06:41 13,1 C 20,6 C 97 % 1015,4 hPa 0,0 l/m 8,6 km/h (2 Bft) W 280 0 min 0,000 mm 0,0 UV-I 20 W/m 12,6 C 11,8 C 12,9 km/h (3 Bft) 95,65 %
28.06.2018 06:42 13,1 C 20,6 C 97 % 1015,5 hPa 0,0 l/m 7,5 km/h (2 Bft) W 272 0 min 0,000 mm 0,0 UV-I 17 W/m 12,6 C 12,4 C 11,3 km/h (2 Bft) 100,00 %
28.06.2018 06:43 13,1 C 20,6 C 97 % 1015,5 hPa 0,0 l/m 6,2 km/h (2 Bft) W 269 0 min 0,000 mm 0,0 UV-I 16 W/m 12,6 C 13,1 C 9,7 km/h (2 Bft) 100,00 %
28.06.2018 06:44 13,1 C 20,6 C 97 % 1015,5 hPa 0,0 l/m 6,8 km/h (2 Bft) W-NW 296 0 min 0,000 mm 0,0 UV-I 16 W/m 12,6 C 12,9 C 11,3 km/h (2 Bft) 100,00 %
28.06.2018 06:45 13,1 C 20,6 C 97 % 1015,5 hPa 0,0 l/m 7,5 km/h (2 Bft) W-SW 253 0 min 0,000 mm 0,0 UV-I 19 W/m 12,6 C 12,4 C 11,3 km/h (2 Bft) 96,15 %
28.06.2018 06:46 13,1 C 20,6 C 97 % 1015,5 hPa 0,0 l/m 5,4 km/h (1 Bft) W 259 0 min 0,000 mm 0,0 UV-I 21 W/m 12,6 C 13,1 C 8,0 km/h (2 Bft) 100,00 %
28.06.2018 06:47 13,1 C 20,6 C 97 % 1015,5 hPa 0,0 l/m 6,0 km/h (2 Bft) W 266 0 min 0,000 mm 0,0 UV-I 21 W/m 12,6 C 13,1 C 9,7 km/h (2 Bft) 100,00 %
28.06.2018 06:48 13,1 C 20,6 C 97 % 1015,5 hPa 0,0 l/m 7,8 km/h (2 Bft) W 271 0 min 0,000 mm 0,0 UV-I 19 W/m 12,6 C 12,2 C 12,9 km/h (3 Bft) 95,83 %
28.06.2018 06:49 13,1 C 20,6 C 97 % 1015,4 hPa 0,0 l/m 7,8 km/h (2 Bft) W-NW 284 0 min 0,000 mm 0,0 UV-I 19 W/m 12,6 C 12,2 C 11,3 km/h (2 Bft) 100,00 %
28.06.2018 06:50 13,1 C 20,6 C 97 % 1015,4 hPa 0,2 l/m 6,2 km/h (2 Bft) W 278 0 min 0,000 mm 0,0 UV-I 20 W/m 12,6 C 13,1 C 9,7 km/h (2 Bft) 100,00 %
28.06.2018 06:51 13,1 C 20,6 C 97 % 1015,5 hPa 0,0 l/m 6,1 km/h (2 Bft) W-SW 238 0 min 0,000 mm 0,0 UV-I 21 W/m 12,6 C 13,1 C 12,9 km/h (3 Bft) 100,00 %
28.06.2018 06:52 13,1 C 20,6 C 97 % 1015,5 hPa 0,0 l/m 5,9 km/h (2 Bft) W 266 0 min 0,000 mm 0,0 UV-I 23 W/m 12,6 C 13,1 C 11,3 km/h (2 Bft) 100,00 %
28.06.2018 06:53 13,1 C 20,6 C 97 % 1015,5 hPa 0,0 l/m 4,4 km/h (1 Bft) W 268 0 min 0,000 mm 0,0 UV-I 24 W/m 12,6 C 13,1 C 6,4 km/h (2 Bft) 100,00 %
28.06.2018 06:54 13,1 C 20,6 C 97 % 1015,5 hPa 0,0 l/m 8,9 km/h (2 Bft) W-SW 252 0 min 0,000 mm 0,0 UV-I 24 W/m 12,6 C 11,6 C 12,9 km/h (3 Bft) 100,00 %
28.06.2018 06:55 13,1 C 20,6 C 97 % 1015,5 hPa 0,0 l/m 8,8 km/h (2 Bft) W-NW 298 0 min 0,000 mm 0,0 UV-I 22 W/m 12,6 C 11,7 C 14,5 km/h (3 Bft) 100,00 %
28.06.2018 06:56 13,1 C 20,6 C 97 % 1015,4 hPa 0,0 l/m 8,2 km/h (2 Bft) W 260 0 min 0,000 mm 0,0 UV-I 20 W/m 12,6 C 12,0 C 11,3 km/h (2 Bft) 100,00 %
28.06.2018 06:57 13,2 C 20,6 C 97 % 1015,5 hPa 0,0 l/m 9,7 km/h (2 Bft) W-SW 245 0 min 0,000 mm 0,0 UV-I 18 W/m 12,7 C 11,3 C 12,9 km/h (3 Bft) 100,00 %
28.06.2018 06:58 13,2 C 20,6 C 97 % 1015,5 hPa 0,0 l/m 6,3 km/h (2 Bft) W 271 0 min 0,000 mm 0,0 UV-I 18 W/m 12,7 C 13,2 C 9,7 km/h (2 Bft) 100,00 %
28.06.2018 06:59 13,2 C 20,6 C 97 % 1015,5 hPa 0,0 l/m 5,7 km/h (1 Bft) W 271 0 min 0,000 mm 0,0 UV-I 18 W/m 12,7 C 13,2 C 9,7 km/h (2 Bft) 91,67 %
28.06.2018 07:00 13,2 C 20,6 C 97 % 1015,5 hPa 0,0 l/m 5,8 km/h (2 Bft) W-SW 252 0 min 0,000 mm 0,0 UV-I 20 W/m 12,7 C 13,2 C 9,7 km/h (2 Bft) 95,65 %
28.06.2018 07:02 13,2 C 20,6 C 97 % 1015,4 hPa 0,0 l/m 7,0 km/h (2 Bft) W 267 0 min 0,000 mm 0,0 UV-I 21 W/m 12,7 C 12,8 C 14,5 km/h (3 Bft) 96,00 %
28.06.2018 07:03 13,2 C 20,6 C 97 % 1015,4 hPa 0,0 l/m 8,3 km/h (2 Bft) W 271 0 min 0,000 mm 0,0 UV-I 23 W/m 12,7 C 12,0 C 12,9 km/h (3 Bft) 100,00 %
28.06.2018 07:04 13,2 C 20,6 C 97 % 1015,4 hPa 0,0 l/m 7,3 km/h (2 Bft) W-NW 294 0 min 0,000 mm 0,0 UV-I 23 W/m 12,7 C 12,6 C 14,5 km/h (3 Bft) 91,30 %
28.06.2018 07:05 13,2 C 20,6 C 97 % 1015,4 hPa 0,0 l/m 7,3 km/h (2 Bft) W 269 0 min 0,000 mm 0,0 UV-I 24 W/m 12,7 C 12,6 C 14,5 km/h (3 Bft) 100,00 %
28.06.2018 07:06 13,2 C 20,6 C 97 % 1015,3 hPa 0,0 l/m 6,3 km/h (2 Bft) SW 228 0 min 0,000 mm 0,0 UV-I 25 W/m 12,7 C 13,2 C 9,7 km/h (2 Bft) 95,65 %
28.06.2018 07:07 13,2 C 20,6 C 97 % 1015,3 hPa 0,0 l/m 8,2 km/h (2 Bft) W 260 0 min 0,000 mm 0,0 UV-I 27 W/m 12,7 C 12,1 C 12,9 km/h (3 Bft) 100,00 %
28.06.2018 07:08 13,2 C 20,6 C 97 % 1015,4 hPa 0,0 l/m 6,4 km/h (2 Bft) W-SW 250 0 min 0,000 mm 0,0 UV-I 30 W/m 12,7 C 13,2 C 9,7 km/h (2 Bft) 100,00 %
28.06.2018 07:09 13,2 C 20,6 C 97 % 1015,4 hPa 0,0 l/m 8,8 km/h (2 Bft) W-SW 242 0 min 0,000 mm 0,0 UV-I 32 W/m 12,7 C 11,8 C 11,3 km/h (2 Bft) 100,00 %
28.06.2018 07:10 13,2 C 20,6 C 97 % 1015,4 hPa 0,0 l/m 10,7 km/h (2 Bft) W 260 0 min 0,000 mm 0,0 UV-I 34 W/m 12,7 C 10,8 C 16,1 km/h (3 Bft) 100,00 %
28.06.2018 07:11 13,2 C 20,6 C 97 % 1015,4 hPa 0,0 l/m 4,2 km/h (1 Bft) W-NW 294 0 min 0,000 mm 0,0 UV-I 41 W/m 12,7 C 13,2 C 6,4 km/h (2 Bft) 100,00 %
28.06.2018 07:12 13,2 C 20,6 C 97 % 1015,4 hPa 0,0 l/m 6,2 km/h (2 Bft) W 263 0 min 0,000 mm 0,0 UV-I 48 W/m 12,7 C 13,2 C 11,3 km/h (2 Bft) 95,65 %
28.06.2018 07:14 13,2 C 20,6 C 97 % 1015,3 hPa 0,0 l/m 7,8 km/h (2 Bft) W-NW 284 0 min 0,000 mm 0,0 UV-I 50 W/m 12,7 C 12,3 C 14,5 km/h (3 Bft) 100,00 %
28.06.2018 07:15 13,2 C 20,6 C 97 % 1015,3 hPa 0,0 l/m 6,7 km/h (2 Bft) SW 222 0 min 0,000 mm 0,0 UV-I 47 W/m 12,7 C 13,0 C 11,3 km/h (2 Bft) 96,15 %
28.06.2018 07:16 13,2 C 20,6 C 97 % 1015,2 hPa 0,0 l/m 6,8 km/h (2 Bft) NW 321 0 min 0,000 mm 0,0 UV-I 49 W/m 12,7 C 13,0 C 11,3 km/h (2 Bft) 100,00 %
28.06.2018 07:17 13,2 C 20,6 C 97 % 1015,3 hPa 0,0 l/m 7,0 km/h (2 Bft) W 261 0 min 0,000 mm 0,0 UV-I 48 W/m 12,7 C 12,8 C 11,3 km/h (2 Bft) 100,00 %
28.06.2018 07:18 13,2 C 20,6 C 97 % 1015,3 hPa 0,0 l/m 6,9 km/h (2 Bft) W 262 0 min 0,000 mm 0,0 UV-I 46 W/m 12,7 C 12,9 C 11,3 km/h (2 Bft) 100,00 %
28.06.2018 07:19 13,2 C 20,6 C 97 % 1015,3 hPa 0,0 l/m 11,1 km/h (2 Bft) W 267 0 min 0,000 mm 0,0 UV-I 46 W/m 12,7 C 10,6 C 16,1 km/h (3 Bft) 95,65 %
28.06.2018 07:20 13,2 C 20,6 C 97 % 1015,3 hPa 0,0 l/m 7,9 km/h (2 Bft) W-SW 244 0 min 0,000 mm 0,0 UV-I 46 W/m 12,7 C 12,3 C 11,3 km/h (2 Bft) 95,83 %
28.06.2018 07:21 13,2 C 20,6 C 97 % 1015,3 hPa 0,0 l/m 9,5 km/h (2 Bft) W-SW 254 0 min 0,000 mm 0,0 UV-I 44 W/m 12,7 C 11,4 C 12,9 km/h (3 Bft) 100,00 %
28.06.2018 07:22 13,2 C 20,6 C 97 % 1015,3 hPa 0,2 l/m 6,0 km/h (2 Bft) W-SW 239 0 min 0,000 mm 0,0 UV-I 42 W/m 12,7 C 13,2 C 8,0 km/h (2 Bft) 95,83 %
28.06.2018 07:24 13,2 C 20,6 C 97 % 1015,3 hPa 0,0 l/m 7,9 km/h (2 Bft) W 267 0 min 0,000 mm 0,0 UV-I 39 W/m 12,7 C 12,3 C 14,5 km/h (3 Bft) 97,87 %
28.06.2018 07:25 13,2 C 20,6 C 97 % 1015,3 hPa 0,0 l/m 9,1 km/h (2 Bft) W 271 0 min 0,000 mm 0,0 UV-I 35 W/m 12,7 C 11,6 C 12,9 km/h (3 Bft) 100,00 %
28.06.2018 07:26 13,3 C 20,6 C 97 % 1015,3 hPa 0,0 l/m 9,5 km/h (2 Bft) W-SW 246 0 min 0,000 mm 0,0 UV-I 33 W/m 12,8 C 11,5 C 14,5 km/h (3 Bft) 95,83 %
28.06.2018 07:27 13,3 C 20,6 C 97 % 1015,3 hPa 0,0 l/m 8,4 km/h (2 Bft) NW 321 0 min 0,000 mm 0,0 UV-I 28 W/m 12,8 C 12,1 C 12,9 km/h (3 Bft) 91,30 %
28.06.2018 07:28 13,3 C 20,6 C 97 % 1015,2 hPa 0,0 l/m 9,8 km/h (2 Bft) W 275 0 min 0,000 mm 0,0 UV-I 26 W/m 12,8 C 11,3 C 14,5 km/h (3 Bft) 100,00 %
28.06.2018 07:29 13,3 C 20,6 C 97 % 1015,3 hPa 0,0 l/m 7,0 km/h (2 Bft) W-NW 290 0 min 0,000 mm 0,0 UV-I 26 W/m 12,8 C 12,9 C 11,3 km/h (2 Bft) 91,67 %
28.06.2018 07:30 13,2 C 20,6 C 97 % 1015,3 hPa 0,2 l/m 8,9 km/h (2 Bft) W-SW 242 0 min 0,000 mm 0,0 UV-I 23 W/m 12,7 C 11,7 C 19,3 km/h (3 Bft) 100,00 %
28.06.2018 07:31 13,2 C 20,6 C 97 % 1015,3 hPa 0,0 l/m 9,0 km/h (2 Bft) W-SW 250 0 min 0,000 mm 0,0 UV-I 20 W/m 12,7 C 11,6 C 16,1 km/h (3 Bft) 95,83 %
28.06.2018 07:32 13,2 C 20,6 C 97 % 1015,3 hPa 0,0 l/m 5,8 km/h (2 Bft) W 261 0 min 0,000 mm 0,0 UV-I 18 W/m 12,7 C 13,2 C 6,4 km/h (2 Bft) 100,00 %
28.06.2018 07:33 13,2 C 20,6 C 97 % 1015,3 hPa 0,2 l/m 8,1 km/h (2 Bft) NW 325 0 min 0,000 mm 0,0 UV-I 16 W/m 12,7 C 12,2 C 11,3 km/h (2 Bft) 95,83 %
28.06.2018 07:34 13,2 C 20,6 C 97 % 1015,2 hPa 0,0 l/m 12,3 km/h (3 Bft) W-NW 298 0 min 0,000 mm 0,0 UV-I 18 W/m 12,7 C 10,1 C 19,3 km/h (3 Bft) 95,65 %
28.06.2018 07:35 13,2 C 20,6 C 97 % 1015,2 hPa 0,2 l/m 8,5 km/h (2 Bft) W-NW 284 0 min 0,000 mm 0,0 UV-I 18 W/m 12,7 C 11,9 C 12,9 km/h (3 Bft) 100,00 %
28.06.2018 07:36 13,2 C 20,6 C 97 % 1015,2 hPa 0,0 l/m 6,7 km/h (2 Bft) W-SW 249 0 min 0,000 mm 0,0 UV-I 19 W/m 12,7 C 13,0 C 12,9 km/h (3 Bft) 91,30 %
28.06.2018 07:37 13,2 C 20,6 C 97 % 1015,2 hPa 0,2 l/m 4,9 km/h (1 Bft) W-SW 258 0 min 0,000 mm 0,0 UV-I 19 W/m 12,7 C 13,2 C 11,3 km/h (2 Bft) 100,00 %
28.06.2018 07:38 13,2 C 20,6 C 97 % 1015,2 hPa 0,0 l/m 8,2 km/h (2 Bft) W-SW 237 0 min 0,000 mm 0,0 UV-I 19 W/m 12,7 C 12,1 C 12,9 km/h (3 Bft) 95,65 %
28.06.2018 07:39 13,2 C 20,6 C 97 % 1015,2 hPa 0,0 l/m 9,5 km/h (2 Bft) W 281 0 min 0,000 mm 0,0 UV-I 18 W/m 12,7 C 11,4 C 14,5 km/h (3 Bft) 100,00 %
28.06.2018 07:40 13,2 C 20,6 C 97 % 1015,2 hPa 0,0 l/m 12,7 km/h (3 Bft) W-SW 258 0 min 0,000 mm 0,0 UV-I 18 W/m 12,7 C 9,9 C 17,7 km/h (3 Bft) 95,65 %
28.06.2018 07:41 13,2 C 20,6 C 97 % 1015,2 hPa 0,0 l/m 9,8 km/h (2 Bft) W 261 0 min 0,000 mm 0,0 UV-I 19 W/m 12,7 C 11,2 C 12,9 km/h (3 Bft) 100,00 %
28.06.2018 07:42 13,2 C 20,6 C 97 % 1015,2 hPa 0,2 l/m 8,0 km/h (2 Bft) W 272 0 min 0,000 mm 0,0 UV-I 18 W/m 12,7 C 12,2 C 11,3 km/h (2 Bft) 95,65 %
28.06.2018 07:43 13,2 C 20,6 C 97 % 1015,2 hPa 0,0 l/m 8,2 km/h (2 Bft) W 267 0 min 0,000 mm 0,0 UV-I 18 W/m 12,7 C 12,1 C 12,9 km/h (3 Bft) 91,67 %
28.06.2018 07:44 13,2 C 20,6 C 97 % 1015,2 hPa 0,0 l/m 10,8 km/h (2 Bft) W 263 0 min 0,000 mm 0,0 UV-I 18 W/m 12,7 C 10,7 C 14,5 km/h (3 Bft) 100,00 %
28.06.2018 07:45 13,2 C 20,6 C 97 % 1015,2 hPa 0,2 l/m 11,4 km/h (2 Bft) W 269 0 min 0,000 mm 0,0 UV-I 16 W/m 12,7 C 10,5 C 16,1 km/h (3 Bft) 95,83 %
28.06.2018 07:46 13,2 C 20,6 C 97 % 1015,2 hPa 0,0 l/m 11,9 km/h (2 Bft) W 263 0 min 0,000 mm 0,0 UV-I 18 W/m 12,7 C 10,2 C 19,3 km/h (3 Bft) 100,00 %
28.06.2018 07:47 13,2 C 20,6 C 97 % 1015,2 hPa 0,0 l/m 12,9 km/h (3 Bft) W 270 0 min 0,000 mm 0,0 UV-I 18 W/m 12,7 C 9,8 C 16,1 km/h (3 Bft) 95,83 %
28.06.2018 07:48 13,2 C 20,6 C 97 % 1015,2 hPa 0,2 l/m 8,7 km/h (2 Bft) W 275 0 min 0,000 mm 0,0 UV-I 19 W/m 12,7 C 11,8 C 12,9 km/h (3 Bft) 100,00 %
28.06.2018 07:49 13,2 C 20,6 C 97 % 1015,2 hPa 0,0 l/m 9,5 km/h (2 Bft) W 266 0 min 0,000 mm 0,0 UV-I 18 W/m 12,7 C 11,4 C 16,1 km/h (3 Bft) 95,83 %
28.06.2018 07:50 13,2 C 20,6 C 97 % 1015,2 hPa 0,0 l/m 8,2 km/h (2 Bft) W-SW 252 0 min 0,000 mm 0,0 UV-I 16 W/m 12,7 C 12,1 C 12,9 km/h (3 Bft) 100,00 %
28.06.2018 07:51 13,2 C 20,6 C 97 % 1015,2 hPa 0,2 l/m 7,4 km/h (2 Bft) W 262 0 min 0,000 mm 0,0 UV-I 16 W/m 12,7 C 12,6 C 11,3 km/h (2 Bft) 95,83 %
28.06.2018 07:52 13,2 C 20,6 C 97 % 1015,2 hPa 0,0 l/m 8,6 km/h (2 Bft) W-NW 284 0 min 0,000 mm 0,0 UV-I 14 W/m 12,7 C 11,9 C 12,9 km/h (3 Bft) 100,00 %
28.06.2018 07:53 13,2 C 20,6 C 97 % 1015,2 hPa 0,0 l/m 10,3 km/h (2 Bft) W-NW 287 0 min 0,000 mm 0,0 UV-I 16 W/m 12,7 C 11,0 C 14,5 km/h (3 Bft) 100,00 %
28.06.2018 07:54 13,2 C 20,6 C 97 % 1015,2 hPa 0,2 l/m 7,0 km/h (2 Bft) W 264 0 min 0,000 mm 0,0 UV-I 17 W/m 12,7 C 12,8 C 11,3 km/h (2 Bft) 91,67 %
28.06.2018 07:55 13,2 C 20,6 C 97 % 1015,2 hPa 0,0 l/m 9,1 km/h (2 Bft) W-SW 250 0 min 0,000 mm 0,0 UV-I 18 W/m 12,7 C 11,6 C 12,9 km/h (3 Bft) 100,00 %
28.06.2018 07:56 13,2 C 20,6 C 97 % 1015,2 hPa 0,0 l/m 6,2 km/h (2 Bft) W-SW 250 0 min 0,000 mm 0,0 UV-I 18 W/m 12,7 C 13,2 C 12,9 km/h (3 Bft) 100,00 %
28.06.2018 07:57 13,2 C 20,6 C 97 % 1015,2 hPa 0,2 l/m 7,3 km/h (2 Bft) W 281 0 min 0,000 mm 0,0 UV-I 18 W/m 12,7 C 12,6 C 14,5 km/h (3 Bft) 100,00 %
28.06.2018 07:58 13,2 C 20,6 C 97 % 1015,2 hPa 0,0 l/m 6,2 km/h (2 Bft) W-SW 254 0 min 0,000 mm 0,0 UV-I 18 W/m 12,7 C 13,2 C 9,7 km/h (2 Bft) 100,00 %
28.06.2018 07:59 13,2 C 20,6 C 97 % 1015,2 hPa 0,0 l/m 7,3 km/h (2 Bft) W 268 0 min 0,000 mm 0,0 UV-I 18 W/m 12,7 C 12,6 C 9,7 km/h (2 Bft) 100,00 %
28.06.2018 08:00 13,1 C 20,6 C 97 % 1015,2 hPa 0,2 l/m 10,4 km/h (2 Bft) W-NW 294 0 min 0,025 mm 0,0 UV-I 18 W/m 12,6 C 10,8 C 14,5 km/h (3 Bft) 100,00 %
28.06.2018 08:02 13,2 C 20,6 C 97 % 1015,2 hPa 0,0 l/m 11,3 km/h (2 Bft) W-SW 242 0 min 0,000 mm 0,0 UV-I 18 W/m 12,7 C 10,5 C 16,1 km/h (3 Bft) 100,00 %
28.06.2018 08:03 13,2 C 20,6 C 97 % 1015,2 hPa 0,0 l/m 10,1 km/h (2 Bft) W-SW 257 0 min 0,000 mm 0,0 UV-I 16 W/m 12,7 C 11,1 C 12,9 km/h (3 Bft) 100,00 %
28.06.2018 08:04 13,2 C 20,6 C 97 % 1015,2 hPa 0,0 l/m 10,7 km/h (2 Bft) W 265 0 min 0,000 mm 0,0 UV-I 15 W/m 12,7 C 10,8 C 14,5 km/h (3 Bft) 100,00 %
28.06.2018 08:05 13,2 C 20,6 C 97 % 1015,2 hPa 0,2 l/m 8,0 km/h (2 Bft) W-NW 301 0 min 0,000 mm 0,0 UV-I 14 W/m 12,7 C 12,2 C 12,9 km/h (3 Bft) 100,00 %
28.06.2018 08:06 13,2 C 20,6 C 97 % 1015,2 hPa 0,0 l/m 8,0 km/h (2 Bft) W 269 0 min 0,000 mm 0,0 UV-I 17 W/m 12,7 C 12,2 C 14,5 km/h (3 Bft) 100,00 %
28.06.2018 08:07 13,2 C 20,6 C 97 % 1015,2 hPa 0,0 l/m 10,6 km/h (2 Bft) W 275 0 min 0,000 mm 0,0 UV-I 20 W/m 12,7 C 10,8 C 19,3 km/h (3 Bft) 100,00 %
28.06.2018 08:08 13,2 C 20,6 C 97 % 1015,2 hPa 0,2 l/m 13,3 km/h (3 Bft) W 260 0 min 0,000 mm 0,0 UV-I 23 W/m 12,7 C 9,7 C 19,3 km/h (3 Bft) 100,00 %
28.06.2018 08:09 13,2 C 20,6 C 97 % 1015,2 hPa 0,0 l/m 10,5 km/h (2 Bft) W-SW 251 0 min 0,000 mm 0,0 UV-I 20 W/m 12,7 C 10,9 C 14,5 km/h (3 Bft) 100,00 %
28.06.2018 08:10 13,2 C 20,6 C 97 % 1015,2 hPa 0,0 l/m 10,0 km/h (2 Bft) W 262 0 min 0,000 mm 0,0 UV-I 18 W/m 12,7 C 11,1 C 14,5 km/h (3 Bft) 100,00 %
28.06.2018 08:11 13,2 C 20,6 C 97 % 1015,2 hPa 0,0 l/m 5,0 km/h (1 Bft) W 281 0 min 0,000 mm 0,0 UV-I 19 W/m 12,7 C 13,2 C 9,7 km/h (2 Bft) 100,00 %
28.06.2018 08:12 13,2 C 20,6 C 97 % 1015,3 hPa 0,0 l/m 9,2 km/h (2 Bft) W-SW 254 0 min 0,000 mm 0,0 UV-I 22 W/m 12,7 C 11,5 C 14,5 km/h (3 Bft) 100,00 %
28.06.2018 08:13 13,2 C 20,6 C 97 % 1015,3 hPa 0,2 l/m 6,0 km/h (2 Bft) W 263 0 min 0,000 mm 0,0 UV-I 26 W/m 12,7 C 13,2 C 11,3 km/h (2 Bft) 100,00 %
28.06.2018 08:14 13,2 C 20,6 C 97 % 1015,2 hPa 0,0 l/m 7,2 km/h (2 Bft) W 270 0 min 0,000 mm 0,0 UV-I 30 W/m 12,7 C 12,7 C 11,3 km/h (2 Bft) 100,00 %
28.06.2018 08:15 13,2 C 20,6 C 97 % 1015,2 hPa 0,0 l/m 7,3 km/h (2 Bft) W-SW 254 0 min 0,000 mm 0,0 UV-I 34 W/m 12,7 C 12,6 C 11,3 km/h (2 Bft) 100,00 %
28.06.2018 08:16 13,2 C 20,6 C 97 % 1015,3 hPa 0,0 l/m 6,4 km/h (2 Bft) W 275 0 min 0,000 mm 0,0 UV-I 34 W/m 12,7 C 13,2 C 9,7 km/h (2 Bft) 100,00 %
28.06.2018 08:17 13,2 C 20,6 C 97 % 1015,2 hPa 0,2 l/m 5,8 km/h (2 Bft) W 264 0 min 0,000 mm 0,0 UV-I 35 W/m 12,7 C 13,2 C 6,4 km/h (2 Bft) 95,83 %
28.06.2018 08:18 13,2 C 20,6 C 97 % 1015,3 hPa 0,0 l/m 10,9 km/h (2 Bft) W-SW 244 0 min 0,000 mm 0,0 UV-I 41 W/m 12,7 C 10,7 C 16,1 km/h (3 Bft) 100,00 %
28.06.2018 08:19 13,2 C 20,6 C 97 % 1015,2 hPa 0,0 l/m 6,7 km/h (2 Bft) W 264 0 min 0,000 mm 0,0 UV-I 44 W/m 12,7 C 13,0 C 12,9 km/h (3 Bft) 100,00 %
28.06.2018 08:20 13,2 C 20,6 C 97 % 1015,3 hPa 0,0 l/m 5,4 km/h (1 Bft) W 262 0 min 0,000 mm 0,0 UV-I 47 W/m 12,7 C 13,2 C 9,7 km/h (2 Bft) 100,00 %
28.06.2018 08:21 13,2 C 20,6 C 97 % 1015,3 hPa 0,2 l/m 7,3 km/h (2 Bft) W 275 0 min 0,000 mm 0,0 UV-I 52 W/m 12,7 C 12,6 C 11,3 km/h (2 Bft) 100,00 %
28.06.2018 08:22 13,2 C 20,6 C 97 % 1015,3 hPa 0,0 l/m 5,7 km/h (1 Bft) W 279 0 min 0,000 mm 0,0 UV-I 53 W/m 12,7 C 13,2 C 9,7 km/h (2 Bft) 100,00 %
28.06.2018 08:23 13,2 C 20,6 C 97 % 1015,3 hPa 0,0 l/m 8,1 km/h (2 Bft) W 259 0 min 0,000 mm 0,0 UV-I 54 W/m 12,7 C 12,2 C 14,5 km/h (3 Bft) 100,00 %
28.06.2018 08:24 13,3 C 20,6 C 97 % 1015,3 hPa 0,0 l/m 9,4 km/h (2 Bft) W 269 0 min 0,000 mm 0,0 UV-I 56 W/m 12,8 C 11,5 C 12,9 km/h (3 Bft) 100,00 %
28.06.2018 08:25 13,3 C 20,6 C 97 % 1015,3 hPa 0,0 l/m 10,7 km/h (2 Bft) W 263 0 min 0,000 mm 0,0 UV-I 52 W/m 12,8 C 10,9 C 14,5 km/h (3 Bft) 95,65 %
28.06.2018 08:26 13,3 C 20,6 C 97 % 1015,3 hPa 0,2 l/m 9,5 km/h (2 Bft) W-SW 250 0 min 0,000 mm 0,0 UV-I 49 W/m 12,8 C 11,5 C 14,5 km/h (3 Bft) 100,00 %
28.06.2018 08:27 13,3 C 20,6 C 97 % 1015,3 hPa 0,0 l/m 10,3 km/h (2 Bft) W-SW 252 0 min 0,000 mm 0,0 UV-I 46 W/m 12,8 C 11,1 C 17,7 km/h (3 Bft) 100,00 %
28.06.2018 08:28 13,3 C 20,6 C 97 % 1015,3 hPa 0,0 l/m 6,5 km/h (2 Bft) W-SW 250 0 min 0,000 mm 0,0 UV-I 41 W/m 12,8 C 13,3 C 9,7 km/h (2 Bft) 100,00 %
28.06.2018 08:29 13,3 C 20,6 C 97 % 1015,3 hPa 0,0 l/m 5,4 km/h (1 Bft) W 264 0 min 0,000 mm 0,0 UV-I 37 W/m 12,8 C 13,3 C 6,4 km/h (2 Bft) 100,00 %
28.06.2018 08:30 13,3 C 20,6 C 97 % 1015,3 hPa 0,2 l/m 9,3 km/h (2 Bft) W-SW 244 0 min 0,000 mm 0,0 UV-I 36 W/m 12,8 C 11,6 C 16,1 km/h (3 Bft) 100,00 %
28.06.2018 08:31 13,3 C 20,6 C 97 % 1015,3 hPa 0,0 l/m 6,6 km/h (2 Bft) W 277 0 min 0,000 mm 0,0 UV-I 39 W/m 12,8 C 13,2 C 11,3 km/h (2 Bft) 100,00 %
28.06.2018 08:32 13,3 C 20,6 C 97 % 1015,3 hPa 0,0 l/m 11,7 km/h (2 Bft) W 269 0 min 0,000 mm 0,0 UV-I 40 W/m 12,8 C 10,4 C 16,1 km/h (3 Bft) 100,00 %
28.06.2018 08:33 13,3 C 20,6 C 97 % 1015,2 hPa 0,0 l/m 8,8 km/h (2 Bft) W 262 0 min 0,000 mm 0,0 UV-I 44 W/m 12,8 C 11,9 C 12,9 km/h (3 Bft) 100,00 %
28.06.2018 08:34 13,3 C 20,6 C 97 % 1015,2 hPa 0,2 l/m 10,2 km/h (2 Bft) W 262 0 min 0,000 mm 0,0 UV-I 51 W/m 12,8 C 11,1 C 12,9 km/h (3 Bft) 100,00 %
28.06.2018 08:35 13,3 C 20,6 C 97 % 1015,2 hPa 0,0 l/m 8,2 km/h (2 Bft) W-SW 256 0 min 0,000 mm 0,0 UV-I 55 W/m 12,8 C 12,2 C 12,9 km/h (3 Bft) 100,00 %
28.06.2018 08:36 13,3 C 20,6 C 97 % 1015,2 hPa 0,0 l/m 9,6 km/h (2 Bft) W 279 0 min 0,000 mm 0,0 UV-I 58 W/m 12,8 C 11,4 C 14,5 km/h (3 Bft) 100,00 %
28.06.2018 08:37 13,3 C 20,6 C 97 % 1015,2 hPa 0,0 l/m 6,6 km/h (2 Bft) W-NW 293 0 min 0,000 mm 0,0 UV-I 60 W/m 12,8 C 13,2 C 11,3 km/h (2 Bft) 95,65 %
28.06.2018 08:38 13,3 C 20,6 C 97 % 1015,2 hPa 0,2 l/m 10,3 km/h (2 Bft) W-NW 285 0 min 0,000 mm 0,0 UV-I 60 W/m 12,8 C 11,1 C 12,9 km/h (3 Bft) 100,00 %
28.06.2018 08:39 13,3 C 20,6 C 97 % 1015,2 hPa 0,0 l/m 9,9 km/h (2 Bft) W 271 0 min 0,000 mm 0,0 UV-I 57 W/m 12,8 C 11,3 C 16,1 km/h (3 Bft) 100,00 %
28.06.2018 08:40 13,3 C 20,6 C 97 % 1015,2 hPa 0,0 l/m 8,9 km/h (2 Bft) W-SW 240 0 min 0,000 mm 0,0 UV-I 53 W/m 12,8 C 11,8 C 12,9 km/h (3 Bft) 100,00 %
28.06.2018 08:41 13,3 C 20,6 C 97 % 1015,2 hPa 0,0 l/m 5,5 km/h (1 Bft) W 273 0 min 0,000 mm 0,0 UV-I 48 W/m 12,8 C 13,3 C 9,7 km/h (2 Bft) 100,00 %
28.06.2018 08:42 13,3 C 20,6 C 97 % 1015,2 hPa 0,0 l/m 7,0 km/h (2 Bft) W 269 0 min 0,000 mm 0,0 UV-I 46 W/m 12,8 C 12,9 C 11,3 km/h (2 Bft) 100,00 %
28.06.2018 08:43 13,3 C 20,6 C 97 % 1015,2 hPa 0,2 l/m 7,7 km/h (2 Bft) W-NW 291 0 min 0,000 mm 0,0 UV-I 44 W/m 12,8 C 12,5 C 12,9 km/h (3 Bft) 95,83 %
28.06.2018 08:44 13,3 C 20,6 C 97 % 1015,1 hPa 0,0 l/m 9,1 km/h (2 Bft) W 276 0 min 0,000 mm 0,0 UV-I 44 W/m 12,8 C 11,7 C 16,1 km/h (3 Bft) 100,00 %
28.06.2018 08:45 13,3 C 20,6 C 97 % 1015,1 hPa 0,0 l/m 7,0 km/h (2 Bft) W 259 0 min 0,000 mm 0,0 UV-I 44 W/m 12,8 C 12,9 C 11,3 km/h (2 Bft) 100,00 %
28.06.2018 08:46 13,3 C 20,6 C 97 % 1015,1 hPa 0,0 l/m 11,7 km/h (2 Bft) W-SW 246 0 min 0,000 mm 0,0 UV-I 45 W/m 12,8 C 10,4 C 14,5 km/h (3 Bft) 95,65 %
28.06.2018 08:47 13,3 C 20,6 C 97 % 1015,1 hPa 0,2 l/m 9,9 km/h (2 Bft) NW 310 0 min 0,000 mm 0,0 UV-I 46 W/m 12,8 C 11,3 C 16,1 km/h (3 Bft) 100,00 %
28.06.2018 08:48 13,3 C 20,6 C 97 % 1015,1 hPa 0,0 l/m 11,9 km/h (2 Bft) W 264 0 min 0,000 mm 0,0 UV-I 46 W/m 12,8 C 10,4 C 17,7 km/h (3 Bft) 91,30 %
28.06.2018 08:49 13,3 C 20,6 C 97 % 1015,1 hPa 0,0 l/m 12,1 km/h (2 Bft) W 269 0 min 0,000 mm 0,0 UV-I 44 W/m 12,8 C 10,3 C 16,1 km/h (3 Bft) 100,00 %
28.06.2018 08:50 13,3 C 20,6 C 97 % 1015,0 hPa 0,0 l/m 10,1 km/h (2 Bft) W-SW 255 0 min 0,000 mm 0,0 UV-I 46 W/m 12,8 C 11,2 C 17,7 km/h (3 Bft) 95,65 %
28.06.2018 08:51 13,3 C 20,6 C 97 % 1015,0 hPa 0,2 l/m 13,2 km/h (3 Bft) W 271 0 min 0,000 mm 0,0 UV-I 46 W/m 12,8 C 9,8 C 19,3 km/h (3 Bft) 100,00 %
28.06.2018 08:52 13,3 C 20,6 C 97 % 1015,1 hPa 0,0 l/m 11,8 km/h (2 Bft) W-SW 257 0 min 0,000 mm 0,0 UV-I 47 W/m 12,8 C 10,4 C 16,1 km/h (3 Bft) 95,65 %
28.06.2018 08:53 13,3 C 20,6 C 97 % 1015,0 hPa 0,0 l/m 14,3 km/h (3 Bft) W-SW 255 0 min 0,000 mm 0,0 UV-I 47 W/m 12,8 C 9,4 C 19,3 km/h (3 Bft) 95,83 %
28.06.2018 08:54 13,3 C 20,6 C 97 % 1015,0 hPa 0,0 l/m 13,6 km/h (3 Bft) W-SW 248 0 min 0,000 mm 0,0 UV-I 47 W/m 12,8 C 9,7 C 17,7 km/h (3 Bft) 95,65 %
28.06.2018 08:55 13,3 C 20,6 C 97 % 1015,0 hPa 0,2 l/m 10,5 km/h (2 Bft) W-SW 247 0 min 0,000 mm 0,0 UV-I 47 W/m 12,8 C 11,0 C 14,5 km/h (3 Bft) 95,83 %
28.06.2018 08:56 13,3 C 20,6 C 97 % 1015,0 hPa 0,0 l/m 14,0 km/h (3 Bft) W-SW 257 0 min 0,000 mm 0,0 UV-I 47 W/m 12,8 C 9,5 C 19,3 km/h (3 Bft) 100,00 %
28.06.2018 08:57 13,3 C 20,6 C 97 % 1015,0 hPa 0,0 l/m 11,5 km/h (2 Bft) W-SW 242 0 min 0,000 mm 0,0 UV-I 47 W/m 12,8 C 10,5 C 14,5 km/h (3 Bft) 100,00 %
28.06.2018 08:58 13,3 C 20,6 C 97 % 1015,0 hPa 0,0 l/m 9,2 km/h (2 Bft) W 261 0 min 0,000 mm 0,0 UV-I 47 W/m 12,8 C 11,7 C 14,5 km/h (3 Bft) 95,65 %
28.06.2018 08:59 13,3 C 20,6 C 97 % 1015,0 hPa 0,2 l/m 13,1 km/h (3 Bft) W 279 0 min 0,000 mm 0,0 UV-I 47 W/m 12,8 C 9,9 C 16,1 km/h (3 Bft) 95,83 %
28.06.2018 09:00 13,3 C 20,6 C 97 % 1015,0 hPa 0,0 l/m 11,8 km/h (2 Bft) W-NW 290 0 min 0,000 mm 0,0 UV-I 47 W/m 12,8 C 10,4 C 19,3 km/h (3 Bft) 100,00 %
28.06.2018 09:02 13,4 C 20,6 C 97 % 1015,0 hPa 0,2 l/m 10,1 km/h (2 Bft) W-SW 248 0 min 0,026 mm 0,0 UV-I 48 W/m 12,9 C 11,3 C 17,7 km/h (3 Bft) 97,37 %
28.06.2018 09:03 13,3 C 20,6 C 97 % 1015,0 hPa 0,0 l/m 11,7 km/h (2 Bft) W 268 0 min 0,000 mm 0,0 UV-I 49 W/m 12,8 C 10,4 C 14,5 km/h (3 Bft) 97,37 %
28.06.2018 09:04 13,3 C 20,6 C 97 % 1014,9 hPa 0,0 l/m 13,1 km/h (3 Bft) W 275 0 min 0,000 mm 0,0 UV-I 48 W/m 12,8 C 9,9 C 17,7 km/h (3 Bft) 96,15 %
28.06.2018 09:05 13,3 C 20,6 C 97 % 1014,9 hPa 0,2 l/m 14,1 km/h (3 Bft) W 263 0 min 0,000 mm 0,0 UV-I 47 W/m 12,8 C 9,5 C 17,7 km/h (3 Bft) 100,00 %
28.06.2018 09:06 13,4 C 20,6 C 97 % 1015,0 hPa 0,0 l/m 13,3 km/h (3 Bft) NW 311 0 min 0,000 mm 0,0 UV-I 46 W/m 12,9 C 9,9 C 17,7 km/h (3 Bft) 91,30 %
28.06.2018 09:07 13,4 C 20,6 C 97 % 1015,0 hPa 0,0 l/m 12,3 km/h (3 Bft) W-NW 298 0 min 0,000 mm 0,0 UV-I 44 W/m 12,9 C 10,3 C 17,7 km/h (3 Bft) 98,07 %
28.06.2018 09:08 13,4 C 20,6 C 97 % 1015,0 hPa 0,0 l/m 11,3 km/h (2 Bft) W-SW 248 0 min 0,000 mm 0,0 UV-I 44 W/m 12,9 C 10,7 C 14,5 km/h (3 Bft) 97,44 %
28.06.2018 09:09 13,4 C 20,6 C 97 % 1015,0 hPa 0,0 l/m 12,1 km/h (2 Bft) W-SW 248 0 min 0,000 mm 0,0 UV-I 44 W/m 12,9 C 10,4 C 16,1 km/h (3 Bft) 100,00 %
28.06.2018 09:10 13,4 C 20,6 C 97 % 1015,0 hPa 0,2 l/m 11,3 km/h (2 Bft) W-SW 252 0 min 0,000 mm 0,0 UV-I 44 W/m 12,9 C 10,7 C 17,7 km/h (3 Bft) 95,83 %
28.06.2018 09:11 13,4 C 20,6 C 97 % 1015,0 hPa 0,0 l/m 13,1 km/h (3 Bft) W-SW 250 0 min 0,000 mm 0,0 UV-I 44 W/m 12,9 C 10,0 C 19,3 km/h (3 Bft) 100,00 %
28.06.2018 09:12 13,4 C 20,6 C 97 % 1014,9 hPa 0,0 l/m 11,9 km/h (2 Bft) W 262 0 min 0,000 mm 0,0 UV-I 44 W/m 12,9 C 10,5 C 16,1 km/h (3 Bft) 95,83 %
28.06.2018 09:13 13,4 C 20,6 C 97 % 1014,9 hPa 0,0 l/m 11,5 km/h (2 Bft) W 265 0 min 0,000 mm 0,0 UV-I 44 W/m 12,9 C 10,6 C 17,7 km/h (3 Bft) 100,00 %
28.06.2018 09:14 13,4 C 20,6 C 97 % 1014,9 hPa 0,2 l/m 11,1 km/h (2 Bft) W-NW 285 0 min 0,000 mm 0,0 UV-I 44 W/m 12,9 C 10,8 C 14,5 km/h (3 Bft) 95,83 %
28.06.2018 09:15 13,4 C 20,6 C 97 % 1014,9 hPa 0,0 l/m 11,8 km/h (2 Bft) W-SW 254 0 min 0,000 mm 0,0 UV-I 43 W/m 12,9 C 10,5 C 16,1 km/h (3 Bft) 100,00 %
28.06.2018 09:16 13,4 C 20,6 C 97 % 1014,9 hPa 0,0 l/m 10,3 km/h (2 Bft) W-NW 296 0 min 0,000 mm 0,0 UV-I 42 W/m 12,9 C 11,2 C 12,9 km/h (3 Bft) 95,83 %
28.06.2018 09:17 13,4 C 20,6 C 97 % 1014,8 hPa 0,0 l/m 10,9 km/h (2 Bft) W-SW 258 0 min 0,000 mm 0,0 UV-I 42 W/m 12,9 C 10,9 C 12,9 km/h (3 Bft) 100,00 %
28.06.2018 09:18 13,4 C 20,6 C 97 % 1014,8 hPa 0,2 l/m 13,2 km/h (3 Bft) W 275 0 min 0,000 mm 0,0 UV-I 42 W/m 12,9 C 9,9 C 19,3 km/h (3 Bft) 91,67 %
28.06.2018 09:19 13,4 C 20,6 C 97 % 1014,8 hPa 0,0 l/m 15,9 km/h (3 Bft) W-SW 254 0 min 0,000 mm 0,0 UV-I 44 W/m 12,9 C 8,9 C 20,9 km/h (4 Bft) 96,15 %
28.06.2018 09:20 13,4 C 20,6 C 97 % 1014,8 hPa 0,0 l/m 14,6 km/h (3 Bft) W-SW 257 0 min 0,000 mm 0,0 UV-I 46 W/m 12,9 C 9,4 C 17,7 km/h (3 Bft) 95,83 %
28.06.2018 09:21 13,4 C 20,6 C 97 % 1014,7 hPa 0,2 l/m 16,3 km/h (3 Bft) W-SW 254 0 min 0,000 mm 0,0 UV-I 46 W/m 12,9 C 8,8 C 20,9 km/h (4 Bft) 100,00 %
28.06.2018 09:22 13,4 C 20,6 C 97 % 1014,6 hPa 0,0 l/m 14,9 km/h (3 Bft) W-SW 245 0 min 0,000 mm 0,0 UV-I 47 W/m 12,9 C 9,3 C 20,9 km/h (4 Bft) 88,46 %
28.06.2018 09:23 13,4 C 20,6 C 97 % 1014,7 hPa 0,0 l/m 15,4 km/h (3 Bft) W 265 0 min 0,000 mm 0,0 UV-I 47 W/m 12,9 C 9,1 C 20,9 km/h (4 Bft) 95,83 %
28.06.2018 09:24 13,4 C 20,6 C 97 % 1014,7 hPa 0,0 l/m 14,1 km/h (3 Bft) W-SW 245 0 min 0,000 mm 0,0 UV-I 47 W/m 12,9 C 9,6 C 22,5 km/h (4 Bft) 91,30 %
28.06.2018 09:25 13,4 C 20,6 C 97 % 1014,7 hPa 0,2 l/m 16,0 km/h (3 Bft) W 267 0 min 0,000 mm 0,0 UV-I 47 W/m 12,9 C 8,9 C 22,5 km/h (4 Bft) 95,83 %
28.06.2018 09:26 13,4 C 20,6 C 97 % 1014,7 hPa 0,0 l/m 13,9 km/h (3 Bft) W 275 0 min 0,000 mm 0,0 UV-I 48 W/m 12,9 C 9,7 C 19,3 km/h (3 Bft) 92,31 %
28.06.2018 09:27 13,4 C 20,6 C 97 % 1014,6 hPa 0,0 l/m 12,1 km/h (2 Bft) W-NW 284 0 min 0,000 mm 0,0 UV-I 49 W/m 12,9 C 10,4 C 16,1 km/h (3 Bft) 91,67 %
28.06.2018 09:28 13,4 C 20,6 C 97 % 1014,6 hPa 0,2 l/m 12,1 km/h (2 Bft) W 263 0 min 0,000 mm 0,0 UV-I 49 W/m 12,9 C 10,4 C 16,1 km/h (3 Bft) 100,00 %
28.06.2018 09:29 13,4 C 20,6 C 97 % 1014,6 hPa 0,0 l/m 12,7 km/h (3 Bft) W 278 0 min 0,000 mm 0,0 UV-I 47 W/m 12,9 C 10,1 C 20,9 km/h (4 Bft) 91,67 %
28.06.2018 09:30 13,4 C 20,6 C 97 % 1014,6 hPa 0,0 l/m 13,1 km/h (3 Bft) W 263 0 min 0,000 mm 0,0 UV-I 46 W/m 12,9 C 10,0 C 22,5 km/h (4 Bft) 95,65 %
28.06.2018 09:31 13,4 C 20,6 C 97 % 1014,5 hPa 0,2 l/m 15,2 km/h (3 Bft) W 259 0 min 0,000 mm 0,0 UV-I 46 W/m 12,9 C 9,2 C 20,9 km/h (4 Bft) 95,83 %
28.06.2018 09:32 13,4 C 20,6 C 97 % 1014,5 hPa 0,0 l/m 17,3 km/h (3 Bft) W-SW 252 0 min 0,000 mm 0,0 UV-I 46 W/m 12,9 C 8,5 C 22,5 km/h (4 Bft) 95,65 %
28.06.2018 09:33 13,4 C 20,6 C 97 % 1014,4 hPa 0,0 l/m 15,2 km/h (3 Bft) W 265 0 min 0,000 mm 0,0 UV-I 48 W/m 12,9 C 9,2 C 25,7 km/h (4 Bft) 95,83 %
28.06.2018 09:34 13,4 C 20,6 C 97 % 1014,4 hPa 0,2 l/m 16,1 km/h (3 Bft) W-SW 244 0 min 0,000 mm 0,0 UV-I 49 W/m 12,9 C 8,9 C 22,5 km/h (4 Bft) 91,30 %
28.06.2018 09:35 13,4 C 20,6 C 97 % 1014,4 hPa 0,0 l/m 13,1 km/h (3 Bft) SW 233 0 min 0,000 mm 0,0 UV-I 49 W/m 12,9 C 10,0 C 17,7 km/h (3 Bft) 95,83 %
28.06.2018 09:36 13,4 C 20,6 C 97 % 1014,4 hPa 0,0 l/m 15,8 km/h (3 Bft) W-SW 257 0 min 0,000 mm 0,0 UV-I 49 W/m 12,9 C 9,0 C 22,5 km/h (4 Bft) 88,46 %
28.06.2018 09:37 13,4 C 20,6 C 97 % 1014,4 hPa 0,2 l/m 14,8 km/h (3 Bft) W 269 0 min 0,000 mm 0,0 UV-I 49 W/m 12,9 C 9,3 C 24,1 km/h (4 Bft) 100,00 %
28.06.2018 09:38 13,4 C 20,6 C 97 % 1014,4 hPa 0,0 l/m 10,6 km/h (2 Bft) W-SW 250 0 min 0,000 mm 0,0 UV-I 49 W/m 12,9 C 11,1 C 20,9 km/h (4 Bft) 86,96 %
28.06.2018 09:39 13,4 C 20,6 C 97 % 1014,4 hPa 0,0 l/m 14,0 km/h (3 Bft) W 267 0 min 0,000 mm 0,0 UV-I 49 W/m 12,9 C 9,6 C 17,7 km/h (3 Bft) 100,00 %
28.06.2018 09:40 13,4 C 20,6 C 97 % 1014,4 hPa 0,2 l/m 17,7 km/h (3 Bft) W 264 0 min 0,000 mm 0,0 UV-I 48 W/m 12,9 C 8,4 C 24,1 km/h (4 Bft) 92,59 %
28.06.2018 09:41 13,4 C 20,6 C 97 % 1014,3 hPa 0,0 l/m 16,4 km/h (3 Bft) W-SW 255 0 min 0,000 mm 0,0 UV-I 47 W/m 12,9 C 8,8 C 22,5 km/h (4 Bft) 100,00 %
28.06.2018 09:42 13,4 C 20,6 C 97 % 1014,3 hPa 0,2 l/m 15,5 km/h (3 Bft) SW 227 0 min 0,000 mm 0,0 UV-I 49 W/m 12,9 C 9,1 C 19,3 km/h (3 Bft) 91,67 %
28.06.2018 09:43 13,4 C 20,6 C 97 % 1014,3 hPa 0,0 l/m 16,8 km/h (3 Bft) W 273 0 min 0,000 mm 0,0 UV-I 47 W/m 12,9 C 8,6 C 22,5 km/h (4 Bft) 91,30 %
28.06.2018 09:44 13,4 C 20,6 C 97 % 1014,3 hPa 0,0 l/m 14,2 km/h (3 Bft) W 260 0 min 0,000 mm 0,0 UV-I 47 W/m 12,9 C 9,5 C 17,7 km/h (3 Bft) 95,83 %
28.06.2018 09:45 13,4 C 20,6 C 97 % 1014,3 hPa 0,2 l/m 12,6 km/h (3 Bft) NW 309 0 min 0,000 mm 0,0 UV-I 46 W/m 12,9 C 10,2 C 19,3 km/h (3 Bft) 86,96 %
28.06.2018 09:46 13,4 C 20,6 C 97 % 1014,3 hPa 0,0 l/m 16,3 km/h (3 Bft) W-NW 292 0 min 0,000 mm 0,0 UV-I 45 W/m 12,9 C 8,8 C 24,1 km/h (4 Bft) 100,00 %
28.06.2018 09:47 13,4 C 20,6 C 97 % 1014,4 hPa 0,2 l/m 12,1 km/h (2 Bft) W-NW 291 0 min 0,000 mm 0,0 UV-I 44 W/m 12,9 C 10,4 C 16,1 km/h (3 Bft) 86,96 %
28.06.2018 09:48 13,4 C 20,6 C 97 % 1014,3 hPa 0,0 l/m 14,0 km/h (3 Bft) W 270 0 min 0,000 mm 0,0 UV-I 46 W/m 12,9 C 9,6 C 19,3 km/h (3 Bft) 100,00 %
28.06.2018 09:49 13,4 C 20,6 C 97 % 1014,3 hPa 0,2 l/m 12,4 km/h (3 Bft) W-SW 257 0 min 0,000 mm 0,0 UV-I 46 W/m 12,9 C 10,3 C 20,9 km/h (4 Bft) 91,30 %
28.06.2018 09:50 13,4 C 20,6 C 97 % 1014,3 hPa 0,0 l/m 10,1 km/h (2 Bft) W-SW 257 0 min 0,000 mm 0,0 UV-I 46 W/m 12,9 C 11,3 C 16,1 km/h (3 Bft) 100,00 %
28.06.2018 09:51 13,4 C 20,6 C 97 % 1014,3 hPa 0,0 l/m 16,4 km/h (3 Bft) W 273 0 min 0,000 mm 0,0 UV-I 48 W/m 12,9 C 8,8 C 22,5 km/h (4 Bft) 91,30 %
28.06.2018 09:52 13,4 C 20,6 C 97 % 1014,3 hPa 0,2 l/m 12,0 km/h (2 Bft) W 265 0 min 0,000 mm 0,0 UV-I 53 W/m 12,9 C 10,4 C 16,1 km/h (3 Bft) 96,30 %
28.06.2018 09:53 13,4 C 20,6 C 97 % 1014,3 hPa 0,0 l/m 13,2 km/h (3 Bft) W-NW 285 0 min 0,000 mm 0,0 UV-I 56 W/m 12,9 C 9,9 C 17,7 km/h (3 Bft) 100,00 %
28.06.2018 09:54 13,4 C 20,6 C 97 % 1014,3 hPa 0,0 l/m 17,8 km/h (3 Bft) W 279 0 min 0,000 mm 0,0 UV-I 56 W/m 12,9 C 8,3 C 24,1 km/h (4 Bft) 95,83 %
28.06.2018 09:55 13,4 C 20,6 C 97 % 1014,2 hPa 0,0 l/m 17,2 km/h (3 Bft) W 263 0 min 0,000 mm 0,0 UV-I 52 W/m 12,9 C 8,5 C 22,5 km/h (4 Bft) 100,00 %
28.06.2018 09:56 13,4 C 20,6 C 97 % 1014,2 hPa 0,2 l/m 14,7 km/h (3 Bft) W 265 0 min 0,000 mm 0,0 UV-I 51 W/m 12,9 C 9,4 C 22,5 km/h (4 Bft) 100,00 %
28.06.2018 09:57 13,4 C 20,6 C 97 % 1014,2 hPa 0,0 l/m 12,2 km/h (2 Bft) W-NW 300 0 min 0,000 mm 0,0 UV-I 53 W/m 12,9 C 10,3 C 20,9 km/h (4 Bft) 96,55 %
28.06.2018 09:58 13,4 C 20,6 C 97 % 1014,2 hPa 0,0 l/m 12,4 km/h (3 Bft) W-SW 240 0 min 0,000 mm 0,0 UV-I 57 W/m 12,9 C 10,3 C 16,1 km/h (3 Bft) 95,65 %
28.06.2018 09:59 13,4 C 20,6 C 97 % 1014,1 hPa 0,2 l/m 14,1 km/h (3 Bft) W-SW 252 0 min 0,000 mm 0,0 UV-I 62 W/m 12,9 C 9,6 C 24,1 km/h (4 Bft) 100,00 %
28.06.2018 10:00 13,4 C 20,6 C 97 % 1014,1 hPa 0,0 l/m 12,5 km/h (3 Bft) W 267 0 min 0,025 mm 0,0 UV-I 64 W/m 12,9 C 10,2 C 17,7 km/h (3 Bft) 100,00 %
28.06.2018 10:02 13,4 C 20,6 C 97 % 1014,1 hPa 0,0 l/m 11,8 km/h (2 Bft) W-SW 253 0 min 0,000 mm 0,0 UV-I 68 W/m 12,9 C 10,5 C 20,9 km/h (4 Bft) 97,87 %
28.06.2018 10:03 13,4 C 20,6 C 97 % 1014,1 hPa 0,2 l/m 15,2 km/h (3 Bft) W 263 0 min 0,000 mm 0,0 UV-I 69 W/m 12,9 C 9,2 C 25,7 km/h (4 Bft) 100,00 %
28.06.2018 10:04 13,5 C 20,6 C 97 % 1014,1 hPa 0,0 l/m 12,3 km/h (3 Bft) W 265 0 min 0,000 mm 0,0 UV-I 75 W/m 13,0 C 10,4 C 19,3 km/h (3 Bft) 100,00 %
28.06.2018 10:05 13,5 C 20,6 C 97 % 1014,1 hPa 0,0 l/m 15,2 km/h (3 Bft) W 263 0 min 0,000 mm 0,4 UV-I 76 W/m 13,0 C 9,3 C 22,5 km/h (4 Bft) 100,00 %
28.06.2018 10:06 13,5 C 20,6 C 97 % 1014,1 hPa 0,0 l/m 16,6 km/h (3 Bft) W 263 0 min 0,000 mm 0,5 UV-I 77 W/m 13,0 C 8,8 C 22,5 km/h (4 Bft) 95,65 %
28.06.2018 10:07 13,5 C 20,6 C 97 % 1014,1 hPa 0,2 l/m 15,8 km/h (3 Bft) W-SW 248 0 min 0,000 mm 0,5 UV-I 80 W/m 13,0 C 9,1 C 24,1 km/h (4 Bft) 100,00 %
28.06.2018 10:08 13,5 C 20,6 C 97 % 1014,1 hPa 0,0 l/m 21,4 km/h (4 Bft) W 274 0 min 0,000 mm 0,5 UV-I 80 W/m 13,0 C 7,4 C 30,6 km/h (5 Bft) 95,65 %
28.06.2018 10:09 13,5 C 20,6 C 97 % 1014,1 hPa 0,0 l/m 13,9 km/h (3 Bft) W-NW 286 0 min 0,000 mm 0,5 UV-I 77 W/m 13,0 C 9,8 C 19,3 km/h (3 Bft) 100,00 %
28.06.2018 10:10 13,5 C 20,6 C 97 % 1014,1 hPa 0,0 l/m 16,6 km/h (3 Bft) W 268 0 min 0,000 mm 0,5 UV-I 81 W/m 13,0 C 8,8 C 24,1 km/h (4 Bft) 92,86 %
28.06.2018 10:11 13,6 C 20,6 C 97 % 1013,9 hPa 0,0 l/m 14,4 km/h (3 Bft) W-SW 257 0 min 0,000 mm 0,5 UV-I 77 W/m 13,1 C 9,7 C 20,9 km/h (4 Bft) 100,00 %
28.06.2018 10:12 13,6 C 20,6 C 97 % 1013,9 hPa 0,2 l/m 15,3 km/h (3 Bft) W 265 0 min 0,000 mm 0,5 UV-I 76 W/m 13,1 C 9,4 C 19,3 km/h (3 Bft) 100,00 %
28.06.2018 10:13 13,6 C 20,6 C 97 % 1014,0 hPa 0,0 l/m 16,4 km/h (3 Bft) W 279 0 min 0,000 mm 0,5 UV-I 76 W/m 13,1 C 9,0 C 20,9 km/h (4 Bft) 100,00 %
28.06.2018 10:14 13,6 C 20,6 C 97 % 1014,0 hPa 0,0 l/m 13,7 km/h (3 Bft) NW 307 0 min 0,000 mm 0,5 UV-I 79 W/m 13,1 C 10,0 C 20,9 km/h (4 Bft) 91,30 %
28.06.2018 10:15 13,6 C 20,6 C 97 % 1014,0 hPa 0,0 l/m 14,1 km/h (3 Bft) W-NW 286 0 min 0,000 mm 0,5 UV-I 78 W/m 13,1 C 9,8 C 29,0 km/h (5 Bft) 100,00 %
28.06.2018 10:16 13,6 C 20,6 C 97 % 1013,9 hPa 0,2 l/m 17,8 km/h (3 Bft) W-SW 246 0 min 0,000 mm 0,5 UV-I 77 W/m 13,1 C 8,6 C 25,7 km/h (4 Bft) 100,00 %
28.06.2018 10:17 13,6 C 20,6 C 97 % 1013,9 hPa 0,0 l/m 14,2 km/h (3 Bft) W 261 0 min 0,000 mm 0,5 UV-I 74 W/m 13,1 C 9,8 C 20,9 km/h (4 Bft) 100,00 %
28.06.2018 10:18 13,6 C 20,6 C 97 % 1013,8 hPa 0,0 l/m 18,8 km/h (3 Bft) W 261 0 min 0,000 mm 0,0 UV-I 68 W/m 13,1 C 8,3 C 27,4 km/h (4 Bft) 100,00 %
28.06.2018 10:19 13,6 C 20,6 C 97 % 1013,9 hPa 0,0 l/m 15,9 km/h (3 Bft) W 259 0 min 0,000 mm 0,0 UV-I 68 W/m 13,1 C 9,2 C 22,5 km/h (4 Bft) 100,00 %
28.06.2018 10:20 13,6 C 20,6 C 97 % 1013,9 hPa 0,2 l/m 18,3 km/h (3 Bft) W 276 0 min 0,000 mm 0,2 UV-I 73 W/m 13,1 C 8,4 C 25,7 km/h (4 Bft) 100,00 %
28.06.2018 10:21 13,6 C 20,6 C 97 % 1013,8 hPa 0,0 l/m 14,2 km/h (3 Bft) W 260 0 min 0,000 mm 0,5 UV-I 78 W/m 13,1 C 9,8 C 19,3 km/h (3 Bft) 100,00 %
28.06.2018 10:22 13,6 C 20,6 C 97 % 1013,8 hPa 0,0 l/m 14,5 km/h (3 Bft) W 279 0 min 0,000 mm 0,5 UV-I 81 W/m 13,1 C 9,7 C 22,5 km/h (4 Bft) 100,00 %
28.06.2018 10:23 13,6 C 20,6 C 97 % 1013,8 hPa 0,0 l/m 15,2 km/h (3 Bft) W 280 0 min 0,000 mm 0,5 UV-I 84 W/m 13,1 C 9,4 C 24,1 km/h (4 Bft) 100,00 %
28.06.2018 10:24 13,6 C 20,6 C 97 % 1013,8 hPa 0,0 l/m 15,4 km/h (3 Bft) W 275 0 min 0,000 mm 0,5 UV-I 84 W/m 13,1 C 9,4 C 22,5 km/h (4 Bft) 100,00 %
28.06.2018 10:25 13,6 C 20,6 C 97 % 1013,8 hPa 0,2 l/m 18,2 km/h (3 Bft) W 269 0 min 0,000 mm 0,5 UV-I 83 W/m 13,1 C 8,5 C 27,4 km/h (4 Bft) 100,00 %
28.06.2018 10:26 13,6 C 20,6 C 97 % 1013,8 hPa 0,0 l/m 13,3 km/h (3 Bft) W 271 0 min 0,000 mm 0,5 UV-I 78 W/m 13,1 C 10,1 C 19,3 km/h (3 Bft) 100,00 %
28.06.2018 10:27 13,6 C 20,6 C 97 % 1013,8 hPa 0,0 l/m 15,7 km/h (3 Bft) W 262 0 min 0,000 mm 0,5 UV-I 76 W/m 13,1 C 9,3 C 25,7 km/h (4 Bft) 100,00 %
28.06.2018 10:28 13,6 C 20,6 C 97 % 1013,8 hPa 0,2 l/m 16,9 km/h (3 Bft) W 268 0 min 0,000 mm 0,5 UV-I 74 W/m 13,1 C 8,9 C 25,7 km/h (4 Bft) 100,00 %
28.06.2018 10:29 13,6 C 20,6 C 97 % 1013,7 hPa 0,0 l/m 20,7 km/h (4 Bft) W 265 0 min 0,000 mm 0,5 UV-I 73 W/m 13,1 C 7,7 C 29,0 km/h (5 Bft) 100,00 %
28.06.2018 10:30 13,6 C 20,6 C 97 % 1013,7 hPa 0,0 l/m 16,3 km/h (3 Bft) W-SW 253 0 min 0,000 mm 0,1 UV-I 71 W/m 13,1 C 9,1 C 22,5 km/h (4 Bft) 100,00 %
28.06.2018 10:31 13,6 C 20,6 C 97 % 1013,7 hPa 0,2 l/m 13,2 km/h (3 Bft) W 268 0 min 0,000 mm 0,5 UV-I 76 W/m 13,1 C 10,2 C 19,3 km/h (3 Bft) 100,00 %
28.06.2018 10:32 13,6 C 20,6 C 97 % 1013,7 hPa 0,0 l/m 16,2 km/h (3 Bft) W 279 0 min 0,000 mm 0,5 UV-I 79 W/m 13,1 C 9,1 C 24,1 km/h (4 Bft) 100,00 %
28.06.2018 10:33 13,6 C 20,6 C 97 % 1013,7 hPa 0,0 l/m 14,3 km/h (3 Bft) W-SW 258 0 min 0,000 mm 0,5 UV-I 77 W/m 13,1 C 9,7 C 22,5 km/h (4 Bft) 96,15 %
28.06.2018 10:34 13,7 C 20,6 C 97 % 1013,7 hPa 0,0 l/m 14,3 km/h (3 Bft) W 274 0 min 0,000 mm 0,5 UV-I 77 W/m 13,2 C 9,9 C 20,9 km/h (4 Bft) 100,00 %
28.06.2018 10:35 13,6 C 20,6 C 97 % 1013,6 hPa 0,2 l/m 15,8 km/h (3 Bft) W 272 0 min 0,000 mm 0,5 UV-I 80 W/m 13,1 C 9,2 C 20,9 km/h (4 Bft) 100,00 %
28.06.2018 10:36 13,6 C 20,6 C 97 % 1013,6 hPa 0,0 l/m 13,4 km/h (3 Bft) W 265 0 min 0,000 mm 0,6 UV-I 85 W/m 13,1 C 10,1 C 16,1 km/h (3 Bft) 92,31 %
28.06.2018 10:37 13,7 C 20,6 C 97 % 1013,6 hPa 0,0 l/m 11,1 km/h (2 Bft) W-NW 284 0 min 0,000 mm 0,5 UV-I 83 W/m 13,2 C 11,2 C 17,7 km/h (3 Bft) 100,00 %
28.06.2018 10:38 13,7 C 20,6 C 97 % 1013,6 hPa 0,2 l/m 17,4 km/h (3 Bft) W 267 0 min 0,000 mm 0,5 UV-I 80 W/m 13,2 C 8,8 C 25,7 km/h (4 Bft) 100,00 %
28.06.2018 10:39 13,7 C 20,6 C 97 % 1013,6 hPa 0,0 l/m 17,4 km/h (3 Bft) W 273 0 min 0,000 mm 0,6 UV-I 81 W/m 13,2 C 8,8 C 29,0 km/h (5 Bft) 100,00 %
28.06.2018 10:40 13,7 C 20,6 C 97 % 1013,5 hPa 0,2 l/m 16,7 km/h (3 Bft) W-SW 248 0 min 0,000 mm 0,6 UV-I 86 W/m 13,2 C 9,0 C 24,1 km/h (4 Bft) 96,15 %
28.06.2018 10:41 13,7 C 20,6 C 97 % 1013,5 hPa 0,0 l/m 19,4 km/h (3 Bft) W-SW 241 0 min 0,000 mm 0,6 UV-I 83 W/m 13,2 C 8,2 C 29,0 km/h (5 Bft) 100,00 %
28.06.2018 10:42 13,7 C 20,6 C 97 % 1013,5 hPa 0,2 l/m 15,0 km/h (3 Bft) W-SW 250 0 min 0,000 mm 0,5 UV-I 82 W/m 13,2 C 9,6 C 20,9 km/h (4 Bft) 100,00 %
28.06.2018 10:43 13,7 C 20,6 C 97 % 1013,5 hPa 0,0 l/m 16,1 km/h (3 Bft) W 262 0 min 0,000 mm 0,6 UV-I 83 W/m 13,2 C 9,2 C 22,5 km/h (4 Bft) 100,00 %
28.06.2018 10:44 13,7 C 20,6 C 97 % 1013,5 hPa 0,0 l/m 10,7 km/h (2 Bft) W 269 0 min 0,000 mm 0,6 UV-I 80 W/m 13,2 C 11,3 C 14,5 km/h (3 Bft) 100,00 %
28.06.2018 10:45 13,7 C 20,6 C 97 % 1013,5 hPa 0,0 l/m 15,4 km/h (3 Bft) W 273 0 min 0,000 mm 0,5 UV-I 72 W/m 13,2 C 9,5 C 19,3 km/h (3 Bft) 100,00 %
28.06.2018 10:46 13,7 C 20,6 C 97 % 1013,5 hPa 0,2 l/m 15,4 km/h (3 Bft) W 269 0 min 0,000 mm 0,5 UV-I 76 W/m 13,2 C 9,5 C 20,9 km/h (4 Bft) 100,00 %
28.06.2018 10:47 13,7 C 20,6 C 97 % 1013,4 hPa 0,0 l/m 12,6 km/h (3 Bft) W-NW 289 0 min 0,000 mm 0,5 UV-I 75 W/m 13,2 C 10,5 C 17,7 km/h (3 Bft) 100,00 %
28.06.2018 10:48 13,7 C 20,6 C 97 % 1013,4 hPa 0,0 l/m 13,7 km/h (3 Bft) W 263 0 min 0,000 mm 0,5 UV-I 74 W/m 13,2 C 10,1 C 20,9 km/h (4 Bft) 100,00 %
28.06.2018 10:49 13,7 C 20,6 C 97 % 1013,4 hPa 0,0 l/m 19,7 km/h (3 Bft) W 267 0 min 0,000 mm 0,5 UV-I 78 W/m 13,2 C 8,1 C 32,2 km/h (5 Bft) 100,00 %
28.06.2018 10:50 13,7 C 20,6 C 97 % 1013,4 hPa 0,2 l/m 12,1 km/h (2 Bft) W-SW 257 0 min 0,000 mm 0,5 UV-I 82 W/m 13,2 C 10,7 C 17,7 km/h (3 Bft) 91,30 %
28.06.2018 10:51 13,7 C 20,6 C 97 % 1013,4 hPa 0,0 l/m 14,7 km/h (3 Bft) W 259 0 min 0,000 mm 0,5 UV-I 78 W/m 13,2 C 9,7 C 25,7 km/h (4 Bft) 100,00 %
28.06.2018 10:52 13,7 C 20,6 C 97 % 1013,3 hPa 0,0 l/m 14,7 km/h (3 Bft) W 259 0 min 0,000 mm 0,5 UV-I 75 W/m 13,2 C 9,7 C 19,3 km/h (3 Bft) 100,00 %
28.06.2018 10:53 13,7 C 20,6 C 97 % 1013,3 hPa 0,2 l/m 19,3 km/h (3 Bft) W 263 0 min 0,000 mm 0,5 UV-I 83 W/m 13,2 C 8,3 C 24,1 km/h (4 Bft) 100,00 %
28.06.2018 10:54 13,7 C 20,6 C 97 % 1013,3 hPa 0,0 l/m 12,7 km/h (3 Bft) W-SW 254 0 min 0,000 mm 0,6 UV-I 89 W/m 13,2 C 10,5 C 19,3 km/h (3 Bft) 100,00 %
28.06.2018 10:55 13,7 C 20,6 C 97 % 1013,3 hPa 0,0 l/m 16,8 km/h (3 Bft) W 276 0 min 0,000 mm 0,6 UV-I 93 W/m 13,2 C 9,0 C 24,1 km/h (4 Bft) 100,00 %
28.06.2018 10:56 13,7 C 20,6 C 97 % 1013,3 hPa 0,2 l/m 13,8 km/h (3 Bft) W 269 0 min 0,000 mm 0,6 UV-I 100 W/m 13,2 C 10,1 C 19,3 km/h (3 Bft) 100,00 %
28.06.2018 10:57 13,7 C 20,6 C 97 % 1013,3 hPa 0,0 l/m 18,6 km/h (3 Bft) W 281 0 min 0,000 mm 0,6 UV-I 90 W/m 13,2 C 8,5 C 24,1 km/h (4 Bft) 100,00 %
28.06.2018 10:58 13,7 C 20,6 C 97 % 1013,3 hPa 0,0 l/m 16,3 km/h (3 Bft) W 275 0 min 0,000 mm 0,7 UV-I 99 W/m 13,2 C 9,2 C 24,1 km/h (4 Bft) 100,00 %
28.06.2018 10:59 13,7 C 20,6 C 97 % 1013,2 hPa 0,2 l/m 13,6 km/h (3 Bft) W 263 0 min 0,000 mm 0,7 UV-I 104 W/m 13,2 C 10,1 C 17,7 km/h (3 Bft) 100,00 %
28.06.2018 11:00 13,7 C 20,6 C 97 % 1013,2 hPa 0,0 l/m 14,3 km/h (3 Bft) W 260 0 min 0,051 mm 0,8 UV-I 112 W/m 13,2 C 9,9 C 20,9 km/h (4 Bft) 100,00 %
28.06.2018 11:02 13,8 C 20,6 C 97 % 1013,2 hPa 0,2 l/m 14,7 km/h (3 Bft) NW 324 0 min 0,000 mm 0,7 UV-I 107 W/m 13,3 C 9,8 C 27,4 km/h (4 Bft) 97,87 %
28.06.2018 11:03 13,8 C 20,6 C 97 % 1013,2 hPa 0,0 l/m 16,2 km/h (3 Bft) W 259 0 min 0,000 mm 0,6 UV-I 94 W/m 13,3 C 9,3 C 27,4 km/h (4 Bft) 95,65 %
28.06.2018 11:04 13,8 C 20,6 C 97 % 1013,2 hPa 0,0 l/m 11,6 km/h (2 Bft) W-SW 253 0 min 0,000 mm 0,7 UV-I 104 W/m 13,3 C 11,1 C 16,1 km/h (3 Bft) 100,00 %
28.06.2018 11:05 13,8 C 20,6 C 97 % 1013,2 hPa 0,0 l/m 12,5 km/h (3 Bft) W 267 0 min 0,000 mm 0,6 UV-I 94 W/m 13,3 C 10,7 C 19,3 km/h (3 Bft) 100,00 %
28.06.2018 11:06 13,8 C 20,6 C 97 % 1013,2 hPa 0,0 l/m 15,8 km/h (3 Bft) W-NW 286 0 min 0,000 mm 0,6 UV-I 90 W/m 13,3 C 9,5 C 22,5 km/h (4 Bft) 100,00 %
28.06.2018 11:07 13,9 C 20,6 C 97 % 1013,1 hPa 0,2 l/m 12,8 km/h (3 Bft) NW 304 0 min 0,000 mm 0,6 UV-I 87 W/m 13,4 C 10,7 C 22,5 km/h (4 Bft) 91,30 %
28.06.2018 11:08 13,8 C 20,6 C 97 % 1013,2 hPa 0,0 l/m 12,4 km/h (3 Bft) W 268 0 min 0,000 mm 0,6 UV-I 84 W/m 13,3 C 10,7 C 16,1 km/h (3 Bft) 100,00 %
28.06.2018 11:09 13,8 C 20,6 C 97 % 1013,1 hPa 0,0 l/m 15,8 km/h (3 Bft) W 267 0 min 0,000 mm 0,5 UV-I 83 W/m 13,3 C 9,5 C 25,7 km/h (4 Bft) 100,00 %
28.06.2018 11:10 13,9 C 20,6 C 97 % 1013,1 hPa 0,0 l/m 16,2 km/h (3 Bft) SW 220 0 min 0,000 mm 0,5 UV-I 72 W/m 13,4 C 9,5 C 24,1 km/h (4 Bft) 100,00 %
28.06.2018 11:11 13,8 C 20,6 C 97 % 1013,1 hPa 0,2 l/m 14,3 km/h (3 Bft) W-SW 255 0 min 0,000 mm 0,0 UV-I 66 W/m 13,3 C 10,0 C 20,9 km/h (4 Bft) 100,00 %
28.06.2018 11:13 13,8 C 20,6 C 97 % 1013,2 hPa 0,0 l/m 13,7 km/h (3 Bft) W 281 0 min 0,000 mm 0,5 UV-I 69 W/m 13,3 C 10,2 C 19,3 km/h (3 Bft) 100,00 %
28.06.2018 11:14 13,8 C 20,6 C 97 % 1013,2 hPa 0,0 l/m 12,3 km/h (3 Bft) W 268 0 min 0,000 mm 0,5 UV-I 75 W/m 13,3 C 10,8 C 17,7 km/h (3 Bft) 100,00 %
28.06.2018 11:15 13,8 C 20,6 C 97 % 1013,1 hPa 0,0 l/m 15,3 km/h (3 Bft) NW 311 0 min 0,000 mm 0,5 UV-I 77 W/m 13,3 C 9,6 C 24,1 km/h (4 Bft) 100,00 %
28.06.2018 11:16 13,8 C 20,6 C 97 % 1013,1 hPa 0,2 l/m 14,2 km/h (3 Bft) W 262 0 min 0,000 mm 0,5 UV-I 69 W/m 13,3 C 10,0 C 17,7 km/h (3 Bft) 100,00 %
28.06.2018 11:17 13,8 C 20,6 C 97 % 1013,1 hPa 0,0 l/m 15,8 km/h (3 Bft) W 281 0 min 0,000 mm 0,0 UV-I 61 W/m 13,3 C 9,5 C 20,9 km/h (4 Bft) 95,83 %
28.06.2018 11:18 13,8 C 20,6 C 97 % 1013,0 hPa 0,0 l/m 12,3 km/h (3 Bft) W 264 0 min 0,000 mm 0,0 UV-I 52 W/m 13,3 C 10,8 C 17,7 km/h (3 Bft) 95,65 %
28.06.2018 11:19 13,8 C 20,6 C 97 % 1013,1 hPa 0,2 l/m 11,8 km/h (2 Bft) W 273 0 min 0,000 mm 0,0 UV-I 40 W/m 13,3 C 11,0 C 19,3 km/h (3 Bft) 95,83 %
28.06.2018 11:20 13,9 C 20,6 C 97 % 1013,1 hPa 0,0 l/m 9,5 km/h (2 Bft) W-SW 248 0 min 0,000 mm 0,0 UV-I 41 W/m 13,4 C 12,1 C 16,1 km/h (3 Bft) 100,00 %
28.06.2018 11:21 13,9 C 20,6 C 97 % 1013,1 hPa 0,0 l/m 11,5 km/h (2 Bft) W 273 0 min 0,000 mm 0,0 UV-I 40 W/m 13,4 C 11,2 C 24,1 km/h (4 Bft) 87,50 %
28.06.2018 11:22 13,8 C 20,6 C 97 % 1013,1 hPa 0,0 l/m 11,5 km/h (2 Bft) N-NW 348 0 min 0,000 mm 0,0 UV-I 43 W/m 13,3 C 11,1 C 25,7 km/h (4 Bft) 95,65 %
28.06.2018 11:23 13,8 C 20,6 C 97 % 1013,1 hPa 0,0 l/m 13,0 km/h (3 Bft) W 274 0 min 0,000 mm 0,0 UV-I 48 W/m 13,3 C 10,5 C 19,3 km/h (3 Bft) 100,00 %
28.06.2018 11:24 13,8 C 20,6 C 97 % 1013,1 hPa 0,2 l/m 13,2 km/h (3 Bft) W 273 0 min 0,000 mm 0,0 UV-I 44 W/m 13,3 C 10,4 C 17,7 km/h (3 Bft) 95,65 %
28.06.2018 11:25 13,8 C 20,6 C 97 % 1013,1 hPa 0,0 l/m 16,4 km/h (3 Bft) W 273 0 min 0,000 mm 0,0 UV-I 45 W/m 13,3 C 9,3 C 20,9 km/h (4 Bft) 100,00 %
28.06.2018 11:26 13,8 C 20,6 C 97 % 1013,1 hPa 0,0 l/m 13,6 km/h (3 Bft) W 263 0 min 0,000 mm 0,0 UV-I 47 W/m 13,3 C 10,2 C 19,3 km/h (3 Bft) 95,65 %
28.06.2018 11:27 13,8 C 20,6 C 97 % 1013,1 hPa 0,0 l/m 11,1 km/h (2 Bft) W 275 0 min 0,000 mm 0,0 UV-I 47 W/m 13,3 C 11,3 C 17,7 km/h (3 Bft) 100,00 %
28.06.2018 11:28 13,9 C 20,6 C 97 % 1013,0 hPa 0,0 l/m 11,7 km/h (2 Bft) W 267 0 min 0,000 mm 0,0 UV-I 42 W/m 13,4 C 11,1 C 19,3 km/h (3 Bft) 95,65 %
28.06.2018 11:29 13,9 C 20,6 C 97 % 1013,1 hPa 0,0 l/m 12,4 km/h (3 Bft) SW 234 0 min 0,000 mm 0,0 UV-I 42 W/m 13,4 C 10,8 C 20,9 km/h (4 Bft) 95,83 %
28.06.2018 11:30 13,9 C 20,6 C 97 % 1013,1 hPa 0,0 l/m 12,1 km/h (2 Bft) W 270 0 min 0,000 mm 0,0 UV-I 45 W/m 13,4 C 11,0 C 16,1 km/h (3 Bft) 100,00 %
28.06.2018 11:31 13,9 C 20,6 C 97 % 1013,0 hPa 0,2 l/m 10,7 km/h (2 Bft) W 279 0 min 0,000 mm 0,0 UV-I 50 W/m 13,4 C 11,6 C 16,1 km/h (3 Bft) 95,83 %
28.06.2018 11:32 13,9 C 20,6 C 97 % 1013,0 hPa 0,0 l/m 12,2 km/h (2 Bft) W 277 0 min 0,000 mm 0,0 UV-I 53 W/m 13,4 C 10,9 C 17,7 km/h (3 Bft) 100,00 %
28.06.2018 11:33 13,9 C 20,6 C 97 % 1013,0 hPa 0,0 l/m 12,9 km/h (3 Bft) W 277 0 min 0,000 mm 0,0 UV-I 63 W/m 13,4 C 10,6 C 17,7 km/h (3 Bft) 95,83 %
28.06.2018 11:34 13,9 C 20,6 C 97 % 1013,0 hPa 0,0 l/m 9,6 km/h (2 Bft) W 273 0 min 0,000 mm 0,5 UV-I 69 W/m 13,4 C 12,1 C 17,7 km/h (3 Bft) 95,83 %
28.06.2018 11:35 13,9 C 20,6 C 97 % 1013,0 hPa 0,0 l/m 16,4 km/h (3 Bft) W 279 0 min 0,000 mm 0,5 UV-I 69 W/m 13,4 C 9,4 C 24,1 km/h (4 Bft) 95,65 %
28.06.2018 11:36 13,9 C 20,6 C 97 % 1012,9 hPa 0,0 l/m 15,1 km/h (3 Bft) W-NW 298 0 min 0,000 mm 0,3 UV-I 68 W/m 13,4 C 9,8 C 19,3 km/h (3 Bft) 100,00 %
28.06.2018 11:37 13,9 C 20,6 C 97 % 1012,9 hPa 0,2 l/m 11,6 km/h (2 Bft) W 269 0 min 0,000 mm 0,0 UV-I 55 W/m 13,4 C 11,2 C 20,9 km/h (4 Bft) 91,30 %
28.06.2018 11:38 13,9 C 20,6 C 97 % 1013,0 hPa 0,0 l/m 5,6 km/h (1 Bft) N-NW 340 0 min 0,000 mm 0,0 UV-I 42 W/m 13,4 C 13,9 C 9,7 km/h (2 Bft) 95,83 %
28.06.2018 11:39 13,9 C 20,6 C 97 % 1013,0 hPa 0,0 l/m 7,9 km/h (2 Bft) W-NW 287 0 min 0,000 mm 0,0 UV-I 35 W/m 13,4 C 13,0 C 14,5 km/h (3 Bft) 100,00 %
28.06.2018 11:40 13,9 C 20,6 C 97 % 1013,0 hPa 0,0 l/m 3,5 km/h (1 Bft) W-NW 291 0 min 0,000 mm 0,0 UV-I 36 W/m 13,4 C 13,9 C 6,4 km/h (2 Bft) 95,83 %
28.06.2018 11:41 13,9 C 20,6 C 97 % 1013,1 hPa 0,0 l/m 10,3 km/h (2 Bft) W 262 0 min 0,000 mm 0,0 UV-I 40 W/m 13,4 C 11,8 C 14,5 km/h (3 Bft) 100,00 %
28.06.2018 11:42 13,9 C 20,6 C 97 % 1013,0 hPa 0,2 l/m 10,0 km/h (2 Bft) W-NW 295 0 min 0,000 mm 0,0 UV-I 48 W/m 13,4 C 11,9 C 17,7 km/h (3 Bft) 96,30 %
28.06.2018 11:43 13,9 C 20,6 C 97 % 1013,0 hPa 0,0 l/m 5,6 km/h (1 Bft) W 273 0 min 0,000 mm 0,0 UV-I 52 W/m 13,4 C 13,9 C 11,3 km/h (2 Bft) 100,00 %
28.06.2018 11:44 13,9 C 20,6 C 97 % 1013,1 hPa 0,0 l/m 14,8 km/h (3 Bft) W 267 0 min 0,000 mm 0,0 UV-I 56 W/m 13,4 C 9,9 C 20,9 km/h (4 Bft) 95,83 %
28.06.2018 11:45 14,0 C 20,6 C 97 % 1013,0 hPa 0,0 l/m 11,0 km/h (2 Bft) NW 325 0 min 0,000 mm 0,0 UV-I 47 W/m 13,5 C 11,6 C 16,1 km/h (3 Bft) 95,65 %
28.06.2018 11:46 14,0 C 20,6 C 97 % 1013,0 hPa 0,0 l/m 10,8 km/h (2 Bft) N-NW 328 0 min 0,000 mm 0,0 UV-I 48 W/m 13,5 C 11,6 C 17,7 km/h (3 Bft) 100,00 %
28.06.2018 11:48 14,0 C 20,6 C 97 % 1013,0 hPa 0,2 l/m 9,4 km/h (2 Bft) W-SW 254 0 min 0,000 mm 0,0 UV-I 55 W/m 13,5 C 12,3 C 16,1 km/h (3 Bft) 97,87 %
28.06.2018 11:49 14,0 C 20,6 C 97 % 1013,0 hPa 0,0 l/m 10,5 km/h (2 Bft) W-SW 244 0 min 0,000 mm 0,3 UV-I 63 W/m 13,5 C 11,8 C 16,1 km/h (3 Bft) 95,65 %
28.06.2018 11:50 14,0 C 20,6 C 97 % 1013,0 hPa 0,0 l/m 10,5 km/h (2 Bft) W-SW 240 0 min 0,000 mm 0,2 UV-I 59 W/m 13,5 C 11,8 C 14,5 km/h (3 Bft) 100,00 %
28.06.2018 11:51 14,0 C 20,6 C 97 % 1013,0 hPa 0,0 l/m 12,2 km/h (2 Bft) W-SW 240 0 min 0,000 mm 0,0 UV-I 55 W/m 13,5 C 11,0 C 14,5 km/h (3 Bft) 95,65 %
28.06.2018 11:52 14,0 C 20,6 C 97 % 1013,0 hPa 0,2 l/m 7,6 km/h (2 Bft) W-NW 294 0 min 0,000 mm 0,0 UV-I 61 W/m 13,5 C 13,3 C 12,9 km/h (3 Bft) 100,00 %
28.06.2018 11:53 14,0 C 20,6 C 97 % 1013,0 hPa 0,0 l/m 11,3 km/h (2 Bft) W-SW 243 0 min 0,000 mm 0,0 UV-I 59 W/m 13,5 C 11,4 C 19,3 km/h (3 Bft) 95,65 %
28.06.2018 11:54 14,1 C 20,6 C 97 % 1013,0 hPa 0,0 l/m 10,2 km/h (2 Bft) W-NW 298 0 min 0,000 mm 0,0 UV-I 52 W/m 13,6 C 12,0 C 16,1 km/h (3 Bft) 100,00 %
28.06.2018 11:55 14,1 C 20,6 C 97 % 1013,0 hPa 0,0 l/m 5,8 km/h (2 Bft) NW 317 0 min 0,000 mm 0,0 UV-I 48 W/m 13,6 C 14,1 C 9,7 km/h (2 Bft) 100,00 %
28.06.2018 11:56 14,1 C 20,6 C 97 % 1013,1 hPa 0,0 l/m 13,7 km/h (3 Bft) W-NW 301 0 min 0,000 mm 0,0 UV-I 51 W/m 13,6 C 10,6 C 19,3 km/h (3 Bft) 95,65 %
28.06.2018 11:57 14,1 C 20,6 C 97 % 1013,0 hPa 0,0 l/m 9,7 km/h (2 Bft) W-SW 252 0 min 0,000 mm 0,0 UV-I 58 W/m 13,6 C 12,3 C 19,3 km/h (3 Bft) 100,00 %
28.06.2018 11:58 14,1 C 20,6 C 97 % 1013,0 hPa 0,2 l/m 12,9 km/h (3 Bft) W-NW 288 0 min 0,000 mm 0,5 UV-I 61 W/m 13,6 C 10,9 C 19,3 km/h (3 Bft) 100,00 %
28.06.2018 11:59 14,1 C 20,6 C 97 % 1013,0 hPa 0,0 l/m 16,8 km/h (3 Bft) W-NW 293 0 min 0,000 mm 0,5 UV-I 65 W/m 13,6 C 9,5 C 27,4 km/h (4 Bft) 100,00 %
28.06.2018 12:00 14,1 C 20,6 C 97 % 1013,0 hPa 0,0 l/m 14,8 km/h (3 Bft) W-SW 254 0 min 0,025 mm 0,5 UV-I 70 W/m 13,6 C 10,2 C 20,9 km/h (4 Bft) 100,00 %
28.06.2018 12:02 14,1 C 20,6 C 97 % 1013,0 hPa 0,2 l/m 15,0 km/h (3 Bft) W-NW 290 0 min 0,000 mm 0,3 UV-I 65 W/m 13,6 C 10,1 C 25,7 km/h (4 Bft) 97,87 %
28.06.2018 12:03 14,1 C 20,6 C 97 % 1013,0 hPa 0,0 l/m 12,1 km/h (2 Bft) W-NW 292 0 min 0,000 mm 0,4 UV-I 66 W/m 13,6 C 11,2 C 19,3 km/h (3 Bft) 100,00 %
28.06.2018 12:04 14,1 C 20,6 C 97 % 1012,9 hPa 0,0 l/m 12,6 km/h (3 Bft) W 277 0 min 0,000 mm 0,5 UV-I 72 W/m 13,6 C 11,0 C 19,3 km/h (3 Bft) 100,00 %
28.06.2018 12:05 14,1 C 20,0 C 97 % 1012,9 hPa 0,0 l/m 8,8 km/h (2 Bft) W 270 0 min 0,000 mm 0,6 UV-I 75 W/m 13,6 C 12,7 C 11,3 km/h (2 Bft) 100,00 %
28.06.2018 12:06 14,1 C 20,0 C 97 % 1012,9 hPa 0,0 l/m 13,9 km/h (3 Bft) W 269 0 min 0,000 mm 0,5 UV-I 73 W/m 13,6 C 10,5 C 20,9 km/h (4 Bft) 100,00 %
28.06.2018 12:07 14,1 C 20,0 C 97 % 1013,0 hPa 0,0 l/m 14,8 km/h (3 Bft) W 271 0 min 0,000 mm 0,5 UV-I 70 W/m 13,6 C 10,2 C 22,5 km/h (4 Bft) 100,00 %
28.06.2018 12:08 14,1 C 20,0 C 97 % 1012,9 hPa 0,2 l/m 15,3 km/h (3 Bft) W 273 0 min 0,000 mm 0,5 UV-I 69 W/m 13,6 C 10,0 C 20,9 km/h (4 Bft) 100,00 %
28.06.2018 12:09 14,1 C 20,0 C 97 % 1012,9 hPa 0,0 l/m 17,6 km/h (3 Bft) W 259 0 min 0,000 mm 0,5 UV-I 70 W/m 13,6 C 9,3 C 22,5 km/h (4 Bft) 100,00 %
28.06.2018 12:10 14,1 C 20,0 C 97 % 1012,9 hPa 0,0 l/m 18,1 km/h (3 Bft) SW 236 0 min 0,000 mm 0,5 UV-I 64 W/m 13,6 C 9,1 C 24,1 km/h (4 Bft) 100,00 %
28.06.2018 12:11 14,1 C 20,0 C 97 % 1012,9 hPa 0,0 l/m 15,5 km/h (3 Bft) NW 309 0 min 0,000 mm 0,3 UV-I 60 W/m 13,6 C 9,9 C 25,7 km/h (4 Bft) 100,00 %
28.06.2018 12:12 14,2 C 20,0 C 97 % 1012,9 hPa 0,0 l/m 14,1 km/h (3 Bft) W-NW 282 0 min 0,000 mm 0,0 UV-I 55 W/m 13,7 C 10,5 C 22,5 km/h (4 Bft) 100,00 %
28.06.2018 12:13 14,1 C 20,0 C 97 % 1012,9 hPa 0,0 l/m 11,3 km/h (2 Bft) W-SW 254 0 min 0,000 mm 0,3 UV-I 63 W/m 13,6 C 11,5 C 19,3 km/h (3 Bft) 100,00 %
28.06.2018 12:14 14,2 C 20,0 C 97 % 1012,9 hPa 0,0 l/m 11,3 km/h (2 Bft) W 259 0 min 0,000 mm 0,6 UV-I 72 W/m 13,7 C 11,6 C 16,1 km/h (3 Bft) 100,00 %
28.06.2018 12:15 14,2 C 20,0 C 97 % 1012,9 hPa 0,0 l/m 11,1 km/h (2 Bft) SW 236 0 min 0,000 mm 0,5 UV-I 73 W/m 13,7 C 11,7 C 19,3 km/h (3 Bft) 95,65 %
28.06.2018 12:16 14,2 C 20,0 C 97 % 1012,9 hPa 0,2 l/m 14,9 km/h (3 Bft) W-NW 287 0 min 0,000 mm 0,6 UV-I 78 W/m 13,7 C 10,3 C 24,1 km/h (4 Bft) 100,00 %
28.06.2018 12:18 14,2 C 20,0 C 97 % 1012,9 hPa 0,0 l/m 12,8 km/h (3 Bft) W 260 0 min 0,000 mm 0,6 UV-I 76 W/m 13,7 C 11,0 C 22,5 km/h (4 Bft) 100,00 %
28.06.2018 12:19 14,2 C 20,0 C 97 % 1012,9 hPa 0,0 l/m 8,4 km/h (2 Bft) W-NW 293 0 min 0,000 mm 0,5 UV-I 65 W/m 13,7 C 13,0 C 14,5 km/h (3 Bft) 95,65 %
28.06.2018 12:20 14,2 C 20,0 C 97 % 1013,0 hPa 0,0 l/m 13,3 km/h (3 Bft) W 267 0 min 0,000 mm 0,5 UV-I 71 W/m 13,7 C 10,8 C 20,9 km/h (4 Bft) 100,00 %
28.06.2018 12:21 14,2 C 20,0 C 97 % 1013,0 hPa 0,0 l/m 10,5 km/h (2 Bft) W-SW 252 0 min 0,000 mm 0,5 UV-I 69 W/m 13,7 C 12,0 C 16,1 km/h (3 Bft) 100,00 %
28.06.2018 12:22 14,2 C 20,0 C 97 % 1013,0 hPa 0,0 l/m 12,0 km/h (2 Bft) W-NW 300 0 min 0,000 mm 0,6 UV-I 73 W/m 13,7 C 11,4 C 19,3 km/h (3 Bft) 100,00 %
28.06.2018 12:23 14,2 C 20,0 C 97 % 1013,0 hPa 0,0 l/m 11,9 km/h (2 Bft) W-SW 254 0 min 0,000 mm 0,6 UV-I 72 W/m 13,7 C 11,4 C 17,7 km/h (3 Bft) 90,91 %
28.06.2018 12:24 14,2 C 20,0 C 97 % 1012,9 hPa 0,0 l/m 9,7 km/h (2 Bft) W-SW 258 0 min 0,000 mm 0,5 UV-I 69 W/m 13,7 C 12,4 C 12,9 km/h (3 Bft) 100,00 %
28.06.2018 12:25 14,2 C 20,0 C 97 % 1013,0 hPa 0,2 l/m 11,9 km/h (2 Bft) W 263 0 min 0,000 mm 0,5 UV-I 67 W/m 13,7 C 11,4 C 24,1 km/h (4 Bft) 100,00 %
28.06.2018 12:26 14,2 C 20,0 C 97 % 1012,9 hPa 0,0 l/m 14,4 km/h (3 Bft) W 277 0 min 0,000 mm 0,5 UV-I 72 W/m 13,7 C 10,4 C 24,1 km/h (4 Bft) 96,43 %
28.06.2018 12:27 14,2 C 20,0 C 97 % 1012,9 hPa 0,0 l/m 6,0 km/h (2 Bft) W 263 0 min 0,000 mm 0,5 UV-I 70 W/m 13,7 C 14,2 C 9,7 km/h (2 Bft) 100,00 %
28.06.2018 12:28 14,2 C 20,0 C 97 % 1012,9 hPa 0,0 l/m 6,2 km/h (2 Bft) W-SW 257 0 min 0,000 mm 0,5 UV-I 68 W/m 13,7 C 14,2 C 14,5 km/h (3 Bft) 100,00 %
28.06.2018 12:29 14,2 C 20,0 C 97 % 1013,0 hPa 0,0 l/m 8,3 km/h (2 Bft) W 266 0 min 0,000 mm 0,5 UV-I 74 W/m 13,7 C 13,1 C 16,1 km/h (3 Bft) 95,65 %
28.06.2018 12:30 14,2 C 20,0 C 97 % 1012,9 hPa 0,0 l/m 10,3 km/h (2 Bft) W 263 0 min 0,000 mm 0,5 UV-I 72 W/m 13,7 C 12,1 C 14,5 km/h (3 Bft) 100,00 %
28.06.2018 12:31 14,3 C 20,0 C 97 % 1012,9 hPa 0,2 l/m 15,4 km/h (3 Bft) W-SW 258 0 min 0,000 mm 0,6 UV-I 76 W/m 13,8 C 10,2 C 20,9 km/h (4 Bft) 100,00 %
28.06.2018 12:32 14,2 C 20,0 C 97 % 1013,0 hPa 0,0 l/m 12,5 km/h (3 Bft) W-SW 240 0 min 0,000 mm 0,6 UV-I 70 W/m 13,7 C 11,1 C 16,1 km/h (3 Bft) 95,65 %
28.06.2018 12:33 14,2 C 20,0 C 97 % 1013,0 hPa 0,0 l/m 9,1 km/h (2 Bft) W 275 0 min 0,000 mm 0,6 UV-I 79 W/m 13,7 C 12,7 C 12,9 km/h (3 Bft) 95,83 %
28.06.2018 12:34 14,3 C 20,0 C 97 % 1012,9 hPa 0,0 l/m 11,1 km/h (2 Bft) W 263 0 min 0,000 mm 0,7 UV-I 84 W/m 13,8 C 11,8 C 14,5 km/h (3 Bft) 100,00 %
28.06.2018 12:35 14,3 C 20,0 C 97 % 1012,9 hPa 0,0 l/m 8,9 km/h (2 Bft) W 265 0 min 0,000 mm 0,7 UV-I 79 W/m 13,8 C 12,9 C 12,9 km/h (3 Bft) 100,00 %
28.06.2018 12:36 14,3 C 20,0 C 97 % 1013,0 hPa 0,0 l/m 12,5 km/h (3 Bft) W-SW 252 0 min 0,000 mm 0,7 UV-I 81 W/m 13,8 C 11,3 C 16,1 km/h (3 Bft) 100,00 %
28.06.2018 12:37 14,3 C 20,0 C 97 % 1012,9 hPa 0,0 l/m 8,8 km/h (2 Bft) NW 305 0 min 0,000 mm 0,8 UV-I 93 W/m 13,8 C 12,9 C 12,9 km/h (3 Bft) 100,00 %
28.06.2018 12:38 14,3 C 20,0 C 97 % 1012,9 hPa 0,0 l/m 12,9 km/h (3 Bft) W-SW 254 0 min 0,000 mm 0,7 UV-I 85 W/m 13,8 C 11,1 C 22,5 km/h (4 Bft) 100,00 %
28.06.2018 12:39 14,3 C 20,0 C 97 % 1012,9 hPa 0,0 l/m 11,7 km/h (2 Bft) W-SW 252 0 min 0,000 mm 0,7 UV-I 90 W/m 13,8 C 11,6 C 14,5 km/h (3 Bft) 100,00 %
28.06.2018 12:40 14,3 C 20,0 C 97 % 1013,0 hPa 0,2 l/m 15,4 km/h (3 Bft) W 260 0 min 0,000 mm 0,7 UV-I 89 W/m 13,8 C 10,2 C 24,1 km/h (4 Bft) 100,00 %
28.06.2018 12:41 14,3 C 20,0 C 97 % 1012,9 hPa 0,0 l/m 10,9 km/h (2 Bft) W-SW 242 0 min 0,000 mm 0,7 UV-I 92 W/m 13,8 C 11,9 C 16,1 km/h (3 Bft) 100,00 %
28.06.2018 12:43 14,3 C 20,0 C 97 % 1013,0 hPa 0,0 l/m 12,7 km/h (3 Bft) W 273 0 min 0,000 mm 0,7 UV-I 87 W/m 13,8 C 11,2 C 20,9 km/h (4 Bft) 100,00 %
28.06.2018 12:44 14,3 C 20,0 C 97 % 1013,0 hPa 0,0 l/m 8,5 km/h (2 Bft) W-SW 249 0 min 0,000 mm 0,6 UV-I 77 W/m 13,8 C 13,1 C 12,9 km/h (3 Bft) 100,00 %
28.06.2018 12:45 14,3 C 20,0 C 97 % 1013,0 hPa 0,0 l/m 13,3 km/h (3 Bft) W 267 0 min 0,000 mm 0,6 UV-I 73 W/m 13,8 C 11,0 C 17,7 km/h (3 Bft) 95,83 %
28.06.2018 12:46 14,4 C 20,0 C 97 % 1013,0 hPa 0,0 l/m 7,7 km/h (2 Bft) W 264 0 min 0,000 mm 0,5 UV-I 64 W/m 13,9 C 13,6 C 11,3 km/h (2 Bft) 100,00 %
28.06.2018 12:47 14,4 C 20,0 C 97 % 1012,9 hPa 0,0 l/m 9,7 km/h (2 Bft) W-SW 246 0 min 0,000 mm 0,5 UV-I 69 W/m 13,9 C 12,6 C 17,7 km/h (3 Bft) 100,00 %
28.06.2018 12:48 14,4 C 20,0 C 97 % 1012,9 hPa 0,2 l/m 12,6 km/h (3 Bft) W-SW 252 0 min 0,000 mm 0,6 UV-I 74 W/m 13,9 C 11,3 C 19,3 km/h (3 Bft) 100,00 %
28.06.2018 12:49 14,4 C 20,0 C 97 % 1012,9 hPa 0,0 l/m 10,3 km/h (2 Bft) W-SW 248 0 min 0,000 mm 0,5 UV-I 69 W/m 13,9 C 12,3 C 16,1 km/h (3 Bft) 95,65 %
28.06.2018 12:50 14,4 C 20,0 C 97 % 1012,9 hPa 0,0 l/m 13,4 km/h (3 Bft) W-SW 251 0 min 0,000 mm 0,5 UV-I 68 W/m 13,9 C 11,0 C 19,3 km/h (3 Bft) 95,83 %
28.06.2018 12:51 14,4 C 20,0 C 97 % 1012,9 hPa 0,0 l/m 9,4 km/h (2 Bft) W-NW 288 0 min 0,000 mm 0,5 UV-I 61 W/m 13,9 C 12,7 C 17,7 km/h (3 Bft) 96,15 %
28.06.2018 12:52 14,4 C 20,0 C 97 % 1012,9 hPa 0,0 l/m 13,2 km/h (3 Bft) W 277 0 min 0,000 mm 0,5 UV-I 66 W/m 13,9 C 11,1 C 16,1 km/h (3 Bft) 100,00 %
28.06.2018 12:53 14,4 C 20,0 C 97 % 1012,9 hPa 0,0 l/m 12,2 km/h (2 Bft) W-SW 245 0 min 0,000 mm 0,5 UV-I 64 W/m 13,9 C 11,5 C 16,1 km/h (3 Bft) 95,65 %
28.06.2018 12:54 14,4 C 20,0 C 97 % 1012,9 hPa 0,0 l/m 11,5 km/h (2 Bft) W-NW 283 0 min 0,000 mm 0,5 UV-I 63 W/m 13,9 C 11,8 C 19,3 km/h (3 Bft) 100,00 %
28.06.2018 12:55 14,4 C 20,0 C 97 % 1012,9 hPa 0,2 l/m 10,2 km/h (2 Bft) W-NW 284 0 min 0,000 mm 0,5 UV-I 62 W/m 13,9 C 12,4 C 14,5 km/h (3 Bft) 92,86 %
28.06.2018 12:56 14,4 C 20,0 C 97 % 1012,9 hPa 0,0 l/m 6,8 km/h (2 Bft) W 269 0 min 0,000 mm 0,5 UV-I 61 W/m 13,9 C 14,2 C 11,3 km/h (2 Bft) 100,00 %
28.06.2018 12:57 14,4 C 20,0 C 97 % 1012,9 hPa 0,0 l/m 10,5 km/h (2 Bft) W-SW 245 0 min 0,000 mm 0,6 UV-I 70 W/m 13,9 C 12,2 C 14,5 km/h (3 Bft) 95,65 %
28.06.2018 12:58 14,4 C 20,0 C 97 % 1012,9 hPa 0,0 l/m 11,5 km/h (2 Bft) W-NW 286 0 min 0,000 mm 0,6 UV-I 76 W/m 13,9 C 11,8 C 17,7 km/h (3 Bft) 100,00 %
28.06.2018 12:59 14,4 C 20,0 C 97 % 1012,8 hPa 0,0 l/m 15,6 km/h (3 Bft) W 260 0 min 0,000 mm 0,7 UV-I 82 W/m 13,9 C 10,3 C 19,3 km/h (3 Bft) 95,65 %
28.06.2018 13:00 14,4 C 20,0 C 97 % 1012,8 hPa 0,0 l/m 11,8 km/h (2 Bft) W-NW 295 0 min 0,000 mm 0,6 UV-I 82 W/m 13,9 C 11,7 C 16,1 km/h (3 Bft) 100,00 %
28.06.2018 13:02 14,4 C 20,0 C 97 % 1012,9 hPa 0,2 l/m 12,4 km/h (3 Bft) W-SW 250 0 min 0,051 mm 0,6 UV-I 78 W/m 13,9 C 11,4 C 20,9 km/h (4 Bft) 93,62 %
28.06.2018 13:03 14,4 C 20,0 C 97 % 1012,8 hPa 0,0 l/m 12,5 km/h (3 Bft) W 266 0 min 0,000 mm 0,6 UV-I 77 W/m 13,9 C 11,4 C 17,7 km/h (3 Bft) 92,31 %
28.06.2018 13:04 14,4 C 20,0 C 97 % 1012,9 hPa 0,0 l/m 12,2 km/h (2 Bft) SW 233 0 min 0,000 mm 0,7 UV-I 77 W/m 13,9 C 11,5 C 16,1 km/h (3 Bft) 96,30 %
28.06.2018 13:05 14,4 C 20,0 C 97 % 1012,8 hPa 0,0 l/m 9,9 km/h (2 Bft) W 275 0 min 0,000 mm 0,6 UV-I 80 W/m 13,9 C 12,5 C 16,1 km/h (3 Bft) 100,00 %
28.06.2018 13:06 14,4 C 20,0 C 97 % 1012,8 hPa 0,2 l/m 12,2 km/h (2 Bft) W-SW 255 0 min 0,000 mm 0,6 UV-I 78 W/m 13,9 C 11,5 C 17,7 km/h (3 Bft) 95,83 %
28.06.2018 13:07 14,4 C 20,0 C 97 % 1012,8 hPa 0,0 l/m 13,6 km/h (3 Bft) W 261 0 min 0,000 mm 0,6 UV-I 74 W/m 13,9 C 11,0 C 17,7 km/h (3 Bft) 100,00 %
28.06.2018 13:08 14,4 C 20,0 C 97 % 1012,8 hPa 0,0 l/m 8,2 km/h (2 Bft) W 276 0 min 0,000 mm 0,6 UV-I 74 W/m 13,9 C 13,4 C 11,3 km/h (2 Bft) 95,83 %
28.06.2018 13:09 14,5 C 20,0 C 97 % 1012,8 hPa 0,0 l/m 12,4 km/h (3 Bft) W 266 0 min 0,000 mm 0,6 UV-I 75 W/m 14,0 C 11,5 C 16,1 km/h (3 Bft) 100,00 %
28.06.2018 13:10 14,5 C 20,0 C 97 % 1012,8 hPa 0,0 l/m 11,9 km/h (2 Bft) W 265 0 min 0,000 mm 0,6 UV-I 75 W/m 14,0 C 11,7 C 19,3 km/h (3 Bft) 95,65 %
28.06.2018 13:11 14,5 C 20,0 C 97 % 1012,8 hPa 0,0 l/m 10,5 km/h (2 Bft) SW 236 0 min 0,000 mm 0,6 UV-I 73 W/m 14,0 C 12,3 C 14,5 km/h (3 Bft) 100,00 %
28.06.2018 13:12 14,5 C 20,0 C 97 % 1012,8 hPa 0,0 l/m 14,3 km/h (3 Bft) W 269 0 min 0,000 mm 0,6 UV-I 72 W/m 14,0 C 10,8 C 19,3 km/h (3 Bft) 91,30 %
28.06.2018 13:13 14,5 C 20,0 C 97 % 1012,8 hPa 0,2 l/m 13,7 km/h (3 Bft) W-NW 290 0 min 0,000 mm 0,6 UV-I 70 W/m 14,0 C 11,0 C 19,3 km/h (3 Bft) 95,83 %
28.06.2018 13:14 14,5 C 20,0 C 97 % 1012,8 hPa 0,0 l/m 11,4 km/h (2 Bft) W 268 0 min 0,000 mm 0,6 UV-I 69 W/m 14,0 C 11,9 C 19,3 km/h (3 Bft) 95,65 %
28.06.2018 13:15 14,5 C 20,0 C 97 % 1012,9 hPa 0,0 l/m 9,3 km/h (2 Bft) W-SW 244 0 min 0,000 mm 0,6 UV-I 70 W/m 14,0 C 12,9 C 12,9 km/h (3 Bft) 91,67 %
28.06.2018 13:16 14,5 C 20,0 C 97 % 1012,8 hPa 0,0 l/m 14,3 km/h (3 Bft) W 267 0 min 0,000 mm 0,6 UV-I 79 W/m 14,0 C 10,8 C 20,9 km/h (4 Bft) 100,00 %
28.06.2018 13:17 14,6 C 20,0 C 97 % 1012,8 hPa 0,0 l/m 9,9 km/h (2 Bft) W-SW 252 0 min 0,000 mm 0,7 UV-I 84 W/m 14,1 C 12,7 C 16,1 km/h (3 Bft) 91,67 %
28.06.2018 13:18 14,6 C 20,0 C 97 % 1012,8 hPa 0,0 l/m 11,9 km/h (2 Bft) W 279 0 min 0,000 mm 0,7 UV-I 83 W/m 14,1 C 11,9 C 16,1 km/h (3 Bft) 100,00 %
28.06.2018 13:19 14,6 C 20,0 C 97 % 1012,8 hPa 0,0 l/m 12,5 km/h (3 Bft) W 272 0 min 0,000 mm 0,6 UV-I 83 W/m 14,1 C 11,6 C 16,1 km/h (3 Bft) 91,67 %
28.06.2018 13:20 14,6 C 20,0 C 97 % 1012,8 hPa 0,2 l/m 15,2 km/h (3 Bft) W-SW 251 0 min 0,000 mm 0,7 UV-I 84 W/m 14,1 C 10,6 C 20,9 km/h (4 Bft) 100,00 %
28.06.2018 13:21 14,6 C 20,0 C 97 % 1012,8 hPa 0,0 l/m 16,0 km/h (3 Bft) W 265 0 min 0,000 mm 0,7 UV-I 84 W/m 14,1 C 10,4 C 20,9 km/h (4 Bft) 87,50 %
28.06.2018 13:22 14,6 C 20,0 C 97 % 1012,8 hPa 0,0 l/m 11,9 km/h (2 Bft) W-SW 256 0 min 0,000 mm 0,7 UV-I 83 W/m 14,1 C 11,9 C 17,7 km/h (3 Bft) 95,83 %
28.06.2018 13:23 14,6 C 20,0 C 97 % 1012,8 hPa 0,0 l/m 14,6 km/h (3 Bft) W 272 0 min 0,000 mm 0,6 UV-I 75 W/m 14,1 C 10,8 C 19,3 km/h (3 Bft) 95,65 %
28.06.2018 13:24 14,6 C 20,0 C 97 % 1012,8 hPa 0,0 l/m 10,0 km/h (2 Bft) W 277 0 min 0,000 mm 0,6 UV-I 74 W/m 14,1 C 12,7 C 14,5 km/h (3 Bft) 95,83 %
28.06.2018 13:25 14,6 C 20,0 C 97 % 1012,8 hPa 0,0 l/m 12,2 km/h (2 Bft) W 277 0 min 0,000 mm 0,6 UV-I 74 W/m 14,1 C 11,7 C 16,1 km/h (3 Bft) 95,65 %
28.06.2018 13:26 14,6 C 20,0 C 97 % 1012,8 hPa 0,0 l/m 14,3 km/h (3 Bft) W-SW 246 0 min 0,000 mm 0,6 UV-I 74 W/m 14,1 C 10,9 C 17,7 km/h (3 Bft) 95,83 %
28.06.2018 13:27 14,6 C 20,0 C 97 % 1012,8 hPa 0,0 l/m 11,1 km/h (2 Bft) W 266 0 min 0,000 mm 0,5 UV-I 71 W/m 14,1 C 12,2 C 16,1 km/h (3 Bft) 95,65 %
28.06.2018 13:28 14,6 C 20,0 C 97 % 1012,8 hPa 0,0 l/m 10,7 km/h (2 Bft) W 261 0 min 0,000 mm 0,5 UV-I 66 W/m 14,1 C 12,4 C 12,9 km/h (3 Bft) 91,67 %
28.06.2018 13:29 14,6 C 20,0 C 97 % 1012,8 hPa 0,2 l/m 9,8 km/h (2 Bft) W 263 0 min 0,000 mm 0,5 UV-I 64 W/m 14,1 C 12,8 C 14,5 km/h (3 Bft) 100,00 %
28.06.2018 13:30 14,6 C 20,0 C 97 % 1012,8 hPa 0,0 l/m 7,1 km/h (2 Bft) W-NW 286 0 min 0,000 mm 0,5 UV-I 68 W/m 14,1 C 14,2 C 11,3 km/h (2 Bft) 91,67 %
28.06.2018 13:31 14,6 C 20,0 C 97 % 1012,8 hPa 0,0 l/m 8,7 km/h (2 Bft) W 260 0 min 0,000 mm 0,5 UV-I 67 W/m 14,1 C 13,3 C 12,9 km/h (3 Bft) 88,46 %
28.06.2018 13:32 14,6 C 20,0 C 97 % 1012,8 hPa 0,0 l/m 10,1 km/h (2 Bft) W-SW 258 0 min 0,000 mm 0,5 UV-I 60 W/m 14,1 C 12,6 C 14,5 km/h (3 Bft) 95,83 %
28.06.2018 13:33 14,6 C 20,0 C 97 % 1012,8 hPa 0,0 l/m 6,9 km/h (2 Bft) W-SW 254 0 min 0,000 mm 0,5 UV-I 65 W/m 14,1 C 14,3 C 9,7 km/h (2 Bft) 95,65 %
28.06.2018 13:34 14,6 C 20,0 C 97 % 1012,9 hPa 0,0 l/m 11,3 km/h (2 Bft) W-SW 254 0 min 0,000 mm 0,6 UV-I 71 W/m 14,1 C 12,1 C 16,1 km/h (3 Bft) 95,83 %
28.06.2018 13:35 14,7 C 20,0 C 97 % 1012,8 hPa 0,0 l/m 11,6 km/h (2 Bft) W-SW 253 0 min 0,000 mm 0,6 UV-I 76 W/m 14,2 C 12,1 C 20,9 km/h (4 Bft) 92,31 %
28.06.2018 13:36 14,7 C 20,0 C 97 % 1012,8 hPa 0,0 l/m 9,7 km/h (2 Bft) W-NW 303 0 min 0,000 mm 0,6 UV-I 74 W/m 14,2 C 12,9 C 19,3 km/h (3 Bft) 100,00 %
28.06.2018 13:37 14,7 C 20,0 C 97 % 1012,8 hPa 0,0 l/m 11,0 km/h (2 Bft) W-SW 257 0 min 0,000 mm 0,6 UV-I 76 W/m 14,2 C 12,3 C 19,3 km/h (3 Bft) 91,30 %
28.06.2018 13:38 14,6 C 20,0 C 97 % 1012,8 hPa 0,0 l/m 11,7 km/h (2 Bft) W-SW 257 0 min 0,000 mm 0,6 UV-I 77 W/m 14,1 C 11,9 C 16,1 km/h (3 Bft) 95,83 %
28.06.2018 13:39 14,6 C 20,0 C 97 % 1012,8 hPa 0,0 l/m 12,4 km/h (3 Bft) W-SW 257 0 min 0,000 mm 0,6 UV-I 84 W/m 14,1 C 11,7 C 16,1 km/h (3 Bft) 91,30 %
28.06.2018 13:40 14,6 C 20,0 C 97 % 1012,8 hPa 0,2 l/m 14,3 km/h (3 Bft) W 271 0 min 0,000 mm 0,7 UV-I 88 W/m 14,1 C 10,9 C 19,3 km/h (3 Bft) 95,83 %
28.06.2018 13:41 14,7 C 20,0 C 97 % 1012,8 hPa 0,0 l/m 10,9 km/h (2 Bft) W-SW 258 0 min 0,000 mm 0,7 UV-I 86 W/m 14,2 C 12,4 C 14,5 km/h (3 Bft) 95,83 %
28.06.2018 13:42 14,6 C 20,0 C 97 % 1012,8 hPa 0,0 l/m 12,0 km/h (2 Bft) W-SW 254 0 min 0,000 mm 0,7 UV-I 88 W/m 14,1 C 11,8 C 20,9 km/h (4 Bft) 91,30 %
28.06.2018 13:43 14,6 C 20,0 C 97 % 1012,8 hPa 0,0 l/m 14,7 km/h (3 Bft) W-NW 291 0 min 0,000 mm 0,7 UV-I 86 W/m 14,1 C 10,8 C 19,3 km/h (3 Bft) 95,83 %
28.06.2018 13:44 14,6 C 20,0 C 97 % 1012,8 hPa 0,0 l/m 8,0 km/h (2 Bft) W 277 0 min 0,000 mm 0,6 UV-I 78 W/m 14,1 C 13,7 C 14,5 km/h (3 Bft) 95,65 %
28.06.2018 13:45 14,6 C 20,0 C 97 % 1012,8 hPa 0,0 l/m 9,5 km/h (2 Bft) W 262 0 min 0,000 mm 0,6 UV-I 79 W/m 14,1 C 12,9 C 11,3 km/h (2 Bft) 95,83 %
28.06.2018 13:46 14,7 C 20,0 C 97 % 1012,8 hPa 0,0 l/m 8,9 km/h (2 Bft) W-SW 251 0 min 0,000 mm 0,7 UV-I 85 W/m 14,2 C 13,3 C 11,3 km/h (2 Bft) 95,65 %
28.06.2018 13:47 14,7 C 20,0 C 97 % 1012,8 hPa 0,2 l/m 7,7 km/h (2 Bft) W-SW 249 0 min 0,000 mm 0,8 UV-I 98 W/m 14,2 C 14,0 C 12,9 km/h (3 Bft) 95,83 %
28.06.2018 13:48 14,7 C 20,0 C 97 % 1012,8 hPa 0,0 l/m 10,0 km/h (2 Bft) W-SW 256 0 min 0,000 mm 0,8 UV-I 102 W/m 14,2 C 12,8 C 16,1 km/h (3 Bft) 95,65 %
28.06.2018 13:49 14,7 C 20,0 C 97 % 1012,8 hPa 0,0 l/m 11,9 km/h (2 Bft) W 271 0 min 0,000 mm 0,8 UV-I 102 W/m 14,2 C 12,0 C 16,1 km/h (3 Bft) 92,59 %
28.06.2018 13:50 14,7 C 20,0 C 97 % 1012,8 hPa 0,0 l/m 7,0 km/h (2 Bft) W 268 0 min 0,000 mm 0,8 UV-I 101 W/m 14,2 C 14,4 C 9,7 km/h (2 Bft) 95,65 %
28.06.2018 13:51 14,7 C 20,0 C 97 % 1012,8 hPa 0,0 l/m 7,0 km/h (2 Bft) W 271 0 min 0,000 mm 0,8 UV-I 95 W/m 14,2 C 14,4 C 14,5 km/h (3 Bft) 100,00 %
28.06.2018 13:52 14,7 C 20,0 C 97 % 1012,8 hPa 0,0 l/m 7,2 km/h (2 Bft) N-NW 329 0 min 0,000 mm 0,6 UV-I 85 W/m 14,2 C 14,2 C 9,7 km/h (2 Bft) 95,65 %
28.06.2018 13:53 14,7 C 20,0 C 97 % 1012,7 hPa 0,2 l/m 8,0 km/h (2 Bft) W 261 0 min 0,000 mm 0,6 UV-I 83 W/m 14,2 C 13,8 C 14,5 km/h (3 Bft) 100,00 %
28.06.2018 13:54 14,7 C 20,0 C 97 % 1012,7 hPa 0,0 l/m 10,1 km/h (2 Bft) W 273 0 min 0,000 mm 0,7 UV-I 92 W/m 14,2 C 12,7 C 16,1 km/h (3 Bft) 95,65 %
28.06.2018 13:55 14,7 C 20,0 C 97 % 1012,7 hPa 0,0 l/m 12,7 km/h (3 Bft) W 265 0 min 0,000 mm 0,8 UV-I 96 W/m 14,2 C 11,7 C 20,9 km/h (4 Bft) 100,00 %
28.06.2018 13:56 14,7 C 20,0 C 97 % 1012,7 hPa 0,0 l/m 9,3 km/h (2 Bft) W 261 0 min 0,000 mm 0,7 UV-I 90 W/m 14,2 C 13,1 C 12,9 km/h (3 Bft) 85,71 %
28.06.2018 13:57 14,7 C 20,0 C 97 % 1012,7 hPa 0,0 l/m 10,1 km/h (2 Bft) W-NW 294 0 min 0,000 mm 0,7 UV-I 88 W/m 14,2 C 12,7 C 12,9 km/h (3 Bft) 100,00 %
28.06.2018 13:58 14,7 C 20,0 C 97 % 1012,7 hPa 0,0 l/m 9,7 km/h (2 Bft) W-SW 252 0 min 0,000 mm 0,7 UV-I 90 W/m 14,2 C 12,9 C 14,5 km/h (3 Bft) 100,00 %
28.06.2018 13:59 14,7 C 20,0 C 97 % 1012,7 hPa 0,0 l/m 10,7 km/h (2 Bft) W-SW 257 0 min 0,000 mm 0,7 UV-I 89 W/m 14,2 C 12,5 C 14,5 km/h (3 Bft) 100,00 %
28.06.2018 14:00 14,7 C 20,0 C 97 % 1012,7 hPa 0,0 l/m 8,5 km/h (2 Bft) W 259 0 min 0,051 mm 0,8 UV-I 104 W/m 14,2 C 13,5 C 12,9 km/h (3 Bft) 95,83 %
28.06.2018 14:02 14,7 C 20,0 C 97 % 1012,7 hPa 0,2 l/m 9,7 km/h (2 Bft) W-SW 239 0 min 0,000 mm 0,8 UV-I 102 W/m 14,2 C 12,9 C 16,1 km/h (3 Bft) 97,87 %
28.06.2018 14:03 14,8 C 20,0 C 97 % 1012,7 hPa 0,0 l/m 7,7 km/h (2 Bft) W-SW 255 0 min 0,000 mm 0,7 UV-I 96 W/m 14,3 C 14,1 C 12,9 km/h (3 Bft) 100,00 %
28.06.2018 14:04 14,8 C 20,0 C 97 % 1012,7 hPa 0,0 l/m 7,8 km/h (2 Bft) W-SW 257 0 min 0,000 mm 0,7 UV-I 95 W/m 14,3 C 14,0 C 9,7 km/h (2 Bft) 100,00 %
28.06.2018 14:05 14,8 C 20,0 C 97 % 1012,6 hPa 0,0 l/m 6,2 km/h (2 Bft) W 277 0 min 0,000 mm 0,8 UV-I 101 W/m 14,3 C 14,8 C 9,7 km/h (2 Bft) 100,00 %
28.06.2018 14:06 14,8 C 20,0 C 97 % 1012,6 hPa 0,0 l/m 9,5 km/h (2 Bft) W 271 0 min 0,000 mm 0,8 UV-I 100 W/m 14,3 C 13,1 C 19,3 km/h (3 Bft) 100,00 %
28.06.2018 14:07 14,8 C 20,0 C 97 % 1012,6 hPa 0,0 l/m 12,2 km/h (2 Bft) W-NW 282 0 min 0,000 mm 0,7 UV-I 99 W/m 14,3 C 12,0 C 17,7 km/h (3 Bft) 100,00 %
28.06.2018 14:08 14,8 C 20,0 C 97 % 1012,6 hPa 0,0 l/m 8,0 km/h (2 Bft) W-SW 250 0 min 0,000 mm 0,7 UV-I 95 W/m 14,3 C 13,9 C 12,9 km/h (3 Bft) 100,00 %
28.06.2018 14:09 14,8 C 20,0 C 97 % 1012,6 hPa 0,0 l/m 8,1 km/h (2 Bft) W 268 0 min 0,000 mm 0,7 UV-I 94 W/m 14,3 C 13,8 C 11,3 km/h (2 Bft) 100,00 %
28.06.2018 14:10 14,8 C 20,0 C 97 % 1012,6 hPa 0,0 l/m 5,4 km/h (1 Bft) W 265 0 min 0,000 mm 0,8 UV-I 101 W/m 14,3 C 14,8 C 9,7 km/h (2 Bft) 100,00 %
28.06.2018 14:11 14,8 C 20,0 C 97 % 1012,6 hPa 0,0 l/m 6,8 km/h (2 Bft) W 265 0 min 0,000 mm 0,9 UV-I 119 W/m 14,3 C 14,6 C 9,7 km/h (2 Bft) 96,15 %
28.06.2018 14:12 14,8 C 20,0 C 97 % 1012,6 hPa 0,0 l/m 8,9 km/h (2 Bft) W 273 0 min 0,000 mm 0,9 UV-I 120 W/m 14,3 C 13,4 C 12,9 km/h (3 Bft) 100,00 %
28.06.2018 14:13 14,8 C 20,0 C 97 % 1012,6 hPa 0,0 l/m 6,8 km/h (2 Bft) W 271 0 min 0,000 mm 0,9 UV-I 120 W/m 14,3 C 14,6 C 12,9 km/h (3 Bft) 100,00 %
28.06.2018 14:14 14,8 C 20,0 C 97 % 1012,6 hPa 0,0 l/m 7,8 km/h (2 Bft) W-SW 258 0 min 0,000 mm 0,9 UV-I 124 W/m 14,3 C 14,0 C 11,3 km/h (2 Bft) 100,00 %
28.06.2018 14:15 14,8 C 20,0 C 97 % 1012,6 hPa 0,0 l/m 6,3 km/h (2 Bft) W-SW 251 0 min 0,000 mm 0,9 UV-I 127 W/m 14,3 C 14,8 C 11,3 km/h (2 Bft) 100,00 %
28.06.2018 14:16 14,9 C 20,0 C 97 % 1012,6 hPa 0,0 l/m 6,7 km/h (2 Bft) W-SW 238 0 min 0,000 mm 1,0 UV-I 132 W/m 14,4 C 14,7 C 11,3 km/h (2 Bft) 100,00 %
28.06.2018 14:17 14,9 C 20,0 C 97 % 1012,6 hPa 0,0 l/m 11,3 km/h (2 Bft) W 271 0 min 0,000 mm 1,0 UV-I 132 W/m 14,4 C 12,4 C 17,7 km/h (3 Bft) 100,00 %
28.06.2018 14:18 14,9 C 20,0 C 97 % 1012,6 hPa 0,0 l/m 9,9 km/h (2 Bft) W-SW 252 0 min 0,000 mm 0,9 UV-I 121 W/m 14,4 C 13,1 C 12,9 km/h (3 Bft) 93,33 %
28.06.2018 14:19 14,9 C 20,0 C 97 % 1012,6 hPa 0,0 l/m 9,1 km/h (2 Bft) W-SW 254 0 min 0,000 mm 0,9 UV-I 118 W/m 14,4 C 13,4 C 11,3 km/h (2 Bft) 100,00 %
28.06.2018 14:20 14,9 C 20,0 C 97 % 1012,6 hPa 0,0 l/m 9,1 km/h (2 Bft) W 268 0 min 0,000 mm 0,8 UV-I 111 W/m 14,4 C 13,4 C 12,9 km/h (3 Bft) 100,00 %
28.06.2018 14:21 14,9 C 20,0 C 97 % 1012,6 hPa 0,0 l/m 6,3 km/h (2 Bft) W 259 0 min 0,000 mm 0,8 UV-I 109 W/m 14,4 C 14,9 C 9,7 km/h (2 Bft) 100,00 %
28.06.2018 14:22 14,9 C 20,0 C 97 % 1012,6 hPa 0,0 l/m 6,5 km/h (2 Bft) W-SW 248 0 min 0,000 mm 0,8 UV-I 107 W/m 14,4 C 14,9 C 12,9 km/h (3 Bft) 100,00 %
28.06.2018 14:23 14,9 C 20,0 C 97 % 1012,6 hPa 0,0 l/m 6,6 km/h (2 Bft) W-NW 292 0 min 0,000 mm 0,9 UV-I 115 W/m 14,4 C 14,8 C 12,9 km/h (3 Bft) 100,00 %
28.06.2018 14:24 14,9 C 20,0 C 97 % 1012,6 hPa 0,2 l/m 7,2 km/h (2 Bft) W-SW 244 0 min 0,000 mm 0,8 UV-I 108 W/m 14,4 C 14,4 C 11,3 km/h (2 Bft) 100,00 %
28.06.2018 14:25 14,9 C 20,0 C 97 % 1012,6 hPa 0,0 l/m 8,4 km/h (2 Bft) W 263 0 min 0,000 mm 0,8 UV-I 110 W/m 14,4 C 13,8 C 12,9 km/h (3 Bft) 100,00 %
28.06.2018 14:26 14,9 C 20,0 C 97 % 1012,6 hPa 0,0 l/m 6,0 km/h (2 Bft) W-NW 292 0 min 0,000 mm 0,8 UV-I 115 W/m 14,4 C 14,9 C 11,3 km/h (2 Bft) 95,65 %
28.06.2018 14:27 14,9 C 20,0 C 97 % 1012,6 hPa 0,0 l/m 7,8 km/h (2 Bft) W 275 0 min 0,000 mm 0,9 UV-I 119 W/m 14,4 C 14,1 C 14,5 km/h (3 Bft) 100,00 %
28.06.2018 14:28 15,0 C 20,0 C 97 % 1012,6 hPa 0,0 l/m 6,0 km/h (2 Bft) SW 234 0 min 0,000 mm 0,9 UV-I 120 W/m 14,5 C 15,0 C 8,0 km/h (2 Bft) 95,65 %
28.06.2018 14:29 15,0 C 20,0 C 97 % 1012,6 hPa 0,0 l/m 7,3 km/h (2 Bft) W-SW 253 0 min 0,000 mm 0,9 UV-I 118 W/m 14,5 C 14,5 C 9,7 km/h (2 Bft) 100,00 %
28.06.2018 14:30 15,1 C 20,0 C 97 % 1012,6 hPa 0,0 l/m 5,7 km/h (1 Bft) W 263 0 min 0,000 mm 0,9 UV-I 120 W/m 14,6 C 15,1 C 9,7 km/h (2 Bft) 100,00 %
28.06.2018 14:31 15,1 C 20,0 C 97 % 1012,6 hPa 0,0 l/m 7,4 km/h (2 Bft) W 279 0 min 0,000 mm 0,9 UV-I 116 W/m 14,6 C 14,5 C 16,1 km/h (3 Bft) 100,00 %
28.06.2018 14:32 15,1 C 20,0 C 97 % 1012,6 hPa 0,0 l/m 7,6 km/h (2 Bft) W 269 0 min 0,000 mm 0,8 UV-I 108 W/m 14,6 C 14,4 C 12,9 km/h (3 Bft) 100,00 %
28.06.2018 14:33 15,1 C 20,0 C 97 % 1012,6 hPa 0,0 l/m 4,6 km/h (1 Bft) W 267 0 min 0,000 mm 0,7 UV-I 101 W/m 14,6 C 15,1 C 6,4 km/h (2 Bft) 95,83 %
28.06.2018 14:34 15,1 C 20,0 C 97 % 1012,6 hPa 0,0 l/m 9,6 km/h (2 Bft) W-SW 253 0 min 0,000 mm 0,7 UV-I 97 W/m 14,6 C 13,4 C 19,3 km/h (3 Bft) 97,82 %
28.06.2018 14:35 15,1 C 20,0 C 97 % 1012,6 hPa 0,0 l/m 6,6 km/h (2 Bft) W 259 0 min 0,000 mm 0,7 UV-I 98 W/m 14,6 C 15,0 C 11,3 km/h (2 Bft) 100,00 %
28.06.2018 14:36 15,1 C 20,0 C 97 % 1012,6 hPa 0,0 l/m 7,5 km/h (2 Bft) W 259 0 min 0,000 mm 0,7 UV-I 103 W/m 14,6 C 14,5 C 11,3 km/h (2 Bft) 100,00 %
28.06.2018 14:38 15,1 C 20,0 C 97 % 1012,6 hPa 0,0 l/m 9,9 km/h (2 Bft) W-SW 249 0 min 0,000 mm 0,7 UV-I 101 W/m 14,6 C 13,3 C 14,5 km/h (3 Bft) 97,96 %
28.06.2018 14:39 15,1 C 20,0 C 97 % 1012,6 hPa 0,0 l/m 8,5 km/h (2 Bft) W-NW 290 0 min 0,000 mm 0,6 UV-I 91 W/m 14,6 C 13,9 C 12,9 km/h (3 Bft) 91,67 %
28.06.2018 14:40 15,1 C 20,0 C 97 % 1012,6 hPa 0,0 l/m 9,8 km/h (2 Bft) SW 226 0 min 0,000 mm 0,7 UV-I 90 W/m 14,6 C 13,3 C 14,5 km/h (3 Bft) 100,00 %
28.06.2018 14:41 15,0 C 20,0 C 97 % 1012,6 hPa 0,0 l/m 11,9 km/h (2 Bft) W-SW 255 0 min 0,000 mm 0,8 UV-I 99 W/m 14,5 C 12,3 C 14,5 km/h (3 Bft) 100,00 %
28.06.2018 14:42 15,1 C 20,0 C 97 % 1012,6 hPa 0,0 l/m 9,5 km/h (2 Bft) W-NW 284 0 min 0,000 mm 0,8 UV-I 102 W/m 14,6 C 13,5 C 12,9 km/h (3 Bft) 100,00 %
28.06.2018 14:43 15,1 C 20,0 C 97 % 1012,6 hPa 0,0 l/m 7,3 km/h (2 Bft) W 273 0 min 0,000 mm 0,7 UV-I 97 W/m 14,6 C 14,6 C 11,3 km/h (2 Bft) 100,00 %
28.06.2018 14:44 15,1 C 20,0 C 97 % 1012,6 hPa 0,0 l/m 10,3 km/h (2 Bft) W-SW 258 0 min 0,000 mm 0,7 UV-I 95 W/m 14,6 C 13,1 C 14,5 km/h (3 Bft) 100,00 %
28.06.2018 14:45 15,1 C 20,0 C 97 % 1012,6 hPa 0,0 l/m 9,9 km/h (2 Bft) W-SW 257 0 min 0,000 mm 0,7 UV-I 91 W/m 14,6 C 13,3 C 16,1 km/h (3 Bft) 95,65 %
28.06.2018 14:46 15,1 C 20,0 C 97 % 1012,6 hPa 0,0 l/m 8,5 km/h (2 Bft) W 263 0 min 0,000 mm 0,7 UV-I 91 W/m 14,6 C 13,9 C 12,9 km/h (3 Bft) 100,00 %
28.06.2018 14:47 15,1 C 20,0 C 97 % 1012,6 hPa 0,0 l/m 4,8 km/h (1 Bft) W 260 0 min 0,000 mm 0,7 UV-I 91 W/m 14,6 C 15,1 C 6,4 km/h (2 Bft) 95,65 %
28.06.2018 14:48 15,1 C 20,0 C 97 % 1012,6 hPa 0,0 l/m 8,3 km/h (2 Bft) W-SW 254 0 min 0,000 mm 0,7 UV-I 94 W/m 14,6 C 14,0 C 12,9 km/h (3 Bft) 100,00 %
28.06.2018 14:49 15,1 C 20,0 C 97 % 1012,6 hPa 0,0 l/m 9,6 km/h (2 Bft) W 271 0 min 0,000 mm 0,7 UV-I 99 W/m 14,6 C 13,4 C 14,5 km/h (3 Bft) 95,65 %
28.06.2018 14:50 15,1 C 20,0 C 97 % 1012,6 hPa 0,0 l/m 5,1 km/h (1 Bft) W-SW 250 0 min 0,000 mm 0,8 UV-I 108 W/m 14,6 C 15,1 C 6,4 km/h (2 Bft) 100,00 %
28.06.2018 14:51 15,1 C 20,0 C 97 % 1012,6 hPa 0,0 l/m 10,7 km/h (2 Bft) W-SW 245 0 min 0,000 mm 0,8 UV-I 113 W/m 14,6 C 12,9 C 17,7 km/h (3 Bft) 100,00 %
28.06.2018 14:52 15,2 C 20,0 C 97 % 1012,6 hPa 0,0 l/m 5,4 km/h (1 Bft) W-SW 256 0 min 0,000 mm 0,8 UV-I 111 W/m 14,7 C 15,2 C 8,0 km/h (2 Bft) 100,00 %
28.06.2018 14:53 15,2 C 20,0 C 97 % 1012,6 hPa 0,0 l/m 7,2 km/h (2 Bft) W 260 0 min 0,000 mm 0,8 UV-I 111 W/m 14,7 C 14,8 C 12,9 km/h (3 Bft) 100,00 %
28.06.2018 14:54 15,2 C 20,0 C 97 % 1012,6 hPa 0,0 l/m 5,8 km/h (2 Bft) W-SW 250 0 min 0,000 mm 0,8 UV-I 113 W/m 14,7 C 15,2 C 12,9 km/h (3 Bft) 100,00 %
28.06.2018 14:55 15,2 C 20,0 C 97 % 1012,6 hPa 0,2 l/m 9,3 km/h (2 Bft) W-SW 257 0 min 0,000 mm 0,8 UV-I 113 W/m 14,7 C 13,7 C 12,9 km/h (3 Bft) 100,00 %
28.06.2018 14:56 15,2 C 20,0 C 97 % 1012,6 hPa 0,0 l/m 8,3 km/h (2 Bft) W-SW 242 0 min 0,000 mm 0,8 UV-I 118 W/m 14,7 C 14,2 C 11,3 km/h (2 Bft) 100,00 %
28.06.2018 14:58 15,2 C 20,0 C 97 % 1012,6 hPa 0,0 l/m 8,7 km/h (2 Bft) W-NW 300 0 min 0,000 mm 0,8 UV-I 124 W/m 14,7 C 14,0 C 16,1 km/h (3 Bft) 100,00 %
28.06.2018 14:59 15,2 C 20,0 C 97 % 1012,6 hPa 0,0 l/m 11,6 km/h (2 Bft) W-SW 238 0 min 0,000 mm 0,8 UV-I 125 W/m 14,7 C 12,7 C 17,7 km/h (3 Bft) 100,00 %
28.06.2018 15:00 15,2 C 20,0 C 97 % 1012,6 hPa 0,0 l/m 9,9 km/h (2 Bft) W 272 0 min 0,051 mm 0,8 UV-I 125 W/m 14,7 C 13,4 C 16,1 km/h (3 Bft) 100,00 %
28.06.2018 15:02 15,1 C 20,0 C 97 % 1012,6 hPa 0,0 l/m 10,5 km/h (2 Bft) W 261 0 min 0,000 mm 0,8 UV-I 123 W/m 14,6 C 13,0 C 14,5 km/h (3 Bft) 100,00 %
28.06.2018 15:03 15,2 C 20,0 C 97 % 1012,7 hPa 0,0 l/m 9,7 km/h (2 Bft) W-SW 257 0 min 0,000 mm 0,8 UV-I 125 W/m 14,7 C 13,5 C 12,9 km/h (3 Bft) 100,00 %
28.06.2018 15:04 15,2 C 20,0 C 97 % 1012,6 hPa 0,0 l/m 11,8 km/h (2 Bft) W 273 0 min 0,000 mm 0,8 UV-I 118 W/m 14,7 C 12,6 C 14,5 km/h (3 Bft) 100,00 %
28.06.2018 15:05 15,2 C 20,0 C 97 % 1012,7 hPa 0,0 l/m 10,0 km/h (2 Bft) W 276 0 min 0,000 mm 0,7 UV-I 109 W/m 14,7 C 13,3 C 11,3 km/h (2 Bft) 100,00 %
28.06.2018 15:06 15,2 C 20,0 C 97 % 1012,7 hPa 0,0 l/m 8,6 km/h (2 Bft) W-SW 246 0 min 0,000 mm 0,7 UV-I 102 W/m 14,7 C 14,0 C 12,9 km/h (3 Bft) 100,00 %
28.06.2018 15:07 15,2 C 20,0 C 97 % 1012,7 hPa 0,0 l/m 10,5 km/h (2 Bft) W-SW 254 0 min 0,000 mm 0,7 UV-I 97 W/m 14,7 C 13,1 C 16,1 km/h (3 Bft) 100,00 %
28.06.2018 15:08 15,2 C 20,0 C 97 % 1012,7 hPa 0,0 l/m 12,8 km/h (3 Bft) W 265 0 min 0,000 mm 0,7 UV-I 99 W/m 14,7 C 12,2 C 17,7 km/h (3 Bft) 95,65 %
28.06.2018 15:09 15,2 C 20,0 C 97 % 1012,6 hPa 0,0 l/m 9,7 km/h (2 Bft) W 259 0 min 0,000 mm 0,8 UV-I 106 W/m 14,7 C 13,5 C 12,9 km/h (3 Bft) 100,00 %
28.06.2018 15:10 15,2 C 20,0 C 97 % 1012,7 hPa 0,0 l/m 6,6 km/h (2 Bft) W 267 0 min 0,000 mm 0,8 UV-I 111 W/m 14,7 C 15,1 C 11,3 km/h (2 Bft) 95,65 %
28.06.2018 15:11 15,2 C 20,0 C 97 % 1012,7 hPa 0,0 l/m 8,4 km/h (2 Bft) W 259 0 min 0,000 mm 0,8 UV-I 113 W/m 14,7 C 14,1 C 12,9 km/h (3 Bft) 100,00 %
28.06.2018 15:12 15,2 C 20,0 C 97 % 1012,7 hPa 0,0 l/m 5,9 km/h (2 Bft) W 274 0 min 0,000 mm 0,8 UV-I 110 W/m 14,7 C 15,2 C 9,7 km/h (2 Bft) 100,00 %
28.06.2018 15:13 15,2 C 20,0 C 97 % 1012,7 hPa 0,0 l/m 5,8 km/h (2 Bft) W-SW 246 0 min 0,000 mm 0,7 UV-I 101 W/m 14,7 C 15,2 C 9,7 km/h (2 Bft) 100,00 %
28.06.2018 15:14 15,3 C 20,0 C 97 % 1012,7 hPa 0,0 l/m 7,1 km/h (2 Bft) W 277 0 min 0,000 mm 0,7 UV-I 101 W/m 14,8 C 14,9 C 11,3 km/h (2 Bft) 86,96 %
28.06.2018 15:15 15,3 C 20,0 C 97 % 1012,7 hPa 0,0 l/m 5,1 km/h (1 Bft) W 263 0 min 0,000 mm 0,7 UV-I 104 W/m 14,8 C 15,3 C 9,7 km/h (2 Bft) 95,83 %
28.06.2018 15:16 15,3 C 20,0 C 97 % 1012,7 hPa 0,0 l/m 11,3 km/h (2 Bft) W-SW 250 0 min 0,000 mm 0,7 UV-I 109 W/m 14,8 C 12,9 C 14,5 km/h (3 Bft) 100,00 %
28.06.2018 15:17 15,2 C 20,0 C 97 % 1012,7 hPa 0,0 l/m 8,1 km/h (2 Bft) W-SW 248 0 min 0,000 mm 0,7 UV-I 113 W/m 14,7 C 14,3 C 12,9 km/h (3 Bft) 96,15 %
28.06.2018 15:18 15,2 C 20,0 C 97 % 1012,7 hPa 0,0 l/m 8,9 km/h (2 Bft) W-SW 254 0 min 0,000 mm 0,8 UV-I 126 W/m 14,7 C 13,9 C 12,9 km/h (3 Bft) 100,00 %
28.06.2018 15:19 15,2 C 20,0 C 97 % 1012,6 hPa 0,0 l/m 8,0 km/h (2 Bft) W 270 0 min 0,000 mm 0,9 UV-I 139 W/m 14,7 C 14,3 C 11,3 km/h (2 Bft) 95,65 %
28.06.2018 15:20 15,3 C 20,0 C 97 % 1012,6 hPa 0,0 l/m 11,3 km/h (2 Bft) W 261 0 min 0,000 mm 1,0 UV-I 144 W/m 14,8 C 12,9 C 16,1 km/h (3 Bft) 100,00 %
28.06.2018 15:21 15,3 C 20,0 C 97 % 1012,7 hPa 0,0 l/m 10,5 km/h (2 Bft) W 262 0 min 0,000 mm 0,9 UV-I 138 W/m 14,8 C 13,2 C 16,1 km/h (3 Bft) 86,96 %
28.06.2018 15:22 15,3 C 20,0 C 97 % 1012,6 hPa 0,0 l/m 9,2 km/h (2 Bft) W 271 0 min 0,000 mm 0,9 UV-I 134 W/m 14,8 C 13,8 C 11,3 km/h (2 Bft) 95,83 %
28.06.2018 15:23 15,3 C 20,0 C 97 % 1012,6 hPa 0,0 l/m 6,4 km/h (2 Bft) W-SW 251 0 min 0,000 mm 0,9 UV-I 131 W/m 14,8 C 15,3 C 11,3 km/h (2 Bft) 100,00 %
28.06.2018 15:24 15,3 C 20,0 C 97 % 1012,6 hPa 0,0 l/m 10,6 km/h (2 Bft) W 266 0 min 0,000 mm 0,9 UV-I 128 W/m 14,8 C 13,2 C 16,1 km/h (3 Bft) 95,83 %
28.06.2018 15:25 15,3 C 20,0 C 97 % 1012,6 hPa 0,0 l/m 10,0 km/h (2 Bft) W-SW 257 0 min 0,000 mm 0,8 UV-I 123 W/m 14,8 C 13,4 C 14,5 km/h (3 Bft) 100,00 %
28.06.2018 15:26 15,3 C 20,0 C 97 % 1012,7 hPa 0,2 l/m 8,6 km/h (2 Bft) W 263 0 min 0,000 mm 0,8 UV-I 120 W/m 14,8 C 14,1 C 16,1 km/h (3 Bft) 95,83 %
28.06.2018 15:27 15,3 C 20,0 C 97 % 1012,7 hPa 0,0 l/m 12,5 km/h (3 Bft) W-SW 253 0 min 0,000 mm 0,8 UV-I 121 W/m 14,8 C 12,4 C 16,1 km/h (3 Bft) 95,65 %
28.06.2018 15:28 15,3 C 20,0 C 97 % 1012,7 hPa 0,0 l/m 9,4 km/h (2 Bft) W 270 0 min 0,000 mm 0,8 UV-I 123 W/m 14,8 C 13,7 C 16,1 km/h (3 Bft) 95,83 %
28.06.2018 15:29 15,3 C 20,0 C 97 % 1012,7 hPa 0,0 l/m 8,5 km/h (2 Bft) SW 225 0 min 0,000 mm 0,9 UV-I 122 W/m 14,8 C 14,2 C 14,5 km/h (3 Bft) 100,00 %
28.06.2018 15:30 15,3 C 20,0 C 97 % 1012,6 hPa 0,0 l/m 10,1 km/h (2 Bft) W 266 0 min 0,000 mm 0,8 UV-I 119 W/m 14,8 C 13,4 C 16,1 km/h (3 Bft) 95,83 %
28.06.2018 15:31 15,3 C 20,0 C 97 % 1012,7 hPa 0,0 l/m 11,6 km/h (2 Bft) W-SW 254 0 min 0,000 mm 0,8 UV-I 119 W/m 14,8 C 12,8 C 14,5 km/h (3 Bft) 95,65 %
28.06.2018 15:32 15,3 C 20,0 C 97 % 1012,6 hPa 0,0 l/m 8,7 km/h (2 Bft) W 259 0 min 0,000 mm 0,8 UV-I 120 W/m 14,8 C 14,1 C 14,5 km/h (3 Bft) 95,83 %
28.06.2018 15:33 15,3 C 20,0 C 97 % 1012,6 hPa 0,0 l/m 8,6 km/h (2 Bft) W 277 0 min 0,000 mm 0,8 UV-I 116 W/m 14,8 C 14,1 C 11,3 km/h (2 Bft) 95,65 %
28.06.2018 15:34 15,3 C 20,0 C 97 % 1012,7 hPa 0,0 l/m 8,2 km/h (2 Bft) W-SW 258 0 min 0,000 mm 0,8 UV-I 108 W/m 14,8 C 14,3 C 12,9 km/h (3 Bft) 100,00 %
28.06.2018 15:35 15,4 C 20,0 C 97 % 1012,7 hPa 0,0 l/m 10,2 km/h (2 Bft) W 266 0 min 0,000 mm 0,7 UV-I 104 W/m 14,9 C 13,5 C 14,5 km/h (3 Bft) 95,83 %
28.06.2018 15:36 15,4 C 20,0 C 97 % 1012,7 hPa 0,0 l/m 12,2 km/h (2 Bft) SW 236 0 min 0,000 mm 0,7 UV-I 100 W/m 14,9 C 12,7 C 16,1 km/h (3 Bft) 100,00 %
28.06.2018 15:37 15,3 C 20,0 C 97 % 1012,6 hPa 0,0 l/m 9,2 km/h (2 Bft) W-SW 251 0 min 0,000 mm 0,6 UV-I 95 W/m 14,8 C 13,8 C 11,3 km/h (2 Bft) 96,15 %
28.06.2018 15:38 15,3 C 20,0 C 97 % 1012,6 hPa 0,0 l/m 9,9 km/h (2 Bft) W-SW 244 0 min 0,000 mm 0,7 UV-I 96 W/m 14,8 C 13,5 C 12,9 km/h (3 Bft) 100,00 %
28.06.2018 15:39 15,3 C 20,0 C 97 % 1012,7 hPa 0,0 l/m 9,7 km/h (2 Bft) W 263 0 min 0,000 mm 0,7 UV-I 98 W/m 14,8 C 13,6 C 16,1 km/h (3 Bft) 95,83 %
28.06.2018 15:40 15,4 C 20,0 C 97 % 1012,6 hPa 0,0 l/m 8,3 km/h (2 Bft) W 268 0 min 0,000 mm 0,7 UV-I 99 W/m 14,9 C 14,4 C 11,3 km/h (2 Bft) 95,65 %
28.06.2018 15:41 15,4 C 20,0 C 97 % 1012,6 hPa 0,0 l/m 10,9 km/h (2 Bft) W 268 0 min 0,000 mm 0,7 UV-I 103 W/m 14,9 C 13,2 C 16,1 km/h (3 Bft) 100,00 %
28.06.2018 15:42 15,4 C 20,0 C 97 % 1012,6 hPa 0,0 l/m 8,6 km/h (2 Bft) W 269 0 min 0,000 mm 0,7 UV-I 105 W/m 14,9 C 14,2 C 11,3 km/h (2 Bft) 91,30 %
28.06.2018 15:43 15,4 C 20,0 C 97 % 1012,6 hPa 0,0 l/m 5,0 km/h (1 Bft) W 270 0 min 0,000 mm 0,8 UV-I 106 W/m 14,9 C 15,4 C 8,0 km/h (2 Bft) 100,00 %
28.06.2018 15:44 15,4 C 20,0 C 97 % 1012,6 hPa 0,0 l/m 12,0 km/h (2 Bft) W-SW 237 0 min 0,000 mm 0,7 UV-I 107 W/m 14,9 C 12,7 C 17,7 km/h (3 Bft) 95,65 %
28.06.2018 15:45 15,3 C 20,0 C 97 % 1012,6 hPa 0,0 l/m 11,1 km/h (2 Bft) W 263 0 min 0,000 mm 0,7 UV-I 105 W/m 14,8 C 13,0 C 16,1 km/h (3 Bft) 100,00 %
28.06.2018 15:46 15,4 C 20,0 C 97 % 1012,6 hPa 0,0 l/m 8,4 km/h (2 Bft) W-SW 240 0 min 0,000 mm 0,7 UV-I 102 W/m 14,9 C 14,3 C 14,5 km/h (3 Bft) 95,65 %
28.06.2018 15:47 15,3 C 20,0 C 97 % 1012,6 hPa 0,0 l/m 8,6 km/h (2 Bft) W-SW 248 0 min 0,000 mm 0,7 UV-I 100 W/m 14,8 C 14,1 C 14,5 km/h (3 Bft) 96,30 %
28.06.2018 15:48 15,3 C 20,0 C 97 % 1012,6 hPa 0,0 l/m 8,9 km/h (2 Bft) W 279 0 min 0,000 mm 0,7 UV-I 100 W/m 14,8 C 14,0 C 11,3 km/h (2 Bft) 100,00 %
28.06.2018 15:49 15,4 C 20,0 C 97 % 1012,6 hPa 0,0 l/m 9,3 km/h (2 Bft) W-SW 255 0 min 0,000 mm 0,7 UV-I 100 W/m 14,9 C 13,9 C 12,9 km/h (3 Bft) 100,00 %
28.06.2018 15:50 15,4 C 20,0 C 97 % 1012,6 hPa 0,0 l/m 8,3 km/h (2 Bft) W 270 0 min 0,000 mm 0,7 UV-I 104 W/m 14,9 C 14,4 C 12,9 km/h (3 Bft) 95,65 %
28.06.2018 15:51 15,4 C 20,0 C 97 % 1012,6 hPa 0,0 l/m 7,1 km/h (2 Bft) W 281 0 min 0,000 mm 0,7 UV-I 107 W/m 14,9 C 15,0 C 11,3 km/h (2 Bft) 95,83 %
28.06.2018 15:52 15,4 C 20,0 C 97 % 1012,6 hPa 0,0 l/m 9,2 km/h (2 Bft) W-SW 240 0 min 0,000 mm 0,7 UV-I 105 W/m 14,9 C 13,9 C 14,5 km/h (3 Bft) 100,00 %
28.06.2018 15:53 15,4 C 20,0 C 97 % 1012,6 hPa 0,0 l/m 7,2 km/h (2 Bft) W-SW 237 0 min 0,000 mm 0,7 UV-I 108 W/m 14,9 C 15,0 C 12,9 km/h (3 Bft) 95,83 %
28.06.2018 15:54 15,4 C 20,0 C 97 % 1012,6 hPa 0,0 l/m 8,3 km/h (2 Bft) W-SW 257 0 min 0,000 mm 0,7 UV-I 116 W/m 14,9 C 14,4 C 12,9 km/h (3 Bft) 100,00 %
28.06.2018 15:55 15,4 C 20,0 C 97 % 1012,6 hPa 0,0 l/m 11,7 km/h (2 Bft) W 267 0 min 0,000 mm 0,8 UV-I 125 W/m 14,9 C 12,8 C 14,5 km/h (3 Bft) 95,83 %
28.06.2018 15:56 15,4 C 20,0 C 97 % 1012,6 hPa 0,0 l/m 12,4 km/h (3 Bft) W 273 0 min 0,000 mm 0,9 UV-I 133 W/m 14,9 C 12,6 C 17,7 km/h (3 Bft) 100,00 %
28.06.2018 15:57 15,4 C 20,0 C 97 % 1012,6 hPa 0,0 l/m 10,3 km/h (2 Bft) W 268 0 min 0,000 mm 0,9 UV-I 133 W/m 14,9 C 13,4 C 14,5 km/h (3 Bft) 100,00 %
28.06.2018 15:58 15,4 C 20,0 C 97 % 1012,6 hPa 0,0 l/m 6,4 km/h (2 Bft) W 275 0 min 0,000 mm 0,8 UV-I 128 W/m 14,9 C 15,4 C 11,3 km/h (2 Bft) 100,00 %
28.06.2018 15:59 15,4 C 20,0 C 97 % 1012,6 hPa 0,0 l/m 9,0 km/h (2 Bft) W-SW 249 0 min 0,000 mm 0,8 UV-I 127 W/m 14,9 C 14,0 C 12,9 km/h (3 Bft) 100,00 %
28.06.2018 16:00 15,5 C 20,0 C 97 % 1012,6 hPa 0,0 l/m 9,9 km/h (2 Bft) W-SW 250 0 min 0,000 mm 0,8 UV-I 130 W/m 15,0 C 13,7 C 12,9 km/h (3 Bft) 100,00 %
28.06.2018 16:02 15,5 C 20,0 C 97 % 1012,6 hPa 0,0 l/m 10,4 km/h (2 Bft) W 276 0 min 0,051 mm 0,9 UV-I 133 W/m 15,0 C 13,5 C 14,5 km/h (3 Bft) 100,00 %
28.06.2018 16:03 15,6 C 20,0 C 97 % 1012,6 hPa 0,0 l/m 6,3 km/h (2 Bft) W 278 0 min 0,000 mm 0,9 UV-I 138 W/m 15,1 C 15,6 C 11,3 km/h (2 Bft) 100,00 %
28.06.2018 16:04 15,6 C 20,0 C 97 % 1012,6 hPa 0,0 l/m 7,6 km/h (2 Bft) W 267 0 min 0,000 mm 1,0 UV-I 143 W/m 15,1 C 14,9 C 11,3 km/h (2 Bft) 100,00 %
28.06.2018 16:05 15,6 C 20,0 C 97 % 1012,6 hPa 0,0 l/m 8,1 km/h (2 Bft) W-SW 244 0 min 0,000 mm 1,0 UV-I 143 W/m 15,1 C 14,7 C 11,3 km/h (2 Bft) 100,00 %
28.06.2018 16:06 15,6 C 20,0 C 97 % 1012,6 hPa 0,0 l/m 6,8 km/h (2 Bft) W 271 0 min 0,000 mm 0,9 UV-I 138 W/m 15,1 C 15,4 C 9,7 km/h (2 Bft) 100,00 %
28.06.2018 16:07 15,7 C 20,0 C 97 % 1012,6 hPa 0,0 l/m 8,5 km/h (2 Bft) SW 228 0 min 0,000 mm 0,9 UV-I 137 W/m 15,2 C 14,6 C 12,9 km/h (3 Bft) 100,00 %
28.06.2018 16:08 15,7 C 20,0 C 97 % 1012,6 hPa 0,0 l/m 7,8 km/h (2 Bft) W 263 0 min 0,000 mm 0,9 UV-I 141 W/m 15,2 C 14,9 C 11,3 km/h (2 Bft) 100,00 %
28.06.2018 16:09 15,7 C 20,0 C 97 % 1012,5 hPa 0,0 l/m 9,7 km/h (2 Bft) W-SW 257 0 min 0,000 mm 1,0 UV-I 147 W/m 15,2 C 14,0 C 12,9 km/h (3 Bft) 100,00 %
28.06.2018 16:10 15,7 C 20,0 C 97 % 1012,5 hPa 0,0 l/m 7,6 km/h (2 Bft) W 263 0 min 0,000 mm 1,0 UV-I 152 W/m 15,2 C 15,0 C 11,3 km/h (2 Bft) 91,67 %
28.06.2018 16:11 15,7 C 20,0 C 97 % 1012,5 hPa 0,0 l/m 8,7 km/h (2 Bft) W-SW 243 0 min 0,000 mm 1,0 UV-I 151 W/m 15,2 C 14,5 C 14,5 km/h (3 Bft) 100,00 %
28.06.2018 16:12 15,7 C 20,0 C 97 % 1012,5 hPa 0,0 l/m 10,1 km/h (2 Bft) W-SW 252 0 min 0,000 mm 1,0 UV-I 146 W/m 15,2 C 13,8 C 12,9 km/h (3 Bft) 100,00 %
28.06.2018 16:13 15,7 C 20,0 C 97 % 1012,5 hPa 0,0 l/m 9,1 km/h (2 Bft) W 263 0 min 0,000 mm 0,9 UV-I 142 W/m 15,2 C 14,3 C 12,9 km/h (3 Bft) 95,83 %
28.06.2018 16:14 15,7 C 20,0 C 97 % 1012,5 hPa 0,0 l/m 9,1 km/h (2 Bft) W-SW 242 0 min 0,000 mm 0,9 UV-I 139 W/m 15,2 C 14,3 C 12,9 km/h (3 Bft) 100,00 %
28.06.2018 16:15 15,7 C 20,0 C 97 % 1012,5 hPa 0,0 l/m 11,3 km/h (2 Bft) W-SW 246 0 min 0,000 mm 0,9 UV-I 142 W/m 15,2 C 13,3 C 16,1 km/h (3 Bft) 100,00 %
28.06.2018 16:16 15,7 C 20,0 C 97 % 1012,5 hPa 0,0 l/m 10,9 km/h (2 Bft) W-SW 247 0 min 0,000 mm 0,9 UV-I 150 W/m 15,2 C 13,5 C 16,1 km/h (3 Bft) 100,00 %
28.06.2018 16:17 15,7 C 20,0 C 97 % 1012,6 hPa 0,0 l/m 11,3 km/h (2 Bft) W 263 0 min 0,000 mm 0,9 UV-I 149 W/m 15,2 C 13,3 C 14,5 km/h (3 Bft) 100,00 %
28.06.2018 16:18 15,7 C 20,0 C 96 % 1012,5 hPa 0,0 l/m 10,2 km/h (2 Bft) W 263 0 min 0,000 mm 0,8 UV-I 134 W/m 15,1 C 13,8 C 12,9 km/h (3 Bft) 100,00 %
28.06.2018 16:19 15,7 C 20,0 C 96 % 1012,5 hPa 0,0 l/m 9,3 km/h (2 Bft) W 259 0 min 0,000 mm 0,7 UV-I 116 W/m 15,1 C 14,2 C 11,3 km/h (2 Bft) 100,00 %
28.06.2018 16:20 15,7 C 20,0 C 96 % 1012,5 hPa 0,0 l/m 6,6 km/h (2 Bft) W 259 0 min 0,000 mm 0,6 UV-I 105 W/m 15,1 C 15,6 C 11,3 km/h (2 Bft) 95,65 %
28.06.2018 16:21 15,8 C 20,0 C 96 % 1012,6 hPa 0,0 l/m 9,6 km/h (2 Bft) W-SW 248 0 min 0,000 mm 0,6 UV-I 104 W/m 15,2 C 14,2 C 12,9 km/h (3 Bft) 100,00 %
28.06.2018 16:22 15,7 C 20,0 C 96 % 1012,5 hPa 0,0 l/m 8,4 km/h (2 Bft) W-SW 254 0 min 0,000 mm 0,6 UV-I 106 W/m 15,1 C 14,6 C 12,9 km/h (3 Bft) 100,00 %
28.06.2018 16:23 15,7 C 20,0 C 96 % 1012,6 hPa 0,0 l/m 8,5 km/h (2 Bft) W-SW 240 0 min 0,000 mm 0,7 UV-I 114 W/m 15,1 C 14,6 C 12,9 km/h (3 Bft) 100,00 %
28.06.2018 16:24 15,8 C 20,0 C 96 % 1012,6 hPa 0,0 l/m 5,2 km/h (1 Bft) W 274 0 min 0,000 mm 0,7 UV-I 124 W/m 15,2 C 15,8 C 6,4 km/h (2 Bft) 100,00 %
28.06.2018 16:25 15,8 C 20,0 C 96 % 1012,6 hPa 0,0 l/m 6,1 km/h (2 Bft) W 263 0 min 0,000 mm 0,8 UV-I 131 W/m 15,2 C 15,8 C 9,7 km/h (2 Bft) 95,83 %
28.06.2018 16:26 15,8 C 20,0 C 96 % 1012,6 hPa 0,0 l/m 6,0 km/h (2 Bft) W 271 0 min 0,000 mm 0,8 UV-I 134 W/m 15,2 C 15,8 C 11,3 km/h (2 Bft) 100,00 %
28.06.2018 16:27 15,8 C 20,0 C 96 % 1012,6 hPa 0,0 l/m 12,7 km/h (3 Bft) W 267 0 min 0,000 mm 0,7 UV-I 129 W/m 15,2 C 12,9 C 16,1 km/h (3 Bft) 100,00 %
28.06.2018 16:28 15,8 C 20,0 C 96 % 1012,6 hPa 0,0 l/m 9,9 km/h (2 Bft) W 259 0 min 0,000 mm 0,7 UV-I 123 W/m 15,2 C 14,0 C 12,9 km/h (3 Bft) 100,00 %
28.06.2018 16:29 15,8 C 20,0 C 96 % 1012,6 hPa 0,0 l/m 6,3 km/h (2 Bft) W-SW 253 0 min 0,000 mm 0,7 UV-I 120 W/m 15,2 C 15,8 C 9,7 km/h (2 Bft) 100,00 %
28.06.2018 16:30 15,8 C 20,0 C 96 % 1012,5 hPa 0,0 l/m 8,2 km/h (2 Bft) W-NW 284 0 min 0,000 mm 0,7 UV-I 117 W/m 15,2 C 14,8 C 11,3 km/h (2 Bft) 95,65 %
28.06.2018 16:31 15,8 C 20,0 C 96 % 1012,5 hPa 0,0 l/m 8,1 km/h (2 Bft) W 279 0 min 0,000 mm 0,6 UV-I 110 W/m 15,2 C 14,9 C 11,3 km/h (2 Bft) 100,00 %
28.06.2018 16:32 15,8 C 20,0 C 96 % 1012,5 hPa 0,0 l/m 5,8 km/h (2 Bft) W-SW 254 0 min 0,000 mm 0,6 UV-I 101 W/m 15,2 C 15,8 C 11,3 km/h (2 Bft) 100,00 %
28.06.2018 16:33 15,8 C 20,0 C 96 % 1012,5 hPa 0,0 l/m 4,9 km/h (1 Bft) W-SW 248 0 min 0,000 mm 0,5 UV-I 96 W/m 15,2 C 15,8 C 9,7 km/h (2 Bft) 100,00 %
28.06.2018 16:34 15,8 C 20,0 C 96 % 1012,6 hPa 0,0 l/m 5,8 km/h (2 Bft) SW 236 0 min 0,000 mm 0,5 UV-I 94 W/m 15,2 C 15,8 C 8,0 km/h (2 Bft) 100,00 %
28.06.2018 16:35 15,8 C 20,0 C 96 % 1012,6 hPa 0,0 l/m 9,8 km/h (2 Bft) W 267 0 min 0,000 mm 0,5 UV-I 92 W/m 15,2 C 14,1 C 14,5 km/h (3 Bft) 100,00 %
28.06.2018 16:36 15,8 C 20,0 C 96 % 1012,5 hPa 0,0 l/m 8,5 km/h (2 Bft) W 261 0 min 0,000 mm 0,5 UV-I 90 W/m 15,2 C 14,7 C 11,3 km/h (2 Bft) 100,00 %
28.06.2018 16:37 15,8 C 20,0 C 96 % 1012,5 hPa 0,0 l/m 6,0 km/h (2 Bft) W 275 0 min 0,000 mm 0,5 UV-I 86 W/m 15,2 C 15,8 C 9,7 km/h (2 Bft) 100,00 %
28.06.2018 16:38 15,8 C 20,0 C 96 % 1012,6 hPa 0,0 l/m 4,9 km/h (1 Bft) W-SW 248 0 min 0,000 mm 0,5 UV-I 82 W/m 15,2 C 15,8 C 6,4 km/h (2 Bft) 100,00 %
28.06.2018 16:39 15,9 C 20,0 C 96 % 1012,5 hPa 0,0 l/m 6,2 km/h (2 Bft) W-SW 254 0 min 0,000 mm 0,4 UV-I 78 W/m 15,3 C 15,9 C 11,3 km/h (2 Bft) 100,00 %
28.06.2018 16:40 15,8 C 20,0 C 96 % 1012,5 hPa 0,0 l/m 5,2 km/h (1 Bft) W 263 0 min 0,000 mm 0,0 UV-I 74 W/m 15,2 C 15,8 C 8,0 km/h (2 Bft) 100,00 %
28.06.2018 16:41 15,8 C 20,0 C 96 % 1012,5 hPa 0,0 l/m 4,4 km/h (1 Bft) W 273 0 min 0,000 mm 0,0 UV-I 72 W/m 15,2 C 15,8 C 6,4 km/h (2 Bft) 100,00 %
28.06.2018 16:42 15,8 C 20,0 C 96 % 1012,5 hPa 0,0 l/m 8,0 km/h (2 Bft) W-SW 251 0 min 0,000 mm 0,0 UV-I 72 W/m 15,2 C 14,9 C 11,3 km/h (2 Bft) 96,30 %
28.06.2018 16:43 15,8 C 20,0 C 96 % 1012,5 hPa 0,0 l/m 5,0 km/h (1 Bft) W-SW 248 0 min 0,000 mm 0,0 UV-I 72 W/m 15,2 C 15,8 C 9,7 km/h (2 Bft) 100,00 %
28.06.2018 16:44 15,8 C 20,0 C 96 % 1012,5 hPa 0,0 l/m 5,9 km/h (2 Bft) W-SW 240 0 min 0,000 mm 0,0 UV-I 72 W/m 15,2 C 15,8 C 8,0 km/h (2 Bft) 100,00 %
28.06.2018 16:45 15,8 C 20,0 C 96 % 1012,5 hPa 0,0 l/m 6,4 km/h (2 Bft) W-SW 254 0 min 0,000 mm 0,0 UV-I 73 W/m 15,2 C 15,8 C 11,3 km/h (2 Bft) 95,65 %
28.06.2018 16:46 15,8 C 20,0 C 96 % 1012,5 hPa 0,0 l/m 7,2 km/h (2 Bft) SW 223 0 min 0,000 mm 0,0 UV-I 74 W/m 15,2 C 15,4 C 11,3 km/h (2 Bft) 100,00 %
28.06.2018 16:47 15,8 C 20,0 C 96 % 1012,5 hPa 0,0 l/m 6,0 km/h (2 Bft) SW 229 0 min 0,000 mm 0,0 UV-I 75 W/m 15,2 C 15,8 C 8,0 km/h (2 Bft) 100,00 %
28.06.2018 16:48 15,8 C 20,0 C 96 % 1012,5 hPa 0,0 l/m 5,8 km/h (2 Bft) W-SW 246 0 min 0,000 mm 0,0 UV-I 77 W/m 15,2 C 15,8 C 9,7 km/h (2 Bft) 100,00 %
28.06.2018 16:49 15,8 C 20,0 C 96 % 1012,5 hPa 0,0 l/m 7,6 km/h (2 Bft) W-SW 239 0 min 0,000 mm 0,0 UV-I 79 W/m 15,2 C 15,1 C 12,9 km/h (3 Bft) 100,00 %
28.06.2018 16:50 15,8 C 20,0 C 96 % 1012,5 hPa 0,0 l/m 6,8 km/h (2 Bft) SW 227 0 min 0,000 mm 0,4 UV-I 81 W/m 15,2 C 15,6 C 11,3 km/h (2 Bft) 100,00 %
28.06.2018 16:51 15,8 C 20,0 C 96 % 1012,6 hPa 0,0 l/m 8,2 km/h (2 Bft) W-SW 257 0 min 0,000 mm 0,5 UV-I 83 W/m 15,2 C 14,8 C 12,9 km/h (3 Bft) 100,00 %
28.06.2018 16:53 15,8 C 20,0 C 96 % 1012,5 hPa 0,0 l/m 5,5 km/h (1 Bft) W 262 0 min 0,000 mm 0,5 UV-I 83 W/m 15,2 C 15,8 C 9,7 km/h (2 Bft) 98,08 %
28.06.2018 16:54 15,8 C 20,0 C 96 % 1012,5 hPa 0,0 l/m 9,9 km/h (2 Bft) W-SW 248 0 min 0,000 mm 0,5 UV-I 81 W/m 15,2 C 14,0 C 14,5 km/h (3 Bft) 100,00 %
28.06.2018 16:55 15,8 C 20,0 C 96 % 1012,5 hPa 0,0 l/m 6,8 km/h (2 Bft) W 269 0 min 0,000 mm 0,1 UV-I 77 W/m 15,2 C 15,6 C 9,7 km/h (2 Bft) 95,83 %
28.06.2018 16:56 15,8 C 20,0 C 96 % 1012,5 hPa 0,0 l/m 6,0 km/h (2 Bft) W-SW 251 0 min 0,000 mm 0,0 UV-I 73 W/m 15,2 C 15,8 C 11,3 km/h (2 Bft) 100,00 %
28.06.2018 16:57 15,8 C 20,0 C 96 % 1012,5 hPa 0,0 l/m 7,0 km/h (2 Bft) W-SW 254 0 min 0,000 mm 0,0 UV-I 70 W/m 15,2 C 15,5 C 11,3 km/h (2 Bft) 95,83 %
28.06.2018 16:58 15,8 C 20,0 C 96 % 1012,5 hPa 0,0 l/m 4,1 km/h (1 Bft) W 266 0 min 0,000 mm 0,0 UV-I 69 W/m 15,2 C 15,8 C 4,8 km/h (1 Bft) 95,65 %
28.06.2018 16:59 15,8 C 20,0 C 96 % 1012,5 hPa 0,0 l/m 5,8 km/h (2 Bft) SW 227 0 min 0,000 mm 0,0 UV-I 69 W/m 15,2 C 15,8 C 8,0 km/h (2 Bft) 100,00 %
28.06.2018 17:00 15,8 C 20,0 C 96 % 1012,5 hPa 0,0 l/m 7,7 km/h (2 Bft) W 261 0 min 0,050 mm 0,0 UV-I 69 W/m 15,2 C 15,1 C 9,7 km/h (2 Bft) 95,65 %
28.06.2018 17:02 15,9 C 20,0 C 96 % 1012,5 hPa 0,0 l/m 6,3 km/h (2 Bft) SW 230 0 min 0,000 mm 0,0 UV-I 67 W/m 15,3 C 15,9 C 9,7 km/h (2 Bft) 98,00 %
28.06.2018 17:03 15,9 C 20,0 C 96 % 1012,5 hPa 0,0 l/m 5,9 km/h (2 Bft) W-SW 252 0 min 0,000 mm 0,0 UV-I 69 W/m 15,3 C 15,9 C 9,7 km/h (2 Bft) 100,00 %
28.06.2018 17:04 15,9 C 20,0 C 96 % 1012,5 hPa 0,0 l/m 7,0 km/h (2 Bft) W-NW 284 0 min 0,000 mm 0,0 UV-I 68 W/m 15,3 C 15,6 C 12,9 km/h (3 Bft) 95,65 %
28.06.2018 17:05 15,9 C 20,0 C 96 % 1012,5 hPa 0,0 l/m 5,0 km/h (1 Bft) W 262 0 min 0,000 mm 0,0 UV-I 67 W/m 15,3 C 15,9 C 9,7 km/h (2 Bft) 95,83 %
28.06.2018 17:06 15,9 C 20,0 C 96 % 1012,6 hPa 0,0 l/m 6,0 km/h (2 Bft) W 265 0 min 0,000 mm 0,0 UV-I 65 W/m 15,3 C 15,9 C 11,3 km/h (2 Bft) 95,65 %
28.06.2018 17:07 15,9 C 20,0 C 96 % 1012,5 hPa 0,0 l/m 4,9 km/h (1 Bft) S-SW 208 0 min 0,000 mm 0,0 UV-I 65 W/m 15,3 C 15,9 C 6,4 km/h (2 Bft) 100,00 %
28.06.2018 17:08 15,9 C 20,0 C 96 % 1012,5 hPa 0,0 l/m 6,2 km/h (2 Bft) W-SW 256 0 min 0,000 mm 0,0 UV-I 67 W/m 15,3 C 15,9 C 9,7 km/h (2 Bft) 91,30 %
28.06.2018 17:09 15,9 C 20,0 C 96 % 1012,6 hPa 0,0 l/m 5,6 km/h (1 Bft) W 264 0 min 0,000 mm 0,0 UV-I 66 W/m 15,3 C 15,9 C 8,0 km/h (2 Bft) 100,00 %
28.06.2018 17:10 15,9 C 20,0 C 96 % 1012,6 hPa 0,0 l/m 6,8 km/h (2 Bft) W 259 0 min 0,000 mm 0,0 UV-I 65 W/m 15,3 C 15,7 C 9,7 km/h (2 Bft) 96,15 %
28.06.2018 17:11 15,9 C 20,0 C 96 % 1012,5 hPa 0,0 l/m 5,0 km/h (1 Bft) SW 225 0 min 0,000 mm 0,0 UV-I 65 W/m 15,3 C 15,9 C 8,0 km/h (2 Bft) 95,83 %
28.06.2018 17:12 15,9 C 20,0 C 96 % 1012,5 hPa 0,0 l/m 8,4 km/h (2 Bft) W-SW 247 0 min 0,000 mm 0,0 UV-I 65 W/m 15,3 C 14,8 C 11,3 km/h (2 Bft) 95,65 %
28.06.2018 17:13 15,9 C 20,0 C 96 % 1012,5 hPa 0,0 l/m 5,8 km/h (2 Bft) W-SW 257 0 min 0,000 mm 0,0 UV-I 65 W/m 15,3 C 15,9 C 9,7 km/h (2 Bft) 95,83 %
28.06.2018 17:14 15,9 C 20,0 C 96 % 1012,5 hPa 0,0 l/m 6,2 km/h (2 Bft) W 266 0 min 0,000 mm 0,0 UV-I 65 W/m 15,3 C 15,9 C 9,7 km/h (2 Bft) 95,83 %
28.06.2018 17:15 15,9 C 20,0 C 96 % 1012,5 hPa 0,0 l/m 4,6 km/h (1 Bft) W 265 0 min 0,000 mm 0,0 UV-I 64 W/m 15,3 C 15,9 C 6,4 km/h (2 Bft) 88,46 %
28.06.2018 17:16 15,9 C 20,0 C 96 % 1012,5 hPa 0,0 l/m 6,2 km/h (2 Bft) W-SW 250 0 min 0,000 mm 0,0 UV-I 64 W/m 15,3 C 15,9 C 9,7 km/h (2 Bft) 100,00 %
28.06.2018 17:17 15,9 C 20,0 C 96 % 1012,5 hPa 0,0 l/m 5,3 km/h (1 Bft) W-SW 255 0 min 0,000 mm 0,0 UV-I 65 W/m 15,3 C 15,9 C 9,7 km/h (2 Bft) 91,30 %
28.06.2018 17:18 15,9 C 20,0 C 96 % 1012,5 hPa 0,0 l/m 4,3 km/h (1 Bft) W 267 0 min 0,000 mm 0,0 UV-I 67 W/m 15,3 C 15,9 C 6,4 km/h (2 Bft) 95,83 %
28.06.2018 17:19 15,9 C 20,0 C 96 % 1012,5 hPa 0,0 l/m 5,5 km/h (1 Bft) W-SW 238 0 min 0,000 mm 0,0 UV-I 67 W/m 15,3 C 15,9 C 8,0 km/h (2 Bft) 91,30 %
28.06.2018 17:20 15,9 C 20,0 C 96 % 1012,5 hPa 0,0 l/m 7,6 km/h (2 Bft) W 263 0 min 0,000 mm 0,0 UV-I 69 W/m 15,3 C 15,3 C 11,3 km/h (2 Bft) 95,83 %
28.06.2018 17:21 15,9 C 20,0 C 96 % 1012,5 hPa 0,0 l/m 5,5 km/h (1 Bft) SW 223 0 min 0,000 mm 0,0 UV-I 68 W/m 15,3 C 15,9 C 8,0 km/h (2 Bft) 91,30 %
28.06.2018 17:22 15,9 C 20,0 C 96 % 1012,5 hPa 0,0 l/m 4,8 km/h (1 Bft) W-SW 248 0 min 0,000 mm 0,0 UV-I 67 W/m 15,3 C 15,9 C 6,4 km/h (2 Bft) 91,67 %
28.06.2018 17:23 15,9 C 20,0 C 96 % 1012,6 hPa 0,0 l/m 5,9 km/h (2 Bft) W-SW 244 0 min 0,000 mm 0,0 UV-I 67 W/m 15,3 C 15,9 C 8,0 km/h (2 Bft) 95,65 %
28.06.2018 17:24 15,9 C 20,0 C 96 % 1012,5 hPa 0,0 l/m 4,2 km/h (1 Bft) SW 231 0 min 0,000 mm 0,0 UV-I 67 W/m 15,3 C 15,9 C 6,4 km/h (2 Bft) 91,67 %
28.06.2018 17:25 15,9 C 20,0 C 96 % 1012,5 hPa 0,0 l/m 5,0 km/h (1 Bft) SW 217 0 min 0,000 mm 0,0 UV-I 65 W/m 15,3 C 15,9 C 8,0 km/h (2 Bft) 100,00 %
28.06.2018 17:26 15,9 C 20,0 C 96 % 1012,6 hPa 0,0 l/m 6,8 km/h (2 Bft) W-SW 257 0 min 0,000 mm 0,0 UV-I 63 W/m 15,3 C 15,7 C 12,9 km/h (3 Bft) 91,67 %
28.06.2018 17:28 16,0 C 20,0 C 96 % 1012,5 hPa 0,0 l/m 7,1 km/h (2 Bft) W-SW 238 0 min 0,000 mm 0,0 UV-I 62 W/m 15,4 C 15,6 C 11,3 km/h (2 Bft) 93,62 %
28.06.2018 17:29 16,0 C 20,0 C 96 % 1012,5 hPa 0,0 l/m 7,4 km/h (2 Bft) SW 231 0 min 0,000 mm 0,0 UV-I 58 W/m 15,4 C 15,5 C 9,7 km/h (2 Bft) 100,00 %
28.06.2018 17:30 16,0 C 20,0 C 96 % 1012,6 hPa 0,0 l/m 6,2 km/h (2 Bft) SW 236 0 min 0,000 mm 0,0 UV-I 58 W/m 15,4 C 16,0 C 11,3 km/h (2 Bft) 83,33 %
28.06.2018 17:31 16,1 C 20,0 C 96 % 1012,5 hPa 0,0 l/m 5,4 km/h (1 Bft) W-SW 246 0 min 0,000 mm 0,0 UV-I 59 W/m 15,5 C 16,1 C 9,7 km/h (2 Bft) 96,30 %
28.06.2018 17:32 16,0 C 20,0 C 96 % 1012,5 hPa 0,0 l/m 6,9 km/h (2 Bft) W-SW 250 0 min 0,000 mm 0,0 UV-I 62 W/m 15,4 C 15,7 C 12,9 km/h (3 Bft) 95,65 %
28.06.2018 17:33 16,0 C 20,0 C 96 % 1012,5 hPa 0,0 l/m 7,2 km/h (2 Bft) W-SW 244 0 min 0,000 mm 0,0 UV-I 64 W/m 15,4 C 15,6 C 12,9 km/h (3 Bft) 100,00 %
28.06.2018 17:34 16,0 C 20,0 C 96 % 1012,5 hPa 0,0 l/m 5,3 km/h (1 Bft) SW 229 0 min 0,000 mm 0,0 UV-I 67 W/m 15,4 C 16,0 C 6,4 km/h (2 Bft) 91,30 %
28.06.2018 17:35 16,0 C 20,0 C 96 % 1012,5 hPa 0,0 l/m 7,5 km/h (2 Bft) W-SW 238 0 min 0,000 mm 0,0 UV-I 70 W/m 15,4 C 15,4 C 12,9 km/h (3 Bft) 92,59 %
28.06.2018 17:36 16,0 C 20,0 C 96 % 1012,5 hPa 0,0 l/m 5,5 km/h (1 Bft) W 272 0 min 0,000 mm 0,0 UV-I 74 W/m 15,4 C 16,0 C 9,7 km/h (2 Bft) 100,00 %
28.06.2018 17:37 16,0 C 20,0 C 96 % 1012,5 hPa 0,0 l/m 5,6 km/h (1 Bft) SW 229 0 min 0,000 mm 0,0 UV-I 74 W/m 15,4 C 16,0 C 9,7 km/h (2 Bft) 91,67 %
28.06.2018 17:38 16,0 C 20,0 C 96 % 1012,5 hPa 0,0 l/m 5,9 km/h (2 Bft) SW 225 0 min 0,000 mm 0,0 UV-I 73 W/m 15,4 C 16,0 C 9,7 km/h (2 Bft) 100,00 %
28.06.2018 17:39 16,0 C 20,0 C 96 % 1012,5 hPa 0,0 l/m 5,5 km/h (1 Bft) W-SW 242 0 min 0,000 mm 0,0 UV-I 72 W/m 15,4 C 16,0 C 8,0 km/h (2 Bft) 91,67 %
28.06.2018 17:40 16,0 C 20,0 C 96 % 1012,5 hPa 0,0 l/m 4,3 km/h (1 Bft) W-SW 258 0 min 0,000 mm 0,0 UV-I 71 W/m 15,4 C 16,0 C 6,4 km/h (2 Bft) 100,00 %
28.06.2018 17:41 16,1 C 20,0 C 96 % 1012,5 hPa 0,0 l/m 7,3 km/h (2 Bft) W-SW 241 0 min 0,000 mm 0,0 UV-I 70 W/m 15,5 C 15,6 C 12,9 km/h (3 Bft) 91,67 %
28.06.2018 17:42 16,1 C 20,0 C 96 % 1012,5 hPa 0,0 l/m 6,8 km/h (2 Bft) W 261 0 min 0,000 mm 0,0 UV-I 70 W/m 15,5 C 15,9 C 9,7 km/h (2 Bft) 95,65 %
28.06.2018 17:43 16,1 C 20,0 C 96 % 1012,5 hPa 0,0 l/m 4,2 km/h (1 Bft) W-SW 253 0 min 0,000 mm 0,0 UV-I 72 W/m 15,5 C 16,1 C 6,4 km/h (2 Bft) 95,83 %
28.06.2018 17:44 16,1 C 20,0 C 96 % 1012,5 hPa 0,0 l/m 7,4 km/h (2 Bft) W 275 0 min 0,000 mm 0,0 UV-I 74 W/m 15,5 C 15,6 C 11,3 km/h (2 Bft) 95,65 %
28.06.2018 17:45 16,1 C 20,0 C 96 % 1012,5 hPa 0,0 l/m 5,4 km/h (1 Bft) W-SW 258 0 min 0,000 mm 0,0 UV-I 75 W/m 15,5 C 16,1 C 9,7 km/h (2 Bft) 95,83 %
28.06.2018 17:46 16,1 C 20,0 C 96 % 1012,5 hPa 0,0 l/m 7,1 km/h (2 Bft) W-SW 254 0 min 0,000 mm 0,0 UV-I 76 W/m 15,5 C 15,7 C 9,7 km/h (2 Bft) 91,30 %
28.06.2018 17:47 16,1 C 20,0 C 96 % 1012,5 hPa 0,0 l/m 6,0 km/h (2 Bft) SW 229 0 min 0,000 mm 0,0 UV-I 77 W/m 15,5 C 16,1 C 8,0 km/h (2 Bft) 100,00 %
28.06.2018 17:48 16,1 C 20,0 C 96 % 1012,5 hPa 0,0 l/m 5,9 km/h (2 Bft) W 269 0 min 0,000 mm 0,0 UV-I 81 W/m 15,5 C 16,1 C 11,3 km/h (2 Bft) 91,30 %
28.06.2018 17:49 16,2 C 20,0 C 96 % 1012,5 hPa 0,0 l/m 4,6 km/h (1 Bft) W 260 0 min 0,000 mm 0,0 UV-I 83 W/m 15,6 C 16,2 C 6,4 km/h (2 Bft) 100,00 %
28.06.2018 17:50 16,2 C 20,0 C 96 % 1012,5 hPa 0,0 l/m 5,2 km/h (1 Bft) W 267 0 min 0,000 mm 0,0 UV-I 83 W/m 15,6 C 16,2 C 6,4 km/h (2 Bft) 91,30 %
28.06.2018 17:51 16,2 C 20,0 C 96 % 1012,5 hPa 0,0 l/m 5,1 km/h (1 Bft) W-SW 243 0 min 0,000 mm 0,0 UV-I 81 W/m 15,6 C 16,2 C 8,0 km/h (2 Bft) 95,83 %
28.06.2018 17:52 16,2 C 20,0 C 96 % 1012,5 hPa 0,0 l/m 4,2 km/h (1 Bft) W 264 0 min 0,000 mm 0,0 UV-I 77 W/m 15,6 C 16,2 C 6,4 km/h (2 Bft) 96,15 %
28.06.2018 17:53 16,2 C 20,0 C 96 % 1012,5 hPa 0,0 l/m 4,4 km/h (1 Bft) W-SW 255 0 min 0,000 mm 0,0 UV-I 74 W/m 15,6 C 16,2 C 6,4 km/h (2 Bft) 100,00 %
28.06.2018 17:54 16,2 C 20,0 C 96 % 1012,5 hPa 0,0 l/m 6,2 km/h (2 Bft) W 279 0 min 0,000 mm 0,0 UV-I 72 W/m 15,6 C 16,2 C 9,7 km/h (2 Bft) 95,83 %
28.06.2018 17:55 16,2 C 20,0 C 96 % 1012,6 hPa 0,0 l/m 3,8 km/h (1 Bft) W 261 0 min 0,000 mm 0,0 UV-I 72 W/m 15,6 C 16,2 C 4,8 km/h (1 Bft) 96,15 %
28.06.2018 17:56 16,2 C 20,0 C 96 % 1012,5 hPa 0,0 l/m 4,9 km/h (1 Bft) W 261 0 min 0,000 mm 0,0 UV-I 71 W/m 15,6 C 16,2 C 6,4 km/h (2 Bft) 100,00 %
28.06.2018 17:57 16,2 C 20,0 C 96 % 1012,5 hPa 0,0 l/m 4,0 km/h (1 Bft) W 265 0 min 0,000 mm 0,0 UV-I 68 W/m 15,6 C 16,2 C 6,4 km/h (2 Bft) 100,00 %
28.06.2018 17:58 16,2 C 20,0 C 96 % 1012,5 hPa 0,0 l/m 4,6 km/h (1 Bft) W 259 0 min 0,000 mm 0,0 UV-I 67 W/m 15,6 C 16,2 C 6,4 km/h (2 Bft) 95,83 %
28.06.2018 17:59 16,2 C 20,0 C 96 % 1012,5 hPa 0,0 l/m 3,4 km/h (1 Bft) W 260 0 min 0,000 mm 0,0 UV-I 65 W/m 15,6 C 16,2 C 4,8 km/h (1 Bft) 95,65 %
28.06.2018 18:00 16,2 C 20,0 C 96 % 1012,5 hPa 0,0 l/m 4,5 km/h (1 Bft) W 263 0 min 0,000 mm 0,0 UV-I 67 W/m 15,6 C 16,2 C 6,4 km/h (2 Bft) 100,00 %
28.06.2018 18:02 16,2 C 20,0 C 96 % 1012,5 hPa 0,0 l/m 3,1 km/h (1 Bft) W 263 0 min 0,051 mm 0,0 UV-I 71 W/m 15,6 C 16,2 C 4,8 km/h (1 Bft) 97,87 %
28.06.2018 18:03 16,2 C 20,0 C 96 % 1012,5 hPa 0,0 l/m 3,6 km/h (1 Bft) W 261 0 min 0,000 mm 0,0 UV-I 77 W/m 15,6 C 16,2 C 4,8 km/h (1 Bft) 91,30 %
28.06.2018 18:04 16,2 C 20,0 C 96 % 1012,5 hPa 0,0 l/m 4,4 km/h (1 Bft) W 269 0 min 0,000 mm 0,0 UV-I 78 W/m 15,6 C 16,2 C 6,4 km/h (2 Bft) 100,00 %
28.06.2018 18:05 16,3 C 20,0 C 96 % 1012,5 hPa 0,0 l/m 5,5 km/h (1 Bft) SW 230 0 min 0,000 mm 0,0 UV-I 77 W/m 15,7 C 16,3 C 8,0 km/h (2 Bft) 100,00 %
28.06.2018 18:06 16,3 C 20,0 C 96 % 1012,5 hPa 0,0 l/m 4,6 km/h (1 Bft) W-SW 249 0 min 0,000 mm 0,0 UV-I 77 W/m 15,7 C 16,3 C 8,0 km/h (2 Bft) 100,00 %
28.06.2018 18:07 16,3 C 20,0 C 96 % 1012,6 hPa 0,0 l/m 5,0 km/h (1 Bft) W-NW 286 0 min 0,000 mm 0,0 UV-I 75 W/m 15,7 C 16,3 C 6,4 km/h (2 Bft) 100,00 %
28.06.2018 18:08 16,3 C 20,0 C 96 % 1012,5 hPa 0,0 l/m 3,4 km/h (1 Bft) W-NW 286 0 min 0,000 mm 0,0 UV-I 74 W/m 15,7 C 16,3 C 4,8 km/h (1 Bft) 100,00 %
28.06.2018 18:09 16,3 C 20,0 C 96 % 1012,5 hPa 0,0 l/m 4,3 km/h (1 Bft) W 259 0 min 0,000 mm 0,0 UV-I 74 W/m 15,7 C 16,3 C 4,8 km/h (1 Bft) 100,00 %
28.06.2018 18:10 16,3 C 20,0 C 96 % 1012,5 hPa 0,0 l/m 4,0 km/h (1 Bft) W 259 0 min 0,000 mm 0,0 UV-I 72 W/m 15,7 C 16,3 C 4,8 km/h (1 Bft) 100,00 %
28.06.2018 18:11 16,3 C 20,0 C 96 % 1012,5 hPa 0,0 l/m 3,2 km/h (1 Bft) W 281 0 min 0,000 mm 0,0 UV-I 70 W/m 15,7 C 16,3 C 4,8 km/h (1 Bft) 100,00 %
28.06.2018 18:13 16,3 C 20,0 C 96 % 1012,5 hPa 0,0 l/m 4,1 km/h (1 Bft) W 264 0 min 0,000 mm 0,0 UV-I 67 W/m 15,7 C 16,3 C 6,4 km/h (2 Bft) 98,28 %
28.06.2018 18:14 16,3 C 20,0 C 96 % 1012,5 hPa 0,0 l/m 3,6 km/h (1 Bft) W 264 0 min 0,000 mm 0,0 UV-I 64 W/m 15,7 C 16,3 C 4,8 km/h (1 Bft) 100,00 %
28.06.2018 18:15 16,4 C 20,0 C 96 % 1012,5 hPa 0,0 l/m 5,1 km/h (1 Bft) W 259 0 min 0,000 mm 0,0 UV-I 63 W/m 15,8 C 16,4 C 6,4 km/h (2 Bft) 100,00 %
28.06.2018 18:16 16,4 C 20,0 C 96 % 1012,5 hPa 0,0 l/m 2,2 km/h (1 Bft) W 260 0 min 0,000 mm 0,0 UV-I 64 W/m 15,8 C 16,4 C 4,8 km/h (1 Bft) 95,65 %
28.06.2018 18:17 16,4 C 20,0 C 96 % 1012,5 hPa 0,0 l/m 2,3 km/h (1 Bft) W 259 0 min 0,000 mm 0,0 UV-I 67 W/m 15,8 C 16,4 C 4,8 km/h (1 Bft) 100,00 %
28.06.2018 18:18 16,4 C 20,0 C 96 % 1012,5 hPa 0,0 l/m 4,3 km/h (1 Bft) W-SW 248 0 min 0,000 mm 0,0 UV-I 69 W/m 15,8 C 16,4 C 6,4 km/h (2 Bft) 100,00 %
28.06.2018 18:19 16,4 C 20,0 C 95 % 1012,5 hPa 0,0 l/m 3,7 km/h (1 Bft) W 260 0 min 0,000 mm 0,0 UV-I 71 W/m 15,6 C 16,4 C 4,8 km/h (1 Bft) 100,00 %
28.06.2018 18:20 16,4 C 20,0 C 95 % 1012,6 hPa 0,0 l/m 4,2 km/h (1 Bft) W 261 0 min 0,000 mm 0,0 UV-I 73 W/m 15,6 C 16,4 C 4,8 km/h (1 Bft) 100,00 %
28.06.2018 18:21 16,3 C 20,0 C 95 % 1012,6 hPa 0,0 l/m 4,4 km/h (1 Bft) W 273 0 min 0,000 mm 0,0 UV-I 75 W/m 15,5 C 16,3 C 6,4 km/h (2 Bft) 100,00 %
28.06.2018 18:22 16,3 C 20,0 C 95 % 1012,6 hPa 0,0 l/m 1,4 km/h (1 Bft) W 273 0 min 0,000 mm 0,0 UV-I 77 W/m 15,5 C 16,3 C 3,2 km/h (1 Bft) 96,15 %
28.06.2018 18:23 16,4 C 20,0 C 95 % 1012,6 hPa 0,0 l/m 2,5 km/h (1 Bft) W 272 0 min 0,000 mm 0,0 UV-I 79 W/m 15,6 C 16,4 C 4,8 km/h (1 Bft) 100,00 %
28.06.2018 18:24 16,4 C 20,0 C 95 % 1012,6 hPa 0,0 l/m 3,8 km/h (1 Bft) W 266 0 min 0,000 mm 0,0 UV-I 83 W/m 15,6 C 16,4 C 4,8 km/h (1 Bft) 100,00 %
28.06.2018 18:25 16,4 C 20,0 C 95 % 1012,6 hPa 0,0 l/m 2,1 km/h (1 Bft) W-SW 252 0 min 0,000 mm 0,0 UV-I 86 W/m 15,6 C 16,4 C 3,2 km/h (1 Bft) 100,00 %
28.06.2018 18:26 16,4 C 20,0 C 95 % 1012,6 hPa 0,0 l/m 2,3 km/h (1 Bft) W-SW 254 0 min 0,000 mm 0,0 UV-I 89 W/m 15,6 C 16,4 C 4,8 km/h (1 Bft) 100,00 %
28.06.2018 18:27 16,4 C 20,0 C 96 % 1012,6 hPa 0,0 l/m 3,4 km/h (1 Bft) W 275 0 min 0,000 mm 0,0 UV-I 90 W/m 15,8 C 16,4 C 4,8 km/h (1 Bft) 100,00 %
28.06.2018 18:28 16,4 C 20,0 C 96 % 1012,6 hPa 0,0 l/m 3,1 km/h (1 Bft) W 265 0 min 0,000 mm 0,0 UV-I 91 W/m 15,8 C 16,4 C 4,8 km/h (1 Bft) 100,00 %
28.06.2018 18:29 16,4 C 20,0 C 95 % 1012,6 hPa 0,0 l/m 3,7 km/h (1 Bft) W-SW 254 0 min 0,000 mm 0,0 UV-I 91 W/m 15,6 C 16,4 C 4,8 km/h (1 Bft) 96,30 %
28.06.2018 18:30 16,4 C 20,0 C 95 % 1012,6 hPa 0,0 l/m 2,4 km/h (1 Bft) W-SW 256 0 min 0,000 mm 0,0 UV-I 93 W/m 15,6 C 16,4 C 4,8 km/h (1 Bft) 95,65 %
28.06.2018 18:31 16,4 C 20,0 C 95 % 1012,6 hPa 0,0 l/m 4,0 km/h (1 Bft) SW 222 0 min 0,000 mm 0,0 UV-I 95 W/m 15,6 C 16,4 C 6,4 km/h (2 Bft) 100,00 %
28.06.2018 18:32 16,4 C 20,0 C 95 % 1012,6 hPa 0,0 l/m 5,3 km/h (1 Bft) W-NW 290 0 min 0,000 mm 0,0 UV-I 96 W/m 15,6 C 16,4 C 8,0 km/h (2 Bft) 100,00 %
28.06.2018 18:33 16,4 C 20,0 C 95 % 1012,6 hPa 0,0 l/m 4,3 km/h (1 Bft) W-SW 250 0 min 0,000 mm 0,0 UV-I 98 W/m 15,6 C 16,4 C 8,0 km/h (2 Bft) 100,00 %
28.06.2018 18:34 16,4 C 20,0 C 95 % 1012,6 hPa 0,0 l/m 3,0 km/h (1 Bft) W 265 0 min 0,000 mm 0,0 UV-I 98 W/m 15,6 C 16,4 C 4,8 km/h (1 Bft) 100,00 %
28.06.2018 18:35 16,4 C 20,0 C 95 % 1012,6 hPa 0,0 l/m 2,7 km/h (1 Bft) W 265 0 min 0,000 mm 0,0 UV-I 98 W/m 15,6 C 16,4 C 4,8 km/h (1 Bft) 95,65 %
28.06.2018 18:36 16,4 C 20,0 C 95 % 1012,7 hPa 0,0 l/m 2,6 km/h (1 Bft) W 265 0 min 0,000 mm 0,0 UV-I 96 W/m 15,6 C 16,4 C 4,8 km/h (1 Bft) 100,00 %
28.06.2018 18:38 16,4 C 20,0 C 95 % 1012,7 hPa 0,0 l/m 4,1 km/h (1 Bft) W 278 0 min 0,000 mm 0,0 UV-I 91 W/m 15,6 C 16,4 C 6,4 km/h (2 Bft) 100,00 %
28.06.2018 18:39 16,4 C 20,0 C 95 % 1012,7 hPa 0,0 l/m 4,1 km/h (1 Bft) W-SW 254 0 min 0,000 mm 0,0 UV-I 85 W/m 15,6 C 16,4 C 6,4 km/h (2 Bft) 95,65 %
28.06.2018 18:40 16,4 C 20,0 C 95 % 1012,7 hPa 0,0 l/m 3,2 km/h (1 Bft) W 270 0 min 0,000 mm 0,0 UV-I 83 W/m 15,6 C 16,4 C 6,4 km/h (2 Bft) 95,83 %
28.06.2018 18:41 16,4 C 20,0 C 95 % 1012,7 hPa 0,0 l/m 4,5 km/h (1 Bft) W-NW 282 0 min 0,000 mm 0,0 UV-I 79 W/m 15,6 C 16,4 C 9,7 km/h (2 Bft) 100,00 %
28.06.2018 18:43 16,4 C 20,0 C 95 % 1012,7 hPa 0,0 l/m 4,2 km/h (1 Bft) W-SW 238 0 min 0,000 mm 0,0 UV-I 74 W/m 15,6 C 16,4 C 6,4 km/h (2 Bft) 100,00 %
28.06.2018 18:44 16,4 C 20,0 C 95 % 1012,7 hPa 0,0 l/m 3,6 km/h (1 Bft) W-SW 241 0 min 0,000 mm 0,0 UV-I 72 W/m 15,6 C 16,4 C 4,8 km/h (1 Bft) 100,00 %
28.06.2018 18:45 16,4 C 20,0 C 95 % 1012,7 hPa 0,0 l/m 4,8 km/h (1 Bft) W-SW 251 0 min 0,000 mm 0,0 UV-I 70 W/m 15,6 C 16,4 C 6,4 km/h (2 Bft) 100,00 %
28.06.2018 18:46 16,4 C 20,0 C 95 % 1012,7 hPa 0,0 l/m 4,0 km/h (1 Bft) NW 306 0 min 0,000 mm 0,0 UV-I 69 W/m 15,6 C 16,4 C 6,4 km/h (2 Bft) 95,83 %
28.06.2018 18:48 16,4 C 20,0 C 95 % 1012,8 hPa 0,0 l/m 2,7 km/h (1 Bft) W-NW 292 0 min 0,000 mm 0,0 UV-I 65 W/m 15,6 C 16,4 C 4,8 km/h (1 Bft) 100,00 %
28.06.2018 18:49 16,4 C 20,0 C 95 % 1012,8 hPa 0,0 l/m 4,7 km/h (1 Bft) W 279 0 min 0,000 mm 0,0 UV-I 62 W/m 15,6 C 16,4 C 6,4 km/h (2 Bft) 95,65 %
28.06.2018 18:50 16,3 C 20,0 C 95 % 1012,8 hPa 0,0 l/m 3,2 km/h (1 Bft) W 279 0 min 0,000 mm 0,0 UV-I 60 W/m 15,5 C 16,3 C 4,8 km/h (1 Bft) 100,00 %
28.06.2018 18:51 16,3 C 20,0 C 95 % 1012,8 hPa 0,0 l/m 3,5 km/h (1 Bft) W-NW 295 0 min 0,000 mm 0,0 UV-I 56 W/m 15,5 C 16,3 C 6,4 km/h (2 Bft) 95,65 %
28.06.2018 18:52 16,3 C 20,0 C 95 % 1012,8 hPa 0,0 l/m 1,7 km/h (1 Bft) W-NW 295 0 min 0,000 mm 0,0 UV-I 54 W/m 15,5 C 16,3 C 3,2 km/h (1 Bft) 94,44 %
28.06.2018 18:53 16,3 C 20,0 C 95 % 1012,8 hPa 0,0 l/m 3,3 km/h (1 Bft) W 274 0 min 0,000 mm 0,0 UV-I 53 W/m 15,5 C 16,3 C 6,4 km/h (2 Bft) 100,00 %
28.06.2018 18:54 16,3 C 20,0 C 95 % 1012,8 hPa 0,0 l/m 3,0 km/h (1 Bft) SW 226 0 min 0,000 mm 0,0 UV-I 51 W/m 15,5 C 16,3 C 6,4 km/h (2 Bft) 100,00 %
28.06.2018 18:55 16,3 C 20,0 C 95 % 1012,8 hPa 0,0 l/m 2,5 km/h (1 Bft) SW 228 0 min 0,000 mm 0,0 UV-I 51 W/m 15,5 C 16,3 C 4,8 km/h (1 Bft) 100,00 %
28.06.2018 18:56 16,3 C 20,0 C 95 % 1012,8 hPa 0,0 l/m 2,7 km/h (1 Bft) SW 229 0 min 0,000 mm 0,0 UV-I 52 W/m 15,5 C 16,3 C 4,8 km/h (1 Bft) 100,00 %
28.06.2018 18:57 16,3 C 20,0 C 95 % 1012,8 hPa 0,0 l/m 2,2 km/h (1 Bft) SW 229 0 min 0,000 mm 0,0 UV-I 53 W/m 15,5 C 16,3 C 3,2 km/h (1 Bft) 100,00 %
28.06.2018 18:58 16,3 C 20,0 C 95 % 1012,8 hPa 0,0 l/m 2,0 km/h (1 Bft) SW 229 0 min 0,000 mm 0,0 UV-I 53 W/m 15,5 C 16,3 C 3,2 km/h (1 Bft) 96,15 %
28.06.2018 18:59 16,3 C 20,0 C 95 % 1012,8 hPa 0,0 l/m 1,1 km/h (1 Bft) SW 230 0 min 0,000 mm 0,0 UV-I 53 W/m 15,5 C 16,3 C 3,2 km/h (1 Bft) 100,00 %
28.06.2018 19:00 16,3 C 20,0 C 95 % 1012,9 hPa 0,0 l/m 2,2 km/h (1 Bft) W-SW 248 0 min 0,000 mm 0,0 UV-I 50 W/m 15,5 C 16,3 C 4,8 km/h (1 Bft) 100,00 %
28.06.2018 19:02 16,2 C 20,0 C 95 % 1012,9 hPa 0,0 l/m 0,8 km/h (0 Bft) W-SW 248 0 min 0,051 mm 0,0 UV-I 49 W/m 15,4 C 16,2 C 3,2 km/h (1 Bft) 97,87 %
28.06.2018 19:03 16,3 C 20,0 C 95 % 1012,9 hPa 0,0 l/m 1,6 km/h (1 Bft) W 265 0 min 0,000 mm 0,0 UV-I 51 W/m 15,5 C 16,3 C 6,4 km/h (2 Bft) 100,00 %
28.06.2018 19:04 16,3 C 20,0 C 95 % 1012,9 hPa 0,0 l/m 3,3 km/h (1 Bft) W 275 0 min 0,000 mm 0,0 UV-I 51 W/m 15,5 C 16,3 C 6,4 km/h (2 Bft) 96,15 %
28.06.2018 19:05 16,2 C 20,0 C 95 % 1012,9 hPa 0,0 l/m 0,9 km/h (0 Bft) W 275 0 min 0,000 mm 0,0 UV-I 53 W/m 15,4 C 16,2 C 1,6 km/h (1 Bft) 100,00 %
28.06.2018 19:06 16,2 C 20,0 C 95 % 1012,9 hPa 0,0 l/m 0,8 km/h (0 Bft) W 275 0 min 0,000 mm 0,0 UV-I 53 W/m 15,4 C 16,2 C 3,2 km/h (1 Bft) 100,00 %
28.06.2018 19:08 16,3 C 20,0 C 95 % 1012,9 hPa 0,0 l/m 1,7 km/h (1 Bft) W 275 0 min 0,000 mm 0,0 UV-I 54 W/m 15,5 C 16,3 C 4,8 km/h (1 Bft) 100,00 %
28.06.2018 19:09 16,3 C 20,0 C 96 % 1012,9 hPa 0,0 l/m 2,5 km/h (1 Bft) W 275 0 min 0,000 mm 0,0 UV-I 53 W/m 15,7 C 16,3 C 3,2 km/h (1 Bft) 100,00 %
28.06.2018 19:10 16,3 C 20,0 C 96 % 1012,9 hPa 0,0 l/m 2,3 km/h (1 Bft) W 275 0 min 0,000 mm 0,0 UV-I 53 W/m 15,7 C 16,3 C 4,8 km/h (1 Bft) 100,00 %
28.06.2018 19:11 16,3 C 20,0 C 96 % 1012,9 hPa 0,0 l/m 3,8 km/h (1 Bft) W 262 0 min 0,000 mm 0,0 UV-I 50 W/m 15,7 C 16,3 C 4,8 km/h (1 Bft) 95,83 %
28.06.2018 19:12 16,3 C 20,0 C 96 % 1012,9 hPa 0,0 l/m 2,3 km/h (1 Bft) W 261 0 min 0,000 mm 0,0 UV-I 46 W/m 15,7 C 16,3 C 3,2 km/h (1 Bft) 95,83 %
28.06.2018 19:13 16,3 C 20,0 C 96 % 1012,9 hPa 0,0 l/m 1,0 km/h (0 Bft) W 262 0 min 0,000 mm 0,0 UV-I 42 W/m 15,7 C 16,3 C 3,2 km/h (1 Bft) 96,15 %
28.06.2018 19:14 16,3 C 20,0 C 96 % 1012,9 hPa 0,0 l/m 3,1 km/h (1 Bft) W 263 0 min 0,000 mm 0,0 UV-I 38 W/m 15,7 C 16,3 C 4,8 km/h (1 Bft) 91,67 %
28.06.2018 19:15 16,3 C 20,0 C 96 % 1012,9 hPa 0,0 l/m 0,4 km/h (0 Bft) W 262 0 min 0,000 mm 0,0 UV-I 35 W/m 15,7 C 16,3 C 1,6 km/h (1 Bft) 100,00 %
28.06.2018 19:16 16,3 C 20,0 C 96 % 1012,9 hPa 0,0 l/m 2,6 km/h (1 Bft) W 269 0 min 0,000 mm 0,0 UV-I 33 W/m 15,7 C 16,3 C 4,8 km/h (1 Bft) 95,83 %
28.06.2018 19:18 16,2 C 20,0 C 96 % 1012,8 hPa 0,0 l/m 2,2 km/h (1 Bft) W 272 0 min 0,000 mm 0,0 UV-I 32 W/m 15,6 C 16,2 C 4,8 km/h (1 Bft) 93,62 %
28.06.2018 19:19 16,2 C 20,0 C 96 % 1012,8 hPa 0,0 l/m 2,5 km/h (1 Bft) W 272 0 min 0,000 mm 0,0 UV-I 33 W/m 15,6 C 16,2 C 4,8 km/h (1 Bft) 95,65 %
28.06.2018 19:20 16,2 C 20,0 C 96 % 1012,9 hPa 0,0 l/m 2,1 km/h (1 Bft) W 271 0 min 0,000 mm 0,0 UV-I 33 W/m 15,6 C 16,2 C 4,8 km/h (1 Bft) 100,00 %
28.06.2018 19:21 16,2 C 20,0 C 96 % 1012,9 hPa 0,0 l/m 2,2 km/h (1 Bft) W-SW 248 0 min 0,000 mm 0,0 UV-I 35 W/m 15,6 C 16,2 C 4,8 km/h (1 Bft) 95,65 %
28.06.2018 19:22 16,2 C 20,0 C 96 % 1012,8 hPa 0,0 l/m 3,5 km/h (1 Bft) W-SW 256 0 min 0,000 mm 0,0 UV-I 35 W/m 15,6 C 16,2 C 6,4 km/h (2 Bft) 100,00 %
28.06.2018 19:23 16,2 C 20,0 C 96 % 1012,9 hPa 0,0 l/m 2,1 km/h (1 Bft) W-SW 256 0 min 0,000 mm 0,0 UV-I 37 W/m 15,6 C 16,2 C 3,2 km/h (1 Bft) 95,65 %
28.06.2018 19:24 16,1 C 20,0 C 96 % 1012,9 hPa 0,0 l/m 2,1 km/h (1 Bft) W-SW 256 0 min 0,000 mm 0,0 UV-I 37 W/m 15,5 C 16,1 C 3,2 km/h (1 Bft) 95,83 %
28.06.2018 19:25 16,1 C 20,0 C 95 % 1012,9 hPa 0,0 l/m 1,9 km/h (1 Bft) W-SW 256 0 min 0,000 mm 0,0 UV-I 37 W/m 15,3 C 16,1 C 3,2 km/h (1 Bft) 100,00 %
28.06.2018 19:26 16,1 C 20,0 C 96 % 1012,9 hPa 0,0 l/m 1,5 km/h (1 Bft) W-SW 256 0 min 0,000 mm 0,0 UV-I 37 W/m 15,5 C 16,1 C 3,2 km/h (1 Bft) 95,83 %
28.06.2018 19:27 16,2 C 20,0 C 96 % 1012,9 hPa 0,0 l/m 3,5 km/h (1 Bft) W-SW 257 0 min 0,000 mm 0,0 UV-I 35 W/m 15,6 C 16,2 C 4,8 km/h (1 Bft) 100,00 %
28.06.2018 19:28 16,2 C 20,0 C 96 % 1012,9 hPa 0,0 l/m 2,8 km/h (1 Bft) W-SW 257 0 min 0,000 mm 0,0 UV-I 33 W/m 15,6 C 16,2 C 4,8 km/h (1 Bft) 95,83 %
28.06.2018 19:29 16,1 C 20,0 C 96 % 1012,9 hPa 0,0 l/m 2,8 km/h (1 Bft) W-SW 257 0 min 0,000 mm 0,0 UV-I 33 W/m 15,5 C 16,1 C 3,2 km/h (1 Bft) 100,00 %
28.06.2018 19:30 16,1 C 20,0 C 96 % 1012,9 hPa 0,0 l/m 3,5 km/h (1 Bft) W-SW 257 0 min 0,000 mm 0,0 UV-I 31 W/m 15,5 C 16,1 C 4,8 km/h (1 Bft) 95,65 %
28.06.2018 19:31 16,2 C 20,0 C 96 % 1012,9 hPa 0,0 l/m 2,7 km/h (1 Bft) W-SW 257 0 min 0,000 mm 0,0 UV-I 29 W/m 15,6 C 16,2 C 4,8 km/h (1 Bft) 100,00 %
28.06.2018 19:32 16,1 C 20,0 C 96 % 1012,9 hPa 0,0 l/m 3,4 km/h (1 Bft) W 264 0 min 0,000 mm 0,0 UV-I 28 W/m 15,5 C 16,1 C 4,8 km/h (1 Bft) 95,65 %
28.06.2018 19:33 16,2 C 20,0 C 96 % 1012,9 hPa 0,0 l/m 4,8 km/h (1 Bft) W-SW 254 0 min 0,000 mm 0,0 UV-I 26 W/m 15,6 C 16,2 C 6,4 km/h (2 Bft) 100,00 %
28.06.2018 19:34 16,2 C 20,0 C 96 % 1012,9 hPa 0,0 l/m 3,8 km/h (1 Bft) W-SW 257 0 min 0,000 mm 0,0 UV-I 26 W/m 15,6 C 16,2 C 4,8 km/h (1 Bft) 96,15 %
28.06.2018 19:35 16,2 C 20,0 C 96 % 1012,9 hPa 0,0 l/m 3,3 km/h (1 Bft) W 269 0 min 0,000 mm 0,0 UV-I 26 W/m 15,6 C 16,2 C 4,8 km/h (1 Bft) 95,83 %
28.06.2018 19:36 16,2 C 20,0 C 96 % 1012,9 hPa 0,0 l/m 4,0 km/h (1 Bft) W 259 0 min 0,000 mm 0,0 UV-I 26 W/m 15,6 C 16,2 C 6,4 km/h (2 Bft) 100,00 %
28.06.2018 19:37 16,2 C 20,0 C 96 % 1012,9 hPa 0,0 l/m 4,0 km/h (1 Bft) W 260 0 min 0,000 mm 0,0 UV-I 26 W/m 15,6 C 16,2 C 6,4 km/h (2 Bft) 96,30 %
28.06.2018 19:38 16,2 C 20,0 C 96 % 1012,9 hPa 0,0 l/m 5,0 km/h (1 Bft) W 262 0 min 0,000 mm 0,0 UV-I 28 W/m 15,6 C 16,2 C 6,4 km/h (2 Bft) 100,00 %
28.06.2018 19:39 16,2 C 20,0 C 96 % 1012,9 hPa 0,0 l/m 4,6 km/h (1 Bft) W 271 0 min 0,000 mm 0,0 UV-I 28 W/m 15,6 C 16,2 C 4,8 km/h (1 Bft) 95,83 %
28.06.2018 19:40 16,2 C 20,0 C 96 % 1012,9 hPa 0,0 l/m 3,4 km/h (1 Bft) W-SW 257 0 min 0,000 mm 0,0 UV-I 30 W/m 15,6 C 16,2 C 4,8 km/h (1 Bft) 100,00 %
28.06.2018 19:41 16,2 C 20,0 C 96 % 1012,9 hPa 0,0 l/m 5,2 km/h (1 Bft) W 264 0 min 0,000 mm 0,0 UV-I 31 W/m 15,6 C 16,2 C 8,0 km/h (2 Bft) 95,83 %
28.06.2018 19:42 16,2 C 20,0 C 96 % 1012,9 hPa 0,0 l/m 4,5 km/h (1 Bft) W 266 0 min 0,000 mm 0,0 UV-I 32 W/m 15,6 C 16,2 C 6,4 km/h (2 Bft) 95,65 %
28.06.2018 19:43 16,2 C 20,0 C 96 % 1013,0 hPa 0,0 l/m 4,6 km/h (1 Bft) W 267 0 min 0,000 mm 0,0 UV-I 33 W/m 15,6 C 16,2 C 6,4 km/h (2 Bft) 100,00 %
28.06.2018 19:44 16,2 C 20,0 C 96 % 1012,9 hPa 0,0 l/m 3,7 km/h (1 Bft) W 261 0 min 0,000 mm 0,0 UV-I 32 W/m 15,6 C 16,2 C 6,4 km/h (2 Bft) 95,65 %
28.06.2018 19:45 16,2 C 20,0 C 96 % 1012,9 hPa 0,0 l/m 3,4 km/h (1 Bft) W 261 0 min 0,000 mm 0,0 UV-I 30 W/m 15,6 C 16,2 C 4,8 km/h (1 Bft) 100,00 %
28.06.2018 19:46 16,2 C 20,0 C 96 % 1013,0 hPa 0,0 l/m 3,1 km/h (1 Bft) W 275 0 min 0,000 mm 0,0 UV-I 28 W/m 15,6 C 16,2 C 4,8 km/h (1 Bft) 100,00 %
28.06.2018 19:47 16,2 C 20,0 C 96 % 1013,0 hPa 0,0 l/m 4,1 km/h (1 Bft) W 271 0 min 0,000 mm 0,0 UV-I 26 W/m 15,6 C 16,2 C 6,4 km/h (2 Bft) 93,33 %
28.06.2018 19:48 16,1 C 20,0 C 96 % 1013,0 hPa 0,0 l/m 3,8 km/h (1 Bft) W 271 0 min 0,000 mm 0,0 UV-I 25 W/m 15,5 C 16,1 C 4,8 km/h (1 Bft) 100,00 %
28.06.2018 19:49 16,1 C 20,0 C 96 % 1013,0 hPa 0,0 l/m 2,4 km/h (1 Bft) W 271 0 min 0,000 mm 0,0 UV-I 24 W/m 15,5 C 16,1 C 4,8 km/h (1 Bft) 100,00 %
28.06.2018 19:50 16,1 C 20,0 C 96 % 1013,0 hPa 0,0 l/m 3,5 km/h (1 Bft) W 261 0 min 0,000 mm 0,0 UV-I 23 W/m 15,5 C 16,1 C 4,8 km/h (1 Bft) 100,00 %
28.06.2018 19:51 16,1 C 20,0 C 96 % 1013,0 hPa 0,0 l/m 4,1 km/h (1 Bft) W 272 0 min 0,000 mm 0,0 UV-I 25 W/m 15,5 C 16,1 C 4,8 km/h (1 Bft) 100,00 %
28.06.2018 19:52 16,1 C 20,0 C 96 % 1013,0 hPa 0,0 l/m 2,9 km/h (1 Bft) W 272 0 min 0,000 mm 0,0 UV-I 25 W/m 15,5 C 16,1 C 3,2 km/h (1 Bft) 100,00 %
28.06.2018 19:53 16,1 C 20,0 C 96 % 1013,0 hPa 0,0 l/m 2,5 km/h (1 Bft) W 271 0 min 0,000 mm 0,0 UV-I 26 W/m 15,5 C 16,1 C 3,2 km/h (1 Bft) 95,65 %
28.06.2018 19:54 16,2 C 20,0 C 96 % 1013,0 hPa 0,0 l/m 3,4 km/h (1 Bft) W 271 0 min 0,000 mm 0,0 UV-I 27 W/m 15,6 C 16,2 C 4,8 km/h (1 Bft) 100,00 %
28.06.2018 19:55 16,2 C 20,0 C 96 % 1013,0 hPa 0,0 l/m 3,2 km/h (1 Bft) W 279 0 min 0,000 mm 0,0 UV-I 28 W/m 15,6 C 16,2 C 4,8 km/h (1 Bft) 100,00 %
28.06.2018 19:56 16,2 C 20,0 C 96 % 1013,0 hPa 0,0 l/m 3,5 km/h (1 Bft) W 275 0 min 0,000 mm 0,0 UV-I 28 W/m 15,6 C 16,2 C 4,8 km/h (1 Bft) 100,00 %
28.06.2018 19:57 16,2 C 20,0 C 96 % 1013,1 hPa 0,0 l/m 2,5 km/h (1 Bft) W 277 0 min 0,000 mm 0,0 UV-I 28 W/m 15,6 C 16,2 C 4,8 km/h (1 Bft) 100,00 %
28.06.2018 19:58 16,1 C 20,0 C 96 % 1013,0 hPa 0,0 l/m 2,9 km/h (1 Bft) W 275 0 min 0,000 mm 0,0 UV-I 28 W/m 15,5 C 16,1 C 6,4 km/h (2 Bft) 95,83 %
28.06.2018 19:59 16,1 C 20,0 C 96 % 1013,0 hPa 0,0 l/m 2,4 km/h (1 Bft) W 276 0 min 0,000 mm 0,0 UV-I 27 W/m 15,5 C 16,1 C 3,2 km/h (1 Bft) 100,00 %
28.06.2018 20:00 16,1 C 20,0 C 96 % 1013,1 hPa 0,0 l/m 3,3 km/h (1 Bft) W 279 0 min 0,000 mm 0,0 UV-I 24 W/m 15,5 C 16,1 C 4,8 km/h (1 Bft) 100,00 %
28.06.2018 20:02 16,0 C 20,0 C 96 % 1013,0 hPa 0,0 l/m 3,3 km/h (1 Bft) W 259 0 min 0,025 mm 0,0 UV-I 19 W/m 15,4 C 16,0 C 6,4 km/h (2 Bft) 100,00 %
28.06.2018 20:03 16,0 C 20,0 C 96 % 1013,0 hPa 0,0 l/m 0,4 km/h (0 Bft) W 259 0 min 0,000 mm 0,0 UV-I 16 W/m 15,4 C 16,0 C 1,6 km/h (1 Bft) 100,00 %
28.06.2018 20:04 16,1 C 20,0 C 96 % 1013,0 hPa 0,0 l/m 1,1 km/h (1 Bft) W 259 0 min 0,000 mm 0,0 UV-I 16 W/m 15,5 C 16,1 C 3,2 km/h (1 Bft) 100,00 %
28.06.2018 20:05 16,1 C 20,0 C 96 % 1013,0 hPa 0,0 l/m 3,6 km/h (1 Bft) W-SW 241 0 min 0,000 mm 0,0 UV-I 17 W/m 15,5 C 16,1 C 6,4 km/h (2 Bft) 100,00 %
28.06.2018 20:06 16,1 C 20,0 C 96 % 1013,0 hPa 0,0 l/m 2,7 km/h (1 Bft) W 269 0 min 0,000 mm 0,0 UV-I 18 W/m 15,5 C 16,1 C 4,8 km/h (1 Bft) 95,83 %
28.06.2018 20:08 16,1 C 20,0 C 96 % 1013,0 hPa 0,0 l/m 2,3 km/h (1 Bft) W 267 0 min 0,000 mm 0,0 UV-I 18 W/m 15,5 C 16,1 C 4,8 km/h (1 Bft) 100,00 %
28.06.2018 20:09 16,1 C 20,0 C 96 % 1013,0 hPa 0,0 l/m 3,8 km/h (1 Bft) W 266 0 min 0,000 mm 0,0 UV-I 19 W/m 15,5 C 16,1 C 6,4 km/h (2 Bft) 100,00 %
28.06.2018 20:10 16,1 C 20,0 C 96 % 1013,0 hPa 0,0 l/m 2,5 km/h (1 Bft) W 266 0 min 0,000 mm 0,0 UV-I 20 W/m 15,5 C 16,1 C 4,8 km/h (1 Bft) 95,65 %
28.06.2018 20:11 16,1 C 20,0 C 96 % 1013,0 hPa 0,0 l/m 2,1 km/h (1 Bft) NW 309 0 min 0,000 mm 0,0 UV-I 21 W/m 15,5 C 16,1 C 3,2 km/h (1 Bft) 100,00 %
28.06.2018 20:12 16,0 C 20,0 C 96 % 1013,0 hPa 0,0 l/m 3,6 km/h (1 Bft) W-SW 252 0 min 0,000 mm 0,0 UV-I 22 W/m 15,4 C 16,0 C 4,8 km/h (1 Bft) 96,15 %
28.06.2018 20:13 16,0 C 20,0 C 96 % 1013,0 hPa 0,0 l/m 2,7 km/h (1 Bft) W-SW 252 0 min 0,000 mm 0,0 UV-I 23 W/m 15,4 C 16,0 C 4,8 km/h (1 Bft) 100,00 %
28.06.2018 20:14 16,1 C 20,0 C 96 % 1013,0 hPa 0,0 l/m 3,7 km/h (1 Bft) W 277 0 min 0,000 mm 0,0 UV-I 25 W/m 15,5 C 16,1 C 6,4 km/h (2 Bft) 100,00 %
28.06.2018 20:15 16,0 C 20,0 C 96 % 1013,0 hPa 0,0 l/m 5,4 km/h (1 Bft) W-NW 286 0 min 0,000 mm 0,0 UV-I 26 W/m 15,4 C 16,0 C 9,7 km/h (2 Bft) 100,00 %
28.06.2018 20:16 16,0 C 20,0 C 96 % 1013,0 hPa 0,0 l/m 3,2 km/h (1 Bft) W 281 0 min 0,000 mm 0,0 UV-I 27 W/m 15,4 C 16,0 C 4,8 km/h (1 Bft) 100,00 %
28.06.2018 20:17 16,0 C 20,0 C 96 % 1013,0 hPa 0,0 l/m 4,4 km/h (1 Bft) W 279 0 min 0,000 mm 0,0 UV-I 28 W/m 15,4 C 16,0 C 6,4 km/h (2 Bft) 100,00 %
28.06.2018 20:18 16,0 C 20,0 C 96 % 1013,0 hPa 0,0 l/m 4,0 km/h (1 Bft) W 271 0 min 0,000 mm 0,0 UV-I 28 W/m 15,4 C 16,0 C 4,8 km/h (1 Bft) 100,00 %
28.06.2018 20:19 16,1 C 20,0 C 96 % 1013,0 hPa 0,0 l/m 3,8 km/h (1 Bft) W 259 0 min 0,000 mm 0,0 UV-I 26 W/m 15,5 C 16,1 C 9,7 km/h (2 Bft) 95,83 %
28.06.2018 20:20 16,1 C 20,0 C 96 % 1013,0 hPa 0,0 l/m 5,2 km/h (1 Bft) W 269 0 min 0,000 mm 0,0 UV-I 26 W/m 15,5 C 16,1 C 11,3 km/h (2 Bft) 100,00 %
28.06.2018 20:21 16,1 C 20,0 C 96 % 1013,0 hPa 0,0 l/m 3,1 km/h (1 Bft) W-NW 282 0 min 0,000 mm 0,0 UV-I 25 W/m 15,5 C 16,1 C 4,8 km/h (1 Bft) 100,00 %
28.06.2018 20:22 16,0 C 20,0 C 96 % 1013,0 hPa 0,0 l/m 3,3 km/h (1 Bft) W-NW 282 0 min 0,000 mm 0,0 UV-I 22 W/m 15,4 C 16,0 C 4,8 km/h (1 Bft) 100,00 %
28.06.2018 20:23 16,0 C 20,0 C 96 % 1013,0 hPa 0,0 l/m 3,8 km/h (1 Bft) W 275 0 min 0,000 mm 0,0 UV-I 20 W/m 15,4 C 16,0 C 6,4 km/h (2 Bft) 95,83 %
28.06.2018 20:24 16,0 C 20,0 C 96 % 1013,0 hPa 0,0 l/m 1,8 km/h (1 Bft) W 275 0 min 0,000 mm 0,0 UV-I 18 W/m 15,4 C 16,0 C 3,2 km/h (1 Bft) 95,65 %
28.06.2018 20:25 16,1 C 20,0 C 96 % 1013,0 hPa 0,0 l/m 2,1 km/h (1 Bft) W 275 0 min 0,000 mm 0,0 UV-I 16 W/m 15,5 C 16,1 C 3,2 km/h (1 Bft) 100,00 %
28.06.2018 20:26 16,0 C 20,0 C 96 % 1013,0 hPa 0,0 l/m 1,8 km/h (1 Bft) W 275 0 min 0,000 mm 0,0 UV-I 14 W/m 15,4 C 16,0 C 3,2 km/h (1 Bft) 100,00 %
28.06.2018 20:27 16,0 C 20,0 C 96 % 1013,0 hPa 0,0 l/m 1,9 km/h (1 Bft) W 277 0 min 0,000 mm 0,0 UV-I 14 W/m 15,4 C 16,0 C 4,8 km/h (1 Bft) 100,00 %
28.06.2018 20:28 16,0 C 20,0 C 96 % 1013,0 hPa 0,0 l/m 1,0 km/h (0 Bft) W 277 0 min 0,000 mm 0,0 UV-I 12 W/m 15,4 C 16,0 C 3,2 km/h (1 Bft) 100,00 %
28.06.2018 20:29 16,0 C 20,0 C 96 % 1013,0 hPa 0,0 l/m 1,1 km/h (1 Bft) W 277 0 min 0,000 mm 0,0 UV-I 12 W/m 15,4 C 16,0 C 4,8 km/h (1 Bft) 100,00 %
28.06.2018 20:30 16,0 C 20,0 C 96 % 1013,0 hPa 0,0 l/m 2,5 km/h (1 Bft) W 277 0 min 0,000 mm 0,0 UV-I 11 W/m 15,4 C 16,0 C 3,2 km/h (1 Bft) 100,00 %
28.06.2018 20:31 16,0 C 20,0 C 96 % 1013,0 hPa 0,0 l/m 2,5 km/h (1 Bft) W 277 0 min 0,000 mm 0,0 UV-I 11 W/m 15,4 C 16,0 C 4,8 km/h (1 Bft) 100,00 %
28.06.2018 20:32 16,0 C 20,0 C 96 % 1013,0 hPa 0,0 l/m 3,4 km/h (1 Bft) W-NW 293 0 min 0,000 mm 0,0 UV-I 11 W/m 15,4 C 16,0 C 4,8 km/h (1 Bft) 100,00 %
28.06.2018 20:33 16,0 C 20,0 C 96 % 1013,1 hPa 0,0 l/m 2,5 km/h (1 Bft) W-NW 293 0 min 0,000 mm 0,0 UV-I 11 W/m 15,4 C 16,0 C 4,8 km/h (1 Bft) 95,65 %
28.06.2018 20:34 16,0 C 20,0 C 96 % 1013,0 hPa 0,0 l/m 2,8 km/h (1 Bft) W-NW 293 0 min 0,000 mm 0,0 UV-I 11 W/m 15,4 C 16,0 C 3,2 km/h (1 Bft) 100,00 %
28.06.2018 20:35 16,0 C 20,0 C 96 % 1013,0 hPa 0,0 l/m 2,5 km/h (1 Bft) W-NW 293 0 min 0,000 mm 0,0 UV-I 11 W/m 15,4 C 16,0 C 4,8 km/h (1 Bft) 100,00 %
28.06.2018 20:36 16,0 C 20,0 C 96 % 1013,0 hPa 0,0 l/m 2,4 km/h (1 Bft) W-NW 293 0 min 0,000 mm 0,0 UV-I 11 W/m 15,4 C 16,0 C 4,8 km/h (1 Bft) 95,83 %
28.06.2018 20:37 15,9 C 20,0 C 96 % 1013,1 hPa 0,0 l/m 1,0 km/h (0 Bft) W-NW 292 0 min 0,000 mm 0,0 UV-I 11 W/m 15,3 C 15,9 C 3,2 km/h (1 Bft) 100,00 %
28.06.2018 20:38 15,9 C 20,0 C 96 % 1013,0 hPa 0,0 l/m 2,2 km/h (1 Bft) W 279 0 min 0,000 mm 0,0 UV-I 11 W/m 15,3 C 15,9 C 4,8 km/h (1 Bft) 100,00 %
28.06.2018 20:39 15,9 C 20,0 C 96 % 1013,0 hPa 0,0 l/m 1,9 km/h (1 Bft) W-NW 294 0 min 0,000 mm 0,0 UV-I 11 W/m 15,3 C 15,9 C 3,2 km/h (1 Bft) 100,00 %
28.06.2018 20:40 15,9 C 20,0 C 96 % 1013,0 hPa 0,0 l/m 0,4 km/h (0 Bft) W-NW 293 0 min 0,000 mm 0,0 UV-I 11 W/m 15,3 C 15,9 C 3,2 km/h (1 Bft) 95,65 %
28.06.2018 20:41 15,9 C 20,0 C 96 % 1013,0 hPa 0,0 l/m 3,2 km/h (1 Bft) W 273 0 min 0,000 mm 0,0 UV-I 11 W/m 15,3 C 15,9 C 6,4 km/h (2 Bft) 100,00 %
28.06.2018 20:42 15,9 C 20,0 C 96 % 1013,1 hPa 0,0 l/m 3,8 km/h (1 Bft) W 273 0 min 0,000 mm 0,0 UV-I 11 W/m 15,3 C 15,9 C 6,4 km/h (2 Bft) 100,00 %
28.06.2018 20:43 15,9 C 20,0 C 96 % 1013,0 hPa 0,0 l/m 2,3 km/h (1 Bft) W 273 0 min 0,000 mm 0,0 UV-I 9 W/m 15,3 C 15,9 C 4,8 km/h (1 Bft) 100,00 %
28.06.2018 20:44 15,9 C 20,0 C 96 % 1013,0 hPa 0,0 l/m 2,5 km/h (1 Bft) W 273 0 min 0,000 mm 0,0 UV-I 9 W/m 15,3 C 15,9 C 4,8 km/h (1 Bft) 100,00 %
28.06.2018 20:45 15,9 C 20,0 C 96 % 1013,1 hPa 0,0 l/m 1,0 km/h (0 Bft) W 273 0 min 0,000 mm 0,0 UV-I 9 W/m 15,3 C 15,9 C 3,2 km/h (1 Bft) 100,00 %
28.06.2018 20:46 15,9 C 20,0 C 96 % 1013,1 hPa 0,0 l/m 0,0 km/h (0 Bft) W 272 0 min 0,000 mm 0,0 UV-I 9 W/m 15,3 C 15,9 C 0,0 km/h (0 Bft) 100,00 %
28.06.2018 20:47 16,0 C 20,0 C 96 % 1013,0 hPa 0,0 l/m 1,6 km/h (1 Bft) W-NW 284 0 min 0,000 mm 0,0 UV-I 9 W/m 15,4 C 16,0 C 4,8 km/h (1 Bft) 100,00 %
28.06.2018 20:48 15,9 C 20,0 C 96 % 1013,1 hPa 0,0 l/m 1,8 km/h (1 Bft) W-NW 284 0 min 0,000 mm 0,0 UV-I 9 W/m 15,3 C 15,9 C 3,2 km/h (1 Bft) 100,00 %
28.06.2018 20:49 15,9 C 20,0 C 96 % 1013,1 hPa 0,0 l/m 0,5 km/h (0 Bft) W-NW 284 0 min 0,000 mm 0,0 UV-I 7 W/m 15,3 C 15,9 C 3,2 km/h (1 Bft) 100,00 %
28.06.2018 20:50 15,9 C 20,0 C 96 % 1013,1 hPa 0,0 l/m 3,2 km/h (1 Bft) W-SW 255 0 min 0,000 mm 0,0 UV-I 7 W/m 15,3 C 15,9 C 4,8 km/h (1 Bft) 95,65 %
28.06.2018 20:51 15,9 C 20,0 C 96 % 1013,1 hPa 0,0 l/m 4,7 km/h (1 Bft) W-SW 250 0 min 0,000 mm 0,0 UV-I 7 W/m 15,3 C 15,9 C 9,7 km/h (2 Bft) 100,00 %
28.06.2018 20:53 15,8 C 20,0 C 96 % 1013,1 hPa 0,0 l/m 4,2 km/h (1 Bft) W 261 0 min 0,000 mm 0,0 UV-I 6 W/m 15,2 C 15,8 C 6,4 km/h (2 Bft) 100,00 %
28.06.2018 20:54 15,9 C 20,0 C 96 % 1013,1 hPa 0,0 l/m 3,5 km/h (1 Bft) W 261 0 min 0,000 mm 0,0 UV-I 5 W/m 15,3 C 15,9 C 4,8 km/h (1 Bft) 100,00 %
28.06.2018 20:55 15,9 C 20,0 C 96 % 1013,1 hPa 0,0 l/m 3,6 km/h (1 Bft) SW 234 0 min 0,000 mm 0,0 UV-I 5 W/m 15,3 C 15,9 C 6,4 km/h (2 Bft) 100,00 %
28.06.2018 20:56 15,9 C 20,0 C 96 % 1013,1 hPa 0,2 l/m 4,0 km/h (1 Bft) W-SW 248 0 min 0,000 mm 0,0 UV-I 5 W/m 15,3 C 15,9 C 6,4 km/h (2 Bft) 95,65 %
28.06.2018 20:57 15,9 C 20,0 C 96 % 1013,1 hPa 0,0 l/m 5,0 km/h (1 Bft) W-SW 248 0 min 0,000 mm 0,0 UV-I 3 W/m 15,3 C 15,9 C 8,0 km/h (2 Bft) 100,00 %
28.06.2018 20:58 15,8 C 20,0 C 96 % 1013,1 hPa 0,0 l/m 4,5 km/h (1 Bft) SW 229 0 min 0,000 mm 0,0 UV-I 0 W/m 15,2 C 15,8 C 6,4 km/h (2 Bft) 91,30 %
28.06.2018 20:59 15,8 C 20,0 C 96 % 1013,1 hPa 0,0 l/m 5,0 km/h (1 Bft) SW 236 0 min 0,000 mm 0,0 UV-I 0 W/m 15,2 C 15,8 C 8,0 km/h (2 Bft) 100,00 %
28.06.2018 21:00 15,8 C 20,0 C 97 % 1013,1 hPa 0,0 l/m 5,3 km/h (1 Bft) SW 228 0 min 0,000 mm 0,0 UV-I 0 W/m 15,3 C 15,8 C 8,0 km/h (2 Bft) 91,30 %
28.06.2018 21:02 15,8 C 20,0 C 96 % 1013,1 hPa 0,0 l/m 4,4 km/h (1 Bft) SW 232 0 min 0,000 mm 0,0 UV-I 2 W/m 15,2 C 15,8 C 8,0 km/h (2 Bft) 97,87 %
28.06.2018 21:03 15,8 C 20,0 C 96 % 1013,1 hPa 0,0 l/m 4,0 km/h (1 Bft) W-SW 238 0 min 0,000 mm 0,0 UV-I 0 W/m 15,2 C 15,8 C 4,8 km/h (1 Bft) 100,00 %
28.06.2018 21:04 15,8 C 20,0 C 96 % 1013,1 hPa 0,0 l/m 3,3 km/h (1 Bft) W-SW 250 0 min 0,000 mm 0,0 UV-I 0 W/m 15,2 C 15,8 C 4,8 km/h (1 Bft) 93,33 %
28.06.2018 21:05 15,8 C 20,0 C 96 % 1013,2 hPa 0,0 l/m 4,0 km/h (1 Bft) W 260 0 min 0,000 mm 0,0 UV-I 0 W/m 15,2 C 15,8 C 6,4 km/h (2 Bft) 91,30 %
28.06.2018 21:06 15,8 C 20,0 C 97 % 1013,2 hPa 0,0 l/m 0,9 km/h (0 Bft) W 260 0 min 0,000 mm 0,0 UV-I 0 W/m 15,3 C 15,8 C 3,2 km/h (1 Bft) 95,83 %
28.06.2018 21:07 15,8 C 20,0 C 97 % 1013,2 hPa 0,0 l/m 2,0 km/h (1 Bft) W 260 0 min 0,000 mm 0,0 UV-I 0 W/m 15,3 C 15,8 C 3,2 km/h (1 Bft) 100,00 %
28.06.2018 21:08 15,8 C 20,0 C 97 % 1013,2 hPa 0,0 l/m 3,1 km/h (1 Bft) W 260 0 min 0,000 mm 0,0 UV-I 0 W/m 15,3 C 15,8 C 4,8 km/h (1 Bft) 95,83 %
28.06.2018 21:09 15,8 C 20,0 C 97 % 1013,2 hPa 0,0 l/m 2,1 km/h (1 Bft) W 260 0 min 0,000 mm 0,0 UV-I 0 W/m 15,3 C 15,8 C 3,2 km/h (1 Bft) 95,65 %
28.06.2018 21:10 15,8 C 20,0 C 97 % 1013,2 hPa 0,0 l/m 1,8 km/h (1 Bft) W 260 0 min 0,000 mm 0,0 UV-I 0 W/m 15,3 C 15,8 C 3,2 km/h (1 Bft) 100,00 %
28.06.2018 21:11 15,8 C 20,0 C 97 % 1013,2 hPa 0,0 l/m 2,5 km/h (1 Bft) W 260 0 min 0,000 mm 0,0 UV-I 0 W/m 15,3 C 15,8 C 3,2 km/h (1 Bft) 91,30 %
28.06.2018 21:12 15,8 C 20,0 C 97 % 1013,2 hPa 0,0 l/m 2,7 km/h (1 Bft) W 260 0 min 0,000 mm 0,0 UV-I 0 W/m 15,3 C 15,8 C 4,8 km/h (1 Bft) 95,83 %
28.06.2018 21:13 15,8 C 20,0 C 97 % 1013,2 hPa 0,0 l/m 3,0 km/h (1 Bft) W 260 0 min 0,000 mm 0,0 UV-I 0 W/m 15,3 C 15,8 C 4,8 km/h (1 Bft) 95,65 %
28.06.2018 21:14 15,8 C 20,0 C 97 % 1013,2 hPa 0,0 l/m 2,5 km/h (1 Bft) W 260 0 min 0,000 mm 0,0 UV-I 0 W/m 15,3 C 15,8 C 3,2 km/h (1 Bft) 95,83 %
28.06.2018 21:15 15,8 C 20,0 C 97 % 1013,2 hPa 0,0 l/m 2,1 km/h (1 Bft) W 260 0 min 0,000 mm 0,0 UV-I 0 W/m 15,3 C 15,8 C 3,2 km/h (1 Bft) 91,30 %
28.06.2018 21:16 15,8 C 20,0 C 97 % 1013,2 hPa 0,0 l/m 3,2 km/h (1 Bft) W 260 0 min 0,000 mm 0,0 UV-I 0 W/m 15,3 C 15,8 C 3,2 km/h (1 Bft) 95,83 %
28.06.2018 21:17 15,8 C 20,0 C 97 % 1013,2 hPa 0,0 l/m 3,2 km/h (1 Bft) W 260 0 min 0,000 mm 0,0 UV-I 0 W/m 15,3 C 15,8 C 4,8 km/h (1 Bft) 95,65 %
28.06.2018 21:18 15,8 C 20,0 C 97 % 1013,3 hPa 0,0 l/m 3,1 km/h (1 Bft) W 260 0 min 0,000 mm 0,0 UV-I 0 W/m 15,3 C 15,8 C 4,8 km/h (1 Bft) 95,83 %
28.06.2018 21:19 15,8 C 20,0 C 97 % 1013,3 hPa 0,0 l/m 3,1 km/h (1 Bft) W 260 0 min 0,000 mm 0,0 UV-I 0 W/m 15,3 C 15,8 C 3,2 km/h (1 Bft) 88,46 %
28.06.2018 21:20 15,8 C 20,0 C 97 % 1013,3 hPa 0,0 l/m 4,5 km/h (1 Bft) W 263 0 min 0,000 mm 0,0 UV-I 0 W/m 15,3 C 15,8 C 6,4 km/h (2 Bft) 95,83 %
28.06.2018 21:21 15,8 C 20,0 C 97 % 1013,3 hPa 0,0 l/m 4,2 km/h (1 Bft) W 263 0 min 0,000 mm 0,0 UV-I 0 W/m 15,3 C 15,8 C 4,8 km/h (1 Bft) 95,65 %
28.06.2018 21:22 15,8 C 20,0 C 97 % 1013,3 hPa 0,0 l/m 2,5 km/h (1 Bft) W 263 0 min 0,000 mm 0,0 UV-I 0 W/m 15,3 C 15,8 C 3,2 km/h (1 Bft) 95,83 %
28.06.2018 21:23 15,8 C 20,0 C 97 % 1013,3 hPa 0,0 l/m 2,1 km/h (1 Bft) W 263 0 min 0,000 mm 0,0 UV-I 0 W/m 15,3 C 15,8 C 3,2 km/h (1 Bft) 95,83 %
28.06.2018 21:24 15,8 C 20,0 C 97 % 1013,3 hPa 0,0 l/m 3,2 km/h (1 Bft) W-SW 254 0 min 0,000 mm 0,0 UV-I 0 W/m 15,3 C 15,8 C 4,8 km/h (1 Bft) 91,30 %
28.06.2018 21:25 15,8 C 20,0 C 97 % 1013,3 hPa 0,0 l/m 3,4 km/h (1 Bft) W-SW 245 0 min 0,000 mm 0,0 UV-I 0 W/m 15,3 C 15,8 C 6,4 km/h (2 Bft) 95,83 %
28.06.2018 21:26 15,8 C 20,0 C 97 % 1013,4 hPa 0,0 l/m 1,7 km/h (1 Bft) W-SW 245 0 min 0,000 mm 0,0 UV-I 0 W/m 15,3 C 15,8 C 3,2 km/h (1 Bft) 86,96 %
28.06.2018 21:27 15,8 C 20,0 C 97 % 1013,3 hPa 0,0 l/m 1,2 km/h (1 Bft) W-SW 245 0 min 0,000 mm 0,0 UV-I 0 W/m 15,3 C 15,8 C 1,6 km/h (1 Bft) 100,00 %
28.06.2018 21:28 15,8 C 20,0 C 97 % 1013,4 hPa 0,0 l/m 0,6 km/h (0 Bft) W-SW 244 0 min 0,000 mm 0,0 UV-I 0 W/m 15,3 C 15,8 C 1,6 km/h (1 Bft) 92,31 %
28.06.2018 21:29 15,8 C 20,0 C 97 % 1013,4 hPa 0,0 l/m 3,4 km/h (1 Bft) W-SW 246 0 min 0,000 mm 0,0 UV-I 0 W/m 15,3 C 15,8 C 4,8 km/h (1 Bft) 95,83 %
28.06.2018 21:30 15,8 C 20,0 C 97 % 1013,4 hPa 0,0 l/m 2,3 km/h (1 Bft) W-SW 246 0 min 0,000 mm 0,0 UV-I 0 W/m 15,3 C 15,8 C 3,2 km/h (1 Bft) 95,65 %
28.06.2018 21:31 15,8 C 20,0 C 97 % 1013,4 hPa 0,0 l/m 2,0 km/h (1 Bft) W-SW 246 0 min 0,000 mm 0,0 UV-I 0 W/m 15,3 C 15,8 C 3,2 km/h (1 Bft) 91,67 %
28.06.2018 21:32 15,8 C 20,0 C 97 % 1013,3 hPa 0,0 l/m 2,0 km/h (1 Bft) W-SW 246 0 min 0,000 mm 0,0 UV-I 0 W/m 15,3 C 15,8 C 3,2 km/h (1 Bft) 91,30 %
28.06.2018 21:33 15,8 C 20,0 C 97 % 1013,4 hPa 0,0 l/m 3,6 km/h (1 Bft) W-SW 248 0 min 0,000 mm 0,0 UV-I 0 W/m 15,3 C 15,8 C 4,8 km/h (1 Bft) 91,67 %
28.06.2018 21:34 15,8 C 20,0 C 97 % 1013,4 hPa 0,0 l/m 2,8 km/h (1 Bft) W-SW 247 0 min 0,000 mm 0,0 UV-I 0 W/m 15,3 C 15,8 C 4,8 km/h (1 Bft) 100,00 %
28.06.2018 21:35 15,7 C 20,0 C 97 % 1013,4 hPa 0,0 l/m 4,1 km/h (1 Bft) W-SW 250 0 min 0,000 mm 0,0 UV-I 0 W/m 15,2 C 15,7 C 4,8 km/h (1 Bft) 91,67 %
28.06.2018 21:36 15,8 C 20,0 C 97 % 1013,4 hPa 0,0 l/m 4,7 km/h (1 Bft) W-SW 256 0 min 0,000 mm 0,0 UV-I 0 W/m 15,3 C 15,8 C 8,0 km/h (2 Bft) 100,00 %
28.06.2018 21:37 15,7 C 20,0 C 97 % 1013,4 hPa 0,0 l/m 5,1 km/h (1 Bft) W-SW 256 0 min 0,000 mm 0,0 UV-I 0 W/m 15,2 C 15,7 C 6,4 km/h (2 Bft) 91,67 %
28.06.2018 21:38 15,7 C 20,0 C 97 % 1013,4 hPa 0,0 l/m 5,0 km/h (1 Bft) W 259 0 min 0,000 mm 0,0 UV-I 0 W/m 15,2 C 15,7 C 6,4 km/h (2 Bft) 95,65 %
28.06.2018 21:39 15,7 C 20,0 C 97 % 1013,4 hPa 0,0 l/m 5,6 km/h (1 Bft) W-SW 252 0 min 0,000 mm 0,0 UV-I 0 W/m 15,2 C 15,7 C 9,7 km/h (2 Bft) 95,83 %
28.06.2018 21:40 15,7 C 20,0 C 97 % 1013,4 hPa 0,0 l/m 4,5 km/h (1 Bft) W-SW 247 0 min 0,000 mm 0,0 UV-I 0 W/m 15,2 C 15,7 C 6,4 km/h (2 Bft) 95,65 %
28.06.2018 21:41 15,7 C 20,0 C 97 % 1013,4 hPa 0,0 l/m 4,8 km/h (1 Bft) W-SW 248 0 min 0,000 mm 0,0 UV-I 0 W/m 15,2 C 15,7 C 6,4 km/h (2 Bft) 93,33 %
28.06.2018 21:43 15,7 C 20,0 C 97 % 1013,5 hPa 0,0 l/m 3,6 km/h (1 Bft) W 259 0 min 0,000 mm 0,0 UV-I 0 W/m 15,2 C 15,7 C 6,4 km/h (2 Bft) 96,61 %
28.06.2018 21:44 15,7 C 20,0 C 97 % 1013,5 hPa 0,0 l/m 3,0 km/h (1 Bft) W 259 0 min 0,000 mm 0,0 UV-I 0 W/m 15,2 C 15,7 C 4,8 km/h (1 Bft) 91,67 %
28.06.2018 21:45 15,7 C 20,0 C 97 % 1013,5 hPa 0,0 l/m 4,6 km/h (1 Bft) W 260 0 min 0,000 mm 0,0 UV-I 0 W/m 15,2 C 15,7 C 6,4 km/h (2 Bft) 95,65 %
28.06.2018 21:46 15,7 C 20,0 C 97 % 1013,5 hPa 0,0 l/m 4,6 km/h (1 Bft) W-SW 250 0 min 0,000 mm 0,0 UV-I 0 W/m 15,2 C 15,7 C 6,4 km/h (2 Bft) 96,30 %
28.06.2018 21:47 15,8 C 20,0 C 97 % 1013,5 hPa 0,0 l/m 4,6 km/h (1 Bft) W-SW 257 0 min 0,000 mm 0,0 UV-I 0 W/m 15,3 C 15,8 C 6,4 km/h (2 Bft) 100,00 %
28.06.2018 21:48 15,7 C 20,0 C 97 % 1013,5 hPa 0,0 l/m 3,7 km/h (1 Bft) W-SW 249 0 min 0,000 mm 0,0 UV-I 0 W/m 15,2 C 15,7 C 6,4 km/h (2 Bft) 95,83 %
28.06.2018 21:49 15,7 C 20,0 C 97 % 1013,5 hPa 0,0 l/m 6,0 km/h (2 Bft) W 269 0 min 0,000 mm 0,0 UV-I 0 W/m 15,2 C 15,7 C 9,7 km/h (2 Bft) 96,15 %
28.06.2018 21:50 15,7 C 20,0 C 97 % 1013,5 hPa 0,0 l/m 4,6 km/h (1 Bft) W-SW 257 0 min 0,000 mm 0,0 UV-I 0 W/m 15,2 C 15,7 C 6,4 km/h (2 Bft) 95,83 %
28.06.2018 21:51 15,7 C 20,0 C 97 % 1013,5 hPa 0,0 l/m 6,0 km/h (2 Bft) W-SW 240 0 min 0,000 mm 0,0 UV-I 0 W/m 15,2 C 15,7 C 9,7 km/h (2 Bft) 95,65 %
28.06.2018 21:52 15,7 C 20,0 C 97 % 1013,5 hPa 0,0 l/m 6,5 km/h (2 Bft) W 267 0 min 0,000 mm 0,0 UV-I 0 W/m 15,2 C 15,7 C 9,7 km/h (2 Bft) 100,00 %
28.06.2018 21:53 15,7 C 20,0 C 97 % 1013,5 hPa 0,0 l/m 5,6 km/h (1 Bft) W 272 0 min 0,000 mm 0,0 UV-I 0 W/m 15,2 C 15,7 C 9,7 km/h (2 Bft) 95,65 %
28.06.2018 21:54 15,7 C 20,0 C 97 % 1013,4 hPa 0,0 l/m 6,7 km/h (2 Bft) W 275 0 min 0,000 mm 0,0 UV-I 0 W/m 15,2 C 15,5 C 9,7 km/h (2 Bft) 100,00 %
28.06.2018 21:55 15,7 C 20,0 C 97 % 1013,5 hPa 0,0 l/m 4,7 km/h (1 Bft) W 269 0 min 0,000 mm 0,0 UV-I 0 W/m 15,2 C 15,7 C 6,4 km/h (2 Bft) 91,30 %
28.06.2018 21:56 15,7 C 20,0 C 97 % 1013,4 hPa 0,0 l/m 4,6 km/h (1 Bft) W 271 0 min 0,000 mm 0,0 UV-I 0 W/m 15,2 C 15,7 C 6,4 km/h (2 Bft) 100,00 %
28.06.2018 21:57 15,7 C 20,0 C 97 % 1013,4 hPa 0,0 l/m 3,4 km/h (1 Bft) W 271 0 min 0,000 mm 0,0 UV-I 0 W/m 15,2 C 15,7 C 4,8 km/h (1 Bft) 95,65 %
28.06.2018 21:58 15,7 C 20,0 C 97 % 1013,4 hPa 0,0 l/m 3,8 km/h (1 Bft) W 269 0 min 0,000 mm 0,0 UV-I 0 W/m 15,2 C 15,7 C 6,4 km/h (2 Bft) 100,00 %
28.06.2018 21:59 15,7 C 20,0 C 97 % 1013,4 hPa 0,0 l/m 5,2 km/h (1 Bft) W 265 0 min 0,000 mm 0,0 UV-I 0 W/m 15,2 C 15,7 C 6,4 km/h (2 Bft) 95,65 %
28.06.2018 22:00 15,7 C 20,0 C 97 % 1013,4 hPa 0,0 l/m 6,8 km/h (2 Bft) W 265 0 min 0,000 mm 0,0 UV-I 0 W/m 15,2 C 15,5 C 8,0 km/h (2 Bft) 95,83 %
28.06.2018 22:02 15,6 C 20,0 C 97 % 1013,4 hPa 0,0 l/m 5,3 km/h (1 Bft) W-SW 257 0 min 0,000 mm 0,0 UV-I 0 W/m 15,1 C 15,6 C 8,0 km/h (2 Bft) 97,37 %
28.06.2018 22:03 15,7 C 20,0 C 97 % 1013,5 hPa 0,0 l/m 5,0 km/h (1 Bft) W 263 0 min 0,000 mm 0,0 UV-I 0 W/m 15,2 C 15,7 C 6,4 km/h (2 Bft) 95,83 %
28.06.2018 22:04 15,6 C 20,0 C 97 % 1013,5 hPa 0,0 l/m 4,7 km/h (1 Bft) W 261 0 min 0,000 mm 0,0 UV-I 0 W/m 15,1 C 15,6 C 11,3 km/h (2 Bft) 100,00 %
28.06.2018 22:05 15,7 C 20,0 C 97 % 1013,5 hPa 0,0 l/m 4,1 km/h (1 Bft) W 272 0 min 0,000 mm 0,0 UV-I 0 W/m 15,2 C 15,7 C 6,4 km/h (2 Bft) 95,83 %
28.06.2018 22:06 15,7 C 20,0 C 97 % 1013,5 hPa 0,0 l/m 3,1 km/h (1 Bft) W-SW 246 0 min 0,000 mm 0,0 UV-I 0 W/m 15,2 C 15,7 C 6,4 km/h (2 Bft) 100,00 %
28.06.2018 22:07 15,6 C 20,0 C 97 % 1013,6 hPa 0,0 l/m 5,6 km/h (1 Bft) W 264 0 min 0,000 mm 0,0 UV-I 0 W/m 15,1 C 15,6 C 9,7 km/h (2 Bft) 100,00 %
28.06.2018 22:08 15,7 C 20,0 C 97 % 1013,6 hPa 0,0 l/m 5,2 km/h (1 Bft) W-SW 255 0 min 0,000 mm 0,0 UV-I 0 W/m 15,2 C 15,7 C 8,0 km/h (2 Bft) 95,65 %
28.06.2018 22:09 15,7 C 20,0 C 97 % 1013,6 hPa 0,0 l/m 5,3 km/h (1 Bft) W-SW 253 0 min 0,000 mm 0,0 UV-I 0 W/m 15,2 C 15,7 C 6,4 km/h (2 Bft) 100,00 %
28.06.2018 22:10 15,6 C 20,0 C 97 % 1013,5 hPa 0,0 l/m 7,2 km/h (2 Bft) W-SW 254 0 min 0,000 mm 0,0 UV-I 0 W/m 15,1 C 15,2 C 11,3 km/h (2 Bft) 100,00 %
28.06.2018 22:11 15,7 C 20,0 C 97 % 1013,5 hPa 0,0 l/m 5,5 km/h (1 Bft) W 261 0 min 0,000 mm 0,0 UV-I 0 W/m 15,2 C 15,7 C 6,4 km/h (2 Bft) 100,00 %
28.06.2018 22:13 15,7 C 20,0 C 97 % 1013,5 hPa 0,0 l/m 5,9 km/h (2 Bft) W 261 0 min 0,000 mm 0,0 UV-I 0 W/m 15,2 C 15,7 C 11,3 km/h (2 Bft) 100,00 %
28.06.2018 22:14 15,7 C 20,0 C 97 % 1013,5 hPa 0,0 l/m 5,3 km/h (1 Bft) W-SW 255 0 min 0,000 mm 0,0 UV-I 0 W/m 15,2 C 15,7 C 8,0 km/h (2 Bft) 100,00 %
28.06.2018 22:15 15,7 C 20,0 C 97 % 1013,5 hPa 0,0 l/m 6,5 km/h (2 Bft) W-SW 254 0 min 0,000 mm 0,0 UV-I 0 W/m 15,2 C 15,7 C 9,7 km/h (2 Bft) 100,00 %
28.06.2018 22:16 15,6 C 20,0 C 97 % 1013,5 hPa 0,0 l/m 6,4 km/h (2 Bft) W 274 0 min 0,000 mm 0,0 UV-I 0 W/m 15,1 C 15,6 C 9,7 km/h (2 Bft) 100,00 %
28.06.2018 22:17 15,6 C 20,0 C 97 % 1013,5 hPa 0,0 l/m 7,4 km/h (2 Bft) W 264 0 min 0,000 mm 0,0 UV-I 0 W/m 15,1 C 15,1 C 11,3 km/h (2 Bft) 95,83 %
28.06.2018 22:18 15,6 C 20,0 C 97 % 1013,5 hPa 0,0 l/m 6,3 km/h (2 Bft) W-SW 256 0 min 0,000 mm 0,0 UV-I 0 W/m 15,1 C 15,6 C 9,7 km/h (2 Bft) 100,00 %
28.06.2018 22:19 15,6 C 20,0 C 97 % 1013,6 hPa 0,0 l/m 6,9 km/h (2 Bft) W-SW 254 0 min 0,000 mm 0,0 UV-I 0 W/m 15,1 C 15,3 C 11,3 km/h (2 Bft) 100,00 %
28.06.2018 22:20 15,6 C 20,0 C 97 % 1013,6 hPa 0,0 l/m 5,3 km/h (1 Bft) W 268 0 min 0,000 mm 0,0 UV-I 0 W/m 15,1 C 15,6 C 6,4 km/h (2 Bft) 95,65 %
28.06.2018 22:21 15,6 C 20,0 C 97 % 1013,6 hPa 0,0 l/m 3,6 km/h (1 Bft) W 266 0 min 0,000 mm 0,0 UV-I 0 W/m 15,1 C 15,6 C 6,4 km/h (2 Bft) 100,00 %
28.06.2018 22:22 15,6 C 20,0 C 97 % 1013,6 hPa 0,0 l/m 5,3 km/h (1 Bft) W 270 0 min 0,000 mm 0,0 UV-I 0 W/m 15,1 C 15,6 C 9,7 km/h (2 Bft) 100,00 %
28.06.2018 22:23 15,6 C 20,0 C 97 % 1013,6 hPa 0,0 l/m 3,9 km/h (1 Bft) W 275 0 min 0,000 mm 0,0 UV-I 0 W/m 15,1 C 15,6 C 9,7 km/h (2 Bft) 90,91 %
28.06.2018 22:24 15,6 C 20,0 C 97 % 1013,6 hPa 0,0 l/m 5,6 km/h (1 Bft) W-SW 247 0 min 0,000 mm 0,0 UV-I 0 W/m 15,1 C 15,6 C 8,0 km/h (2 Bft) 100,00 %
28.06.2018 22:25 15,6 C 20,0 C 97 % 1013,6 hPa 0,0 l/m 8,3 km/h (2 Bft) W-SW 258 0 min 0,000 mm 0,0 UV-I 0 W/m 15,1 C 14,6 C 12,9 km/h (3 Bft) 95,65 %
28.06.2018 22:26 15,6 C 20,0 C 97 % 1013,6 hPa 0,0 l/m 7,4 km/h (2 Bft) W-SW 246 0 min 0,000 mm 0,0 UV-I 0 W/m 15,1 C 15,1 C 11,3 km/h (2 Bft) 100,00 %
28.06.2018 22:27 15,6 C 20,0 C 97 % 1013,7 hPa 0,0 l/m 6,9 km/h (2 Bft) W 275 0 min 0,000 mm 0,0 UV-I 0 W/m 15,1 C 15,3 C 8,0 km/h (2 Bft) 100,00 %
28.06.2018 22:28 15,6 C 20,0 C 97 % 1013,6 hPa 0,0 l/m 4,8 km/h (1 Bft) W-SW 254 0 min 0,000 mm 0,0 UV-I 0 W/m 15,1 C 15,6 C 6,4 km/h (2 Bft) 100,00 %
28.06.2018 22:29 15,6 C 20,0 C 97 % 1013,7 hPa 0,0 l/m 6,4 km/h (2 Bft) W 261 0 min 0,000 mm 0,0 UV-I 0 W/m 15,1 C 15,6 C 11,3 km/h (2 Bft) 100,00 %
28.06.2018 22:30 15,6 C 20,0 C 97 % 1013,7 hPa 0,0 l/m 8,4 km/h (2 Bft) W-SW 250 0 min 0,000 mm 0,0 UV-I 0 W/m 15,1 C 14,5 C 12,9 km/h (3 Bft) 100,00 %
28.06.2018 22:31 15,6 C 20,0 C 97 % 1013,7 hPa 0,0 l/m 7,5 km/h (2 Bft) W 259 0 min 0,000 mm 0,0 UV-I 0 W/m 15,1 C 15,0 C 11,3 km/h (2 Bft) 100,00 %
28.06.2018 22:33 15,6 C 20,0 C 97 % 1013,7 hPa 0,0 l/m 8,5 km/h (2 Bft) W 269 0 min 0,000 mm 0,0 UV-I 0 W/m 15,1 C 14,5 C 14,5 km/h (3 Bft) 100,00 %
28.06.2018 22:34 15,6 C 20,0 C 97 % 1013,7 hPa 0,0 l/m 6,8 km/h (2 Bft) W-SW 254 0 min 0,000 mm 0,0 UV-I 0 W/m 15,1 C 15,4 C 11,3 km/h (2 Bft) 100,00 %
28.06.2018 22:35 15,6 C 20,0 C 97 % 1013,7 hPa 0,0 l/m 7,4 km/h (2 Bft) W 279 0 min 0,000 mm 0,0 UV-I 0 W/m 15,1 C 15,1 C 11,3 km/h (2 Bft) 100,00 %
28.06.2018 22:36 15,6 C 20,0 C 97 % 1013,7 hPa 0,0 l/m 5,8 km/h (2 Bft) W-SW 252 0 min 0,000 mm 0,0 UV-I 0 W/m 15,1 C 15,6 C 9,7 km/h (2 Bft) 100,00 %
28.06.2018 22:37 15,6 C 20,0 C 97 % 1013,8 hPa 0,0 l/m 6,0 km/h (2 Bft) W-NW 288 0 min 0,000 mm 0,0 UV-I 0 W/m 15,1 C 15,6 C 8,0 km/h (2 Bft) 96,15 %
28.06.2018 22:38 15,6 C 20,0 C 97 % 1013,8 hPa 0,0 l/m 8,6 km/h (2 Bft) W-SW 257 0 min 0,000 mm 0,0 UV-I 0 W/m 15,1 C 14,4 C 11,3 km/h (2 Bft) 100,00 %
28.06.2018 22:39 15,6 C 20,0 C 97 % 1013,8 hPa 0,0 l/m 7,2 km/h (2 Bft) W-SW 257 0 min 0,000 mm 0,0 UV-I 0 W/m 15,1 C 15,2 C 12,9 km/h (3 Bft) 100,00 %
28.06.2018 22:40 15,6 C 20,0 C 97 % 1013,8 hPa 0,0 l/m 6,5 km/h (2 Bft) W 263 0 min 0,000 mm 0,0 UV-I 0 W/m 15,1 C 15,6 C 11,3 km/h (2 Bft) 100,00 %
28.06.2018 22:41 15,6 C 20,0 C 97 % 1013,8 hPa 0,0 l/m 5,2 km/h (1 Bft) W-SW 257 0 min 0,000 mm 0,0 UV-I 0 W/m 15,1 C 15,6 C 6,4 km/h (2 Bft) 100,00 %
28.06.2018 22:43 15,6 C 20,0 C 97 % 1013,9 hPa 0,0 l/m 5,0 km/h (1 Bft) W 263 0 min 0,000 mm 0,0 UV-I 0 W/m 15,1 C 15,6 C 8,0 km/h (2 Bft) 97,44 %
28.06.2018 22:44 15,6 C 20,0 C 97 % 1013,9 hPa 0,0 l/m 4,3 km/h (1 Bft) W 262 0 min 0,000 mm 0,0 UV-I 0 W/m 15,1 C 15,6 C 6,4 km/h (2 Bft) 96,15 %
28.06.2018 22:45 15,6 C 20,0 C 97 % 1013,9 hPa 0,0 l/m 5,1 km/h (1 Bft) W-SW 251 0 min 0,000 mm 0,0 UV-I 0 W/m 15,1 C 15,6 C 6,4 km/h (2 Bft) 100,00 %
28.06.2018 22:46 15,6 C 20,0 C 97 % 1013,9 hPa 0,0 l/m 4,4 km/h (1 Bft) W-SW 254 0 min 0,000 mm 0,0 UV-I 0 W/m 15,1 C 15,6 C 6,4 km/h (2 Bft) 95,65 %
28.06.2018 22:47 15,6 C 20,0 C 97 % 1013,9 hPa 0,0 l/m 6,1 km/h (2 Bft) W 267 0 min 0,000 mm 0,0 UV-I 0 W/m 15,1 C 15,6 C 8,0 km/h (2 Bft) 100,00 %
28.06.2018 22:48 15,6 C 20,0 C 97 % 1013,9 hPa 0,0 l/m 4,0 km/h (1 Bft) W 263 0 min 0,000 mm 0,0 UV-I 0 W/m 15,1 C 15,6 C 4,8 km/h (1 Bft) 95,65 %
28.06.2018 22:49 15,6 C 20,0 C 97 % 1013,9 hPa 0,0 l/m 1,4 km/h (1 Bft) W 263 0 min 0,000 mm 0,0 UV-I 0 W/m 15,1 C 15,6 C 3,2 km/h (1 Bft) 100,00 %
28.06.2018 22:50 15,6 C 20,0 C 97 % 1013,9 hPa 0,0 l/m 5,2 km/h (1 Bft) W 268 0 min 0,000 mm 0,0 UV-I 0 W/m 15,1 C 15,6 C 8,0 km/h (2 Bft) 95,65 %
28.06.2018 22:51 15,6 C 20,0 C 97 % 1013,9 hPa 0,0 l/m 5,7 km/h (1 Bft) W 262 0 min 0,000 mm 0,0 UV-I 0 W/m 15,1 C 15,6 C 9,7 km/h (2 Bft) 100,00 %
28.06.2018 22:52 15,6 C 20,0 C 97 % 1013,9 hPa 0,0 l/m 7,3 km/h (2 Bft) W-SW 256 0 min 0,000 mm 0,0 UV-I 0 W/m 15,1 C 15,1 C 11,3 km/h (2 Bft) 95,65 %
28.06.2018 22:53 15,6 C 20,0 C 97 % 1013,9 hPa 0,0 l/m 5,6 km/h (1 Bft) W-NW 293 0 min 0,000 mm 0,0 UV-I 0 W/m 15,1 C 15,6 C 8,0 km/h (2 Bft) 100,00 %
28.06.2018 22:54 15,6 C 20,0 C 97 % 1013,9 hPa 0,0 l/m 4,5 km/h (1 Bft) W-SW 244 0 min 0,000 mm 0,0 UV-I 0 W/m 15,1 C 15,6 C 6,4 km/h (2 Bft) 100,00 %
28.06.2018 22:55 15,6 C 20,0 C 97 % 1013,9 hPa 0,0 l/m 4,9 km/h (1 Bft) W-SW 258 0 min 0,000 mm 0,0 UV-I 0 W/m 15,1 C 15,6 C 6,4 km/h (2 Bft) 100,00 %
28.06.2018 22:56 15,6 C 20,0 C 97 % 1013,9 hPa 0,0 l/m 4,2 km/h (1 Bft) W 264 0 min 0,000 mm 0,0 UV-I 0 W/m 15,1 C 15,6 C 6,4 km/h (2 Bft) 100,00 %
28.06.2018 22:57 15,6 C 20,0 C 97 % 1013,9 hPa 0,0 l/m 4,6 km/h (1 Bft) W 265 0 min 0,000 mm 0,0 UV-I 0 W/m 15,1 C 15,6 C 9,7 km/h (2 Bft) 100,00 %
28.06.2018 22:58 15,6 C 20,0 C 97 % 1014,0 hPa 0,0 l/m 4,6 km/h (1 Bft) W 271 0 min 0,000 mm 0,0 UV-I 0 W/m 15,1 C 15,6 C 6,4 km/h (2 Bft) 100,00 %
28.06.2018 22:59 15,6 C 20,0 C 97 % 1013,9 hPa 0,0 l/m 8,4 km/h (2 Bft) W-NW 283 0 min 0,000 mm 0,0 UV-I 0 W/m 15,1 C 14,5 C 11,3 km/h (2 Bft) 100,00 %
28.06.2018 23:00 15,6 C 20,0 C 97 % 1013,9 hPa 0,0 l/m 4,8 km/h (1 Bft) W-SW 246 0 min 0,000 mm 0,0 UV-I 0 W/m 15,1 C 15,6 C 6,4 km/h (2 Bft) 100,00 %
28.06.2018 23:02 15,6 C 20,0 C 97 % 1013,9 hPa 0,0 l/m 3,9 km/h (1 Bft) W 276 0 min 0,000 mm 0,0 UV-I 0 W/m 15,1 C 15,6 C 6,4 km/h (2 Bft) 97,44 %
28.06.2018 23:03 15,6 C 20,0 C 97 % 1013,9 hPa 0,0 l/m 4,0 km/h (1 Bft) W-SW 247 0 min 0,000 mm 0,0 UV-I 0 W/m 15,1 C 15,6 C 6,4 km/h (2 Bft) 100,00 %
28.06.2018 23:04 15,6 C 20,0 C 97 % 1013,9 hPa 0,0 l/m 5,2 km/h (1 Bft) W 270 0 min 0,000 mm 0,0 UV-I 0 W/m 15,1 C 15,6 C 9,7 km/h (2 Bft) 100,00 %
28.06.2018 23:05 15,6 C 20,0 C 97 % 1013,9 hPa 0,0 l/m 5,5 km/h (1 Bft) W-NW 285 0 min 0,000 mm 0,0 UV-I 0 W/m 15,1 C 15,6 C 9,7 km/h (2 Bft) 100,00 %
28.06.2018 23:06 15,6 C 20,0 C 97 % 1013,9 hPa 0,0 l/m 6,4 km/h (2 Bft) W-SW 250 0 min 0,000 mm 0,0 UV-I 0 W/m 15,1 C 15,6 C 9,7 km/h (2 Bft) 100,00 %
28.06.2018 23:07 15,6 C 20,0 C 97 % 1013,9 hPa 0,0 l/m 4,7 km/h (1 Bft) W 281 0 min 0,000 mm 0,0 UV-I 0 W/m 15,1 C 15,6 C 6,4 km/h (2 Bft) 100,00 %
28.06.2018 23:08 15,6 C 20,0 C 97 % 1013,9 hPa 0,0 l/m 5,2 km/h (1 Bft) W 263 0 min 0,000 mm 0,0 UV-I 0 W/m 15,1 C 15,6 C 6,4 km/h (2 Bft) 100,00 %
28.06.2018 23:09 15,6 C 20,0 C 97 % 1013,9 hPa 0,0 l/m 5,4 km/h (1 Bft) W 261 0 min 0,000 mm 0,0 UV-I 0 W/m 15,1 C 15,6 C 11,3 km/h (2 Bft) 95,65 %
28.06.2018 23:10 15,6 C 20,0 C 97 % 1013,9 hPa 0,0 l/m 6,8 km/h (2 Bft) W 279 0 min 0,000 mm 0,0 UV-I 0 W/m 15,1 C 15,4 C 9,7 km/h (2 Bft) 100,00 %
28.06.2018 23:11 15,6 C 20,0 C 97 % 1013,9 hPa 0,0 l/m 7,9 km/h (2 Bft) W-SW 252 0 min 0,000 mm 0,0 UV-I 0 W/m 15,1 C 14,8 C 9,7 km/h (2 Bft) 95,65 %
28.06.2018 23:12 15,6 C 20,0 C 97 % 1013,9 hPa 0,0 l/m 6,4 km/h (2 Bft) W-SW 252 0 min 0,000 mm 0,0 UV-I 0 W/m 15,1 C 15,6 C 9,7 km/h (2 Bft) 95,83 %
28.06.2018 23:13 15,6 C 20,0 C 97 % 1013,9 hPa 0,0 l/m 6,9 km/h (2 Bft) W-SW 257 0 min 0,000 mm 0,0 UV-I 0 W/m 15,1 C 15,3 C 11,3 km/h (2 Bft) 100,00 %
28.06.2018 23:14 15,6 C 20,0 C 97 % 1013,9 hPa 0,0 l/m 6,0 km/h (2 Bft) W-SW 250 0 min 0,000 mm 0,0 UV-I 0 W/m 15,1 C 15,6 C 9,7 km/h (2 Bft) 95,83 %
28.06.2018 23:15 15,6 C 20,0 C 97 % 1014,0 hPa 0,0 l/m 5,7 km/h (1 Bft) W-NW 288 0 min 0,000 mm 0,0 UV-I 0 W/m 15,1 C 15,6 C 9,7 km/h (2 Bft) 100,00 %
28.06.2018 23:16 15,6 C 20,0 C 97 % 1013,9 hPa 0,0 l/m 5,2 km/h (1 Bft) W-SW 252 0 min 0,000 mm 0,0 UV-I 0 W/m 15,1 C 15,6 C 6,4 km/h (2 Bft) 95,83 %
28.06.2018 23:18 15,5 C 20,0 C 97 % 1013,9 hPa 0,0 l/m 7,7 km/h (2 Bft) W 267 0 min 0,000 mm 0,0 UV-I 0 W/m 15,0 C 14,8 C 12,9 km/h (3 Bft) 95,74 %
28.06.2018 23:19 15,5 C 20,0 C 97 % 1013,9 hPa 0,0 l/m 9,4 km/h (2 Bft) W 279 0 min 0,000 mm 0,0 UV-I 0 W/m 15,0 C 13,9 C 11,3 km/h (2 Bft) 100,00 %
28.06.2018 23:20 15,5 C 20,0 C 97 % 1013,9 hPa 0,0 l/m 8,2 km/h (2 Bft) SW 229 0 min 0,000 mm 0,0 UV-I 0 W/m 15,0 C 14,5 C 11,3 km/h (2 Bft) 95,65 %
28.06.2018 23:21 15,6 C 20,0 C 97 % 1013,9 hPa 0,0 l/m 8,7 km/h (2 Bft) W 261 0 min 0,000 mm 0,0 UV-I 0 W/m 15,1 C 14,4 C 12,9 km/h (3 Bft) 95,83 %
28.06.2018 23:23 15,5 C 20,0 C 97 % 1013,9 hPa 0,0 l/m 8,4 km/h (2 Bft) W-SW 256 0 min 0,000 mm 0,0 UV-I 0 W/m 15,0 C 14,4 C 14,5 km/h (3 Bft) 95,74 %
28.06.2018 23:24 15,5 C 20,0 C 97 % 1013,9 hPa 0,0 l/m 9,4 km/h (2 Bft) W 263 0 min 0,000 mm 0,0 UV-I 0 W/m 15,0 C 13,9 C 11,3 km/h (2 Bft) 100,00 %
28.06.2018 23:25 15,5 C 20,0 C 97 % 1013,9 hPa 0,0 l/m 9,6 km/h (2 Bft) W 259 0 min 0,000 mm 0,0 UV-I 0 W/m 15,0 C 13,8 C 14,5 km/h (3 Bft) 95,83 %
28.06.2018 23:26 15,5 C 20,0 C 97 % 1013,9 hPa 0,0 l/m 9,7 km/h (2 Bft) W-SW 256 0 min 0,000 mm 0,0 UV-I 0 W/m 15,0 C 13,8 C 16,1 km/h (3 Bft) 95,65 %
28.06.2018 23:27 15,5 C 20,0 C 97 % 1013,8 hPa 0,0 l/m 10,5 km/h (2 Bft) W-SW 251 0 min 0,000 mm 0,0 UV-I 0 W/m 15,0 C 13,5 C 14,5 km/h (3 Bft) 95,83 %
28.06.2018 23:28 15,5 C 20,0 C 97 % 1013,8 hPa 0,0 l/m 10,5 km/h (2 Bft) W-SW 244 0 min 0,000 mm 0,0 UV-I 0 W/m 15,0 C 13,5 C 12,9 km/h (3 Bft) 95,65 %
28.06.2018 23:29 15,5 C 20,0 C 97 % 1013,7 hPa 0,0 l/m 9,9 km/h (2 Bft) SW 235 0 min 0,000 mm 0,0 UV-I 0 W/m 15,0 C 13,7 C 12,9 km/h (3 Bft) 100,00 %
28.06.2018 23:30 15,5 C 20,0 C 97 % 1013,7 hPa 0,0 l/m 9,7 km/h (2 Bft) W-SW 242 0 min 0,000 mm 0,0 UV-I 0 W/m 15,0 C 13,8 C 14,5 km/h (3 Bft) 95,65 %
28.06.2018 23:31 15,4 C 20,0 C 97 % 1013,7 hPa 0,0 l/m 8,0 km/h (2 Bft) W 277 0 min 0,000 mm 0,0 UV-I 0 W/m 14,9 C 14,5 C 11,3 km/h (2 Bft) 100,00 %
28.06.2018 23:32 15,5 C 20,0 C 97 % 1013,7 hPa 0,0 l/m 8,8 km/h (2 Bft) W 277 0 min 0,000 mm 0,0 UV-I 0 W/m 15,0 C 14,2 C 12,9 km/h (3 Bft) 95,65 %
28.06.2018 23:33 15,4 C 20,0 C 97 % 1013,7 hPa 0,0 l/m 8,7 km/h (2 Bft) W 269 0 min 0,000 mm 0,0 UV-I 0 W/m 14,9 C 14,2 C 12,9 km/h (3 Bft) 100,00 %
28.06.2018 23:34 15,4 C 20,0 C 97 % 1013,7 hPa 0,0 l/m 7,8 km/h (2 Bft) W 259 0 min 0,000 mm 0,0 UV-I 0 W/m 14,9 C 14,6 C 12,9 km/h (3 Bft) 100,00 %
28.06.2018 23:35 15,4 C 20,0 C 97 % 1013,7 hPa 0,0 l/m 6,5 km/h (2 Bft) W-SW 254 0 min 0,000 mm 0,0 UV-I 0 W/m 14,9 C 15,4 C 12,9 km/h (3 Bft) 100,00 %
28.06.2018 23:36 15,4 C 20,0 C 97 % 1013,7 hPa 0,0 l/m 6,6 km/h (2 Bft) W 275 0 min 0,000 mm 0,0 UV-I 0 W/m 14,9 C 15,3 C 11,3 km/h (2 Bft) 95,83 %
28.06.2018 23:37 15,4 C 20,0 C 97 % 1013,7 hPa 0,0 l/m 6,0 km/h (2 Bft) W-NW 294 0 min 0,000 mm 0,0 UV-I 0 W/m 14,9 C 15,4 C 11,3 km/h (2 Bft) 95,65 %
28.06.2018 23:38 15,4 C 20,0 C 97 % 1013,8 hPa 0,0 l/m 3,2 km/h (1 Bft) W 275 0 min 0,000 mm 0,0 UV-I 0 W/m 14,9 C 15,4 C 4,8 km/h (1 Bft) 100,00 %
28.06.2018 23:39 15,4 C 20,0 C 97 % 1013,8 hPa 0,0 l/m 5,1 km/h (1 Bft) W 267 0 min 0,000 mm 0,0 UV-I 0 W/m 14,9 C 15,4 C 11,3 km/h (2 Bft) 95,65 %
28.06.2018 23:40 15,4 C 20,0 C 97 % 1013,8 hPa 0,0 l/m 5,8 km/h (2 Bft) W-NW 284 0 min 0,000 mm 0,0 UV-I 0 W/m 14,9 C 15,4 C 9,7 km/h (2 Bft) 100,00 %
28.06.2018 23:41 15,4 C 20,0 C 97 % 1013,8 hPa 0,0 l/m 5,9 km/h (2 Bft) W-SW 256 0 min 0,000 mm 0,0 UV-I 0 W/m 14,9 C 15,4 C 11,3 km/h (2 Bft) 95,65 %
28.06.2018 23:42 15,4 C 20,0 C 97 % 1013,9 hPa 0,0 l/m 6,9 km/h (2 Bft) W-SW 256 0 min 0,000 mm 0,0 UV-I 0 W/m 14,9 C 15,1 C 9,7 km/h (2 Bft) 100,00 %
28.06.2018 23:43 15,4 C 20,0 C 97 % 1013,8 hPa 0,0 l/m 9,2 km/h (2 Bft) W-SW 251 0 min 0,000 mm 0,0 UV-I 0 W/m 14,9 C 13,9 C 12,9 km/h (3 Bft) 95,65 %
28.06.2018 23:44 15,4 C 20,0 C 97 % 1013,8 hPa 0,0 l/m 7,4 km/h (2 Bft) W 260 0 min 0,000 mm 0,0 UV-I 0 W/m 14,9 C 14,8 C 12,9 km/h (3 Bft) 100,00 %
28.06.2018 23:45 15,4 C 20,0 C 97 % 1013,8 hPa 0,0 l/m 6,5 km/h (2 Bft) W-SW 258 0 min 0,000 mm 0,0 UV-I 0 W/m 14,9 C 15,4 C 9,7 km/h (2 Bft) 100,00 %
28.06.2018 23:46 15,4 C 20,0 C 97 % 1013,8 hPa 0,0 l/m 5,0 km/h (1 Bft) W-SW 241 0 min 0,000 mm 0,0 UV-I 0 W/m 14,9 C 15,4 C 6,4 km/h (2 Bft) 100,00 %
28.06.2018 23:47 15,4 C 20,0 C 97 % 1013,8 hPa 0,0 l/m 6,2 km/h (2 Bft) W 279 0 min 0,000 mm 0,0 UV-I 0 W/m 14,9 C 15,4 C 11,3 km/h (2 Bft) 95,65 %
28.06.2018 23:48 15,4 C 20,0 C 97 % 1013,8 hPa 0,0 l/m 9,7 km/h (2 Bft) W 273 0 min 0,000 mm 0,0 UV-I 0 W/m 14,9 C 13,7 C 12,9 km/h (3 Bft) 100,00 %
28.06.2018 23:49 15,4 C 20,0 C 97 % 1013,9 hPa 0,0 l/m 6,8 km/h (2 Bft) W 269 0 min 0,000 mm 0,0 UV-I 0 W/m 14,9 C 15,2 C 9,7 km/h (2 Bft) 100,00 %
28.06.2018 23:50 15,4 C 20,0 C 97 % 1013,8 hPa 0,0 l/m 5,6 km/h (1 Bft) NW 304 0 min 0,000 mm 0,0 UV-I 0 W/m 14,9 C 15,4 C 11,3 km/h (2 Bft) 100,00 %
28.06.2018 23:51 15,4 C 20,0 C 97 % 1013,8 hPa 0,0 l/m 8,2 km/h (2 Bft) W-SW 258 0 min 0,000 mm 0,0 UV-I 0 W/m 14,9 C 14,4 C 14,5 km/h (3 Bft) 100,00 %
28.06.2018 23:52 15,4 C 20,0 C 97 % 1013,8 hPa 0,0 l/m 9,1 km/h (2 Bft) W-SW 258 0 min 0,000 mm 0,0 UV-I 0 W/m 14,9 C 14,0 C 14,5 km/h (3 Bft) 100,00 %
28.06.2018 23:53 15,4 C 20,0 C 97 % 1013,8 hPa 0,0 l/m 9,7 km/h (2 Bft) W 279 0 min 0,000 mm 0,0 UV-I 0 W/m 14,9 C 13,7 C 14,5 km/h (3 Bft) 100,00 %
28.06.2018 23:54 15,4 C 20,0 C 97 % 1013,8 hPa 0,0 l/m 5,9 km/h (2 Bft) W-SW 242 0 min 0,000 mm 0,0 UV-I 0 W/m 14,9 C 15,4 C 9,7 km/h (2 Bft) 100,00 %
28.06.2018 23:55 15,4 C 20,0 C 97 % 1013,8 hPa 0,0 l/m 7,8 km/h (2 Bft) W 265 0 min 0,000 mm 0,0 UV-I 0 W/m 14,9 C 14,6 C 12,9 km/h (3 Bft) 95,83 %
28.06.2018 23:56 15,4 C 20,0 C 97 % 1013,9 hPa 0,0 l/m 6,9 km/h (2 Bft) W-SW 254 0 min 0,000 mm 0,0 UV-I 0 W/m 14,9 C 15,1 C 9,7 km/h (2 Bft) 100,00 %
28.06.2018 23:57 15,4 C 20,0 C 97 % 1013,8 hPa 0,0 l/m 9,2 km/h (2 Bft) W-SW 248 0 min 0,000 mm 0,0 UV-I 0 W/m 14,9 C 13,9 C 12,9 km/h (3 Bft) 100,00 %
28.06.2018 23:58 15,4 C 20,0 C 97 % 1013,8 hPa 0,0 l/m 7,2 km/h (2 Bft) W 265 0 min 0,000 mm 0,0 UV-I 0 W/m 14,9 C 15,0 C 11,3 km/h (2 Bft) 95,65 %
28.06.2018 23:59 15,4 C 20,0 C 97 % 1013,8 hPa 0,0 l/m 12,7 km/h (3 Bft) W 275 0 min 0,000 mm 0,0 UV-I 0 W/m 14,9 C 12,5 C 16,1 km/h (3 Bft) 100,00 %
_ Min-Zeit 05:34 12:05 00:00 16:09 - 20:46 - - - - - - 05:51 10:08 20:46 00:02
Minimum _ 13,0 C 20,0 C 95 % 1012,5 hPa - 0,0 km/h (0 Bft) - - - - - - 12,5 C 7,4 C 0,0 km/h (0 Bft) 5,26 %
_ Max-Zeit 18:28 00:00 03:00 00:00 00:00 10:08 - - 00:00 11:00 14:16 16:10 18:15 18:15 10:49 00:00
Maximum _ 16,5 C 21,7 C 97 % 1019,1 hPa 0,2 l/m 21,4 km/h
W (4 Bft)
- - 0 min 0,051 mm 1,0 UV-I 152 W/m 15,8 C 16,4 C 32,2 km/h
W-SW (5 Bft)
100,00 %
Durchschnitt _ 14,4 C 20,5 C 97 % 1014,5 hPa #29,6 l/m 7,5 km/h (2 Bft) W - #0 min. #0,533 mm 0,7 UV-I 61 W/m 13,9 C 13,3 C 11,4 km/h (2 Bft) 97,73 %